﻿<?xml version="1.0" encoding="utf-8"?><gpx creator="Garmin Desktop App" version="1.1" xsi:schemaLocation="http://www.topografix.com/GPX/1/1 http://www.topografix.com/GPX/1/1/gpx.xsd http://www.garmin.com/xmlschemas/WaypointExtension/v1 http://www8.garmin.com/xmlschemas/WaypointExtensionv1.xsd http://www.garmin.com/xmlschemas/TrackPointExtension/v1 http://www.garmin.com/xmlschemas/TrackPointExtensionv1.xsd http://www.garmin.com/xmlschemas/GpxExtensions/v3 http://www8.garmin.com/xmlschemas/GpxExtensionsv3.xsd http://www.garmin.com/xmlschemas/ActivityExtension/v1 http://www8.garmin.com/xmlschemas/ActivityExtensionv1.xsd http://www.garmin.com/xmlschemas/AdventuresExtensions/v1 http://www8.garmin.com/xmlschemas/AdventuresExtensionv1.xsd http://www.garmin.com/xmlschemas/PressureExtension/v1 http://www.garmin.com/xmlschemas/PressureExtensionv1.xsd http://www.garmin.com/xmlschemas/TripExtensions/v1 http://www.garmin.com/xmlschemas/TripExtensionsv1.xsd http://www.garmin.com/xmlschemas/TripMetaDataExtensions/v1 http://www.garmin.com/xmlschemas/TripMetaDataExtensionsv1.xsd http://www.garmin.com/xmlschemas/ViaPointTransportationModeExtensions/v1 http://www.garmin.com/xmlschemas/ViaPointTransportationModeExtensionsv1.xsd http://www.garmin.com/xmlschemas/CreationTimeExtension/v1 http://www.garmin.com/xmlschemas/CreationTimeExtensionsv1.xsd http://www.garmin.com/xmlschemas/AccelerationExtension/v1 http://www.garmin.com/xmlschemas/AccelerationExtensionv1.xsd http://www.garmin.com/xmlschemas/PowerExtension/v1 http://www.garmin.com/xmlschemas/PowerExtensionv1.xsd http://www.garmin.com/xmlschemas/VideoExtension/v1 http://www.garmin.com/xmlschemas/VideoExtensionv1.xsd" xmlns="http://www.topografix.com/GPX/1/1" xmlns:xsi="http://www.w3.org/2001/XMLSchema-instance" xmlns:wptx1="http://www.garmin.com/xmlschemas/WaypointExtension/v1" xmlns:gpxtrx="http://www.garmin.com/xmlschemas/GpxExtensions/v3" xmlns:gpxtpx="http://www.garmin.com/xmlschemas/TrackPointExtension/v1" xmlns:gpxx="http://www.garmin.com/xmlschemas/GpxExtensions/v3" xmlns:trp="http://www.garmin.com/xmlschemas/TripExtensions/v1" xmlns:adv="http://www.garmin.com/xmlschemas/AdventuresExtensions/v1" xmlns:prs="http://www.garmin.com/xmlschemas/PressureExtension/v1" xmlns:tmd="http://www.garmin.com/xmlschemas/TripMetaDataExtensions/v1" xmlns:vptm="http://www.garmin.com/xmlschemas/ViaPointTransportationModeExtensions/v1" xmlns:ctx="http://www.garmin.com/xmlschemas/CreationTimeExtension/v1" xmlns:gpxacc="http://www.garmin.com/xmlschemas/AccelerationExtension/v1" xmlns:gpxpx="http://www.garmin.com/xmlschemas/PowerExtension/v1" xmlns:vidx1="http://www.garmin.com/xmlschemas/VideoExtension/v1">

  <metadata>
    <link href="http://www.garmin.com">
      <text>Garmin International</text>
    </link>
    <time>2019-09-05T17:10:26Z</time>
    <bounds maxlat="57.636958966031671" maxlon="-5.799258006736636" minlat="57.059564022347331" minlon="-6.590269021689892" />
  </metadata>

  <trk>
    <name>Track vom: 2019-09-05 09:59</name>
    <extensions>
      <gpxx:TrackExtension>
        <gpxx:DisplayColor>DarkGray</gpxx:DisplayColor>
      </gpxx:TrackExtension>
    </extensions>
    <trkseg>
      <trkpt lat="57.059564022347331" lon="-5.906007997691631">
        <ele>-19.09</ele>
        <time>2019-09-05T08:59:50Z</time>
      </trkpt>
      <trkpt lat="57.05992897041142" lon="-5.905782021582127">
        <ele>16.48</ele>
        <time>2019-09-05T09:00:30Z</time>
      </trkpt>
      <trkpt lat="57.059936011210084" lon="-5.905935997143388">
        <ele>14.56</ele>
        <time>2019-09-05T09:01:08Z</time>
      </trkpt>
      <trkpt lat="57.059927964583039" lon="-5.905932979658246">
        <ele>13.6</ele>
        <time>2019-09-05T09:01:48Z</time>
      </trkpt>
      <trkpt lat="57.059930982068181" lon="-5.905955024063587">
        <ele>13.6</ele>
        <time>2019-09-05T09:02:18Z</time>
      </trkpt>
      <trkpt lat="57.059816988185048" lon="-5.90611101128161">
        <ele>13.6</ele>
        <time>2019-09-05T09:02:27Z</time>
      </trkpt>
      <trkpt lat="57.059663012623787" lon="-5.905838012695313">
        <ele>13.119999999999999</ele>
        <time>2019-09-05T09:02:35Z</time>
      </trkpt>
      <trkpt lat="57.059686984866858" lon="-5.905796019360423">
        <ele>13.119999999999999</ele>
        <time>2019-09-05T09:02:36Z</time>
      </trkpt>
      <trkpt lat="57.05971498042345" lon="-5.905744973570108">
        <ele>12.630000000000001</ele>
        <time>2019-09-05T09:02:37Z</time>
      </trkpt>
      <trkpt lat="57.060009017586708" lon="-5.905223032459617">
        <ele>11.19</ele>
        <time>2019-09-05T09:02:44Z</time>
      </trkpt>
      <trkpt lat="57.060052016749978" lon="-5.90514600276947">
        <ele>11.19</ele>
        <time>2019-09-05T09:02:45Z</time>
      </trkpt>
      <trkpt lat="57.060460969805717" lon="-5.904439995065332">
        <ele>10.23</ele>
        <time>2019-09-05T09:02:52Z</time>
      </trkpt>
      <trkpt lat="57.06053196452558" lon="-5.904369000345469">
        <ele>9.75</ele>
        <time>2019-09-05T09:02:53Z</time>
      </trkpt>
      <trkpt lat="57.06068099476397" lon="-5.904263975098729">
        <ele>9.27</ele>
        <time>2019-09-05T09:02:55Z</time>
      </trkpt>
      <trkpt lat="57.06145104020834" lon="-5.903959041461349">
        <ele>8.310000000000001</ele>
        <time>2019-09-05T09:03:05Z</time>
      </trkpt>
      <trkpt lat="57.062038024887443" lon="-5.90361999347806">
        <ele>8.789999999999999</ele>
        <time>2019-09-05T09:03:11Z</time>
      </trkpt>
      <trkpt lat="57.062125029042363" lon="-5.903561990708113">
        <ele>9.27</ele>
        <time>2019-09-05T09:03:12Z</time>
      </trkpt>
      <trkpt lat="57.062514033168554" lon="-5.903303995728493">
        <ele>10.710000000000001</ele>
        <time>2019-09-05T09:03:17Z</time>
      </trkpt>
      <trkpt lat="57.062598019838333" lon="-5.903249010443687">
        <ele>11.19</ele>
        <time>2019-09-05T09:03:18Z</time>
      </trkpt>
      <trkpt lat="57.06340997479856" lon="-5.902709970250726">
        <ele>14.08</ele>
        <time>2019-09-05T09:03:26Z</time>
      </trkpt>
      <trkpt lat="57.06373100169003" lon="-5.902472008019686">
        <ele>14.08</ele>
        <time>2019-09-05T09:03:29Z</time>
      </trkpt>
      <trkpt lat="57.064256966114044" lon="-5.901773041114211">
        <ele>10.710000000000001</ele>
        <time>2019-09-05T09:03:35Z</time>
      </trkpt>
      <trkpt lat="57.064684024080634" lon="-5.901374984532595">
        <ele>8.789999999999999</ele>
        <time>2019-09-05T09:03:42Z</time>
      </trkpt>
      <trkpt lat="57.064715037122369" lon="-5.901260990649462">
        <ele>8.310000000000001</ele>
        <time>2019-09-05T09:03:43Z</time>
      </trkpt>
      <trkpt lat="57.064739009365439" lon="-5.90117197483778">
        <ele>8.310000000000001</ele>
        <time>2019-09-05T09:03:44Z</time>
      </trkpt>
      <trkpt lat="57.064759964123368" lon="-5.901096034795046">
        <ele>8.310000000000001</ele>
        <time>2019-09-05T09:03:45Z</time>
      </trkpt>
      <trkpt lat="57.064775973558426" lon="-5.901037026196718">
        <ele>8.310000000000001</ele>
        <time>2019-09-05T09:03:46Z</time>
      </trkpt>
      <trkpt lat="57.064903965219855" lon="-5.900967959314585">
        <ele>8.310000000000001</ele>
        <time>2019-09-05T09:03:47Z</time>
      </trkpt>
      <trkpt lat="57.064962973818183" lon="-5.901010036468506">
        <ele>8.310000000000001</ele>
        <time>2019-09-05T09:03:48Z</time>
      </trkpt>
      <trkpt lat="57.065070010721684" lon="-5.901010036468506">
        <ele>8.310000000000001</ele>
        <time>2019-09-05T09:03:49Z</time>
      </trkpt>
      <trkpt lat="57.065208982676268" lon="-5.900880033150315">
        <ele>9.75</ele>
        <time>2019-09-05T09:03:51Z</time>
      </trkpt>
      <trkpt lat="57.066227970644832" lon="-5.899907983839512">
        <ele>16</ele>
        <time>2019-09-05T09:04:01Z</time>
      </trkpt>
      <trkpt lat="57.067544013261795" lon="-5.898509966209531">
        <ele>18.879999999999999</ele>
        <time>2019-09-05T09:04:12Z</time>
      </trkpt>
      <trkpt lat="57.068585967645049" lon="-5.897689964622259">
        <ele>16.960000000000001</ele>
        <time>2019-09-05T09:04:19Z</time>
      </trkpt>
      <trkpt lat="57.068839017301798" lon="-5.89751604013145">
        <ele>16.48</ele>
        <time>2019-09-05T09:04:21Z</time>
      </trkpt>
      <trkpt lat="57.068958962336183" lon="-5.89743297547102">
        <ele>16.48</ele>
        <time>2019-09-05T09:04:22Z</time>
      </trkpt>
      <trkpt lat="57.069074967876077" lon="-5.897334991022945">
        <ele>16</ele>
        <time>2019-09-05T09:04:23Z</time>
      </trkpt>
      <trkpt lat="57.069160966202617" lon="-5.897160982713103">
        <ele>16</ele>
        <time>2019-09-05T09:04:24Z</time>
      </trkpt>
      <trkpt lat="57.069247970357537" lon="-5.896983034908772">
        <ele>16</ele>
        <time>2019-09-05T09:04:25Z</time>
      </trkpt>
      <trkpt lat="57.069335980340838" lon="-5.896806009113789">
        <ele>16</ele>
        <time>2019-09-05T09:04:26Z</time>
      </trkpt>
      <trkpt lat="57.07008901052177" lon="-5.895256027579308">
        <ele>13.119999999999999</ele>
        <time>2019-09-05T09:04:36Z</time>
      </trkpt>
      <trkpt lat="57.070678006857634" lon="-5.894473996013403">
        <ele>11.19</ele>
        <time>2019-09-05T09:04:42Z</time>
      </trkpt>
      <trkpt lat="57.070788983255625" lon="-5.894354972988367">
        <ele>10.710000000000001</ele>
        <time>2019-09-05T09:04:43Z</time>
      </trkpt>
      <trkpt lat="57.071583000943065" lon="-5.893816016614437">
        <ele>7.35</ele>
        <time>2019-09-05T09:04:49Z</time>
      </trkpt>
      <trkpt lat="57.07170101813972" lon="-5.893668998032808">
        <ele>7.35</ele>
        <time>2019-09-05T09:04:50Z</time>
      </trkpt>
      <trkpt lat="57.071807971224189" lon="-5.893488032743335">
        <ele>6.87</ele>
        <time>2019-09-05T09:04:51Z</time>
      </trkpt>
      <trkpt lat="57.071883995085955" lon="-5.893274964764714">
        <ele>6.39</ele>
        <time>2019-09-05T09:04:52Z</time>
      </trkpt>
      <trkpt lat="57.071943003684282" lon="-5.893029039725661">
        <ele>6.39</ele>
        <time>2019-09-05T09:04:53Z</time>
      </trkpt>
      <trkpt lat="57.072003018110991" lon="-5.892775990068913">
        <ele>6.39</ele>
        <time>2019-09-05T09:04:54Z</time>
      </trkpt>
      <trkpt lat="57.072064038366079" lon="-5.892522018402815">
        <ele>6.39</ele>
        <time>2019-09-05T09:04:55Z</time>
      </trkpt>
      <trkpt lat="57.072596959769726" lon="-5.890844967216253">
        <ele>7.35</ele>
        <time>2019-09-05T09:05:02Z</time>
      </trkpt>
      <trkpt lat="57.072703996673226" lon="-5.890699960291386">
        <ele>7.35</ele>
        <time>2019-09-05T09:05:03Z</time>
      </trkpt>
      <trkpt lat="57.072813967242837" lon="-5.890568029135466">
        <ele>7.35</ele>
        <time>2019-09-05T09:05:04Z</time>
      </trkpt>
      <trkpt lat="57.072937013581395" lon="-5.89046903885901">
        <ele>7.35</ele>
        <time>2019-09-05T09:05:05Z</time>
      </trkpt>
      <trkpt lat="57.073073973879218" lon="-5.890370970591903">
        <ele>7.83</ele>
        <time>2019-09-05T09:05:06Z</time>
      </trkpt>
      <trkpt lat="57.074208967387676" lon="-5.889609977602959">
        <ele>6.87</ele>
        <time>2019-09-05T09:05:13Z</time>
      </trkpt>
      <trkpt lat="57.074541980400681" lon="-5.889415014535189">
        <ele>6.39</ele>
        <time>2019-09-05T09:05:15Z</time>
      </trkpt>
      <trkpt lat="57.07470903173089" lon="-5.889317030087113">
        <ele>6.39</ele>
        <time>2019-09-05T09:05:16Z</time>
      </trkpt>
      <trkpt lat="57.074856972321868" lon="-5.889152996242046">
        <ele>6.39</ele>
        <time>2019-09-05T09:05:17Z</time>
      </trkpt>
      <trkpt lat="57.074996028095484" lon="-5.888973958790302">
        <ele>6.39</ele>
        <time>2019-09-05T09:05:18Z</time>
      </trkpt>
      <trkpt lat="57.075128965079784" lon="-5.888801962137222">
        <ele>6.87</ele>
        <time>2019-09-05T09:05:19Z</time>
      </trkpt>
      <trkpt lat="57.075258968397975" lon="-5.888633988797665">
        <ele>6.87</ele>
        <time>2019-09-05T09:05:20Z</time>
      </trkpt>
      <trkpt lat="57.075400035828352" lon="-5.888501973822713">
        <ele>6.87</ele>
        <time>2019-09-05T09:05:21Z</time>
      </trkpt>
      <trkpt lat="57.075544958934188" lon="-5.888368031010032">
        <ele>6.87</ele>
        <time>2019-09-05T09:05:22Z</time>
      </trkpt>
      <trkpt lat="57.075699018314481" lon="-5.888266023248434">
        <ele>6.87</ele>
        <time>2019-09-05T09:05:23Z</time>
      </trkpt>
      <trkpt lat="57.075858023017645" lon="-5.888167032971978">
        <ele>7.35</ele>
        <time>2019-09-05T09:05:24Z</time>
      </trkpt>
      <trkpt lat="57.07668598741293" lon="-5.887524979189038">
        <ele>6.39</ele>
        <time>2019-09-05T09:05:29Z</time>
      </trkpt>
      <trkpt lat="57.076862007379532" lon="-5.887417020276189">
        <ele>6.39</ele>
        <time>2019-09-05T09:05:30Z</time>
      </trkpt>
      <trkpt lat="57.077726013958454" lon="-5.886908993124962">
        <ele>6.39</ele>
        <time>2019-09-05T09:05:36Z</time>
      </trkpt>
      <trkpt lat="57.077852999791503" lon="-5.886849984526634">
        <ele>5.91</ele>
        <time>2019-09-05T09:05:37Z</time>
      </trkpt>
      <trkpt lat="57.077986020594835" lon="-5.886832969263196">
        <ele>6.39</ele>
        <time>2019-09-05T09:05:38Z</time>
      </trkpt>
      <trkpt lat="57.078119041398168" lon="-5.886845039203763">
        <ele>6.39</ele>
        <time>2019-09-05T09:05:39Z</time>
      </trkpt>
      <trkpt lat="57.078248960897326" lon="-5.886893989518285">
        <ele>6.39</ele>
        <time>2019-09-05T09:05:40Z</time>
      </trkpt>
      <trkpt lat="57.078379970043898" lon="-5.886960960924625">
        <ele>6.39</ele>
        <time>2019-09-05T09:05:41Z</time>
      </trkpt>
      <trkpt lat="57.078511985018849" lon="-5.887029021978378">
        <ele>6.39</ele>
        <time>2019-09-05T09:05:42Z</time>
      </trkpt>
      <trkpt lat="57.079592999070883" lon="-5.887402016669512">
        <ele>6.87</ele>
        <time>2019-09-05T09:05:49Z</time>
      </trkpt>
      <trkpt lat="57.079772958531976" lon="-5.887444010004401">
        <ele>6.87</ele>
        <time>2019-09-05T09:05:50Z</time>
      </trkpt>
      <trkpt lat="57.079950990155339" lon="-5.887483991682529">
        <ele>7.35</ele>
        <time>2019-09-05T09:05:51Z</time>
      </trkpt>
      <trkpt lat="57.080118041485548" lon="-5.887605026364327">
        <ele>6.87</ele>
        <time>2019-09-05T09:05:52Z</time>
      </trkpt>
      <trkpt lat="57.080279979854822" lon="-5.88774299249053">
        <ele>6.87</ele>
        <time>2019-09-05T09:05:53Z</time>
      </trkpt>
      <trkpt lat="57.080443007871509" lon="-5.887880958616734">
        <ele>7.35</ele>
        <time>2019-09-05T09:05:54Z</time>
      </trkpt>
      <trkpt lat="57.081233002245426" lon="-5.8884940110147">
        <ele>7.35</ele>
        <time>2019-09-05T09:05:59Z</time>
      </trkpt>
      <trkpt lat="57.081388989463449" lon="-5.888522006571293">
        <ele>7.83</ele>
        <time>2019-09-05T09:06:00Z</time>
      </trkpt>
      <trkpt lat="57.081554029136896" lon="-5.888522006571293">
        <ele>8.310000000000001</ele>
        <time>2019-09-05T09:06:01Z</time>
      </trkpt>
      <trkpt lat="57.08171496167779" lon="-5.888483030721545">
        <ele>8.310000000000001</ele>
        <time>2019-09-05T09:06:02Z</time>
      </trkpt>
      <trkpt lat="57.081875978037715" lon="-5.88836501352489">
        <ele>9.27</ele>
        <time>2019-09-05T09:06:03Z</time>
      </trkpt>
      <trkpt lat="57.08203699439764" lon="-5.888188993558288">
        <ele>9.75</ele>
        <time>2019-09-05T09:06:04Z</time>
      </trkpt>
      <trkpt lat="57.082726992666721" lon="-5.887433029711247">
        <ele>13.119999999999999</ele>
        <time>2019-09-05T09:06:08Z</time>
      </trkpt>
      <trkpt lat="57.082898989319801" lon="-5.887243011966348">
        <ele>14.56</ele>
        <time>2019-09-05T09:06:09Z</time>
      </trkpt>
      <trkpt lat="57.084189970046282" lon="-5.885811969637871">
        <ele>22.73</ele>
        <time>2019-09-05T09:06:17Z</time>
      </trkpt>
      <trkpt lat="57.084682993590832" lon="-5.885260021314025">
        <ele>25.129999999999999</ele>
        <time>2019-09-05T09:06:20Z</time>
      </trkpt>
      <trkpt lat="57.084952974691987" lon="-5.884822988882661">
        <ele>26.09</ele>
        <time>2019-09-05T09:06:22Z</time>
      </trkpt>
      <trkpt lat="57.085178028792143" lon="-5.884267017245293">
        <ele>26.57</ele>
        <time>2019-09-05T09:06:24Z</time>
      </trkpt>
      <trkpt lat="57.085257992148399" lon="-5.883946996182203">
        <ele>26.57</ele>
        <time>2019-09-05T09:06:25Z</time>
      </trkpt>
      <trkpt lat="57.085311971604824" lon="-5.883603002876043">
        <ele>26.57</ele>
        <time>2019-09-05T09:06:26Z</time>
      </trkpt>
      <trkpt lat="57.085367040708661" lon="-5.883255992084742">
        <ele>27.050000000000001</ele>
        <time>2019-09-05T09:06:27Z</time>
      </trkpt>
      <trkpt lat="57.085422025993466" lon="-5.882905963808298">
        <ele>27.050000000000001</ele>
        <time>2019-09-05T09:06:28Z</time>
      </trkpt>
      <trkpt lat="57.085723020136356" lon="-5.87972997687757">
        <ele>34.259999999999998</ele>
        <time>2019-09-05T09:06:37Z</time>
      </trkpt>
      <trkpt lat="57.085900967940688" lon="-5.878391973674297">
        <ele>35.710000000000001</ele>
        <time>2019-09-05T09:06:41Z</time>
      </trkpt>
      <trkpt lat="57.085988977923989" lon="-5.878101037815213">
        <ele>35.710000000000001</ele>
        <time>2019-09-05T09:06:42Z</time>
      </trkpt>
      <trkpt lat="57.086098026484251" lon="-5.877810018137097">
        <ele>35.710000000000001</ele>
        <time>2019-09-05T09:06:43Z</time>
      </trkpt>
      <trkpt lat="57.086210008710623" lon="-5.877512041479349">
        <ele>35.229999999999997</ele>
        <time>2019-09-05T09:06:44Z</time>
      </trkpt>
      <trkpt lat="57.086317967623472" lon="-5.877224039286375">
        <ele>34.740000000000002</ele>
        <time>2019-09-05T09:06:45Z</time>
      </trkpt>
      <trkpt lat="57.087107039988041" lon="-5.875389995053411">
        <ele>33.780000000000001</ele>
        <time>2019-09-05T09:06:52Z</time>
      </trkpt>
      <trkpt lat="57.088114963844419" lon="-5.874007986858487">
        <ele>28.98</ele>
        <time>2019-09-05T09:06:59Z</time>
      </trkpt>
      <trkpt lat="57.089837025851011" lon="-5.87216597981751">
        <ele>21.289999999999999</ele>
        <time>2019-09-05T09:07:09Z</time>
      </trkpt>
      <trkpt lat="57.091174023225904" lon="-5.870836023241282">
        <ele>18.879999999999999</ele>
        <time>2019-09-05T09:07:19Z</time>
      </trkpt>
      <trkpt lat="57.092685028910637" lon="-5.869617965072393">
        <ele>20.809999999999999</ele>
        <time>2019-09-05T09:07:29Z</time>
      </trkpt>
      <trkpt lat="57.093734024092555" lon="-5.868898965418339">
        <ele>25.609999999999999</ele>
        <time>2019-09-05T09:07:38Z</time>
      </trkpt>
      <trkpt lat="57.094458974897861" lon="-5.868269987404347">
        <ele>29.460000000000001</ele>
        <time>2019-09-05T09:07:44Z</time>
      </trkpt>
      <trkpt lat="57.094579003751278" lon="-5.868109976872802">
        <ele>30.420000000000002</ele>
        <time>2019-09-05T09:07:45Z</time>
      </trkpt>
      <trkpt lat="57.094700960442424" lon="-5.867948038503528">
        <ele>31.379999999999999</ele>
        <time>2019-09-05T09:07:46Z</time>
      </trkpt>
      <trkpt lat="57.09481998346746" lon="-5.867788027971983">
        <ele>32.340000000000003</ele>
        <time>2019-09-05T09:07:47Z</time>
      </trkpt>
      <trkpt lat="57.094964990392327" lon="-5.867693983018398">
        <ele>33.780000000000001</ele>
        <time>2019-09-05T09:07:48Z</time>
      </trkpt>
      <trkpt lat="57.095106979832053" lon="-5.867611002177">
        <ele>34.740000000000002</ele>
        <time>2019-09-05T09:07:49Z</time>
      </trkpt>
      <trkpt lat="57.095257015898824" lon="-5.867562973871827">
        <ele>36.189999999999998</ele>
        <time>2019-09-05T09:07:50Z</time>
      </trkpt>
      <trkpt lat="57.095408979803324" lon="-5.867577977478504">
        <ele>37.630000000000003</ele>
        <time>2019-09-05T09:07:51Z</time>
      </trkpt>
      <trkpt lat="57.095566978678107" lon="-5.867592981085181">
        <ele>39.07</ele>
        <time>2019-09-05T09:07:52Z</time>
      </trkpt>
      <trkpt lat="57.096359990537167" lon="-5.867714015766978">
        <ele>43.880000000000003</ele>
        <time>2019-09-05T09:07:57Z</time>
      </trkpt>
      <trkpt lat="57.097533037886024" lon="-5.867232978343964">
        <ele>43.399999999999999</ele>
        <time>2019-09-05T09:08:04Z</time>
      </trkpt>
      <trkpt lat="57.09819202311337" lon="-5.866700978949666">
        <ele>41.469999999999999</ele>
        <time>2019-09-05T09:08:08Z</time>
      </trkpt>
      <trkpt lat="57.098337030038238" lon="-5.866519007831812">
        <ele>41.469999999999999</ele>
        <time>2019-09-05T09:08:09Z</time>
      </trkpt>
      <trkpt lat="57.09847298450768" lon="-5.86632002145052">
        <ele>40.990000000000002</ele>
        <time>2019-09-05T09:08:10Z</time>
      </trkpt>
      <trkpt lat="57.099707974120975" lon="-5.864695021882653">
        <ele>36.670000000000002</ele>
        <time>2019-09-05T09:08:19Z</time>
      </trkpt>
      <trkpt lat="57.101215962320566" lon="-5.862785959616303">
        <ele>32.340000000000003</ele>
        <time>2019-09-05T09:08:29Z</time>
      </trkpt>
      <trkpt lat="57.101656012237072" lon="-5.862322021275759">
        <ele>32.340000000000003</ele>
        <time>2019-09-05T09:08:32Z</time>
      </trkpt>
      <trkpt lat="57.10180101916194" lon="-5.862222025170922">
        <ele>31.859999999999999</ele>
        <time>2019-09-05T09:08:33Z</time>
      </trkpt>
      <trkpt lat="57.102970965206623" lon="-5.861160038039088">
        <ele>29.940000000000001</ele>
        <time>2019-09-05T09:08:41Z</time>
      </trkpt>
      <trkpt lat="57.103616958484054" lon="-5.860187988728285">
        <ele>28.98</ele>
        <time>2019-09-05T09:08:46Z</time>
      </trkpt>
      <trkpt lat="57.103700023144484" lon="-5.859950026497245">
        <ele>28.5</ele>
        <time>2019-09-05T09:08:47Z</time>
      </trkpt>
      <trkpt lat="57.103760037571192" lon="-5.859689014032483">
        <ele>28.5</ele>
        <time>2019-09-05T09:08:48Z</time>
      </trkpt>
      <trkpt lat="57.103957012295723" lon="-5.85893296636641">
        <ele>29.940000000000001</ele>
        <time>2019-09-05T09:08:51Z</time>
      </trkpt>
      <trkpt lat="57.104049967601895" lon="-5.858725011348724">
        <ele>30.420000000000002</ele>
        <time>2019-09-05T09:08:52Z</time>
      </trkpt>
      <trkpt lat="57.104155998677015" lon="-5.858563994988799">
        <ele>30.899999999999999</ele>
        <time>2019-09-05T09:08:53Z</time>
      </trkpt>
      <trkpt lat="57.104277033358812" lon="-5.85845997557044">
        <ele>31.379999999999999</ele>
        <time>2019-09-05T09:08:54Z</time>
      </trkpt>
      <trkpt lat="57.104397984221578" lon="-5.858356961980462">
        <ele>31.379999999999999</ele>
        <time>2019-09-05T09:08:55Z</time>
      </trkpt>
      <trkpt lat="57.104521030560136" lon="-5.858253026381135">
        <ele>31.379999999999999</ele>
        <time>2019-09-05T09:08:56Z</time>
      </trkpt>
      <trkpt lat="57.10551998578012" lon="-5.857858993113041">
        <ele>27.530000000000001</ele>
        <time>2019-09-05T09:09:03Z</time>
      </trkpt>
      <trkpt lat="57.105685025453568" lon="-5.857809036970139">
        <ele>27.050000000000001</ele>
        <time>2019-09-05T09:09:04Z</time>
      </trkpt>
      <trkpt lat="57.105848975479603" lon="-5.857714992016554">
        <ele>26.09</ele>
        <time>2019-09-05T09:09:05Z</time>
      </trkpt>
      <trkpt lat="57.106968965381384" lon="-5.856820978224278">
        <ele>24.649999999999999</ele>
        <time>2019-09-05T09:09:13Z</time>
      </trkpt>
      <trkpt lat="57.107706991955638" lon="-5.85615998134017">
        <ele>23.690000000000001</ele>
        <time>2019-09-05T09:09:19Z</time>
      </trkpt>
      <trkpt lat="57.107845963910222" lon="-5.856135003268719">
        <ele>23.690000000000001</ele>
        <time>2019-09-05T09:09:20Z</time>
      </trkpt>
      <trkpt lat="57.107988959178329" lon="-5.856110025197268">
        <ele>23.210000000000001</ele>
        <time>2019-09-05T09:09:21Z</time>
      </trkpt>
      <trkpt lat="57.108137989416718" lon="-5.856127962470055">
        <ele>22.73</ele>
        <time>2019-09-05T09:09:22Z</time>
      </trkpt>
      <trkpt lat="57.10828903131187" lon="-5.856184037402272">
        <ele>22.73</ele>
        <time>2019-09-05T09:09:23Z</time>
      </trkpt>
      <trkpt lat="57.10844099521637" lon="-5.856253020465374">
        <ele>22.25</ele>
        <time>2019-09-05T09:09:24Z</time>
      </trkpt>
      <trkpt lat="57.108994033187628" lon="-5.856485031545162">
        <ele>21.289999999999999</ele>
        <time>2019-09-05T09:09:28Z</time>
      </trkpt>
      <trkpt lat="57.109126970171928" lon="-5.856485031545162">
        <ele>21.289999999999999</ele>
        <time>2019-09-05T09:09:29Z</time>
      </trkpt>
      <trkpt lat="57.109256973490119" lon="-5.856446977704763">
        <ele>20.809999999999999</ele>
        <time>2019-09-05T09:09:30Z</time>
      </trkpt>
      <trkpt lat="57.109381025657058" lon="-5.856347987428308">
        <ele>20.809999999999999</ele>
        <time>2019-09-05T09:09:31Z</time>
      </trkpt>
      <trkpt lat="57.109507005661726" lon="-5.856246985495091">
        <ele>20.809999999999999</ele>
        <time>2019-09-05T09:09:32Z</time>
      </trkpt>
      <trkpt lat="57.109618987888098" lon="-5.856088986620307">
        <ele>20.809999999999999</ele>
        <time>2019-09-05T09:09:33Z</time>
      </trkpt>
      <trkpt lat="57.109727030619979" lon="-5.855917995795608">
        <ele>20.809999999999999</ele>
        <time>2019-09-05T09:09:34Z</time>
      </trkpt>
      <trkpt lat="57.109833983704448" lon="-5.85575002245605">
        <ele>21.289999999999999</ele>
        <time>2019-09-05T09:09:35Z</time>
      </trkpt>
      <trkpt lat="57.110542003065348" lon="-5.854775961488485">
        <ele>20.32</ele>
        <time>2019-09-05T09:09:41Z</time>
      </trkpt>
      <trkpt lat="57.110698996111751" lon="-5.854680994525552">
        <ele>19.359999999999999</ele>
        <time>2019-09-05T09:09:42Z</time>
      </trkpt>
      <trkpt lat="57.111909007653594" lon="-5.853800978511572">
        <ele>14.56</ele>
        <time>2019-09-05T09:09:50Z</time>
      </trkpt>
      <trkpt lat="57.112742001190782" lon="-5.852916017174721">
        <ele>14.56</ele>
        <time>2019-09-05T09:09:56Z</time>
      </trkpt>
      <trkpt lat="57.11286798119545" lon="-5.852749971672893">
        <ele>14.56</ele>
        <time>2019-09-05T09:09:57Z</time>
      </trkpt>
      <trkpt lat="57.112964959815145" lon="-5.852531036362052">
        <ele>15.039999999999999</ele>
        <time>2019-09-05T09:09:58Z</time>
      </trkpt>
      <trkpt lat="57.113894009962678" lon="-5.85018502548337">
        <ele>23.690000000000001</ele>
        <time>2019-09-05T09:10:08Z</time>
      </trkpt>
      <trkpt lat="57.114872010424733" lon="-5.848491964861751">
        <ele>24.649999999999999</ele>
        <time>2019-09-05T09:10:16Z</time>
      </trkpt>
      <trkpt lat="57.116202972829342" lon="-5.847021024674177">
        <ele>29.940000000000001</ele>
        <time>2019-09-05T09:10:25Z</time>
      </trkpt>
      <trkpt lat="57.117441985756159" lon="-5.84670796059072">
        <ele>33.299999999999997</ele>
        <time>2019-09-05T09:10:32Z</time>
      </trkpt>
      <trkpt lat="57.118900017812848" lon="-5.846385005861521">
        <ele>37.149999999999999</ele>
        <time>2019-09-05T09:10:40Z</time>
      </trkpt>
      <trkpt lat="57.11907603777945" lon="-5.84636296145618">
        <ele>37.630000000000003</ele>
        <time>2019-09-05T09:10:41Z</time>
      </trkpt>
      <trkpt lat="57.119254991412163" lon="-5.846379976719618">
        <ele>38.590000000000003</ele>
        <time>2019-09-05T09:10:42Z</time>
      </trkpt>
      <trkpt lat="57.121256003156304" lon="-5.847053965553641">
        <ele>52.049999999999997</ele>
        <time>2019-09-05T09:10:53Z</time>
      </trkpt>
      <trkpt lat="57.122826017439365" lon="-5.846939971670508">
        <ele>61.18</ele>
        <time>2019-09-05T09:11:01Z</time>
      </trkpt>
      <trkpt lat="57.124426038935781" lon="-5.84627796895802">
        <ele>65.030000000000001</ele>
        <time>2019-09-05T09:11:09Z</time>
      </trkpt>
      <trkpt lat="57.124589988961816" lon="-5.846152994781733">
        <ele>65.510000000000005</ele>
        <time>2019-09-05T09:11:10Z</time>
      </trkpt>
      <trkpt lat="57.124757040292025" lon="-5.84601704031229">
        <ele>65.989999999999995</ele>
        <time>2019-09-05T09:11:11Z</time>
      </trkpt>
      <trkpt lat="57.124901041388512" lon="-5.845811013132334">
        <ele>66.469999999999999</ele>
        <time>2019-09-05T09:11:12Z</time>
      </trkpt>
      <trkpt lat="57.125032972544432" lon="-5.845569027587771">
        <ele>66.950000000000003</ele>
        <time>2019-09-05T09:11:13Z</time>
      </trkpt>
      <trkpt lat="57.125145038589835" lon="-5.84528798237443">
        <ele>67.430000000000007</ele>
        <time>2019-09-05T09:11:14Z</time>
      </trkpt>
      <trkpt lat="57.125259032472968" lon="-5.844999980181456">
        <ele>67.909999999999997</ele>
        <time>2019-09-05T09:11:15Z</time>
      </trkpt>
      <trkpt lat="57.125494983047247" lon="-5.844435961917043">
        <ele>69.349999999999994</ele>
        <time>2019-09-05T09:11:17Z</time>
      </trkpt>
      <trkpt lat="57.125626998022199" lon="-5.844202022999525">
        <ele>69.829999999999998</ele>
        <time>2019-09-05T09:11:18Z</time>
      </trkpt>
      <trkpt lat="57.125765969976783" lon="-5.843987027183175">
        <ele>70.310000000000002</ele>
        <time>2019-09-05T09:11:19Z</time>
      </trkpt>
      <trkpt lat="57.125927992165089" lon="-5.843837996944785">
        <ele>71.269999999999996</ele>
        <time>2019-09-05T09:11:20Z</time>
      </trkpt>
      <trkpt lat="57.126105017960072" lon="-5.843742024153471">
        <ele>71.760000000000005</ele>
        <time>2019-09-05T09:11:21Z</time>
      </trkpt>
      <trkpt lat="57.126291012391448" lon="-5.84367698058486">
        <ele>72.719999999999999</ele>
        <time>2019-09-05T09:11:22Z</time>
      </trkpt>
      <trkpt lat="57.126482035964727" lon="-5.8436110150069">
        <ele>73.680000000000007</ele>
        <time>2019-09-05T09:11:23Z</time>
      </trkpt>
      <trkpt lat="57.127093998715281" lon="-5.843430971726775">
        <ele>76.079999999999998</ele>
        <time>2019-09-05T09:11:26Z</time>
      </trkpt>
      <trkpt lat="57.127300025895238" lon="-5.843286970630288">
        <ele>76.560000000000002</ele>
        <time>2019-09-05T09:11:27Z</time>
      </trkpt>
      <trkpt lat="57.128675999119878" lon="-5.842214003205299">
        <ele>82.810000000000002</ele>
        <time>2019-09-05T09:11:34Z</time>
      </trkpt>
      <trkpt lat="57.130300998687744" lon="-5.840629991143942">
        <ele>85.689999999999998</ele>
        <time>2019-09-05T09:11:45Z</time>
      </trkpt>
      <trkpt lat="57.132304022088647" lon="-5.838436027988792">
        <ele>79.450000000000003</ele>
        <time>2019-09-05T09:11:57Z</time>
      </trkpt>
      <trkpt lat="57.134510977193713" lon="-5.835821041837335">
        <ele>65.989999999999995</ele>
        <time>2019-09-05T09:12:10Z</time>
      </trkpt>
      <trkpt lat="57.137158988043666" lon="-5.832532988861203">
        <ele>56.859999999999999</ele>
        <time>2019-09-05T09:12:24Z</time>
      </trkpt>
      <trkpt lat="57.139468034729362" lon="-5.829039998352528">
        <ele>50.130000000000003</ele>
        <time>2019-09-05T09:12:37Z</time>
      </trkpt>
      <trkpt lat="57.140427008271217" lon="-5.82636097446084">
        <ele>45.32</ele>
        <time>2019-09-05T09:12:45Z</time>
      </trkpt>
      <trkpt lat="57.141381958499551" lon="-5.823854031041265">
        <ele>42.439999999999998</ele>
        <time>2019-09-05T09:12:54Z</time>
      </trkpt>
      <trkpt lat="57.142678974196315" lon="-5.82150299102068">
        <ele>37.149999999999999</ele>
        <time>2019-09-05T09:13:04Z</time>
      </trkpt>
      <trkpt lat="57.144009014591575" lon="-5.818230025470257">
        <ele>32.340000000000003</ele>
        <time>2019-09-05T09:13:15Z</time>
      </trkpt>
      <trkpt lat="57.144876038655639" lon="-5.815457040444017">
        <ele>30.420000000000002</ele>
        <time>2019-09-05T09:13:24Z</time>
      </trkpt>
      <trkpt lat="57.145068990066648" lon="-5.812901984900236">
        <ele>30.420000000000002</ele>
        <time>2019-09-05T09:13:32Z</time>
      </trkpt>
      <trkpt lat="57.145105032250285" lon="-5.812004031613469">
        <ele>29.940000000000001</ele>
        <time>2019-09-05T09:13:35Z</time>
      </trkpt>
      <trkpt lat="57.145153982564807" lon="-5.81172700971365">
        <ele>29.940000000000001</ele>
        <time>2019-09-05T09:13:36Z</time>
      </trkpt>
      <trkpt lat="57.145213996991515" lon="-5.811450993642211">
        <ele>29.460000000000001</ele>
        <time>2019-09-05T09:13:37Z</time>
      </trkpt>
      <trkpt lat="57.145860996097326" lon="-5.809184024110436">
        <ele>24.649999999999999</ele>
        <time>2019-09-05T09:13:46Z</time>
      </trkpt>
      <trkpt lat="57.146842014044523" lon="-5.806824015453458">
        <ele>16.48</ele>
        <time>2019-09-05T09:13:56Z</time>
      </trkpt>
      <trkpt lat="57.147304024547338" lon="-5.805953973904252">
        <ele>13.119999999999999</ele>
        <time>2019-09-05T09:14:00Z</time>
      </trkpt>
      <trkpt lat="57.14743796736002" lon="-5.805764039978385">
        <ele>12.630000000000001</ele>
        <time>2019-09-05T09:14:01Z</time>
      </trkpt>
      <trkpt lat="57.147577023133636" lon="-5.805595982819796">
        <ele>12.15</ele>
        <time>2019-09-05T09:14:02Z</time>
      </trkpt>
      <trkpt lat="57.147723035886884" lon="-5.805484000593424">
        <ele>12.15</ele>
        <time>2019-09-05T09:14:03Z</time>
      </trkpt>
      <trkpt lat="57.147862007841468" lon="-5.805392973124981">
        <ele>12.630000000000001</ele>
        <time>2019-09-05T09:14:04Z</time>
      </trkpt>
      <trkpt lat="57.147997040301561" lon="-5.805330025032163">
        <ele>12.630000000000001</ele>
        <time>2019-09-05T09:14:05Z</time>
      </trkpt>
      <trkpt lat="57.148128971457481" lon="-5.805269004777074">
        <ele>12.630000000000001</ele>
        <time>2019-09-05T09:14:06Z</time>
      </trkpt>
      <trkpt lat="57.149247033521533" lon="-5.804751003161073">
        <ele>16.48</ele>
        <time>2019-09-05T09:14:14Z</time>
      </trkpt>
      <trkpt lat="57.149394974112511" lon="-5.804615970700979">
        <ele>16.960000000000001</ele>
        <time>2019-09-05T09:14:15Z</time>
      </trkpt>
      <trkpt lat="57.149538975208998" lon="-5.804455960169435">
        <ele>17.440000000000001</ele>
        <time>2019-09-05T09:14:16Z</time>
      </trkpt>
      <trkpt lat="57.149698985740542" lon="-5.804279018193483">
        <ele>17.920000000000002</ele>
        <time>2019-09-05T09:14:17Z</time>
      </trkpt>
      <trkpt lat="57.149819014593959" lon="-5.804049018770456">
        <ele>18.399999999999999</ele>
        <time>2019-09-05T09:14:18Z</time>
      </trkpt>
      <trkpt lat="57.149943988770247" lon="-5.803808039054275">
        <ele>18.879999999999999</ele>
        <time>2019-09-05T09:14:19Z</time>
      </trkpt>
      <trkpt lat="57.150063011795282" lon="-5.803546020761132">
        <ele>19.84</ele>
        <time>2019-09-05T09:14:20Z</time>
      </trkpt>
      <trkpt lat="57.15063801035285" lon="-5.802326034754515">
        <ele>24.170000000000002</ele>
        <time>2019-09-05T09:14:25Z</time>
      </trkpt>
      <trkpt lat="57.150782011449337" lon="-5.802157977595925">
        <ele>25.129999999999999</ele>
        <time>2019-09-05T09:14:26Z</time>
      </trkpt>
      <trkpt lat="57.150932969525456" lon="-5.80201699398458">
        <ele>25.609999999999999</ele>
        <time>2019-09-05T09:14:27Z</time>
      </trkpt>
      <trkpt lat="57.151093985885382" lon="-5.801910040900111">
        <ele>25.609999999999999</ele>
        <time>2019-09-05T09:14:28Z</time>
      </trkpt>
      <trkpt lat="57.151264976710081" lon="-5.801840974017978">
        <ele>25.609999999999999</ele>
        <time>2019-09-05T09:14:29Z</time>
      </trkpt>
      <trkpt lat="57.153939977288246" lon="-5.800773035734892">
        <ele>23.210000000000001</ele>
        <time>2019-09-05T09:14:44Z</time>
      </trkpt>
      <trkpt lat="57.154469965025783" lon="-5.800600033253431">
        <ele>24.170000000000002</ele>
        <time>2019-09-05T09:14:47Z</time>
      </trkpt>
      <trkpt lat="57.154647996649146" lon="-5.800601039081812">
        <ele>24.649999999999999</ele>
        <time>2019-09-05T09:14:48Z</time>
      </trkpt>
      <trkpt lat="57.154825022444129" lon="-5.800665998831391">
        <ele>24.649999999999999</ele>
        <time>2019-09-05T09:14:49Z</time>
      </trkpt>
      <trkpt lat="57.15500196442008" lon="-5.800731964409351">
        <ele>25.129999999999999</ele>
        <time>2019-09-05T09:14:50Z</time>
      </trkpt>
      <trkpt lat="57.15519298799336" lon="-5.800802959129214">
        <ele>26.09</ele>
        <time>2019-09-05T09:14:51Z</time>
      </trkpt>
      <trkpt lat="57.155345035716891" lon="-5.80096397548914">
        <ele>26.09</ele>
        <time>2019-09-05T09:14:52Z</time>
      </trkpt>
      <trkpt lat="57.155504962429404" lon="-5.801133960485458">
        <ele>26.57</ele>
        <time>2019-09-05T09:14:53Z</time>
      </trkpt>
      <trkpt lat="57.155810985714197" lon="-5.801459010690451">
        <ele>26.09</ele>
        <time>2019-09-05T09:14:55Z</time>
      </trkpt>
      <trkpt lat="57.155965967103839" lon="-5.801595970988274">
        <ele>25.609999999999999</ele>
        <time>2019-09-05T09:14:56Z</time>
      </trkpt>
      <trkpt lat="57.156133018434048" lon="-5.801705019548535">
        <ele>25.129999999999999</ele>
        <time>2019-09-05T09:14:57Z</time>
      </trkpt>
      <trkpt lat="57.156301997601986" lon="-5.801814990118146">
        <ele>24.649999999999999</ele>
        <time>2019-09-05T09:14:58Z</time>
      </trkpt>
      <trkpt lat="57.156475000083447" lon="-5.80188799649477">
        <ele>23.690000000000001</ele>
        <time>2019-09-05T09:14:59Z</time>
      </trkpt>
      <trkpt lat="57.15665596537292" lon="-5.801916997879744">
        <ele>23.210000000000001</ele>
        <time>2019-09-05T09:15:00Z</time>
      </trkpt>
      <trkpt lat="57.156835002824664" lon="-5.80193099565804">
        <ele>23.210000000000001</ele>
        <time>2019-09-05T09:15:01Z</time>
      </trkpt>
      <trkpt lat="57.157011022791266" lon="-5.801882967352867">
        <ele>23.210000000000001</ele>
        <time>2019-09-05T09:15:02Z</time>
      </trkpt>
      <trkpt lat="57.157172039151192" lon="-5.801812978461385">
        <ele>23.210000000000001</ele>
        <time>2019-09-05T09:15:03Z</time>
      </trkpt>
      <trkpt lat="57.157318973913789" lon="-5.801746007055044">
        <ele>23.210000000000001</ele>
        <time>2019-09-05T09:15:04Z</time>
      </trkpt>
      <trkpt lat="57.158613977953792" lon="-5.800997000187635">
        <ele>24.170000000000002</ele>
        <time>2019-09-05T09:15:13Z</time>
      </trkpt>
      <trkpt lat="57.15874096378684" lon="-5.800876971334219">
        <ele>24.170000000000002</ele>
        <time>2019-09-05T09:15:14Z</time>
      </trkpt>
      <trkpt lat="57.158857975155115" lon="-5.800736993551254">
        <ele>24.170000000000002</ele>
        <time>2019-09-05T09:15:15Z</time>
      </trkpt>
      <trkpt lat="57.158963000401855" lon="-5.800562985241413">
        <ele>24.170000000000002</ele>
        <time>2019-09-05T09:15:16Z</time>
      </trkpt>
      <trkpt lat="57.159066013991833" lon="-5.800391994416714">
        <ele>24.170000000000002</ele>
        <time>2019-09-05T09:15:17Z</time>
      </trkpt>
      <trkpt lat="57.159546967595816" lon="-5.799649022519589">
        <ele>23.210000000000001</ele>
        <time>2019-09-05T09:15:22Z</time>
      </trkpt>
      <trkpt lat="57.159646963700652" lon="-5.799522958695889">
        <ele>22.73</ele>
        <time>2019-09-05T09:15:23Z</time>
      </trkpt>
      <trkpt lat="57.159745031967759" lon="-5.79941600561142">
        <ele>22.25</ele>
        <time>2019-09-05T09:15:24Z</time>
      </trkpt>
      <trkpt lat="57.159867994487286" lon="-5.799350962042809">
        <ele>21.289999999999999</ele>
        <time>2019-09-05T09:15:25Z</time>
      </trkpt>
      <trkpt lat="57.159996991977096" lon="-5.799281978979707">
        <ele>20.809999999999999</ele>
        <time>2019-09-05T09:15:26Z</time>
      </trkpt>
      <trkpt lat="57.160130012780428" lon="-5.799258006736636">
        <ele>19.84</ele>
        <time>2019-09-05T09:15:27Z</time>
      </trkpt>
      <trkpt lat="57.160269990563393" lon="-5.799258006736636">
        <ele>18.399999999999999</ele>
        <time>2019-09-05T09:15:28Z</time>
      </trkpt>
      <trkpt lat="57.160548018291593" lon="-5.799404019489884">
        <ele>16</ele>
        <time>2019-09-05T09:15:30Z</time>
      </trkpt>
      <trkpt lat="57.161977970972657" lon="-5.800289986655116">
        <ele>8.789999999999999</ele>
        <time>2019-09-05T09:15:40Z</time>
      </trkpt>
      <trkpt lat="57.163428040221334" lon="-5.800729030743241">
        <ele>8.310000000000001</ele>
        <time>2019-09-05T09:15:49Z</time>
      </trkpt>
      <trkpt lat="57.164850030094385" lon="-5.801599994301796">
        <ele>4.94</ele>
        <time>2019-09-05T09:15:57Z</time>
      </trkpt>
      <trkpt lat="57.166435969993472" lon="-5.802755020558834">
        <ele>3.02</ele>
        <time>2019-09-05T09:16:06Z</time>
      </trkpt>
      <trkpt lat="57.167752012610435" lon="-5.803633024916053">
        <ele>6.87</ele>
        <time>2019-09-05T09:16:14Z</time>
      </trkpt>
      <trkpt lat="57.167900037020445" lon="-5.803813990205526">
        <ele>6.87</ele>
        <time>2019-09-05T09:16:15Z</time>
      </trkpt>
      <trkpt lat="57.168519962579012" lon="-5.804554028436542">
        <ele>4.94</ele>
        <time>2019-09-05T09:16:19Z</time>
      </trkpt>
      <trkpt lat="57.168688019737601" lon="-5.804700963199139">
        <ele>4.46</ele>
        <time>2019-09-05T09:16:20Z</time>
      </trkpt>
      <trkpt lat="57.168860016390681" lon="-5.804829960688949">
        <ele>4.46</ele>
        <time>2019-09-05T09:16:21Z</time>
      </trkpt>
      <trkpt lat="57.16905003413558" lon="-5.804899027571082">
        <ele>4.46</ele>
        <time>2019-09-05T09:16:22Z</time>
      </trkpt>
      <trkpt lat="57.169246003031731" lon="-5.804970022290945">
        <ele>4.46</ele>
        <time>2019-09-05T09:16:23Z</time>
      </trkpt>
      <trkpt lat="57.170779975131154" lon="-5.805894965305924">
        <ele>9.27</ele>
        <time>2019-09-05T09:16:31Z</time>
      </trkpt>
      <trkpt lat="57.173331007361412" lon="-5.808524033054709">
        <ele>8.789999999999999</ele>
        <time>2019-09-05T09:16:45Z</time>
      </trkpt>
      <trkpt lat="57.176325023174286" lon="-5.811640005558729">
        <ele>16.48</ele>
        <time>2019-09-05T09:17:02Z</time>
      </trkpt>
      <trkpt lat="57.178997006267309" lon="-5.814419025555253">
        <ele>20.32</ele>
        <time>2019-09-05T09:17:17Z</time>
      </trkpt>
      <trkpt lat="57.182029997929931" lon="-5.817718980833888">
        <ele>19.84</ele>
        <time>2019-09-05T09:17:34Z</time>
      </trkpt>
      <trkpt lat="57.184315994381905" lon="-5.820246962830424">
        <ele>17.920000000000002</ele>
        <time>2019-09-05T09:17:47Z</time>
      </trkpt>
      <trkpt lat="57.185712000355124" lon="-5.820915000513196">
        <ele>16</ele>
        <time>2019-09-05T09:17:54Z</time>
      </trkpt>
      <trkpt lat="57.18591601587832" lon="-5.820884993299842">
        <ele>16</ele>
        <time>2019-09-05T09:17:55Z</time>
      </trkpt>
      <trkpt lat="57.186115002259612" lon="-5.820811986923218">
        <ele>16</ele>
        <time>2019-09-05T09:17:56Z</time>
      </trkpt>
      <trkpt lat="57.186313988640904" lon="-5.820739986374974">
        <ele>15.52</ele>
        <time>2019-09-05T09:17:57Z</time>
      </trkpt>
      <trkpt lat="57.186511969193816" lon="-5.82066304050386">
        <ele>15.52</ele>
        <time>2019-09-05T09:17:58Z</time>
      </trkpt>
      <trkpt lat="57.186698969453573" lon="-5.820520967245102">
        <ele>16</ele>
        <time>2019-09-05T09:17:59Z</time>
      </trkpt>
      <trkpt lat="57.186888987198472" lon="-5.820375960320234">
        <ele>16</ele>
        <time>2019-09-05T09:18:00Z</time>
      </trkpt>
      <trkpt lat="57.18819203786552" lon="-5.818766970187426">
        <ele>18.879999999999999</ele>
        <time>2019-09-05T09:18:08Z</time>
      </trkpt>
      <trkpt lat="57.190542994067073" lon="-5.815614033490419">
        <ele>25.609999999999999</ele>
        <time>2019-09-05T09:18:22Z</time>
      </trkpt>
      <trkpt lat="57.191929025575519" lon="-5.814471999183297">
        <ele>31.379999999999999</ele>
        <time>2019-09-05T09:18:29Z</time>
      </trkpt>
      <trkpt lat="57.193163009360433" lon="-5.814173016697168">
        <ele>36.670000000000002</ele>
        <time>2019-09-05T09:18:35Z</time>
      </trkpt>
      <trkpt lat="57.194818016141653" lon="-5.814407961443067">
        <ele>44.840000000000003</ele>
        <time>2019-09-05T09:18:44Z</time>
      </trkpt>
      <trkpt lat="57.197741959244013" lon="-5.815103994682431">
        <ele>61.659999999999997</ele>
        <time>2019-09-05T09:18:59Z</time>
      </trkpt>
      <trkpt lat="57.200287040323019" lon="-5.81587596796453">
        <ele>73.200000000000003</ele>
        <time>2019-09-05T09:19:12Z</time>
      </trkpt>
      <trkpt lat="57.202151007950306" lon="-5.816953964531422">
        <ele>73.680000000000007</ele>
        <time>2019-09-05T09:19:23Z</time>
      </trkpt>
      <trkpt lat="57.20338499173522" lon="-5.818699998781085">
        <ele>71.269999999999996</ele>
        <time>2019-09-05T09:19:31Z</time>
      </trkpt>
      <trkpt lat="57.205201014876366" lon="-5.822164993733168">
        <ele>68.870000000000005</ele>
        <time>2019-09-05T09:19:44Z</time>
      </trkpt>
      <trkpt lat="57.207387015223503" lon="-5.826129969209433">
        <ele>63.579999999999998</ele>
        <time>2019-09-05T09:19:58Z</time>
      </trkpt>
      <trkpt lat="57.209927989169955" lon="-5.830387976020575">
        <ele>58.299999999999997</ele>
        <time>2019-09-05T09:20:13Z</time>
      </trkpt>
      <trkpt lat="57.211702018976212" lon="-5.833074040710926">
        <ele>55.409999999999997</ele>
        <time>2019-09-05T09:20:23Z</time>
      </trkpt>
      <trkpt lat="57.213898999616504" lon="-5.836444990709424">
        <ele>56.859999999999999</ele>
        <time>2019-09-05T09:20:36Z</time>
      </trkpt>
      <trkpt lat="57.215870004147291" lon="-5.839226022362709">
        <ele>59.259999999999998</ele>
        <time>2019-09-05T09:20:48Z</time>
      </trkpt>
      <trkpt lat="57.218563025817275" lon="-5.841905968263745">
        <ele>62.619999999999997</ele>
        <time>2019-09-05T09:21:02Z</time>
      </trkpt>
      <trkpt lat="57.221734989434481" lon="-5.845260992646217">
        <ele>64.069999999999993</ele>
        <time>2019-09-05T09:21:19Z</time>
      </trkpt>
      <trkpt lat="57.224602019414306" lon="-5.848730010911822">
        <ele>62.140000000000001</ele>
        <time>2019-09-05T09:21:36Z</time>
      </trkpt>
      <trkpt lat="57.227135030552745" lon="-5.852067014202476">
        <ele>57.82</ele>
        <time>2019-09-05T09:21:51Z</time>
      </trkpt>
      <trkpt lat="57.229278031736612" lon="-5.855254987254739">
        <ele>49.649999999999999</ele>
        <time>2019-09-05T09:22:04Z</time>
      </trkpt>
      <trkpt lat="57.230163998901844" lon="-5.857335962355137">
        <ele>41.950000000000003</ele>
        <time>2019-09-05T09:22:12Z</time>
      </trkpt>
      <trkpt lat="57.230745032429695" lon="-5.859536966308951">
        <ele>33.299999999999997</ele>
        <time>2019-09-05T09:22:20Z</time>
      </trkpt>
      <trkpt lat="57.23137803375721" lon="-5.861762026324868">
        <ele>27.530000000000001</ele>
        <time>2019-09-05T09:22:29Z</time>
      </trkpt>
      <trkpt lat="57.231569979339838" lon="-5.862270975485444">
        <ele>26.57</ele>
        <time>2019-09-05T09:22:31Z</time>
      </trkpt>
      <trkpt lat="57.231684979051352" lon="-5.862516984343529">
        <ele>26.09</ele>
        <time>2019-09-05T09:22:32Z</time>
      </trkpt>
      <trkpt lat="57.232708996161819" lon="-5.864901971071959">
        <ele>21.289999999999999</ele>
        <time>2019-09-05T09:22:41Z</time>
      </trkpt>
      <trkpt lat="57.233941974118352" lon="-5.867686020210385">
        <ele>17.920000000000002</ele>
        <time>2019-09-05T09:22:52Z</time>
      </trkpt>
      <trkpt lat="57.234812015667558" lon="-5.869720978662372">
        <ele>18.879999999999999</ele>
        <time>2019-09-05T09:23:01Z</time>
      </trkpt>
      <trkpt lat="57.235273020341992" lon="-5.871024029329419">
        <ele>19.359999999999999</ele>
        <time>2019-09-05T09:23:08Z</time>
      </trkpt>
      <trkpt lat="57.235706029459834" lon="-5.87225197814405">
        <ele>19.359999999999999</ele>
        <time>2019-09-05T09:23:18Z</time>
      </trkpt>
      <trkpt lat="57.235733019188046" lon="-5.872320961207151">
        <ele>19.359999999999999</ele>
        <time>2019-09-05T09:23:19Z</time>
      </trkpt>
      <trkpt lat="57.235755985602736" lon="-5.872372006997466">
        <ele>19.359999999999999</ele>
        <time>2019-09-05T09:23:20Z</time>
      </trkpt>
      <trkpt lat="57.235773000866175" lon="-5.872407965362072">
        <ele>18.879999999999999</ele>
        <time>2019-09-05T09:23:21Z</time>
      </trkpt>
      <trkpt lat="57.235786998644471" lon="-5.872437972575426">
        <ele>18.879999999999999</ele>
        <time>2019-09-05T09:23:22Z</time>
      </trkpt>
      <trkpt lat="57.235798984766006" lon="-5.872464962303639">
        <ele>18.879999999999999</ele>
        <time>2019-09-05T09:23:23Z</time>
      </trkpt>
      <trkpt lat="57.235810970887542" lon="-5.872489018365741">
        <ele>18.399999999999999</ele>
        <time>2019-09-05T09:23:24Z</time>
      </trkpt>
      <trkpt lat="57.235821029171348" lon="-5.872511984780431">
        <ele>18.399999999999999</ele>
        <time>2019-09-05T09:23:25Z</time>
      </trkpt>
      <trkpt lat="57.235821029171348" lon="-5.872511984780431">
        <ele>18.399999999999999</ele>
        <time>2019-09-05T09:23:26Z</time>
      </trkpt>
      <trkpt lat="57.235837960615754" lon="-5.872549032792449">
        <ele>17.920000000000002</ele>
        <time>2019-09-05T09:23:30Z</time>
      </trkpt>
      <trkpt lat="57.235851958394051" lon="-5.872579040005803">
        <ele>17.920000000000002</ele>
        <time>2019-09-05T09:23:31Z</time>
      </trkpt>
      <trkpt lat="57.235867967829108" lon="-5.872584991157055">
        <ele>17.920000000000002</ele>
        <time>2019-09-05T09:23:43Z</time>
      </trkpt>
      <trkpt lat="57.236010963097215" lon="-5.872698985040188">
        <ele>18.399999999999999</ele>
        <time>2019-09-05T09:23:49Z</time>
      </trkpt>
      <trkpt lat="57.236024960875511" lon="-5.872784983366728">
        <ele>18.399999999999999</ele>
        <time>2019-09-05T09:23:50Z</time>
      </trkpt>
      <trkpt lat="57.236157981678843" lon="-5.873428964987397">
        <ele>17.440000000000001</ele>
        <time>2019-09-05T09:23:56Z</time>
      </trkpt>
      <trkpt lat="57.236188994720578" lon="-5.873505994677544">
        <ele>17.440000000000001</ele>
        <time>2019-09-05T09:23:57Z</time>
      </trkpt>
      <trkpt lat="57.236332995817065" lon="-5.873861974105239">
        <ele>16</ele>
        <time>2019-09-05T09:24:01Z</time>
      </trkpt>
      <trkpt lat="57.236371971666813" lon="-5.873959036543965">
        <ele>16</ele>
        <time>2019-09-05T09:24:02Z</time>
      </trkpt>
      <trkpt lat="57.23677396774292" lon="-5.875048013404012">
        <ele>12.630000000000001</ele>
        <time>2019-09-05T09:24:12Z</time>
      </trkpt>
      <trkpt lat="57.236806992441416" lon="-5.875145997852087">
        <ele>12.15</ele>
        <time>2019-09-05T09:24:13Z</time>
      </trkpt>
      <trkpt lat="57.236844962462783" lon="-5.875327968969941">
        <ele>12.15</ele>
        <time>2019-09-05T09:24:15Z</time>
      </trkpt>
      <trkpt lat="57.236849991604686" lon="-5.875403992831707">
        <ele>12.15</ele>
        <time>2019-09-05T09:24:16Z</time>
      </trkpt>
      <trkpt lat="57.236854014918208" lon="-5.875471970066428">
        <ele>11.67</ele>
        <time>2019-09-05T09:24:17Z</time>
      </trkpt>
      <trkpt lat="57.236858960241079" lon="-5.875537013635039">
        <ele>11.67</ele>
        <time>2019-09-05T09:24:18Z</time>
      </trkpt>
      <trkpt lat="57.236862983554602" lon="-5.875600967556238">
        <ele>11.67</ele>
        <time>2019-09-05T09:24:19Z</time>
      </trkpt>
      <trkpt lat="57.236872036010027" lon="-5.875728959217668">
        <ele>12.15</ele>
        <time>2019-09-05T09:24:21Z</time>
      </trkpt>
      <trkpt lat="57.236861977726221" lon="-5.876220976933837">
        <ele>14.08</ele>
        <time>2019-09-05T09:24:26Z</time>
      </trkpt>
      <trkpt lat="57.236856026574969" lon="-5.876328013837338">
        <ele>14.56</ele>
        <time>2019-09-05T09:24:27Z</time>
      </trkpt>
      <trkpt lat="57.236778996884823" lon="-5.877612037584186">
        <ele>16</ele>
        <time>2019-09-05T09:24:37Z</time>
      </trkpt>
      <trkpt lat="57.236778996884823" lon="-5.878978036344051">
        <ele>13.6</ele>
        <time>2019-09-05T09:24:46Z</time>
      </trkpt>
      <trkpt lat="57.236804980784655" lon="-5.879136035218835">
        <ele>13.119999999999999</ele>
        <time>2019-09-05T09:24:47Z</time>
      </trkpt>
      <trkpt lat="57.236847979947925" lon="-5.879287999123335">
        <ele>13.119999999999999</ele>
        <time>2019-09-05T09:24:48Z</time>
      </trkpt>
      <trkpt lat="57.23690296523273" lon="-5.879430994391441">
        <ele>12.630000000000001</ele>
        <time>2019-09-05T09:24:49Z</time>
      </trkpt>
      <trkpt lat="57.236959962174296" lon="-5.879581030458212">
        <ele>12.630000000000001</ele>
        <time>2019-09-05T09:24:50Z</time>
      </trkpt>
      <trkpt lat="57.237016959115863" lon="-5.87972897104919">
        <ele>12.15</ele>
        <time>2019-09-05T09:24:51Z</time>
      </trkpt>
      <trkpt lat="57.237083008512855" lon="-5.879833996295929">
        <ele>11.19</ele>
        <time>2019-09-05T09:24:52Z</time>
      </trkpt>
      <trkpt lat="57.237317031249404" lon="-5.880143959075213">
        <ele>8.789999999999999</ele>
        <time>2019-09-05T09:24:59Z</time>
      </trkpt>
      <trkpt lat="57.237692959606647" lon="-5.880707977339625">
        <ele>5.91</ele>
        <time>2019-09-05T09:25:11Z</time>
      </trkpt>
      <trkpt lat="57.23797601647675" lon="-5.881236959248781">
        <ele>3.5</ele>
        <time>2019-09-05T09:25:18Z</time>
      </trkpt>
      <trkpt lat="57.238107025623322" lon="-5.88155304081738">
        <ele>3.5</ele>
        <time>2019-09-05T09:25:21Z</time>
      </trkpt>
      <trkpt lat="57.238176008686423" lon="-5.881786979734898">
        <ele>3.98</ele>
        <time>2019-09-05T09:25:23Z</time>
      </trkpt>
      <trkpt lat="57.238229988142848" lon="-5.882008010521531">
        <ele>3.98</ele>
        <time>2019-09-05T09:25:25Z</time>
      </trkpt>
      <trkpt lat="57.238247003406286" lon="-5.882103983312845">
        <ele>3.98</ele>
        <time>2019-09-05T09:25:26Z</time>
      </trkpt>
      <trkpt lat="57.23827701061964" lon="-5.882513020187616">
        <ele>4.94</ele>
        <time>2019-09-05T09:25:30Z</time>
      </trkpt>
      <trkpt lat="57.238295031711459" lon="-5.88288702070713">
        <ele>4.94</ele>
        <time>2019-09-05T09:25:34Z</time>
      </trkpt>
      <trkpt lat="57.238182965666056" lon="-5.883714985102415">
        <ele>4.46</ele>
        <time>2019-09-05T09:25:42Z</time>
      </trkpt>
      <trkpt lat="57.237986996769905" lon="-5.884536998346448">
        <ele>4.46</ele>
        <time>2019-09-05T09:25:49Z</time>
      </trkpt>
      <trkpt lat="57.237861016765237" lon="-5.885067991912365">
        <ele>4.46</ele>
        <time>2019-09-05T09:25:53Z</time>
      </trkpt>
      <trkpt lat="57.237831009551883" lon="-5.885191960260272">
        <ele>4.46</ele>
        <time>2019-09-05T09:25:54Z</time>
      </trkpt>
      <trkpt lat="57.237789016216993" lon="-5.885415002703667">
        <ele>4.94</ele>
        <time>2019-09-05T09:25:56Z</time>
      </trkpt>
      <trkpt lat="57.237735036760569" lon="-5.88580803014338">
        <ele>6.39</ele>
        <time>2019-09-05T09:26:00Z</time>
      </trkpt>
      <trkpt lat="57.237719027325511" lon="-5.885925041511655">
        <ele>6.39</ele>
        <time>2019-09-05T09:26:01Z</time>
      </trkpt>
      <trkpt lat="57.237719027325511" lon="-5.885965023189783">
        <ele>6.39</ele>
        <time>2019-09-05T09:26:02Z</time>
      </trkpt>
      <trkpt lat="57.237719027325511" lon="-5.886116987094283">
        <ele>6.87</ele>
        <time>2019-09-05T09:26:04Z</time>
      </trkpt>
      <trkpt lat="57.237719027325511" lon="-5.886186975985766">
        <ele>6.87</ele>
        <time>2019-09-05T09:26:05Z</time>
      </trkpt>
      <trkpt lat="57.237719027325511" lon="-5.886696008965373">
        <ele>7.83</ele>
        <time>2019-09-05T09:26:12Z</time>
      </trkpt>
      <trkpt lat="57.237751968204975" lon="-5.887185009196401">
        <ele>8.310000000000001</ele>
        <time>2019-09-05T09:26:18Z</time>
      </trkpt>
      <trkpt lat="57.237758003175259" lon="-5.88726899586618">
        <ele>8.310000000000001</ele>
        <time>2019-09-05T09:26:19Z</time>
      </trkpt>
      <trkpt lat="57.237764960154891" lon="-5.887353988364339">
        <ele>8.310000000000001</ele>
        <time>2019-09-05T09:26:20Z</time>
      </trkpt>
      <trkpt lat="57.237770995125175" lon="-5.887435041368008">
        <ele>8.789999999999999</ele>
        <time>2019-09-05T09:26:21Z</time>
      </trkpt>
      <trkpt lat="57.237777030095458" lon="-5.887513998895884">
        <ele>8.789999999999999</ele>
        <time>2019-09-05T09:26:22Z</time>
      </trkpt>
      <trkpt lat="57.23778298124671" lon="-5.887590022757649">
        <ele>8.789999999999999</ele>
        <time>2019-09-05T09:26:23Z</time>
      </trkpt>
      <trkpt lat="57.237822962924838" lon="-5.888104001060128">
        <ele>9.27</ele>
        <time>2019-09-05T09:26:30Z</time>
      </trkpt>
      <trkpt lat="57.237828997895122" lon="-5.888180024921894">
        <ele>8.789999999999999</ele>
        <time>2019-09-05T09:26:31Z</time>
      </trkpt>
      <trkpt lat="57.237835032865405" lon="-5.888255964964628">
        <ele>8.789999999999999</ele>
        <time>2019-09-05T09:26:32Z</time>
      </trkpt>
      <trkpt lat="57.237840984016657" lon="-5.888330982998014">
        <ele>8.789999999999999</ele>
        <time>2019-09-05T09:26:33Z</time>
      </trkpt>
      <trkpt lat="57.23784601315856" lon="-5.888400971889496">
        <ele>8.789999999999999</ele>
        <time>2019-09-05T09:26:34Z</time>
      </trkpt>
      <trkpt lat="57.237851964309812" lon="-5.888470038771629">
        <ele>8.789999999999999</ele>
        <time>2019-09-05T09:26:35Z</time>
      </trkpt>
      <trkpt lat="57.237883983179927" lon="-5.889129023998976">
        <ele>8.310000000000001</ele>
        <time>2019-09-05T09:26:45Z</time>
      </trkpt>
      <trkpt lat="57.237902004271746" lon="-5.889608971774578">
        <ele>8.310000000000001</ele>
        <time>2019-09-05T09:26:50Z</time>
      </trkpt>
      <trkpt lat="57.237937962636352" lon="-5.890650004148483">
        <ele>8.789999999999999</ele>
        <time>2019-09-05T09:27:01Z</time>
      </trkpt>
      <trkpt lat="57.237970987334847" lon="-5.891596991568804">
        <ele>8.789999999999999</ele>
        <time>2019-09-05T09:27:09Z</time>
      </trkpt>
      <trkpt lat="57.238017003983259" lon="-5.892895013093948">
        <ele>9.27</ele>
        <time>2019-09-05T09:27:20Z</time>
      </trkpt>
      <trkpt lat="57.238052040338516" lon="-5.894737020134926">
        <ele>12.15</ele>
        <time>2019-09-05T09:27:31Z</time>
      </trkpt>
      <trkpt lat="57.23808104172349" lon="-5.895163994282484">
        <ele>12.15</ele>
        <time>2019-09-05T09:27:33Z</time>
      </trkpt>
      <trkpt lat="57.238124962896109" lon="-5.895367003977299">
        <ele>12.15</ele>
        <time>2019-09-05T09:27:34Z</time>
      </trkpt>
      <trkpt lat="57.238175002858043" lon="-5.895572025328875">
        <ele>12.630000000000001</ele>
        <time>2019-09-05T09:27:35Z</time>
      </trkpt>
      <trkpt lat="57.238224959000945" lon="-5.89577897451818">
        <ele>12.630000000000001</ele>
        <time>2019-09-05T09:27:36Z</time>
      </trkpt>
      <trkpt lat="57.238281033933163" lon="-5.895980978384614">
        <ele>13.119999999999999</ele>
        <time>2019-09-05T09:27:37Z</time>
      </trkpt>
      <trkpt lat="57.238348005339503" lon="-5.896178958937526">
        <ele>13.119999999999999</ele>
        <time>2019-09-05T09:27:38Z</time>
      </trkpt>
      <trkpt lat="57.239086031913757" lon="-5.898279966786504">
        <ele>9.27</ele>
        <time>2019-09-05T09:27:49Z</time>
      </trkpt>
      <trkpt lat="57.23973898217082" lon="-5.899814022704959">
        <ele>5.91</ele>
        <time>2019-09-05T09:27:58Z</time>
      </trkpt>
      <trkpt lat="57.24025103263557" lon="-5.901311030611396">
        <ele>7.83</ele>
        <time>2019-09-05T09:28:08Z</time>
      </trkpt>
      <trkpt lat="57.240283973515034" lon="-5.901442961767316">
        <ele>7.83</ele>
        <time>2019-09-05T09:28:09Z</time>
      </trkpt>
      <trkpt lat="57.24031699821353" lon="-5.901577994227409">
        <ele>8.310000000000001</ele>
        <time>2019-09-05T09:28:10Z</time>
      </trkpt>
      <trkpt lat="57.24053299985826" lon="-5.902607962489128">
        <ele>9.75</ele>
        <time>2019-09-05T09:28:20Z</time>
      </trkpt>
      <trkpt lat="57.240712037310004" lon="-5.903754020109773">
        <ele>9.27</ele>
        <time>2019-09-05T09:28:30Z</time>
      </trkpt>
      <trkpt lat="57.2407709620893" lon="-5.90419901534915">
        <ele>8.789999999999999</ele>
        <time>2019-09-05T09:28:35Z</time>
      </trkpt>
      <trkpt lat="57.240780014544725" lon="-5.904273027554154">
        <ele>8.310000000000001</ele>
        <time>2019-09-05T09:28:36Z</time>
      </trkpt>
      <trkpt lat="57.240799041464925" lon="-5.904416022822261">
        <ele>8.310000000000001</ele>
        <time>2019-09-05T09:28:38Z</time>
      </trkpt>
      <trkpt lat="57.240807004272938" lon="-5.904482994228602">
        <ele>8.310000000000001</ele>
        <time>2019-09-05T09:28:39Z</time>
      </trkpt>
      <trkpt lat="57.240815972909331" lon="-5.904550971463323">
        <ele>8.310000000000001</ele>
        <time>2019-09-05T09:28:40Z</time>
      </trkpt>
      <trkpt lat="57.240825025364757" lon="-5.904624983668327">
        <ele>8.310000000000001</ele>
        <time>2019-09-05T09:28:41Z</time>
      </trkpt>
      <trkpt lat="57.240836005657911" lon="-5.904706958681345">
        <ele>8.310000000000001</ele>
        <time>2019-09-05T09:28:42Z</time>
      </trkpt>
      <trkpt lat="57.240846985951066" lon="-5.904797986149788">
        <ele>7.83</ele>
        <time>2019-09-05T09:28:43Z</time>
      </trkpt>
      <trkpt lat="57.240858972072601" lon="-5.904889013618231">
        <ele>7.83</ele>
        <time>2019-09-05T09:28:44Z</time>
      </trkpt>
      <trkpt lat="57.240870036184788" lon="-5.90497400611639">
        <ele>7.83</ele>
        <time>2019-09-05T09:28:45Z</time>
      </trkpt>
      <trkpt lat="57.240880010649562" lon="-5.905052963644266">
        <ele>7.35</ele>
        <time>2019-09-05T09:28:46Z</time>
      </trkpt>
      <trkpt lat="57.240888979285955" lon="-5.905127981677651">
        <ele>6.87</ele>
        <time>2019-09-05T09:28:47Z</time>
      </trkpt>
      <trkpt lat="57.240899037569761" lon="-5.905200988054276">
        <ele>6.87</ele>
        <time>2019-09-05T09:28:48Z</time>
      </trkpt>
      <trkpt lat="57.240991992875934" lon="-5.905937002971768">
        <ele>5.42</ele>
        <time>2019-09-05T09:28:59Z</time>
      </trkpt>
      <trkpt lat="57.24100498482585" lon="-5.906043034046888">
        <ele>5.42</ele>
        <time>2019-09-05T09:29:00Z</time>
      </trkpt>
      <trkpt lat="57.241042032837868" lon="-5.906373029574752">
        <ele>5.42</ele>
        <time>2019-09-05T09:29:03Z</time>
      </trkpt>
      <trkpt lat="57.241171030327678" lon="-5.907554961740971">
        <ele>5.42</ele>
        <time>2019-09-05T09:29:13Z</time>
      </trkpt>
      <trkpt lat="57.241331040859222" lon="-5.909005030989647">
        <ele>3.02</ele>
        <time>2019-09-05T09:29:23Z</time>
      </trkpt>
      <trkpt lat="57.24139197729528" lon="-5.909544993191958">
        <ele>2.54</ele>
        <time>2019-09-05T09:29:28Z</time>
      </trkpt>
      <trkpt lat="57.241415027529001" lon="-5.909639038145542">
        <ele>2.06</ele>
        <time>2019-09-05T09:29:29Z</time>
      </trkpt>
      <trkpt lat="57.241440005600452" lon="-5.909740040078759">
        <ele>2.06</ele>
        <time>2019-09-05T09:29:30Z</time>
      </trkpt>
      <trkpt lat="57.241465989500284" lon="-5.909846993163228">
        <ele>1.58</ele>
        <time>2019-09-05T09:29:31Z</time>
      </trkpt>
      <trkpt lat="57.241494990885258" lon="-5.909961992874742">
        <ele>1.58</ele>
        <time>2019-09-05T09:29:32Z</time>
      </trkpt>
      <trkpt lat="57.241526003926992" lon="-5.91008797287941">
        <ele>1.1</ele>
        <time>2019-09-05T09:29:33Z</time>
      </trkpt>
      <trkpt lat="57.241924982517958" lon="-5.911466041579843">
        <ele>0.62</ele>
        <time>2019-09-05T09:29:41Z</time>
      </trkpt>
      <trkpt lat="57.24225296638906" lon="-5.912267016246915">
        <ele>0.62</ele>
        <time>2019-09-05T09:29:46Z</time>
      </trkpt>
      <trkpt lat="57.242499981075525" lon="-5.912713017314673">
        <ele>1.58</ele>
        <time>2019-09-05T09:29:49Z</time>
      </trkpt>
      <trkpt lat="57.242583967745304" lon="-5.912863975390792">
        <ele>2.06</ele>
        <time>2019-09-05T09:29:50Z</time>
      </trkpt>
      <trkpt lat="57.24323901347816" lon="-5.914302980527282">
        <ele>3.5</ele>
        <time>2019-09-05T09:29:59Z</time>
      </trkpt>
      <trkpt lat="57.243804037570953" lon="-5.916573973372579">
        <ele>5.91</ele>
        <time>2019-09-05T09:30:09Z</time>
      </trkpt>
      <trkpt lat="57.244172003120184" lon="-5.918627958744764">
        <ele>9.27</ele>
        <time>2019-09-05T09:30:18Z</time>
      </trkpt>
      <trkpt lat="57.244561007246375" lon="-5.920803984627128">
        <ele>11.67</ele>
        <time>2019-09-05T09:30:27Z</time>
      </trkpt>
      <trkpt lat="57.24510901607573" lon="-5.923792971298099">
        <ele>17.440000000000001</ele>
        <time>2019-09-05T09:30:37Z</time>
      </trkpt>
      <trkpt lat="57.2460119985044" lon="-5.926793022081256">
        <ele>22.73</ele>
        <time>2019-09-05T09:30:47Z</time>
      </trkpt>
      <trkpt lat="57.247330974787474" lon="-5.929341036826372">
        <ele>23.690000000000001</ele>
        <time>2019-09-05T09:30:57Z</time>
      </trkpt>
      <trkpt lat="57.249474981799722" lon="-5.933048017323017">
        <ele>23.690000000000001</ele>
        <time>2019-09-05T09:31:11Z</time>
      </trkpt>
      <trkpt lat="57.250854978337884" lon="-5.935023967176676">
        <ele>27.050000000000001</ele>
        <time>2019-09-05T09:31:20Z</time>
      </trkpt>
      <trkpt lat="57.25277803838253" lon="-5.936950966715813">
        <ele>28.5</ele>
        <time>2019-09-05T09:31:31Z</time>
      </trkpt>
      <trkpt lat="57.255527973175049" lon="-5.939166974276304">
        <ele>30.420000000000002</ele>
        <time>2019-09-05T09:31:45Z</time>
      </trkpt>
      <trkpt lat="57.257964005693793" lon="-5.941257001832128">
        <ele>29.460000000000001</ele>
        <time>2019-09-05T09:31:58Z</time>
      </trkpt>
      <trkpt lat="57.25986703298986" lon="-5.943474015221">
        <ele>23.210000000000001</ele>
        <time>2019-09-05T09:32:09Z</time>
      </trkpt>
      <trkpt lat="57.261367980390787" lon="-5.945986993610859">
        <ele>13.6</ele>
        <time>2019-09-05T09:32:19Z</time>
      </trkpt>
      <trkpt lat="57.262455029413104" lon="-5.948268966749311">
        <ele>7.83</ele>
        <time>2019-09-05T09:32:27Z</time>
      </trkpt>
      <trkpt lat="57.263180986046791" lon="-5.951030971482396">
        <ele>6.87</ele>
        <time>2019-09-05T09:32:35Z</time>
      </trkpt>
      <trkpt lat="57.263940973207355" lon="-5.954596968367696">
        <ele>7.35</ele>
        <time>2019-09-05T09:32:45Z</time>
      </trkpt>
      <trkpt lat="57.265021987259388" lon="-5.958762019872665">
        <ele>8.310000000000001</ele>
        <time>2019-09-05T09:32:57Z</time>
      </trkpt>
      <trkpt lat="57.266234010457993" lon="-5.962860016152263">
        <ele>8.310000000000001</ele>
        <time>2019-09-05T09:33:09Z</time>
      </trkpt>
      <trkpt lat="57.267208993434906" lon="-5.965853026136756">
        <ele>7.35</ele>
        <time>2019-09-05T09:33:18Z</time>
      </trkpt>
      <trkpt lat="57.268343986943364" lon="-5.969554977491498">
        <ele>5.91</ele>
        <time>2019-09-05T09:33:29Z</time>
      </trkpt>
      <trkpt lat="57.268567029386759" lon="-5.970621993765235">
        <ele>6.87</ele>
        <time>2019-09-05T09:33:32Z</time>
      </trkpt>
      <trkpt lat="57.268613968044519" lon="-5.970995994284749">
        <ele>7.35</ele>
        <time>2019-09-05T09:33:33Z</time>
      </trkpt>
      <trkpt lat="57.268800968304276" lon="-5.973698990419507">
        <ele>10.23</ele>
        <time>2019-09-05T09:33:40Z</time>
      </trkpt>
      <trkpt lat="57.268770961090922" lon="-5.974044995382428">
        <ele>10.23</ele>
        <time>2019-09-05T09:33:41Z</time>
      </trkpt>
      <trkpt lat="57.268740031868219" lon="-5.97437197342515">
        <ele>10.23</ele>
        <time>2019-09-05T09:33:42Z</time>
      </trkpt>
      <trkpt lat="57.268689991906285" lon="-5.974683025851846">
        <ele>10.23</ele>
        <time>2019-09-05T09:33:43Z</time>
      </trkpt>
      <trkpt lat="57.268617991358042" lon="-5.97499399445951">
        <ele>9.75</ele>
        <time>2019-09-05T09:33:44Z</time>
      </trkpt>
      <trkpt lat="57.268522018566728" lon="-5.975284008309245">
        <ele>9.27</ele>
        <time>2019-09-05T09:33:45Z</time>
      </trkpt>
      <trkpt lat="57.268415987491608" lon="-5.975569998845458">
        <ele>8.789999999999999</ele>
        <time>2019-09-05T09:33:46Z</time>
      </trkpt>
      <trkpt lat="57.268283972516656" lon="-5.975825982168317">
        <ele>8.310000000000001</ele>
        <time>2019-09-05T09:33:47Z</time>
      </trkpt>
      <trkpt lat="57.268152041360736" lon="-5.976081965491176">
        <ele>7.35</ele>
        <time>2019-09-05T09:33:48Z</time>
      </trkpt>
      <trkpt lat="57.267432035878301" lon="-5.977800004184246">
        <ele>4.94</ele>
        <time>2019-09-05T09:33:54Z</time>
      </trkpt>
      <trkpt lat="57.267343020066619" lon="-5.978146009147167">
        <ele>4.94</ele>
        <time>2019-09-05T09:33:55Z</time>
      </trkpt>
      <trkpt lat="57.267275964841247" lon="-5.978508023545146">
        <ele>4.94</ele>
        <time>2019-09-05T09:33:56Z</time>
      </trkpt>
      <trkpt lat="57.267222991213202" lon="-5.978880012407899">
        <ele>4.94</ele>
        <time>2019-09-05T09:33:57Z</time>
      </trkpt>
      <trkpt lat="57.267222991213202" lon="-5.979275973513722">
        <ele>4.94</ele>
        <time>2019-09-05T09:33:58Z</time>
      </trkpt>
      <trkpt lat="57.267222991213202" lon="-5.979661960154772">
        <ele>5.42</ele>
        <time>2019-09-05T09:33:59Z</time>
      </trkpt>
      <trkpt lat="57.267222991213202" lon="-5.980060016736388">
        <ele>6.39</ele>
        <time>2019-09-05T09:34:00Z</time>
      </trkpt>
      <trkpt lat="57.26725903339684" lon="-5.980441980063915">
        <ele>6.87</ele>
        <time>2019-09-05T09:34:01Z</time>
      </trkpt>
      <trkpt lat="57.26769195869565" lon="-5.984077965840697">
        <ele>5.91</ele>
        <time>2019-09-05T09:34:11Z</time>
      </trkpt>
      <trkpt lat="57.267787009477615" lon="-5.984359011054039">
        <ele>5.42</ele>
        <time>2019-09-05T09:34:12Z</time>
      </trkpt>
      <trkpt lat="57.267887005582452" lon="-5.984628992155194">
        <ele>5.42</ele>
        <time>2019-09-05T09:34:13Z</time>
      </trkpt>
      <trkpt lat="57.268010973930359" lon="-5.98487600684166">
        <ele>5.42</ele>
        <time>2019-09-05T09:34:14Z</time>
      </trkpt>
      <trkpt lat="57.268137959763408" lon="-5.985129978507757">
        <ele>5.42</ele>
        <time>2019-09-05T09:34:15Z</time>
      </trkpt>
      <trkpt lat="57.269630022346973" lon="-5.988226002082229">
        <ele>6.87</ele>
        <time>2019-09-05T09:34:27Z</time>
      </trkpt>
      <trkpt lat="57.269790032878518" lon="-5.988802006468177">
        <ele>6.39</ele>
        <time>2019-09-05T09:34:29Z</time>
      </trkpt>
      <trkpt lat="57.269871002063155" lon="-5.989092020317912">
        <ele>6.39</ele>
        <time>2019-09-05T09:34:30Z</time>
      </trkpt>
      <trkpt lat="57.269920036196709" lon="-5.989403994753957">
        <ele>5.91</ele>
        <time>2019-09-05T09:34:31Z</time>
      </trkpt>
      <trkpt lat="57.269962029531598" lon="-5.989717980846763">
        <ele>5.42</ele>
        <time>2019-09-05T09:34:32Z</time>
      </trkpt>
      <trkpt lat="57.269993964582682" lon="-5.990031966939569">
        <ele>5.42</ele>
        <time>2019-09-05T09:34:33Z</time>
      </trkpt>
      <trkpt lat="57.270003017038107" lon="-5.990353999659419">
        <ele>4.94</ele>
        <time>2019-09-05T09:34:34Z</time>
      </trkpt>
      <trkpt lat="57.27001097984612" lon="-5.990667985752225">
        <ele>4.94</ele>
        <time>2019-09-05T09:34:35Z</time>
      </trkpt>
      <trkpt lat="57.270007962360978" lon="-5.99097996018827">
        <ele>4.94</ele>
        <time>2019-09-05T09:34:36Z</time>
      </trkpt>
      <trkpt lat="57.270055990666151" lon="-5.993817988783121">
        <ele>4.94</ele>
        <time>2019-09-05T09:34:46Z</time>
      </trkpt>
      <trkpt lat="57.270111981779337" lon="-5.994047988206148">
        <ele>4.94</ele>
        <time>2019-09-05T09:34:47Z</time>
      </trkpt>
      <trkpt lat="57.270167972892523" lon="-5.994275975972414">
        <ele>4.94</ele>
        <time>2019-09-05T09:34:48Z</time>
      </trkpt>
      <trkpt lat="57.270858976989985" lon="-5.996054029092193">
        <ele>2.06</ele>
        <time>2019-09-05T09:34:56Z</time>
      </trkpt>
      <trkpt lat="57.271934961900115" lon="-5.99783199839294">
        <ele>1.1</ele>
        <time>2019-09-05T09:35:05Z</time>
      </trkpt>
      <trkpt lat="57.272887984290719" lon="-5.999478958547115">
        <ele>1.1</ele>
        <time>2019-09-05T09:35:13Z</time>
      </trkpt>
      <trkpt lat="57.273265002295375" lon="-5.999913979321718">
        <ele>1.1</ele>
        <time>2019-09-05T09:35:16Z</time>
      </trkpt>
      <trkpt lat="57.27340598590672" lon="-6.00002596154809">
        <ele>1.1</ele>
        <time>2019-09-05T09:35:17Z</time>
      </trkpt>
      <trkpt lat="57.274732002988458" lon="-6.001219963654876">
        <ele>3.02</ele>
        <time>2019-09-05T09:35:26Z</time>
      </trkpt>
      <trkpt lat="57.275872025638819" lon="-6.002892991527915">
        <ele>7.83</ele>
        <time>2019-09-05T09:35:34Z</time>
      </trkpt>
      <trkpt lat="57.276613991707563" lon="-6.004435010254383">
        <ele>12.630000000000001</ele>
        <time>2019-09-05T09:35:41Z</time>
      </trkpt>
      <trkpt lat="57.277043983340263" lon="-6.00541896186769">
        <ele>17.920000000000002</ele>
        <time>2019-09-05T09:35:48Z</time>
      </trkpt>
      <trkpt lat="57.277160994708538" lon="-6.005662037059665">
        <ele>19.84</ele>
        <time>2019-09-05T09:35:51Z</time>
      </trkpt>
      <trkpt lat="57.277496019378304" lon="-6.006175009533763">
        <ele>22.25</ele>
        <time>2019-09-05T09:36:02Z</time>
      </trkpt>
      <trkpt lat="57.27755201049149" lon="-6.006254972890019">
        <ele>21.289999999999999</ele>
        <time>2019-09-05T09:36:10Z</time>
      </trkpt>
      <trkpt lat="57.277739010751247" lon="-6.006519002839923">
        <ele>20.32</ele>
        <time>2019-09-05T09:36:20Z</time>
      </trkpt>
      <trkpt lat="57.278507966548204" lon="-6.007626000791788">
        <ele>18.879999999999999</ele>
        <time>2019-09-05T09:36:29Z</time>
      </trkpt>
      <trkpt lat="57.279123030602932" lon="-6.00851196795702">
        <ele>17.920000000000002</ele>
        <time>2019-09-05T09:36:36Z</time>
      </trkpt>
      <trkpt lat="57.279985025525093" lon="-6.009851982817054">
        <ele>16.960000000000001</ele>
        <time>2019-09-05T09:36:45Z</time>
      </trkpt>
      <trkpt lat="57.28098900988698" lon="-6.011492991819978">
        <ele>16</ele>
        <time>2019-09-05T09:36:54Z</time>
      </trkpt>
      <trkpt lat="57.282508984208107" lon="-6.013556029647589">
        <ele>17.920000000000002</ele>
        <time>2019-09-05T09:37:05Z</time>
      </trkpt>
      <trkpt lat="57.283943966031075" lon="-6.015241965651512">
        <ele>20.32</ele>
        <time>2019-09-05T09:37:15Z</time>
      </trkpt>
      <trkpt lat="57.285341983661056" lon="-6.017628964036703">
        <ele>23.210000000000001</ele>
        <time>2019-09-05T09:37:27Z</time>
      </trkpt>
      <trkpt lat="57.286259969696403" lon="-6.019793003797531">
        <ele>25.129999999999999</ele>
        <time>2019-09-05T09:37:36Z</time>
      </trkpt>
      <trkpt lat="57.286330964416265" lon="-6.020086035132408">
        <ele>25.129999999999999</ele>
        <time>2019-09-05T09:37:37Z</time>
      </trkpt>
      <trkpt lat="57.286367006599903" lon="-6.020402032881975">
        <ele>25.129999999999999</ele>
        <time>2019-09-05T09:37:38Z</time>
      </trkpt>
      <trkpt lat="57.286572027951479" lon="-6.022767992690206">
        <ele>22.25</ele>
        <time>2019-09-05T09:37:46Z</time>
      </trkpt>
      <trkpt lat="57.286584014073014" lon="-6.023048032075167">
        <ele>21.77</ele>
        <time>2019-09-05T09:37:47Z</time>
      </trkpt>
      <trkpt lat="57.286594994366169" lon="-6.023319019004703">
        <ele>21.289999999999999</ele>
        <time>2019-09-05T09:37:48Z</time>
      </trkpt>
      <trkpt lat="57.286577979102731" lon="-6.023587994277477">
        <ele>20.809999999999999</ele>
        <time>2019-09-05T09:37:49Z</time>
      </trkpt>
      <trkpt lat="57.286545038223267" lon="-6.023842971771956">
        <ele>20.32</ele>
        <time>2019-09-05T09:37:50Z</time>
      </trkpt>
      <trkpt lat="57.286512013524771" lon="-6.02408898063004">
        <ele>20.32</ele>
        <time>2019-09-05T09:37:51Z</time>
      </trkpt>
      <trkpt lat="57.286464991047978" lon="-6.024327026680112">
        <ele>19.84</ele>
        <time>2019-09-05T09:37:52Z</time>
      </trkpt>
      <trkpt lat="57.286398019641638" lon="-6.024535987526178">
        <ele>19.359999999999999</ele>
        <time>2019-09-05T09:37:53Z</time>
      </trkpt>
      <trkpt lat="57.285703998059034" lon="-6.026284033432603">
        <ele>16.48</ele>
        <time>2019-09-05T09:38:01Z</time>
      </trkpt>
      <trkpt lat="57.284955997020006" lon="-6.028639012947679">
        <ele>13.119999999999999</ele>
        <time>2019-09-05T09:38:09Z</time>
      </trkpt>
      <trkpt lat="57.284316038712859" lon="-6.030915034934878">
        <ele>13.6</ele>
        <time>2019-09-05T09:38:18Z</time>
      </trkpt>
      <trkpt lat="57.283563008531928" lon="-6.033157026395202">
        <ele>9.75</ele>
        <time>2019-09-05T09:38:29Z</time>
      </trkpt>
      <trkpt lat="57.282553995028138" lon="-6.035825992003083">
        <ele>6.87</ele>
        <time>2019-09-05T09:38:41Z</time>
      </trkpt>
      <trkpt lat="57.282222993671894" lon="-6.03644197806716">
        <ele>6.39</ele>
        <time>2019-09-05T09:38:44Z</time>
      </trkpt>
      <trkpt lat="57.281085988506675" lon="-6.037552999332547">
        <ele>3.5</ele>
        <time>2019-09-05T09:38:52Z</time>
      </trkpt>
      <trkpt lat="57.279772041365504" lon="-6.038873987272382">
        <ele>4.94</ele>
        <time>2019-09-05T09:39:01Z</time>
      </trkpt>
      <trkpt lat="57.278608968481421" lon="-6.040391027927399">
        <ele>6.39</ele>
        <time>2019-09-05T09:39:10Z</time>
      </trkpt>
      <trkpt lat="57.277393005788326" lon="-6.041521998122335">
        <ele>6.39</ele>
        <time>2019-09-05T09:39:20Z</time>
      </trkpt>
      <trkpt lat="57.276686998084188" lon="-6.04249999858439">
        <ele>3.98</ele>
        <time>2019-09-05T09:39:26Z</time>
      </trkpt>
      <trkpt lat="57.276592031121254" lon="-6.042690016329289">
        <ele>3.98</ele>
        <time>2019-09-05T09:39:27Z</time>
      </trkpt>
      <trkpt lat="57.27652195841074" lon="-6.042923033237457">
        <ele>3.5</ele>
        <time>2019-09-05T09:39:28Z</time>
      </trkpt>
      <trkpt lat="57.276472002267838" lon="-6.043162001296878">
        <ele>3.5</ele>
        <time>2019-09-05T09:39:29Z</time>
      </trkpt>
      <trkpt lat="57.276421040296555" lon="-6.043401975184679">
        <ele>3.5</ele>
        <time>2019-09-05T09:39:30Z</time>
      </trkpt>
      <trkpt lat="57.276397990062833" lon="-6.043672962114215">
        <ele>3.5</ele>
        <time>2019-09-05T09:39:31Z</time>
      </trkpt>
      <trkpt lat="57.276386003941298" lon="-6.043948978185654">
        <ele>3.5</ele>
        <time>2019-09-05T09:39:32Z</time>
      </trkpt>
      <trkpt lat="57.276373011991382" lon="-6.044236980378628">
        <ele>3.98</ele>
        <time>2019-09-05T09:39:33Z</time>
      </trkpt>
      <trkpt lat="57.276366977021098" lon="-6.04454199783504">
        <ele>4.46</ele>
        <time>2019-09-05T09:39:34Z</time>
      </trkpt>
      <trkpt lat="57.27645699866116" lon="-6.047052964568138">
        <ele>12.15</ele>
        <time>2019-09-05T09:39:43Z</time>
      </trkpt>
      <trkpt lat="57.276493040844798" lon="-6.049003014340997">
        <ele>20.32</ele>
        <time>2019-09-05T09:39:51Z</time>
      </trkpt>
      <trkpt lat="57.276157010346651" lon="-6.051166970282793">
        <ele>26.09</ele>
        <time>2019-09-05T09:40:00Z</time>
      </trkpt>
      <trkpt lat="57.275447985157371" lon="-6.053253980353475">
        <ele>24.170000000000002</ele>
        <time>2019-09-05T09:40:09Z</time>
      </trkpt>
      <trkpt lat="57.274413993582129" lon="-6.056051021441817">
        <ele>22.25</ele>
        <time>2019-09-05T09:40:20Z</time>
      </trkpt>
      <trkpt lat="57.27336198091507" lon="-6.059070015326142">
        <ele>21.289999999999999</ele>
        <time>2019-09-05T09:40:31Z</time>
      </trkpt>
      <trkpt lat="57.271846029907465" lon="-6.06224600225687">
        <ele>8.310000000000001</ele>
        <time>2019-09-05T09:40:45Z</time>
      </trkpt>
      <trkpt lat="57.270416999235749" lon="-6.064794017001987">
        <ele>5.42</ele>
        <time>2019-09-05T09:40:56Z</time>
      </trkpt>
      <trkpt lat="57.268448006361723" lon="-6.067119995132089">
        <ele>4.46</ele>
        <time>2019-09-05T09:41:10Z</time>
      </trkpt>
      <trkpt lat="57.267262972891331" lon="-6.068668970838189">
        <ele>5.91</ele>
        <time>2019-09-05T09:41:18Z</time>
      </trkpt>
      <trkpt lat="57.267142022028565" lon="-6.068939035758376">
        <ele>5.91</ele>
        <time>2019-09-05T09:41:19Z</time>
      </trkpt>
      <trkpt lat="57.267030039802194" lon="-6.069222008809447">
        <ele>5.91</ele>
        <time>2019-09-05T09:41:20Z</time>
      </trkpt>
      <trkpt lat="57.266924008727074" lon="-6.069513028487563">
        <ele>5.91</ele>
        <time>2019-09-05T09:41:21Z</time>
      </trkpt>
      <trkpt lat="57.266849996522069" lon="-6.06982802040875">
        <ele>5.42</ele>
        <time>2019-09-05T09:41:22Z</time>
      </trkpt>
      <trkpt lat="57.266776990145445" lon="-6.070144018158317">
        <ele>5.42</ele>
        <time>2019-09-05T09:41:23Z</time>
      </trkpt>
      <trkpt lat="57.266705995425582" lon="-6.070454986765981">
        <ele>5.42</ele>
        <time>2019-09-05T09:41:24Z</time>
      </trkpt>
      <trkpt lat="57.266664002090693" lon="-6.070785988122225">
        <ele>5.42</ele>
        <time>2019-09-05T09:41:25Z</time>
      </trkpt>
      <trkpt lat="57.265904014930129" lon="-6.075618993490934">
        <ele>4.94</ele>
        <time>2019-09-05T09:41:40Z</time>
      </trkpt>
      <trkpt lat="57.26485401391983" lon="-6.079856967553496">
        <ele>13.6</ele>
        <time>2019-09-05T09:41:54Z</time>
      </trkpt>
      <trkpt lat="57.26388799957931" lon="-6.08233398757875">
        <ele>15.52</ele>
        <time>2019-09-05T09:42:03Z</time>
      </trkpt>
      <trkpt lat="57.262394009158015" lon="-6.086193015798926">
        <ele>14.56</ele>
        <time>2019-09-05T09:42:17Z</time>
      </trkpt>
      <trkpt lat="57.262313961982727" lon="-6.086515970528126">
        <ele>15.039999999999999</ele>
        <time>2019-09-05T09:42:18Z</time>
      </trkpt>
      <trkpt lat="57.262258976697922" lon="-6.086850995197892">
        <ele>15.52</ele>
        <time>2019-09-05T09:42:19Z</time>
      </trkpt>
      <trkpt lat="57.262215977534652" lon="-6.087197000160813">
        <ele>16</ele>
        <time>2019-09-05T09:42:20Z</time>
      </trkpt>
      <trkpt lat="57.262201979756355" lon="-6.087539987638593">
        <ele>16.48</ele>
        <time>2019-09-05T09:42:21Z</time>
      </trkpt>
      <trkpt lat="57.262203991413116" lon="-6.08787702396512">
        <ele>16.960000000000001</ele>
        <time>2019-09-05T09:42:22Z</time>
      </trkpt>
      <trkpt lat="57.262221006676555" lon="-6.088210036978126">
        <ele>17.440000000000001</ele>
        <time>2019-09-05T09:42:23Z</time>
      </trkpt>
      <trkpt lat="57.262279009446502" lon="-6.08852100558579">
        <ele>17.920000000000002</ele>
        <time>2019-09-05T09:42:24Z</time>
      </trkpt>
      <trkpt lat="57.262341035529971" lon="-6.08882300555706">
        <ele>18.399999999999999</ele>
        <time>2019-09-05T09:42:25Z</time>
      </trkpt>
      <trkpt lat="57.262395014986396" lon="-6.089087035506964">
        <ele>18.879999999999999</ele>
        <time>2019-09-05T09:42:26Z</time>
      </trkpt>
      <trkpt lat="57.262501968070865" lon="-6.089332960546017">
        <ele>19.359999999999999</ele>
        <time>2019-09-05T09:42:27Z</time>
      </trkpt>
      <trkpt lat="57.262600036337972" lon="-6.089562037959695">
        <ele>19.84</ele>
        <time>2019-09-05T09:42:28Z</time>
      </trkpt>
      <trkpt lat="57.262697014957666" lon="-6.089787008240819">
        <ele>20.32</ele>
        <time>2019-09-05T09:42:29Z</time>
      </trkpt>
      <trkpt lat="57.262802962213755" lon="-6.090031005442143">
        <ele>20.809999999999999</ele>
        <time>2019-09-05T09:42:30Z</time>
      </trkpt>
      <trkpt lat="57.262916034087539" lon="-6.090194033458829">
        <ele>21.289999999999999</ele>
        <time>2019-09-05T09:42:31Z</time>
      </trkpt>
      <trkpt lat="57.263045031577349" lon="-6.090381033718586">
        <ele>21.77</ele>
        <time>2019-09-05T09:42:32Z</time>
      </trkpt>
      <trkpt lat="57.263189032673836" lon="-6.090588988736272">
        <ele>22.25</ele>
        <time>2019-09-05T09:42:33Z</time>
      </trkpt>
      <trkpt lat="57.263334039598703" lon="-6.090695019811392">
        <ele>22.73</ele>
        <time>2019-09-05T09:42:34Z</time>
      </trkpt>
      <trkpt lat="57.263488015159965" lon="-6.090809013694525">
        <ele>23.690000000000001</ele>
        <time>2019-09-05T09:42:35Z</time>
      </trkpt>
      <trkpt lat="57.263636961579323" lon="-6.090900963172317">
        <ele>24.170000000000002</ele>
        <time>2019-09-05T09:42:36Z</time>
      </trkpt>
      <trkpt lat="57.263786997646093" lon="-6.090946979820728">
        <ele>25.129999999999999</ele>
        <time>2019-09-05T09:42:37Z</time>
      </trkpt>
      <trkpt lat="57.263928987085819" lon="-6.090989978983998">
        <ele>26.09</ele>
        <time>2019-09-05T09:42:38Z</time>
      </trkpt>
      <trkpt lat="57.264066031202674" lon="-6.091031972318888">
        <ele>26.57</ele>
        <time>2019-09-05T09:42:39Z</time>
      </trkpt>
      <trkpt lat="57.264205003157258" lon="-6.091039013117552">
        <ele>27.530000000000001</ele>
        <time>2019-09-05T09:42:40Z</time>
      </trkpt>
      <trkpt lat="57.264345986768603" lon="-6.091025015339255">
        <ele>28.02</ele>
        <time>2019-09-05T09:42:41Z</time>
      </trkpt>
      <trkpt lat="57.26448898203671" lon="-6.090975981205702">
        <ele>28.98</ele>
        <time>2019-09-05T09:42:42Z</time>
      </trkpt>
      <trkpt lat="57.264633988961577" lon="-6.0909260250628">
        <ele>29.940000000000001</ele>
        <time>2019-09-05T09:42:43Z</time>
      </trkpt>
      <trkpt lat="57.266467027366161" lon="-6.09026100486517">
        <ele>42.439999999999998</ele>
        <time>2019-09-05T09:42:54Z</time>
      </trkpt>
      <trkpt lat="57.267673015594482" lon="-6.089561032131314">
        <ele>52.530000000000001</ele>
        <time>2019-09-05T09:43:02Z</time>
      </trkpt>
      <trkpt lat="57.268946981057525" lon="-6.089010005816817">
        <ele>61.659999999999997</ele>
        <time>2019-09-05T09:43:11Z</time>
      </trkpt>
      <trkpt lat="57.270241985097528" lon="-6.089329021051526">
        <ele>69.829999999999998</ele>
        <time>2019-09-05T09:43:19Z</time>
      </trkpt>
      <trkpt lat="57.272168984636664" lon="-6.089949030429125">
        <ele>79.450000000000003</ele>
        <time>2019-09-05T09:43:30Z</time>
      </trkpt>
      <trkpt lat="57.273415038362145" lon="-6.091028032824397">
        <ele>87.140000000000001</ele>
        <time>2019-09-05T09:43:38Z</time>
      </trkpt>
      <trkpt lat="57.273682001978159" lon="-6.091393986716867">
        <ele>89.060000000000002</ele>
        <time>2019-09-05T09:43:40Z</time>
      </trkpt>
      <trkpt lat="57.273801025003195" lon="-6.091585010290146">
        <ele>90.019999999999996</ele>
        <time>2019-09-05T09:43:41Z</time>
      </trkpt>
      <trkpt lat="57.273999005556107" lon="-6.092020031064749">
        <ele>91.459999999999994</ele>
        <time>2019-09-05T09:43:43Z</time>
      </trkpt>
      <trkpt lat="57.274090033024549" lon="-6.092219017446041">
        <ele>91.939999999999998</ele>
        <time>2019-09-05T09:43:44Z</time>
      </trkpt>
      <trkpt lat="57.274149041622877" lon="-6.092469971626997">
        <ele>92.900000000000006</ele>
        <time>2019-09-05T09:43:45Z</time>
      </trkpt>
      <trkpt lat="57.274206038564444" lon="-6.092713968828321">
        <ele>93.390000000000001</ele>
        <time>2019-09-05T09:43:46Z</time>
      </trkpt>
      <trkpt lat="57.274261023849249" lon="-6.092948997393251">
        <ele>94.349999999999994</ele>
        <time>2019-09-05T09:43:47Z</time>
      </trkpt>
      <trkpt lat="57.274289019405842" lon="-6.093238005414605">
        <ele>94.829999999999998</ele>
        <time>2019-09-05T09:43:48Z</time>
      </trkpt>
      <trkpt lat="57.274316009134054" lon="-6.093516033142805">
        <ele>95.790000000000006</ele>
        <time>2019-09-05T09:43:49Z</time>
      </trkpt>
      <trkpt lat="57.274315003305674" lon="-6.093796994537115">
        <ele>96.75</ele>
        <time>2019-09-05T09:43:50Z</time>
      </trkpt>
      <trkpt lat="57.274298993870616" lon="-6.094078961759806">
        <ele>97.230000000000004</ele>
        <time>2019-09-05T09:43:51Z</time>
      </trkpt>
      <trkpt lat="57.274282984435558" lon="-6.09436503611505">
        <ele>98.189999999999998</ele>
        <time>2019-09-05T09:43:52Z</time>
      </trkpt>
      <trkpt lat="57.274239985272288" lon="-6.094626970589161">
        <ele>98.670000000000002</ele>
        <time>2019-09-05T09:43:53Z</time>
      </trkpt>
      <trkpt lat="57.274196986109018" lon="-6.094892006367445">
        <ele>99.150000000000006</ele>
        <time>2019-09-05T09:43:54Z</time>
      </trkpt>
      <trkpt lat="57.274153986945748" lon="-6.095156036317349">
        <ele>100.11</ele>
        <time>2019-09-05T09:43:55Z</time>
      </trkpt>
      <trkpt lat="57.27374603971839" lon="-6.096618007868528">
        <ele>106.84</ele>
        <time>2019-09-05T09:44:02Z</time>
      </trkpt>
      <trkpt lat="57.273678984493017" lon="-6.097071971744299">
        <ele>108.29000000000001</ele>
        <time>2019-09-05T09:44:04Z</time>
      </trkpt>
      <trkpt lat="57.273646965622902" lon="-6.097290990874171">
        <ele>108.29000000000001</ele>
        <time>2019-09-05T09:44:05Z</time>
      </trkpt>
      <trkpt lat="57.273653000593185" lon="-6.097506992518902">
        <ele>108.77</ele>
        <time>2019-09-05T09:44:06Z</time>
      </trkpt>
      <trkpt lat="57.273673033341765" lon="-6.097737997770309">
        <ele>109.25</ele>
        <time>2019-09-05T09:44:07Z</time>
      </trkpt>
      <trkpt lat="57.273693988099694" lon="-6.097969003021717">
        <ele>110.20999999999999</ele>
        <time>2019-09-05T09:44:08Z</time>
      </trkpt>
      <trkpt lat="57.273741010576487" lon="-6.098183998838067">
        <ele>111.17</ele>
        <time>2019-09-05T09:44:09Z</time>
      </trkpt>
      <trkpt lat="57.273810999467969" lon="-6.098386002704501">
        <ele>112.13</ele>
        <time>2019-09-05T09:44:10Z</time>
      </trkpt>
      <trkpt lat="57.273902026936412" lon="-6.098570991307497">
        <ele>113.09</ele>
        <time>2019-09-05T09:44:11Z</time>
      </trkpt>
      <trkpt lat="57.274014009162784" lon="-6.098709963262081">
        <ele>114.05</ele>
        <time>2019-09-05T09:44:12Z</time>
      </trkpt>
      <trkpt lat="57.274130014702678" lon="-6.098825968801975">
        <ele>115.01000000000001</ele>
        <time>2019-09-05T09:44:13Z</time>
      </trkpt>
      <trkpt lat="57.274264041334391" lon="-6.098862010985613">
        <ele>115.98</ele>
        <time>2019-09-05T09:44:14Z</time>
      </trkpt>
      <trkpt lat="57.274404019117355" lon="-6.098878020420671">
        <ele>116.45999999999999</ele>
        <time>2019-09-05T09:44:15Z</time>
      </trkpt>
      <trkpt lat="57.274539973586798" lon="-6.098893024027348">
        <ele>117.42</ele>
        <time>2019-09-05T09:44:16Z</time>
      </trkpt>
      <trkpt lat="57.27467299439013" lon="-6.098812976852059">
        <ele>118.38</ele>
        <time>2019-09-05T09:44:17Z</time>
      </trkpt>
      <trkpt lat="57.274810960516334" lon="-6.098729996010661">
        <ele>119.34</ele>
        <time>2019-09-05T09:44:18Z</time>
      </trkpt>
      <trkpt lat="57.274943981319666" lon="-6.098623964935541">
        <ele>119.81999999999999</ele>
        <time>2019-09-05T09:44:19Z</time>
      </trkpt>
      <trkpt lat="57.276176959276199" lon="-6.097491988912225">
        <ele>125.11</ele>
        <time>2019-09-05T09:44:28Z</time>
      </trkpt>
      <trkpt lat="57.278214013203979" lon="-6.095656016841531">
        <ele>130.88</ele>
        <time>2019-09-05T09:44:42Z</time>
      </trkpt>
      <trkpt lat="57.279760977253318" lon="-6.094809025526047">
        <ele>132.80000000000001</ele>
        <time>2019-09-05T09:44:52Z</time>
      </trkpt>
      <trkpt lat="57.281275000423193" lon="-6.094393031671643">
        <ele>130.40000000000001</ele>
        <time>2019-09-05T09:45:01Z</time>
      </trkpt>
      <trkpt lat="57.283104015514255" lon="-6.093935966491699">
        <ele>121.26000000000001</ele>
        <time>2019-09-05T09:45:11Z</time>
      </trkpt>
      <trkpt lat="57.285024980083108" lon="-6.093789031729102">
        <ele>109.73</ele>
        <time>2019-09-05T09:45:22Z</time>
      </trkpt>
      <trkpt lat="57.287169992923737" lon="-6.093896990641952">
        <ele>97.709999999999994</ele>
        <time>2019-09-05T09:45:33Z</time>
      </trkpt>
      <trkpt lat="57.288225023075938" lon="-6.09322702512145">
        <ele>90.980000000000004</ele>
        <time>2019-09-05T09:45:39Z</time>
      </trkpt>
      <trkpt lat="57.289531007409096" lon="-6.091695986688137">
        <ele>82.329999999999998</ele>
        <time>2019-09-05T09:45:47Z</time>
      </trkpt>
      <trkpt lat="57.29168800637126" lon="-6.090045003220439">
        <ele>68.390000000000001</ele>
        <time>2019-09-05T09:45:58Z</time>
      </trkpt>
      <trkpt lat="57.293463964015245" lon="-6.088260998949409">
        <ele>55.890000000000001</ele>
        <time>2019-09-05T09:46:08Z</time>
      </trkpt>
      <trkpt lat="57.293811980634928" lon="-6.088007027283311">
        <ele>53.490000000000002</ele>
        <time>2019-09-05T09:46:10Z</time>
      </trkpt>
      <trkpt lat="57.293999986723065" lon="-6.087921028956771">
        <ele>52.049999999999997</ele>
        <time>2019-09-05T09:46:11Z</time>
      </trkpt>
      <trkpt lat="57.294187992811203" lon="-6.087838970124722">
        <ele>51.090000000000003</ele>
        <time>2019-09-05T09:46:12Z</time>
      </trkpt>
      <trkpt lat="57.295777034014463" lon="-6.087529007345438">
        <ele>41.469999999999999</ele>
        <time>2019-09-05T09:46:21Z</time>
      </trkpt>
      <trkpt lat="57.297080000862479" lon="-6.087688012048602">
        <ele>33.780000000000001</ele>
        <time>2019-09-05T09:46:28Z</time>
      </trkpt>
      <trkpt lat="57.298208959400654" lon="-6.088595017790794">
        <ele>27.050000000000001</ele>
        <time>2019-09-05T09:46:34Z</time>
      </trkpt>
      <trkpt lat="57.299410002306104" lon="-6.089430022984743">
        <ele>22.73</ele>
        <time>2019-09-05T09:46:41Z</time>
      </trkpt>
      <trkpt lat="57.301212027668953" lon="-6.089921034872532">
        <ele>21.289999999999999</ele>
        <time>2019-09-05T09:46:51Z</time>
      </trkpt>
      <trkpt lat="57.303773034363985" lon="-6.090620001778007">
        <ele>22.25</ele>
        <time>2019-09-05T09:47:04Z</time>
      </trkpt>
      <trkpt lat="57.306249970570207" lon="-6.091588027775288">
        <ele>27.050000000000001</ele>
        <time>2019-09-05T09:47:17Z</time>
      </trkpt>
      <trkpt lat="57.308123996481299" lon="-6.093155024573207">
        <ele>28.02</ele>
        <time>2019-09-05T09:47:28Z</time>
      </trkpt>
      <trkpt lat="57.30965101160109" lon="-6.0951619874686">
        <ele>24.170000000000002</ele>
        <time>2019-09-05T09:47:38Z</time>
      </trkpt>
      <trkpt lat="57.311371983960271" lon="-6.097797006368637">
        <ele>19.84</ele>
        <time>2019-09-05T09:47:51Z</time>
      </trkpt>
      <trkpt lat="57.312891036272049" lon="-6.100026005879045">
        <ele>10.710000000000001</ele>
        <time>2019-09-05T09:48:03Z</time>
      </trkpt>
      <trkpt lat="57.313592014834285" lon="-6.10122000798583">
        <ele>7.35</ele>
        <time>2019-09-05T09:48:09Z</time>
      </trkpt>
      <trkpt lat="57.313961992040277" lon="-6.102237990126014">
        <ele>5.91</ele>
        <time>2019-09-05T09:48:13Z</time>
      </trkpt>
      <trkpt lat="57.314037010073662" lon="-6.102519035339356">
        <ele>5.42</ele>
        <time>2019-09-05T09:48:14Z</time>
      </trkpt>
      <trkpt lat="57.314090989530087" lon="-6.102821035310626">
        <ele>5.42</ele>
        <time>2019-09-05T09:48:15Z</time>
      </trkpt>
      <trkpt lat="57.314130971208215" lon="-6.103123035281897">
        <ele>4.94</ele>
        <time>2019-09-05T09:48:16Z</time>
      </trkpt>
      <trkpt lat="57.314171036705375" lon="-6.103422017768025">
        <ele>4.94</ele>
        <time>2019-09-05T09:48:17Z</time>
      </trkpt>
      <trkpt lat="57.314196014776826" lon="-6.103726029396057">
        <ele>4.46</ele>
        <time>2019-09-05T09:48:18Z</time>
      </trkpt>
      <trkpt lat="57.314201965928078" lon="-6.104035992175341">
        <ele>4.46</ele>
        <time>2019-09-05T09:48:19Z</time>
      </trkpt>
      <trkpt lat="57.314208000898361" lon="-6.104344027116895">
        <ele>4.46</ele>
        <time>2019-09-05T09:48:20Z</time>
      </trkpt>
      <trkpt lat="57.314214035868645" lon="-6.104648038744927">
        <ele>4.94</ele>
        <time>2019-09-05T09:48:21Z</time>
      </trkpt>
      <trkpt lat="57.314187968149781" lon="-6.104964036494494">
        <ele>4.94</ele>
        <time>2019-09-05T09:48:22Z</time>
      </trkpt>
      <trkpt lat="57.313745990395546" lon="-6.108640003949404">
        <ele>6.39</ele>
        <time>2019-09-05T09:48:34Z</time>
      </trkpt>
      <trkpt lat="57.313249027356505" lon="-6.111326990649104">
        <ele>9.27</ele>
        <time>2019-09-05T09:48:44Z</time>
      </trkpt>
      <trkpt lat="57.313013998791575" lon="-6.114040967077017">
        <ele>5.91</ele>
        <time>2019-09-05T09:48:54Z</time>
      </trkpt>
      <trkpt lat="57.313035037368536" lon="-6.117361038923264">
        <ele>10.710000000000001</ele>
        <time>2019-09-05T09:49:05Z</time>
      </trkpt>
      <trkpt lat="57.312705041840672" lon="-6.119316034018993">
        <ele>17.920000000000002</ele>
        <time>2019-09-05T09:49:12Z</time>
      </trkpt>
      <trkpt lat="57.311915969476104" lon="-6.121129961684346">
        <ele>22.25</ele>
        <time>2019-09-05T09:49:19Z</time>
      </trkpt>
      <trkpt lat="57.31061702594161" lon="-6.123728016391397">
        <ele>23.210000000000001</ele>
        <time>2019-09-05T09:49:30Z</time>
      </trkpt>
      <trkpt lat="57.309112977236509" lon="-6.127169961109757">
        <ele>24.170000000000002</ele>
        <time>2019-09-05T09:49:43Z</time>
      </trkpt>
      <trkpt lat="57.307816967368126" lon="-6.129663996398449">
        <ele>27.050000000000001</ele>
        <time>2019-09-05T09:49:53Z</time>
      </trkpt>
      <trkpt lat="57.30629799887538" lon="-6.131803980097175">
        <ele>27.530000000000001</ele>
        <time>2019-09-05T09:50:04Z</time>
      </trkpt>
      <trkpt lat="57.30496502481401" lon="-6.134164994582534">
        <ele>26.09</ele>
        <time>2019-09-05T09:50:14Z</time>
      </trkpt>
      <trkpt lat="57.303691981360316" lon="-6.137054990977049">
        <ele>25.609999999999999</ele>
        <time>2019-09-05T09:50:25Z</time>
      </trkpt>
      <trkpt lat="57.302972981706262" lon="-6.14030297845602">
        <ele>30.420000000000002</ele>
        <time>2019-09-05T09:50:35Z</time>
      </trkpt>
      <trkpt lat="57.302375016734004" lon="-6.142508005723357">
        <ele>31.379999999999999</ele>
        <time>2019-09-05T09:50:43Z</time>
      </trkpt>
      <trkpt lat="57.302256999537349" lon="-6.142744040116668">
        <ele>30.420000000000002</ele>
        <time>2019-09-05T09:50:44Z</time>
      </trkpt>
      <trkpt lat="57.302137976512313" lon="-6.142982002347708">
        <ele>29.940000000000001</ele>
        <time>2019-09-05T09:50:45Z</time>
      </trkpt>
      <trkpt lat="57.300711963325739" lon="-6.145188035443425">
        <ele>22.25</ele>
        <time>2019-09-05T09:50:55Z</time>
      </trkpt>
      <trkpt lat="57.299374965950847" lon="-6.147336987778544">
        <ele>19.84</ele>
        <time>2019-09-05T09:51:05Z</time>
      </trkpt>
      <trkpt lat="57.298710029572248" lon="-6.149408994242549">
        <ele>19.359999999999999</ele>
        <time>2019-09-05T09:51:12Z</time>
      </trkpt>
      <trkpt lat="57.297993963584304" lon="-6.152192037552595">
        <ele>16</ele>
        <time>2019-09-05T09:51:21Z</time>
      </trkpt>
      <trkpt lat="57.297077989205718" lon="-6.1548459995538">
        <ele>14.08</ele>
        <time>2019-09-05T09:51:31Z</time>
      </trkpt>
      <trkpt lat="57.296594018116593" lon="-6.156435962766409">
        <ele>12.15</ele>
        <time>2019-09-05T09:51:37Z</time>
      </trkpt>
      <trkpt lat="57.296541966497898" lon="-6.156743997707963">
        <ele>11.67</ele>
        <time>2019-09-05T09:51:38Z</time>
      </trkpt>
      <trkpt lat="57.296512965112925" lon="-6.157067036256194">
        <ele>11.19</ele>
        <time>2019-09-05T09:51:39Z</time>
      </trkpt>
      <trkpt lat="57.296488992869854" lon="-6.157392002642155">
        <ele>11.19</ele>
        <time>2019-09-05T09:51:40Z</time>
      </trkpt>
      <trkpt lat="57.29648002423346" lon="-6.157715963199735">
        <ele>10.710000000000001</ele>
        <time>2019-09-05T09:51:41Z</time>
      </trkpt>
      <trkpt lat="57.296374998986721" lon="-6.160878036171198">
        <ele>9.75</ele>
        <time>2019-09-05T09:51:52Z</time>
      </trkpt>
      <trkpt lat="57.295953975990415" lon="-6.162547962740064">
        <ele>8.310000000000001</ele>
        <time>2019-09-05T09:51:59Z</time>
      </trkpt>
      <trkpt lat="57.294791992753744" lon="-6.164505975320935">
        <ele>7.83</ele>
        <time>2019-09-05T09:52:09Z</time>
      </trkpt>
      <trkpt lat="57.293411996215582" lon="-6.166436998173595">
        <ele>9.27</ele>
        <time>2019-09-05T09:52:20Z</time>
      </trkpt>
      <trkpt lat="57.292216988280416" lon="-6.168514033779502">
        <ele>10.710000000000001</ele>
        <time>2019-09-05T09:52:30Z</time>
      </trkpt>
      <trkpt lat="57.290920978412032" lon="-6.170511022210121">
        <ele>11.67</ele>
        <time>2019-09-05T09:52:42Z</time>
      </trkpt>
      <trkpt lat="57.29042099788785" lon="-6.171636041253805">
        <ele>12.15</ele>
        <time>2019-09-05T09:52:48Z</time>
      </trkpt>
      <trkpt lat="57.290364000946283" lon="-6.171876015141606">
        <ele>12.630000000000001</ele>
        <time>2019-09-05T09:52:49Z</time>
      </trkpt>
      <trkpt lat="57.290309015661478" lon="-6.172107020393014">
        <ele>12.630000000000001</ele>
        <time>2019-09-05T09:52:50Z</time>
      </trkpt>
      <trkpt lat="57.290264004841447" lon="-6.172330984845758">
        <ele>12.630000000000001</ele>
        <time>2019-09-05T09:52:51Z</time>
      </trkpt>
      <trkpt lat="57.290244977921247" lon="-6.172542963176966">
        <ele>12.630000000000001</ele>
        <time>2019-09-05T09:52:52Z</time>
      </trkpt>
      <trkpt lat="57.290255036205053" lon="-6.17349598556757">
        <ele>14.08</ele>
        <time>2019-09-05T09:52:59Z</time>
      </trkpt>
      <trkpt lat="57.290262999013066" lon="-6.173682985827327">
        <ele>14.56</ele>
        <time>2019-09-05T09:53:01Z</time>
      </trkpt>
      <trkpt lat="57.290266016498208" lon="-6.173760015517473">
        <ele>14.56</ele>
        <time>2019-09-05T09:53:02Z</time>
      </trkpt>
      <trkpt lat="57.290213964879513" lon="-6.173866968601942">
        <ele>15.039999999999999</ele>
        <time>2019-09-05T09:53:03Z</time>
      </trkpt>
      <trkpt lat="57.290172977373004" lon="-6.173899993300438">
        <ele>15.039999999999999</ele>
        <time>2019-09-05T09:53:04Z</time>
      </trkpt>
      <trkpt lat="57.290112040936947" lon="-6.173913991078734">
        <ele>15.039999999999999</ele>
        <time>2019-09-05T09:53:05Z</time>
      </trkpt>
      <trkpt lat="57.290053032338619" lon="-6.173921031877399">
        <ele>15.52</ele>
        <time>2019-09-05T09:53:06Z</time>
      </trkpt>
      <trkpt lat="57.289993017911911" lon="-6.173927988857031">
        <ele>15.52</ele>
        <time>2019-09-05T09:53:07Z</time>
      </trkpt>
      <trkpt lat="57.289935015141964" lon="-6.173935029655695">
        <ele>15.52</ele>
        <time>2019-09-05T09:53:08Z</time>
      </trkpt>
      <trkpt lat="57.289836024865508" lon="-6.17394701577723">
        <ele>15.039999999999999</ele>
        <time>2019-09-05T09:53:10Z</time>
      </trkpt>
      <trkpt lat="57.289792019873857" lon="-6.173954978585243">
        <ele>15.039999999999999</ele>
        <time>2019-09-05T09:53:11Z</time>
      </trkpt>
      <trkpt lat="57.289750026538968" lon="-6.173982974141836">
        <ele>15.039999999999999</ele>
        <time>2019-09-05T09:53:12Z</time>
      </trkpt>
      <trkpt lat="57.289667967706919" lon="-6.174037959426642">
        <ele>15.039999999999999</ele>
        <time>2019-09-05T09:53:13Z</time>
      </trkpt>
      <trkpt lat="57.289682971313596" lon="-6.174109037965536">
        <ele>15.039999999999999</ele>
        <time>2019-09-05T09:53:14Z</time>
      </trkpt>
      <trkpt lat="57.289693029597402" lon="-6.174157988280058">
        <ele>15.039999999999999</ele>
        <time>2019-09-05T09:53:15Z</time>
      </trkpt>
      <trkpt lat="57.289704009890556" lon="-6.174209034070373">
        <ele>15.039999999999999</ele>
        <time>2019-09-05T09:53:16Z</time>
      </trkpt>
      <trkpt lat="57.289714990183711" lon="-6.174262007698417">
        <ele>15.039999999999999</ele>
        <time>2019-09-05T09:53:17Z</time>
      </trkpt>
      <trkpt lat="57.289724964648485" lon="-6.174309030175209">
        <ele>15.039999999999999</ele>
        <time>2019-09-05T09:53:18Z</time>
      </trkpt>
      <trkpt lat="57.289891010150313" lon="-6.174694010987878">
        <ele>14.56</ele>
        <time>2019-09-05T09:53:28Z</time>
      </trkpt>
      <trkpt lat="57.2899279743433" lon="-6.174759976565838">
        <ele>14.56</ele>
        <time>2019-09-05T09:53:30Z</time>
      </trkpt>
      <trkpt lat="57.289941972121596" lon="-6.17478596046567">
        <ele>14.08</ele>
        <time>2019-09-05T09:53:31Z</time>
      </trkpt>
      <trkpt lat="57.290171971544623" lon="-6.175201032310724">
        <ele>13.119999999999999</ele>
        <time>2019-09-05T09:53:44Z</time>
      </trkpt>
      <trkpt lat="57.290394008159637" lon="-6.175543013960123">
        <ele>12.630000000000001</ele>
        <time>2019-09-05T09:53:55Z</time>
      </trkpt>
      <trkpt lat="57.290512025356293" lon="-6.175671005621553">
        <ele>13.119999999999999</ele>
        <time>2019-09-05T09:54:08Z</time>
      </trkpt>
      <trkpt lat="57.290569022297859" lon="-6.175733031705022">
        <ele>13.6</ele>
        <time>2019-09-05T09:54:11Z</time>
      </trkpt>
      <trkpt lat="57.290544966235757" lon="-6.17583797313273">
        <ele>13.6</ele>
        <time>2019-09-05T09:54:19Z</time>
      </trkpt>
      <trkpt lat="57.290544966235757" lon="-6.17583797313273">
        <ele>13.6</ele>
        <time>2019-09-05T09:54:28Z</time>
      </trkpt>
      <trkpt lat="57.290539015084505" lon="-6.17562398314476">
        <ele>15.039999999999999</ele>
        <time>2019-09-05T10:25:50Z</time>
      </trkpt>
      <trkpt lat="57.290616966784" lon="-6.175825987011194">
        <ele>14.56</ele>
        <time>2019-09-05T10:26:35Z</time>
      </trkpt>
      <trkpt lat="57.290547983720899" lon="-6.175812995061278">
        <ele>9.27</ele>
        <time>2019-09-05T10:27:19Z</time>
      </trkpt>
      <trkpt lat="57.290532980114222" lon="-6.175733031705022">
        <ele>12.630000000000001</ele>
        <time>2019-09-05T10:27:33Z</time>
      </trkpt>
      <trkpt lat="57.290532980114222" lon="-6.175733031705022">
        <ele>12.630000000000001</ele>
        <time>2019-09-05T10:27:49Z</time>
      </trkpt>
      <trkpt lat="57.290569022297859" lon="-6.175733031705022">
        <ele>12.15</ele>
        <time>2019-09-05T10:27:51Z</time>
      </trkpt>
      <trkpt lat="57.290588971227407" lon="-6.175725990906358">
        <ele>12.15</ele>
        <time>2019-09-05T10:27:52Z</time>
      </trkpt>
      <trkpt lat="57.290804972872138" lon="-6.175647033378482">
        <ele>12.630000000000001</ele>
        <time>2019-09-05T10:27:57Z</time>
      </trkpt>
      <trkpt lat="57.291150977835059" lon="-6.176414983347058">
        <ele>13.119999999999999</ele>
        <time>2019-09-05T10:28:04Z</time>
      </trkpt>
      <trkpt lat="57.292269039899111" lon="-6.178232012316585">
        <ele>18.399999999999999</ele>
        <time>2019-09-05T10:28:15Z</time>
      </trkpt>
      <trkpt lat="57.292389990761876" lon="-6.178353969007731">
        <ele>18.879999999999999</ele>
        <time>2019-09-05T10:28:16Z</time>
      </trkpt>
      <trkpt lat="57.293831007555127" lon="-6.179239014163613">
        <ele>29.940000000000001</ele>
        <time>2019-09-05T10:28:27Z</time>
      </trkpt>
      <trkpt lat="57.295596990734339" lon="-6.180450031533837">
        <ele>40.509999999999998</ele>
        <time>2019-09-05T10:28:41Z</time>
      </trkpt>
      <trkpt lat="57.296018013730645" lon="-6.18075798265636">
        <ele>43.399999999999999</ele>
        <time>2019-09-05T10:28:44Z</time>
      </trkpt>
      <trkpt lat="57.296166960150003" lon="-6.180867031216621">
        <ele>44.359999999999999</ele>
        <time>2019-09-05T10:28:45Z</time>
      </trkpt>
      <trkpt lat="57.297089975327253" lon="-6.18200495839119">
        <ele>50.130000000000003</ele>
        <time>2019-09-05T10:28:51Z</time>
      </trkpt>
      <trkpt lat="57.297278987243772" lon="-6.182140996679664">
        <ele>51.090000000000003</ele>
        <time>2019-09-05T10:28:52Z</time>
      </trkpt>
      <trkpt lat="57.29748903773725" lon="-6.182222971692681">
        <ele>52.049999999999997</ele>
        <time>2019-09-05T10:28:53Z</time>
      </trkpt>
      <trkpt lat="57.298980010673404" lon="-6.182780032977462">
        <ele>58.780000000000001</ele>
        <time>2019-09-05T10:29:00Z</time>
      </trkpt>
      <trkpt lat="57.300100000575185" lon="-6.183688966557384">
        <ele>67.909999999999997</ele>
        <time>2019-09-05T10:29:07Z</time>
      </trkpt>
      <trkpt lat="57.302245013415813" lon="-6.186158023774624">
        <ele>76.079999999999998</ele>
        <time>2019-09-05T10:29:19Z</time>
      </trkpt>
      <trkpt lat="57.303416971117258" lon="-6.186997974291444">
        <ele>78</ele>
        <time>2019-09-05T10:29:26Z</time>
      </trkpt>
      <trkpt lat="57.305351011455059" lon="-6.187771037220955">
        <ele>81.849999999999994</ele>
        <time>2019-09-05T10:29:37Z</time>
      </trkpt>
      <trkpt lat="57.307170974090695" lon="-6.188819026574493">
        <ele>87.140000000000001</ele>
        <time>2019-09-05T10:29:47Z</time>
      </trkpt>
      <trkpt lat="57.308430019766092" lon="-6.189825022593141">
        <ele>93.390000000000001</ele>
        <time>2019-09-05T10:29:55Z</time>
      </trkpt>
      <trkpt lat="57.309007029980421" lon="-6.190572017803788">
        <ele>96.75</ele>
        <time>2019-09-05T10:29:59Z</time>
      </trkpt>
      <trkpt lat="57.309124963358045" lon="-6.19083596393466">
        <ele>97.709999999999994</ele>
        <time>2019-09-05T10:30:00Z</time>
      </trkpt>
      <trkpt lat="57.309236023575068" lon="-6.191122960299254">
        <ele>98.670000000000002</ele>
        <time>2019-09-05T10:30:01Z</time>
      </trkpt>
      <trkpt lat="57.309774979948997" lon="-6.192846028134227">
        <ele>101.08</ele>
        <time>2019-09-05T10:30:07Z</time>
      </trkpt>
      <trkpt lat="57.309881011024117" lon="-6.19311299175024">
        <ele>101.56</ele>
        <time>2019-09-05T10:30:08Z</time>
      </trkpt>
      <trkpt lat="57.310030041262507" lon="-6.193331005051732">
        <ele>101.56</ele>
        <time>2019-09-05T10:30:09Z</time>
      </trkpt>
      <trkpt lat="57.310969987884164" lon="-6.194687029346824">
        <ele>102.04000000000001</ele>
        <time>2019-09-05T10:30:17Z</time>
      </trkpt>
      <trkpt lat="57.312777964398265" lon="-6.197269996628165">
        <ele>101.08</ele>
        <time>2019-09-05T10:30:29Z</time>
      </trkpt>
      <trkpt lat="57.314272038638592" lon="-6.199134970083833">
        <ele>103.48</ele>
        <time>2019-09-05T10:30:38Z</time>
      </trkpt>
      <trkpt lat="57.315977001562715" lon="-6.200814032927156">
        <ele>106.36</ele>
        <time>2019-09-05T10:30:49Z</time>
      </trkpt>
      <trkpt lat="57.318316977471113" lon="-6.202938007190824">
        <ele>109.25</ele>
        <time>2019-09-05T10:31:01Z</time>
      </trkpt>
      <trkpt lat="57.319940971210599" lon="-6.2044139765203">
        <ele>109.73</ele>
        <time>2019-09-05T10:31:11Z</time>
      </trkpt>
      <trkpt lat="57.320640021935105" lon="-6.204995010048151">
        <ele>109.25</ele>
        <time>2019-09-05T10:31:14Z</time>
      </trkpt>
      <trkpt lat="57.320813024416566" lon="-6.205081008374691">
        <ele>108.77</ele>
        <time>2019-09-05T10:31:15Z</time>
      </trkpt>
      <trkpt lat="57.321004969999194" lon="-6.205094000324607">
        <ele>108.77</ele>
        <time>2019-09-05T10:31:16Z</time>
      </trkpt>
      <trkpt lat="57.321003964170814" lon="-6.205094000324607">
        <ele>108.77</ele>
        <time>2019-09-05T10:31:17Z</time>
      </trkpt>
      <trkpt lat="57.321203034371138" lon="-6.205072961747646">
        <ele>108.29000000000001</ele>
        <time>2019-09-05T10:31:18Z</time>
      </trkpt>
      <trkpt lat="57.323514008894563" lon="-6.204741038382053">
        <ele>104.92</ele>
        <time>2019-09-05T10:31:28Z</time>
      </trkpt>
      <trkpt lat="57.325317962095141" lon="-6.203864039853215">
        <ele>101.08</ele>
        <time>2019-09-05T10:31:36Z</time>
      </trkpt>
      <trkpt lat="57.327356021851301" lon="-6.202900037169457">
        <ele>100.59999999999999</ele>
        <time>2019-09-05T10:31:46Z</time>
      </trkpt>
      <trkpt lat="57.327586021274328" lon="-6.202852008864284">
        <ele>101.08</ele>
        <time>2019-09-05T10:31:47Z</time>
      </trkpt>
      <trkpt lat="57.327813003212214" lon="-6.202819989994168">
        <ele>101.08</ele>
        <time>2019-09-05T10:31:48Z</time>
      </trkpt>
      <trkpt lat="57.328721014782786" lon="-6.202941024675965">
        <ele>101.08</ele>
        <time>2019-09-05T10:31:52Z</time>
      </trkpt>
      <trkpt lat="57.328953025862575" lon="-6.202917974442244">
        <ele>100.59999999999999</ele>
        <time>2019-09-05T10:31:53Z</time>
      </trkpt>
      <trkpt lat="57.329419981688261" lon="-6.202732985839248">
        <ele>100.11</ele>
        <time>2019-09-05T10:31:54Z</time>
      </trkpt>
      <trkpt lat="57.329645035788417" lon="-6.202570041641593">
        <ele>100.11</ele>
        <time>2019-09-05T10:31:55Z</time>
      </trkpt>
      <trkpt lat="57.32986799441278" lon="-6.202379018068314">
        <ele>99.629999999999995</ele>
        <time>2019-09-05T10:31:56Z</time>
      </trkpt>
      <trkpt lat="57.331464998424053" lon="-6.200977982953191">
        <ele>97.230000000000004</ele>
        <time>2019-09-05T10:32:04Z</time>
      </trkpt>
      <trkpt lat="57.333619985729456" lon="-6.198914023116231">
        <ele>98.670000000000002</ele>
        <time>2019-09-05T10:32:15Z</time>
      </trkpt>
      <trkpt lat="57.333820983767509" lon="-6.198776978999376">
        <ele>99.150000000000006</ele>
        <time>2019-09-05T10:32:16Z</time>
      </trkpt>
      <trkpt lat="57.334963018074632" lon="-6.198307005688548">
        <ele>99.629999999999995</ele>
        <time>2019-09-05T10:32:22Z</time>
      </trkpt>
      <trkpt lat="57.335165021941066" lon="-6.198330977931619">
        <ele>99.629999999999995</ele>
        <time>2019-09-05T10:32:23Z</time>
      </trkpt>
      <trkpt lat="57.335371971130371" lon="-6.198370959609747">
        <ele>99.629999999999995</ele>
        <time>2019-09-05T10:32:25Z</time>
      </trkpt>
      <trkpt lat="57.337745977565646" lon="-6.199035979807377">
        <ele>95.790000000000006</ele>
        <time>2019-09-05T10:32:36Z</time>
      </trkpt>
      <trkpt lat="57.340345960110426" lon="-6.198859037831426">
        <ele>90.5</ele>
        <time>2019-09-05T10:32:48Z</time>
      </trkpt>
      <trkpt lat="57.342343032360077" lon="-6.197908027097583">
        <ele>85.689999999999998</ele>
        <time>2019-09-05T10:32:57Z</time>
      </trkpt>
      <trkpt lat="57.343603000044823" lon="-6.197332022711635">
        <ele>82.329999999999998</ele>
        <time>2019-09-05T10:33:03Z</time>
      </trkpt>
      <trkpt lat="57.343778014183044" lon="-6.197322970256209">
        <ele>81.849999999999994</ele>
        <time>2019-09-05T10:33:04Z</time>
      </trkpt>
      <trkpt lat="57.343945987522602" lon="-6.197369992733002">
        <ele>81.849999999999994</ele>
        <time>2019-09-05T10:33:05Z</time>
      </trkpt>
      <trkpt lat="57.344102980569005" lon="-6.197450961917639">
        <ele>80.890000000000001</ele>
        <time>2019-09-05T10:33:06Z</time>
      </trkpt>
      <trkpt lat="57.344251004979014" lon="-6.197527991607785">
        <ele>80.890000000000001</ele>
        <time>2019-09-05T10:33:07Z</time>
      </trkpt>
      <trkpt lat="57.344725001603365" lon="-6.197663024067879">
        <ele>79.450000000000003</ele>
        <time>2019-09-05T10:33:10Z</time>
      </trkpt>
      <trkpt lat="57.344896998256445" lon="-6.19766503572464">
        <ele>78.969999999999999</ele>
        <time>2019-09-05T10:33:11Z</time>
      </trkpt>
      <trkpt lat="57.345075029879808" lon="-6.197609966620803">
        <ele>78.969999999999999</ele>
        <time>2019-09-05T10:33:12Z</time>
      </trkpt>
      <trkpt lat="57.346683014184237" lon="-6.196994986385107">
        <ele>76.079999999999998</ele>
        <time>2019-09-05T10:33:20Z</time>
      </trkpt>
      <trkpt lat="57.348243976011872" lon="-6.196840004995465">
        <ele>75.120000000000005</ele>
        <time>2019-09-05T10:33:28Z</time>
      </trkpt>
      <trkpt lat="57.349639981985092" lon="-6.196846961975098">
        <ele>72.239999999999995</ele>
        <time>2019-09-05T10:33:34Z</time>
      </trkpt>
      <trkpt lat="57.34980896115303" lon="-6.196746965870261">
        <ele>71.760000000000005</ele>
        <time>2019-09-05T10:33:35Z</time>
      </trkpt>
      <trkpt lat="57.349981963634491" lon="-6.196639006957412">
        <ele>70.790000000000006</ele>
        <time>2019-09-05T10:33:36Z</time>
      </trkpt>
      <trkpt lat="57.350152032449841" lon="-6.196504980325699">
        <ele>69.829999999999998</ele>
        <time>2019-09-05T10:33:37Z</time>
      </trkpt>
      <trkpt lat="57.350320005789399" lon="-6.196371037513018">
        <ele>68.390000000000001</ele>
        <time>2019-09-05T10:33:38Z</time>
      </trkpt>
      <trkpt lat="57.350643966346979" lon="-6.196145983412862">
        <ele>65.989999999999995</ele>
        <time>2019-09-05T10:33:40Z</time>
      </trkpt>
      <trkpt lat="57.350812023505569" lon="-6.196130979806185">
        <ele>65.030000000000001</ele>
        <time>2019-09-05T10:33:41Z</time>
      </trkpt>
      <trkpt lat="57.35098603181541" lon="-6.196174984797835">
        <ele>64.069999999999993</ele>
        <time>2019-09-05T10:33:42Z</time>
      </trkpt>
      <trkpt lat="57.351170014590025" lon="-6.196221001446247">
        <ele>63.100000000000001</ele>
        <time>2019-09-05T10:33:43Z</time>
      </trkpt>
      <trkpt lat="57.351359026506543" lon="-6.19626902975142">
        <ele>62.140000000000001</ele>
        <time>2019-09-05T10:33:44Z</time>
      </trkpt>
      <trkpt lat="57.353412006050348" lon="-6.196846961975098">
        <ele>60.700000000000003</ele>
        <time>2019-09-05T10:33:55Z</time>
      </trkpt>
      <trkpt lat="57.353595988824964" lon="-6.196970008313656">
        <ele>60.219999999999999</ele>
        <time>2019-09-05T10:33:56Z</time>
      </trkpt>
      <trkpt lat="57.354108039289713" lon="-6.197312995791435">
        <ele>60.219999999999999</ele>
        <time>2019-09-05T10:33:59Z</time>
      </trkpt>
      <trkpt lat="57.354272995144129" lon="-6.197386002168059">
        <ele>60.219999999999999</ele>
        <time>2019-09-05T10:34:00Z</time>
      </trkpt>
      <trkpt lat="57.354272995144129" lon="-6.197386002168059">
        <ele>59.740000000000002</ele>
        <time>2019-09-05T10:34:01Z</time>
      </trkpt>
      <trkpt lat="57.354439962655306" lon="-6.197406034916639">
        <ele>59.740000000000002</ele>
        <time>2019-09-05T10:34:02Z</time>
      </trkpt>
      <trkpt lat="57.354611037299037" lon="-6.197360018268228">
        <ele>59.740000000000002</ele>
        <time>2019-09-05T10:34:03Z</time>
      </trkpt>
      <trkpt lat="57.354775993153453" lon="-6.197268990799785">
        <ele>59.259999999999998</ele>
        <time>2019-09-05T10:34:04Z</time>
      </trkpt>
      <trkpt lat="57.35494002699852" lon="-6.197140999138355">
        <ele>59.259999999999998</ele>
        <time>2019-09-05T10:34:05Z</time>
      </trkpt>
      <trkpt lat="57.355101965367794" lon="-6.197014013305306">
        <ele>58.780000000000001</ele>
        <time>2019-09-05T10:34:06Z</time>
      </trkpt>
      <trkpt lat="57.355271028354764" lon="-6.19691401720047">
        <ele>58.299999999999997</ele>
        <time>2019-09-05T10:34:07Z</time>
      </trkpt>
      <trkpt lat="57.355446964502335" lon="-6.196836987510324">
        <ele>58.299999999999997</ele>
        <time>2019-09-05T10:34:08Z</time>
      </trkpt>
      <trkpt lat="57.357655009254813" lon="-6.196990963071585">
        <ele>55.890000000000001</ele>
        <time>2019-09-05T10:34:18Z</time>
      </trkpt>
      <trkpt lat="57.358074020594358" lon="-6.197066986933351">
        <ele>54.450000000000003</ele>
        <time>2019-09-05T10:34:20Z</time>
      </trkpt>
      <trkpt lat="57.3590889852494" lon="-6.197579959407449">
        <ele>53.009999999999998</ele>
        <time>2019-09-05T10:34:26Z</time>
      </trkpt>
      <trkpt lat="57.359239021316171" lon="-6.197619019076228">
        <ele>53.009999999999998</ele>
        <time>2019-09-05T10:34:27Z</time>
      </trkpt>
      <trkpt lat="57.35938897356391" lon="-6.197632011026144">
        <ele>52.530000000000001</ele>
        <time>2019-09-05T10:34:28Z</time>
      </trkpt>
      <trkpt lat="57.359545966610312" lon="-6.197610972449184">
        <ele>51.57</ele>
        <time>2019-09-05T10:34:29Z</time>
      </trkpt>
      <trkpt lat="57.360861003398895" lon="-6.197246024385095">
        <ele>47.240000000000002</ele>
        <time>2019-09-05T10:34:36Z</time>
      </trkpt>
      <trkpt lat="57.362776016816497" lon="-6.196038024500012">
        <ele>48.200000000000003</ele>
        <time>2019-09-05T10:34:46Z</time>
      </trkpt>
      <trkpt lat="57.362950025126338" lon="-6.195839960128069">
        <ele>48.200000000000003</ele>
        <time>2019-09-05T10:34:47Z</time>
      </trkpt>
      <trkpt lat="57.364419959485531" lon="-6.194633971899748">
        <ele>45.32</ele>
        <time>2019-09-05T10:34:55Z</time>
      </trkpt>
      <trkpt lat="57.366531025618315" lon="-6.19334802031517">
        <ele>43.880000000000003</ele>
        <time>2019-09-05T10:35:06Z</time>
      </trkpt>
      <trkpt lat="57.366726994514465" lon="-6.193322036415339">
        <ele>43.399999999999999</ele>
        <time>2019-09-05T10:35:07Z</time>
      </trkpt>
      <trkpt lat="57.366925980895758" lon="-6.193355983123183">
        <ele>42.439999999999998</ele>
        <time>2019-09-05T10:35:08Z</time>
      </trkpt>
      <trkpt lat="57.367125973105431" lon="-6.19339101947844">
        <ele>41.950000000000003</ele>
        <time>2019-09-05T10:35:09Z</time>
      </trkpt>
      <trkpt lat="57.367321019992232" lon="-6.193453967571259">
        <ele>41.469999999999999</ele>
        <time>2019-09-05T10:35:10Z</time>
      </trkpt>
      <trkpt lat="57.367500979453325" lon="-6.193572990596294">
        <ele>40.990000000000002</ele>
        <time>2019-09-05T10:35:11Z</time>
      </trkpt>
      <trkpt lat="57.367980005219579" lon="-6.193888988345861">
        <ele>40.030000000000001</ele>
        <time>2019-09-05T10:35:14Z</time>
      </trkpt>
      <trkpt lat="57.368139009922743" lon="-6.19399300776422">
        <ele>39.549999999999997</ele>
        <time>2019-09-05T10:35:15Z</time>
      </trkpt>
      <trkpt lat="57.368288040161133" lon="-6.193987978622317">
        <ele>39.07</ele>
        <time>2019-09-05T10:35:16Z</time>
      </trkpt>
      <trkpt lat="57.368451990187168" lon="-6.193983033299446">
        <ele>39.07</ele>
        <time>2019-09-05T10:35:17Z</time>
      </trkpt>
      <trkpt lat="57.368621975183487" lon="-6.193976998329163">
        <ele>38.109999999999999</ele>
        <time>2019-09-05T10:35:18Z</time>
      </trkpt>
      <trkpt lat="57.370360968634486" lon="-6.194070037454367">
        <ele>33.780000000000001</ele>
        <time>2019-09-05T10:35:27Z</time>
      </trkpt>
      <trkpt lat="57.372587034478784" lon="-6.194449989125133">
        <ele>28.02</ele>
        <time>2019-09-05T10:35:38Z</time>
      </trkpt>
      <trkpt lat="57.37419200129807" lon="-6.194691974669695">
        <ele>23.690000000000001</ele>
        <time>2019-09-05T10:35:46Z</time>
      </trkpt>
      <trkpt lat="57.376179015263915" lon="-6.194684011861682">
        <ele>20.809999999999999</ele>
        <time>2019-09-05T10:35:56Z</time>
      </trkpt>
      <trkpt lat="57.376336008310318" lon="-6.194754000753164">
        <ele>20.32</ele>
        <time>2019-09-05T10:35:57Z</time>
      </trkpt>
      <trkpt lat="57.376506999135017" lon="-6.19483002461493">
        <ele>19.359999999999999</ele>
        <time>2019-09-05T10:35:58Z</time>
      </trkpt>
      <trkpt lat="57.376613030210137" lon="-6.194935971871018">
        <ele>18.879999999999999</ele>
        <time>2019-09-05T10:35:59Z</time>
      </trkpt>
      <trkpt lat="57.376724006608129" lon="-6.195096988230944">
        <ele>18.879999999999999</ele>
        <time>2019-09-05T10:36:00Z</time>
      </trkpt>
      <trkpt lat="57.376830959692597" lon="-6.195287005975843">
        <ele>18.399999999999999</ele>
        <time>2019-09-05T10:36:01Z</time>
      </trkpt>
      <trkpt lat="57.376919975504279" lon="-6.195514993742108">
        <ele>18.399999999999999</ele>
        <time>2019-09-05T10:36:02Z</time>
      </trkpt>
      <trkpt lat="57.377013014629483" lon="-6.19575496762991">
        <ele>18.399999999999999</ele>
        <time>2019-09-05T10:36:03Z</time>
      </trkpt>
      <trkpt lat="57.377751963213086" lon="-6.197410980239511">
        <ele>19.359999999999999</ele>
        <time>2019-09-05T10:36:10Z</time>
      </trkpt>
      <trkpt lat="57.378018004819751" lon="-6.197789004072547">
        <ele>19.359999999999999</ele>
        <time>2019-09-05T10:36:12Z</time>
      </trkpt>
      <trkpt lat="57.378181032836437" lon="-6.198006011545658">
        <ele>19.359999999999999</ele>
        <time>2019-09-05T10:36:13Z</time>
      </trkpt>
      <trkpt lat="57.379070017486811" lon="-6.198702966794372">
        <ele>19.84</ele>
        <time>2019-09-05T10:36:19Z</time>
      </trkpt>
      <trkpt lat="57.380411960184574" lon="-6.199274025857449">
        <ele>19.84</ele>
        <time>2019-09-05T10:36:25Z</time>
      </trkpt>
      <trkpt lat="57.380411960184574" lon="-6.199274025857449">
        <ele>19.84</ele>
        <time>2019-09-05T10:36:26Z</time>
      </trkpt>
      <trkpt lat="57.380715971812606" lon="-6.199638973921537">
        <ele>19.359999999999999</ele>
        <time>2019-09-05T10:36:27Z</time>
      </trkpt>
      <trkpt lat="57.381995972245932" lon="-6.201315019279718">
        <ele>19.84</ele>
        <time>2019-09-05T10:36:35Z</time>
      </trkpt>
      <trkpt lat="57.382168974727392" lon="-6.201502019539475">
        <ele>19.359999999999999</ele>
        <time>2019-09-05T10:36:36Z</time>
      </trkpt>
      <trkpt lat="57.382365027442575" lon="-6.201600003987551">
        <ele>19.359999999999999</ele>
        <time>2019-09-05T10:36:37Z</time>
      </trkpt>
      <trkpt lat="57.383926995098591" lon="-6.202239040285349">
        <ele>19.84</ele>
        <time>2019-09-05T10:36:46Z</time>
      </trkpt>
      <trkpt lat="57.385678980499506" lon="-6.203308990225196">
        <ele>19.359999999999999</ele>
        <time>2019-09-05T10:36:55Z</time>
      </trkpt>
      <trkpt lat="57.38723399117589" lon="-6.20400401763618">
        <ele>17.920000000000002</ele>
        <time>2019-09-05T10:37:02Z</time>
      </trkpt>
      <trkpt lat="57.388611976057291" lon="-6.204486982896924">
        <ele>18.399999999999999</ele>
        <time>2019-09-05T10:37:09Z</time>
      </trkpt>
      <trkpt lat="57.390579963102937" lon="-6.205197013914585">
        <ele>21.77</ele>
        <time>2019-09-05T10:37:19Z</time>
      </trkpt>
      <trkpt lat="57.390781966969371" lon="-6.205189973115921">
        <ele>22.25</ele>
        <time>2019-09-05T10:37:20Z</time>
      </trkpt>
      <trkpt lat="57.390982965007424" lon="-6.205117972567678">
        <ele>22.73</ele>
        <time>2019-09-05T10:37:21Z</time>
      </trkpt>
      <trkpt lat="57.393557969480753" lon="-6.203993037343025">
        <ele>23.690000000000001</ele>
        <time>2019-09-05T10:37:34Z</time>
      </trkpt>
      <trkpt lat="57.395760985091329" lon="-6.202918980270624">
        <ele>22.73</ele>
        <time>2019-09-05T10:37:45Z</time>
      </trkpt>
      <trkpt lat="57.397714974358678" lon="-6.201695976778865">
        <ele>21.289999999999999</ele>
        <time>2019-09-05T10:37:56Z</time>
      </trkpt>
      <trkpt lat="57.398643018677831" lon="-6.200850997120142">
        <ele>20.32</ele>
        <time>2019-09-05T10:38:00Z</time>
      </trkpt>
      <trkpt lat="57.398839993402362" lon="-6.200747983530164">
        <ele>20.32</ele>
        <time>2019-09-05T10:38:01Z</time>
      </trkpt>
      <trkpt lat="57.399034034460783" lon="-6.200646981596947">
        <ele>20.32</ele>
        <time>2019-09-05T10:38:02Z</time>
      </trkpt>
      <trkpt lat="57.399034034460783" lon="-6.200646981596947">
        <ele>19.84</ele>
        <time>2019-09-05T10:38:03Z</time>
      </trkpt>
      <trkpt lat="57.39943603053689" lon="-6.200582021847367">
        <ele>19.84</ele>
        <time>2019-09-05T10:38:04Z</time>
      </trkpt>
      <trkpt lat="57.399642979726195" lon="-6.200602976605296">
        <ele>19.84</ele>
        <time>2019-09-05T10:38:05Z</time>
      </trkpt>
      <trkpt lat="57.400690969079733" lon="-6.20080397464335">
        <ele>20.809999999999999</ele>
        <time>2019-09-05T10:38:11Z</time>
      </trkpt>
      <trkpt lat="57.400820972397923" lon="-6.200778996571899">
        <ele>20.809999999999999</ele>
        <time>2019-09-05T10:38:12Z</time>
      </trkpt>
      <trkpt lat="57.400946030393243" lon="-6.200755024328828">
        <ele>20.809999999999999</ele>
        <time>2019-09-05T10:38:13Z</time>
      </trkpt>
      <trkpt lat="57.402198035269976" lon="-6.200484959408641">
        <ele>21.77</ele>
        <time>2019-09-05T10:38:24Z</time>
      </trkpt>
      <trkpt lat="57.403467977419496" lon="-6.200446989387274">
        <ele>23.690000000000001</ele>
        <time>2019-09-05T10:38:33Z</time>
      </trkpt>
      <trkpt lat="57.404994992539287" lon="-6.200743038207293">
        <ele>22.73</ele>
        <time>2019-09-05T10:38:46Z</time>
      </trkpt>
      <trkpt lat="57.406381024047732" lon="-6.201221980154514">
        <ele>24.170000000000002</ele>
        <time>2019-09-05T10:38:58Z</time>
      </trkpt>
      <trkpt lat="57.407770995050669" lon="-6.201632022857666">
        <ele>22.73</ele>
        <time>2019-09-05T10:39:10Z</time>
      </trkpt>
      <trkpt lat="57.40925501100719" lon="-6.202248008921742">
        <ele>21.289999999999999</ele>
        <time>2019-09-05T10:39:23Z</time>
      </trkpt>
      <trkpt lat="57.409714004024863" lon="-6.20222001336515">
        <ele>21.289999999999999</ele>
        <time>2019-09-05T10:39:28Z</time>
      </trkpt>
      <trkpt lat="57.409831015393138" lon="-6.202189000323415">
        <ele>21.289999999999999</ele>
        <time>2019-09-05T10:39:29Z</time>
      </trkpt>
      <trkpt lat="57.410992998629808" lon="-6.201588017866015">
        <ele>18.399999999999999</ele>
        <time>2019-09-05T10:39:38Z</time>
      </trkpt>
      <trkpt lat="57.412184989079833" lon="-6.201074039563537">
        <ele>16.48</ele>
        <time>2019-09-05T10:39:48Z</time>
      </trkpt>
      <trkpt lat="57.412529988214374" lon="-6.20104000903666">
        <ele>14.08</ele>
        <time>2019-09-05T10:39:52Z</time>
      </trkpt>
      <trkpt lat="57.412620009854436" lon="-6.201031040400267">
        <ele>13.6</ele>
        <time>2019-09-05T10:39:53Z</time>
      </trkpt>
      <trkpt lat="57.412725035101175" lon="-6.200942024588585">
        <ele>13.119999999999999</ele>
        <time>2019-09-05T10:39:54Z</time>
      </trkpt>
      <trkpt lat="57.412897031754255" lon="-6.200794000178576">
        <ele>12.630000000000001</ele>
        <time>2019-09-05T10:39:55Z</time>
      </trkpt>
      <trkpt lat="57.412964003160596" lon="-6.200704984366894">
        <ele>12.15</ele>
        <time>2019-09-05T10:39:56Z</time>
      </trkpt>
      <trkpt lat="57.413028040900826" lon="-6.200601970776916">
        <ele>11.67</ele>
        <time>2019-09-05T10:39:57Z</time>
      </trkpt>
      <trkpt lat="57.413065005093813" lon="-6.200484959408641">
        <ele>11.19</ele>
        <time>2019-09-05T10:39:58Z</time>
      </trkpt>
      <trkpt lat="57.41310297511518" lon="-6.200368031859398">
        <ele>11.19</ele>
        <time>2019-09-05T10:39:59Z</time>
      </trkpt>
      <trkpt lat="57.413137005642056" lon="-6.200258983299136">
        <ele>10.710000000000001</ele>
        <time>2019-09-05T10:40:00Z</time>
      </trkpt>
      <trkpt lat="57.413177993148565" lon="-6.200129985809326">
        <ele>10.710000000000001</ele>
        <time>2019-09-05T10:40:01Z</time>
      </trkpt>
      <trkpt lat="57.413223003968596" lon="-6.19966696947813">
        <ele>9.75</ele>
        <time>2019-09-05T10:40:04Z</time>
      </trkpt>
      <trkpt lat="57.413249993696809" lon="-6.199049977585673">
        <ele>9.75</ele>
        <time>2019-09-05T10:40:07Z</time>
      </trkpt>
      <trkpt lat="57.413233984261751" lon="-6.198832970112562">
        <ele>9.27</ele>
        <time>2019-09-05T10:40:08Z</time>
      </trkpt>
      <trkpt lat="57.413218980655074" lon="-6.198623003438115">
        <ele>9.27</ele>
        <time>2019-09-05T10:40:09Z</time>
      </trkpt>
      <trkpt lat="57.413138011470437" lon="-6.198030989617109">
        <ele>9.27</ele>
        <time>2019-09-05T10:40:12Z</time>
      </trkpt>
      <trkpt lat="57.412976995110512" lon="-6.197332022711635">
        <ele>9.27</ele>
        <time>2019-09-05T10:40:16Z</time>
      </trkpt>
      <trkpt lat="57.412814972922206" lon="-6.196723999455571">
        <ele>10.23</ele>
        <time>2019-09-05T10:40:21Z</time>
      </trkpt>
      <trkpt lat="57.412802986800671" lon="-6.196590978652239">
        <ele>10.23</ele>
        <time>2019-09-05T10:40:22Z</time>
      </trkpt>
      <trkpt lat="57.412730986252427" lon="-6.195715991780162">
        <ele>10.23</ele>
        <time>2019-09-05T10:40:31Z</time>
      </trkpt>
      <trkpt lat="57.412724029272795" lon="-6.195630999282002">
        <ele>10.710000000000001</ele>
        <time>2019-09-05T10:40:32Z</time>
      </trkpt>
      <trkpt lat="57.412689998745918" lon="-6.195355989038944">
        <ele>10.710000000000001</ele>
        <time>2019-09-05T10:40:35Z</time>
      </trkpt>
      <trkpt lat="57.412662003189325" lon="-6.195261022076011">
        <ele>11.19</ele>
        <time>2019-09-05T10:40:36Z</time>
      </trkpt>
      <trkpt lat="57.412538034841418" lon="-6.194843016564846">
        <ele>11.67</ele>
        <time>2019-09-05T10:40:40Z</time>
      </trkpt>
      <trkpt lat="57.412467962130904" lon="-6.194608993828297">
        <ele>11.67</ele>
        <time>2019-09-05T10:40:41Z</time>
      </trkpt>
      <trkpt lat="57.412406019866467" lon="-6.194401038810611">
        <ele>12.15</ele>
        <time>2019-09-05T10:40:43Z</time>
      </trkpt>
      <trkpt lat="57.412384981289506" lon="-6.19427296333015">
        <ele>12.15</ele>
        <time>2019-09-05T10:40:44Z</time>
      </trkpt>
      <trkpt lat="57.412366038188338" lon="-6.194155029952526">
        <ele>12.15</ele>
        <time>2019-09-05T10:40:45Z</time>
      </trkpt>
      <trkpt lat="57.412162022665143" lon="-6.19274603202939">
        <ele>13.6</ele>
        <time>2019-09-05T10:40:57Z</time>
      </trkpt>
      <trkpt lat="57.412148024886847" lon="-6.192641006782651">
        <ele>13.6</ele>
        <time>2019-09-05T10:40:58Z</time>
      </trkpt>
      <trkpt lat="57.41215699352324" lon="-6.19261896237731">
        <ele>14.08</ele>
        <time>2019-09-05T10:40:59Z</time>
      </trkpt>
      <trkpt lat="57.412194963544607" lon="-6.192531958222389">
        <ele>14.08</ele>
        <time>2019-09-05T10:41:00Z</time>
      </trkpt>
      <trkpt lat="57.412247015163302" lon="-6.192505974322557">
        <ele>14.56</ele>
        <time>2019-09-05T10:41:01Z</time>
      </trkpt>
      <trkpt lat="57.412452036514878" lon="-6.19240396656096">
        <ele>15.52</ele>
        <time>2019-09-05T10:41:05Z</time>
      </trkpt>
      <trkpt lat="57.412505010142922" lon="-6.192377982661128">
        <ele>16</ele>
        <time>2019-09-05T10:41:06Z</time>
      </trkpt>
      <trkpt lat="57.412748001515865" lon="-6.192233981564641">
        <ele>17.440000000000001</ele>
        <time>2019-09-05T10:41:11Z</time>
      </trkpt>
      <trkpt lat="57.412922009825706" lon="-6.192022003233433">
        <ele>20.32</ele>
        <time>2019-09-05T10:41:17Z</time>
      </trkpt>
      <trkpt lat="57.412924021482468" lon="-6.191945979371667">
        <ele>20.809999999999999</ele>
        <time>2019-09-05T10:41:18Z</time>
      </trkpt>
      <trkpt lat="57.412925027310848" lon="-6.191864004358649">
        <ele>21.289999999999999</ele>
        <time>2019-09-05T10:41:19Z</time>
      </trkpt>
      <trkpt lat="57.412927038967609" lon="-6.191775994375348">
        <ele>21.77</ele>
        <time>2019-09-05T10:41:20Z</time>
      </trkpt>
      <trkpt lat="57.412928966805339" lon="-6.191680021584034">
        <ele>22.25</ele>
        <time>2019-09-05T10:41:21Z</time>
      </trkpt>
      <trkpt lat="57.4129309784621" lon="-6.191585976630449">
        <ele>22.73</ele>
        <time>2019-09-05T10:41:22Z</time>
      </trkpt>
      <trkpt lat="57.412931984290481" lon="-6.191498972475529">
        <ele>23.690000000000001</ele>
        <time>2019-09-05T10:41:23Z</time>
      </trkpt>
      <trkpt lat="57.412933995947242" lon="-6.191419009119272">
        <ele>24.170000000000002</ele>
        <time>2019-09-05T10:41:24Z</time>
      </trkpt>
      <trkpt lat="57.412936007604003" lon="-6.191337034106255">
        <ele>24.170000000000002</ele>
        <time>2019-09-05T10:41:25Z</time>
      </trkpt>
      <trkpt lat="57.412937013432384" lon="-6.191250029951334">
        <ele>24.649999999999999</ele>
        <time>2019-09-05T10:41:26Z</time>
      </trkpt>
      <trkpt lat="57.412939025089145" lon="-6.191159002482891">
        <ele>25.129999999999999</ele>
        <time>2019-09-05T10:41:27Z</time>
      </trkpt>
      <trkpt lat="57.412941036745906" lon="-6.191059006378055">
        <ele>25.609999999999999</ele>
        <time>2019-09-05T10:41:28Z</time>
      </trkpt>
      <trkpt lat="57.412953022867441" lon="-6.19094199500978">
        <ele>26.09</ele>
        <time>2019-09-05T10:41:29Z</time>
      </trkpt>
      <trkpt lat="57.412970038130879" lon="-6.190832024440169">
        <ele>26.57</ele>
        <time>2019-09-05T10:41:30Z</time>
      </trkpt>
      <trkpt lat="57.413091994822025" lon="-6.190066002309322">
        <ele>27.530000000000001</ele>
        <time>2019-09-05T10:41:37Z</time>
      </trkpt>
      <trkpt lat="57.413161983713508" lon="-6.189875984564424">
        <ele>27.050000000000001</ele>
        <time>2019-09-05T10:41:39Z</time>
      </trkpt>
      <trkpt lat="57.413195008412004" lon="-6.189814964309335">
        <ele>27.050000000000001</ele>
        <time>2019-09-05T10:41:40Z</time>
      </trkpt>
      <trkpt lat="57.41325200535357" lon="-6.189765008166432">
        <ele>27.050000000000001</ele>
        <time>2019-09-05T10:41:41Z</time>
      </trkpt>
      <trkpt lat="57.41325200535357" lon="-6.189765008166432">
        <ele>27.050000000000001</ele>
        <time>2019-09-05T10:41:42Z</time>
      </trkpt>
      <trkpt lat="57.413377985358238" lon="-6.189655959606171">
        <ele>26.57</ele>
        <time>2019-09-05T10:41:43Z</time>
      </trkpt>
      <trkpt lat="57.414144007489085" lon="-6.189400982111692">
        <ele>26.57</ele>
        <time>2019-09-05T10:41:53Z</time>
      </trkpt>
      <trkpt lat="57.414216008037329" lon="-6.189454039558768">
        <ele>26.57</ele>
        <time>2019-09-05T10:41:54Z</time>
      </trkpt>
      <trkpt lat="57.414393033832312" lon="-6.189584964886308">
        <ele>26.09</ele>
        <time>2019-09-05T10:41:59Z</time>
      </trkpt>
      <trkpt lat="57.414421029388905" lon="-6.189606003463268">
        <ele>25.609999999999999</ele>
        <time>2019-09-05T10:42:02Z</time>
      </trkpt>
      <trkpt lat="57.414437038823962" lon="-6.189616983756423">
        <ele>25.609999999999999</ele>
        <time>2019-09-05T10:42:03Z</time>
      </trkpt>
      <trkpt lat="57.414753958582878" lon="-6.189919989556074">
        <ele>24.649999999999999</ele>
        <time>2019-09-05T10:42:10Z</time>
      </trkpt>
      <trkpt lat="57.414793018251657" lon="-6.189961982890964">
        <ele>24.649999999999999</ele>
        <time>2019-09-05T10:42:11Z</time>
      </trkpt>
      <trkpt lat="57.414859989657998" lon="-6.190030965954065">
        <ele>24.649999999999999</ele>
        <time>2019-09-05T10:42:13Z</time>
      </trkpt>
      <trkpt lat="57.414896031841636" lon="-6.190067008137703">
        <ele>25.129999999999999</ele>
        <time>2019-09-05T10:42:14Z</time>
      </trkpt>
      <trkpt lat="57.415039027109742" lon="-6.190206985920668">
        <ele>25.609999999999999</ele>
        <time>2019-09-05T10:42:17Z</time>
      </trkpt>
      <trkpt lat="57.41544202901423" lon="-6.190601019188762">
        <ele>27.050000000000001</ele>
        <time>2019-09-05T10:42:23Z</time>
      </trkpt>
      <trkpt lat="57.415511012077332" lon="-6.190668996423483">
        <ele>27.530000000000001</ele>
        <time>2019-09-05T10:42:24Z</time>
      </trkpt>
      <trkpt lat="57.415581000968814" lon="-6.190737979486585">
        <ele>28.02</ele>
        <time>2019-09-05T10:42:25Z</time>
      </trkpt>
      <trkpt lat="57.415881995111704" lon="-6.191032016649842">
        <ele>28.98</ele>
        <time>2019-09-05T10:42:29Z</time>
      </trkpt>
      <trkpt lat="57.416336964815855" lon="-6.191272996366024">
        <ele>29.940000000000001</ele>
        <time>2019-09-05T10:42:36Z</time>
      </trkpt>
      <trkpt lat="57.416610969230533" lon="-6.191418003290892">
        <ele>30.420000000000002</ele>
        <time>2019-09-05T10:42:39Z</time>
      </trkpt>
      <trkpt lat="57.417356036603451" lon="-6.191496038809419">
        <ele>33.299999999999997</ele>
        <time>2019-09-05T10:42:47Z</time>
      </trkpt>
      <trkpt lat="57.417434994131327" lon="-6.191509030759335">
        <ele>33.299999999999997</ele>
        <time>2019-09-05T10:42:48Z</time>
      </trkpt>
      <trkpt lat="57.417516969144344" lon="-6.191557981073856">
        <ele>33.299999999999997</ele>
        <time>2019-09-05T10:42:49Z</time>
      </trkpt>
      <trkpt lat="57.417792985215783" lon="-6.191746992990375">
        <ele>33.299999999999997</ele>
        <time>2019-09-05T10:42:52Z</time>
      </trkpt>
      <trkpt lat="57.417889041826129" lon="-6.191855035722256">
        <ele>33.299999999999997</ele>
        <time>2019-09-05T10:42:53Z</time>
      </trkpt>
      <trkpt lat="57.418186012655497" lon="-6.19218997657299">
        <ele>33.299999999999997</ele>
        <time>2019-09-05T10:42:56Z</time>
      </trkpt>
      <trkpt lat="57.418378964066505" lon="-6.192406984046102">
        <ele>33.299999999999997</ele>
        <time>2019-09-05T10:42:58Z</time>
      </trkpt>
      <trkpt lat="57.419343972578645" lon="-6.192919034510851">
        <ele>33.299999999999997</ele>
        <time>2019-09-05T10:43:08Z</time>
      </trkpt>
      <trkpt lat="57.419433994218707" lon="-6.192948035895824">
        <ele>33.780000000000001</ele>
        <time>2019-09-05T10:43:09Z</time>
      </trkpt>
      <trkpt lat="57.419433994218707" lon="-6.192948035895824">
        <ele>34.740000000000002</ele>
        <time>2019-09-05T10:43:10Z</time>
      </trkpt>
      <trkpt lat="57.419625017791986" lon="-6.193002015352249">
        <ele>35.229999999999997</ele>
        <time>2019-09-05T10:43:11Z</time>
      </trkpt>
      <trkpt lat="57.419718978926539" lon="-6.192954992875457">
        <ele>35.710000000000001</ele>
        <time>2019-09-05T10:43:12Z</time>
      </trkpt>
      <trkpt lat="57.419813023880124" lon="-6.192907970398665">
        <ele>36.189999999999998</ele>
        <time>2019-09-05T10:43:13Z</time>
      </trkpt>
      <trkpt lat="57.419901033863425" lon="-6.192862959578633">
        <ele>37.149999999999999</ele>
        <time>2019-09-05T10:43:14Z</time>
      </trkpt>
      <trkpt lat="57.419976973906159" lon="-6.192805040627718">
        <ele>37.630000000000003</ele>
        <time>2019-09-05T10:43:15Z</time>
      </trkpt>
      <trkpt lat="57.420038999989629" lon="-6.192704038694501">
        <ele>38.109999999999999</ele>
        <time>2019-09-05T10:43:16Z</time>
      </trkpt>
      <trkpt lat="57.420103037729859" lon="-6.192599013447762">
        <ele>38.590000000000003</ele>
        <time>2019-09-05T10:43:17Z</time>
      </trkpt>
      <trkpt lat="57.420163974165916" lon="-6.192460041493177">
        <ele>39.07</ele>
        <time>2019-09-05T10:43:18Z</time>
      </trkpt>
      <trkpt lat="57.420218037441373" lon="-6.192303970456123">
        <ele>39.549999999999997</ele>
        <time>2019-09-05T10:43:19Z</time>
      </trkpt>
      <trkpt lat="57.420485001057386" lon="-6.191655965521932">
        <ele>41.469999999999999</ele>
        <time>2019-09-05T10:43:23Z</time>
      </trkpt>
      <trkpt lat="57.420573011040688" lon="-6.191519005224109">
        <ele>41.950000000000003</ele>
        <time>2019-09-05T10:43:24Z</time>
      </trkpt>
      <trkpt lat="57.420666972175241" lon="-6.191373998299241">
        <ele>42.439999999999998</ele>
        <time>2019-09-05T10:43:25Z</time>
      </trkpt>
      <trkpt lat="57.421475993469357" lon="-6.190136997029185">
        <ele>49.159999999999997</ele>
        <time>2019-09-05T10:43:34Z</time>
      </trkpt>
      <trkpt lat="57.421785034239292" lon="-6.189711028710008">
        <ele>52.049999999999997</ele>
        <time>2019-09-05T10:43:38Z</time>
      </trkpt>
      <trkpt lat="57.421876983717084" lon="-6.189636010676622">
        <ele>52.530000000000001</ele>
        <time>2019-09-05T10:43:39Z</time>
      </trkpt>
      <trkpt lat="57.422348968684673" lon="-6.189356977120042">
        <ele>54.93</ele>
        <time>2019-09-05T10:43:46Z</time>
      </trkpt>
      <trkpt lat="57.422430021688342" lon="-6.189324036240578">
        <ele>55.409999999999997</ele>
        <time>2019-09-05T10:43:47Z</time>
      </trkpt>
      <trkpt lat="57.423150027170777" lon="-6.189293023198843">
        <ele>58.299999999999997</ele>
        <time>2019-09-05T10:43:54Z</time>
      </trkpt>
      <trkpt lat="57.423313977196813" lon="-6.189225967973471">
        <ele>58.299999999999997</ele>
        <time>2019-09-05T10:43:56Z</time>
      </trkpt>
      <trkpt lat="57.423475999385118" lon="-6.189144998788834">
        <ele>58.780000000000001</ele>
        <time>2019-09-05T10:43:58Z</time>
      </trkpt>
      <trkpt lat="57.423535007983446" lon="-6.189035028219223">
        <ele>59.259999999999998</ele>
        <time>2019-09-05T10:43:59Z</time>
      </trkpt>
      <trkpt lat="57.423596028238535" lon="-6.18892103433609">
        <ele>59.740000000000002</ele>
        <time>2019-09-05T10:44:00Z</time>
      </trkpt>
      <trkpt lat="57.423670962452888" lon="-6.188778961077333">
        <ele>60.219999999999999</ele>
        <time>2019-09-05T10:44:01Z</time>
      </trkpt>
      <trkpt lat="57.423701975494623" lon="-6.188660021871328">
        <ele>61.18</ele>
        <time>2019-09-05T10:44:02Z</time>
      </trkpt>
      <trkpt lat="57.423738017678261" lon="-6.188519960269332">
        <ele>61.659999999999997</ele>
        <time>2019-09-05T10:44:03Z</time>
      </trkpt>
      <trkpt lat="57.423770036548376" lon="-6.188395991921425">
        <ele>62.140000000000001</ele>
        <time>2019-09-05T10:44:04Z</time>
      </trkpt>
      <trkpt lat="57.423800965771079" lon="-6.188276968896389">
        <ele>63.100000000000001</ele>
        <time>2019-09-05T10:44:05Z</time>
      </trkpt>
      <trkpt lat="57.423830972984433" lon="-6.188174961134791">
        <ele>63.579999999999998</ele>
        <time>2019-09-05T10:44:06Z</time>
      </trkpt>
      <trkpt lat="57.423871960490942" lon="-6.188073037192226">
        <ele>64.069999999999993</ele>
        <time>2019-09-05T10:44:07Z</time>
      </trkpt>
      <trkpt lat="57.423915965482593" lon="-6.187979998067021">
        <ele>65.030000000000001</ele>
        <time>2019-09-05T10:44:08Z</time>
      </trkpt>
      <trkpt lat="57.423987966030836" lon="-6.187935993075371">
        <ele>65.510000000000005</ele>
        <time>2019-09-05T10:44:09Z</time>
      </trkpt>
      <trkpt lat="57.424070024862885" lon="-6.187886958941817">
        <ele>65.989999999999995</ele>
        <time>2019-09-05T10:44:10Z</time>
      </trkpt>
      <trkpt lat="57.424070024862885" lon="-6.187886958941817">
        <ele>65.989999999999995</ele>
        <time>2019-09-05T10:44:11Z</time>
      </trkpt>
      <trkpt lat="57.424159040674567" lon="-6.187833985313773">
        <ele>66.469999999999999</ele>
        <time>2019-09-05T10:44:12Z</time>
      </trkpt>
      <trkpt lat="57.425156990066171" lon="-6.187416985630989">
        <ele>67.430000000000007</ele>
        <time>2019-09-05T10:44:21Z</time>
      </trkpt>
      <trkpt lat="57.425977997481823" lon="-6.187124038115144">
        <ele>70.790000000000006</ele>
        <time>2019-09-05T10:44:29Z</time>
      </trkpt>
      <trkpt lat="57.427168982103467" lon="-6.186739979311824">
        <ele>77.040000000000006</ele>
        <time>2019-09-05T10:44:41Z</time>
      </trkpt>
      <trkpt lat="57.428158968687057" lon="-6.186746014282107">
        <ele>80.409999999999997</ele>
        <time>2019-09-05T10:44:50Z</time>
      </trkpt>
      <trkpt lat="57.428388968110085" lon="-6.186650963500142">
        <ele>82.329999999999998</ele>
        <time>2019-09-05T10:44:52Z</time>
      </trkpt>
      <trkpt lat="57.429068991914392" lon="-6.186142014339566">
        <ele>85.689999999999998</ele>
        <time>2019-09-05T10:44:58Z</time>
      </trkpt>
      <trkpt lat="57.429141998291016" lon="-6.186027014628053">
        <ele>86.180000000000007</ele>
        <time>2019-09-05T10:44:59Z</time>
      </trkpt>
      <trkpt lat="57.429207041859627" lon="-6.185925006866455">
        <ele>86.659999999999997</ele>
        <time>2019-09-05T10:45:00Z</time>
      </trkpt>
      <trkpt lat="57.429253980517387" lon="-6.185776982456446">
        <ele>86.659999999999997</ele>
        <time>2019-09-05T10:45:01Z</time>
      </trkpt>
      <trkpt lat="57.429295973852277" lon="-6.185646979138255">
        <ele>87.140000000000001</ele>
        <time>2019-09-05T10:45:02Z</time>
      </trkpt>
      <trkpt lat="57.429336039349437" lon="-6.185518987476826">
        <ele>87.620000000000005</ele>
        <time>2019-09-05T10:45:03Z</time>
      </trkpt>
      <trkpt lat="57.42936696857214" lon="-6.185373980551958">
        <ele>87.620000000000005</ele>
        <time>2019-09-05T10:45:04Z</time>
      </trkpt>
      <trkpt lat="57.429385995492339" lon="-6.185218999162316">
        <ele>88.099999999999994</ele>
        <time>2019-09-05T10:45:05Z</time>
      </trkpt>
      <trkpt lat="57.429503006860614" lon="-6.184289027005434">
        <ele>90.019999999999996</ele>
        <time>2019-09-05T10:45:11Z</time>
      </trkpt>
      <trkpt lat="57.429635021835566" lon="-6.183546977117658">
        <ele>91.459999999999994</ele>
        <time>2019-09-05T10:45:17Z</time>
      </trkpt>
      <trkpt lat="57.4297109618783" lon="-6.183226034045219">
        <ele>91.939999999999998</ele>
        <time>2019-09-05T10:45:18Z</time>
      </trkpt>
      <trkpt lat="57.429765025153756" lon="-6.183081027120352">
        <ele>91.939999999999998</ele>
        <time>2019-09-05T10:45:19Z</time>
      </trkpt>
      <trkpt lat="57.429808024317026" lon="-6.182984970510006">
        <ele>91.939999999999998</ele>
        <time>2019-09-05T10:45:20Z</time>
      </trkpt>
      <trkpt lat="57.429808024317026" lon="-6.182984970510006">
        <ele>92.900000000000006</ele>
        <time>2019-09-05T10:45:21Z</time>
      </trkpt>
      <trkpt lat="57.430044980719686" lon="-6.182791013270617">
        <ele>92.900000000000006</ele>
        <time>2019-09-05T10:45:22Z</time>
      </trkpt>
      <trkpt lat="57.43018495850265" lon="-6.182677019387484">
        <ele>93.870000000000005</ele>
        <time>2019-09-05T10:45:23Z</time>
      </trkpt>
      <trkpt lat="57.430345974862576" lon="-6.182568976655603">
        <ele>94.349999999999994</ele>
        <time>2019-09-05T10:45:24Z</time>
      </trkpt>
      <trkpt lat="57.430534986779094" lon="-6.182479960843921">
        <ele>95.310000000000002</ele>
        <time>2019-09-05T10:45:25Z</time>
      </trkpt>
      <trkpt lat="57.430735984817147" lon="-6.182393962517381">
        <ele>96.269999999999996</ele>
        <time>2019-09-05T10:45:26Z</time>
      </trkpt>
      <trkpt lat="57.432170966640115" lon="-6.181937986984849">
        <ele>103.48</ele>
        <time>2019-09-05T10:45:34Z</time>
      </trkpt>
      <trkpt lat="57.433176962658763" lon="-6.18191996589303">
        <ele>105.88</ele>
        <time>2019-09-05T10:45:42Z</time>
      </trkpt>
      <trkpt lat="57.434183964505792" lon="-6.182093974202871">
        <ele>107.31999999999999</ele>
        <time>2019-09-05T10:45:52Z</time>
      </trkpt>
      <trkpt lat="57.435937039554119" lon="-6.182395974174142">
        <ele>111.17</ele>
        <time>2019-09-05T10:46:07Z</time>
      </trkpt>
      <trkpt lat="57.437241012230515" lon="-6.182621028274298">
        <ele>113.56999999999999</ele>
        <time>2019-09-05T10:46:15Z</time>
      </trkpt>
      <trkpt lat="57.437709979712963" lon="-6.182608958333731">
        <ele>115.5</ele>
        <time>2019-09-05T10:46:18Z</time>
      </trkpt>
      <trkpt lat="57.437864039093256" lon="-6.182560008019209">
        <ele>115.98</ele>
        <time>2019-09-05T10:46:19Z</time>
      </trkpt>
      <trkpt lat="57.438009968027472" lon="-6.182450037449598">
        <ele>116.45999999999999</ele>
        <time>2019-09-05T10:46:20Z</time>
      </trkpt>
      <trkpt lat="57.438656967133284" lon="-6.181999007239938">
        <ele>117.90000000000001</ele>
        <time>2019-09-05T10:46:24Z</time>
      </trkpt>
      <trkpt lat="57.438807003200054" lon="-6.181956008076668">
        <ele>118.86</ele>
        <time>2019-09-05T10:46:25Z</time>
      </trkpt>
      <trkpt lat="57.438956033438444" lon="-6.181914014741778">
        <ele>119.81999999999999</ele>
        <time>2019-09-05T10:46:26Z</time>
      </trkpt>
      <trkpt lat="57.439105985686183" lon="-6.181907979771495">
        <ele>120.78</ele>
        <time>2019-09-05T10:46:27Z</time>
      </trkpt>
      <trkpt lat="57.439257027581334" lon="-6.181944021955133">
        <ele>121.73999999999999</ele>
        <time>2019-09-05T10:46:28Z</time>
      </trkpt>
      <trkpt lat="57.439408991485834" lon="-6.181980986148119">
        <ele>123.19</ele>
        <time>2019-09-05T10:46:29Z</time>
      </trkpt>
      <trkpt lat="57.43957101367414" lon="-6.182019961997867">
        <ele>124.15000000000001</ele>
        <time>2019-09-05T10:46:30Z</time>
      </trkpt>
      <trkpt lat="57.439699005335569" lon="-6.182108977809548">
        <ele>125.11</ele>
        <time>2019-09-05T10:46:31Z</time>
      </trkpt>
      <trkpt lat="57.439831020310521" lon="-6.182200005277991">
        <ele>126.55</ele>
        <time>2019-09-05T10:46:32Z</time>
      </trkpt>
      <trkpt lat="57.439953982830048" lon="-6.182286003604531">
        <ele>127.98999999999999</ele>
        <time>2019-09-05T10:46:33Z</time>
      </trkpt>
      <trkpt lat="57.440067976713181" lon="-6.182364039123058">
        <ele>128.94999999999999</ele>
        <time>2019-09-05T10:46:34Z</time>
      </trkpt>
      <trkpt lat="57.440190017223358" lon="-6.182401003316045">
        <ele>129.43000000000001</ele>
        <time>2019-09-05T10:46:35Z</time>
      </trkpt>
      <trkpt lat="57.440190017223358" lon="-6.182401003316045">
        <ele>130.40000000000001</ele>
        <time>2019-09-05T10:46:36Z</time>
      </trkpt>
      <trkpt lat="57.441497007384896" lon="-6.182306036353111">
        <ele>134.24000000000001</ele>
        <time>2019-09-05T10:46:44Z</time>
      </trkpt>
      <trkpt lat="57.4433100130409" lon="-6.181786023080349">
        <ele>140.97</ele>
        <time>2019-09-05T10:46:54Z</time>
      </trkpt>
      <trkpt lat="57.444738959893584" lon="-6.181099964305759">
        <ele>142.88999999999999</ele>
        <time>2019-09-05T10:47:02Z</time>
      </trkpt>
      <trkpt lat="57.444911040365696" lon="-6.180974990129471">
        <ele>142.88999999999999</ele>
        <time>2019-09-05T10:47:03Z</time>
      </trkpt>
      <trkpt lat="57.445879988372326" lon="-6.179980980232358">
        <ele>143.84999999999999</ele>
        <time>2019-09-05T10:47:10Z</time>
      </trkpt>
      <trkpt lat="57.446026001125574" lon="-6.179879978299141">
        <ele>144.34</ele>
        <time>2019-09-05T10:47:11Z</time>
      </trkpt>
      <trkpt lat="57.446159021928906" lon="-6.179788028821349">
        <ele>145.30000000000001</ele>
        <time>2019-09-05T10:47:12Z</time>
      </trkpt>
      <trkpt lat="57.446439983323216" lon="-6.179827004671097">
        <ele>146.74000000000001</ele>
        <time>2019-09-05T10:47:14Z</time>
      </trkpt>
      <trkpt lat="57.447914024814963" lon="-6.179844019934535">
        <ele>156.34999999999999</ele>
        <time>2019-09-05T10:47:23Z</time>
      </trkpt>
      <trkpt lat="57.4493039958179" lon="-6.179718961939216">
        <ele>162.59999999999999</ele>
        <time>2019-09-05T10:47:31Z</time>
      </trkpt>
      <trkpt lat="57.450022995471954" lon="-6.1799649707973">
        <ele>164.52000000000001</ele>
        <time>2019-09-05T10:47:35Z</time>
      </trkpt>
      <trkpt lat="57.451325040310621" lon="-6.180729987099767">
        <ele>163.08000000000001</ele>
        <time>2019-09-05T10:47:43Z</time>
      </trkpt>
      <trkpt lat="57.453871965408325" lon="-6.181702958419919">
        <ele>172.69</ele>
        <time>2019-09-05T10:47:58Z</time>
      </trkpt>
      <trkpt lat="57.455063033849001" lon="-6.182015016674995">
        <ele>173.66</ele>
        <time>2019-09-05T10:48:06Z</time>
      </trkpt>
      <trkpt lat="57.456125020980835" lon="-6.182324979454279">
        <ele>171.25</ele>
        <time>2019-09-05T10:48:15Z</time>
      </trkpt>
      <trkpt lat="57.457126993685961" lon="-6.182681964710355">
        <ele>168.37</ele>
        <time>2019-09-05T10:48:24Z</time>
      </trkpt>
      <trkpt lat="57.457491019740701" lon="-6.182811968028545">
        <ele>167.88999999999999</ele>
        <time>2019-09-05T10:48:27Z</time>
      </trkpt>
      <trkpt lat="57.457616999745369" lon="-6.182856978848577">
        <ele>167.88999999999999</ele>
        <time>2019-09-05T10:48:28Z</time>
      </trkpt>
      <trkpt lat="57.458577984943986" lon="-6.183893987908959">
        <ele>161.16</ele>
        <time>2019-09-05T10:48:37Z</time>
      </trkpt>
      <trkpt lat="57.458676975220442" lon="-6.183968000113964">
        <ele>160.19999999999999</ele>
        <time>2019-09-05T10:48:38Z</time>
      </trkpt>
      <trkpt lat="57.458778982982039" lon="-6.184009993448854">
        <ele>159.72</ele>
        <time>2019-09-05T10:48:39Z</time>
      </trkpt>
      <trkpt lat="57.458888031542301" lon="-6.184036983177066">
        <ele>158.75</ele>
        <time>2019-09-05T10:48:40Z</time>
      </trkpt>
      <trkpt lat="57.460385039448738" lon="-6.184402015060186">
        <ele>149.62</ele>
        <time>2019-09-05T10:48:52Z</time>
      </trkpt>
      <trkpt lat="57.460749987512827" lon="-6.184438979253173">
        <ele>147.69999999999999</ele>
        <time>2019-09-05T10:48:55Z</time>
      </trkpt>
      <trkpt lat="57.461541993543506" lon="-6.184519026428461">
        <ele>146.25999999999999</ele>
        <time>2019-09-05T10:49:02Z</time>
      </trkpt>
      <trkpt lat="57.461676020175219" lon="-6.184538975358009">
        <ele>146.25999999999999</ele>
        <time>2019-09-05T10:49:03Z</time>
      </trkpt>
      <trkpt lat="57.462786035612226" lon="-6.184708038344979">
        <ele>144.34</ele>
        <time>2019-09-05T10:49:11Z</time>
      </trkpt>
      <trkpt lat="57.462860969826579" lon="-6.184712983667851">
        <ele>143.37</ele>
        <time>2019-09-05T10:49:12Z</time>
      </trkpt>
      <trkpt lat="57.46335600502789" lon="-6.184743996709585">
        <ele>138.56999999999999</ele>
        <time>2019-09-05T10:49:21Z</time>
      </trkpt>
      <trkpt lat="57.463744003325701" lon="-6.184661015868187">
        <ele>138.56999999999999</ele>
        <time>2019-09-05T10:49:28Z</time>
      </trkpt>
      <trkpt lat="57.463919017463923" lon="-6.184622962027788">
        <ele>139.05000000000001</ele>
        <time>2019-09-05T10:49:31Z</time>
      </trkpt>
      <trkpt lat="57.463919017463923" lon="-6.184622962027788">
        <ele>139.05000000000001</ele>
        <time>2019-09-05T10:49:32Z</time>
      </trkpt>
      <trkpt lat="57.4643640127033" lon="-6.184631008654833">
        <ele>139.05000000000001</ele>
        <time>2019-09-05T10:49:37Z</time>
      </trkpt>
      <trkpt lat="57.465481990948319" lon="-6.185024036094546">
        <ele>138.56999999999999</ele>
        <time>2019-09-05T10:49:44Z</time>
      </trkpt>
      <trkpt lat="57.465851968154311" lon="-6.185107016935945">
        <ele>138.56999999999999</ele>
        <time>2019-09-05T10:49:47Z</time>
      </trkpt>
      <trkpt lat="57.46597602032125" lon="-6.185116991400719">
        <ele>138.09</ele>
        <time>2019-09-05T10:49:48Z</time>
      </trkpt>
      <trkpt lat="57.467101039364934" lon="-6.184702003374696">
        <ele>140.49000000000001</ele>
        <time>2019-09-05T10:49:56Z</time>
      </trkpt>
      <trkpt lat="57.467533964663744" lon="-6.184619022533298">
        <ele>142.41</ele>
        <time>2019-09-05T10:49:59Z</time>
      </trkpt>
      <trkpt lat="57.467678971588612" lon="-6.18458298034966">
        <ele>142.88999999999999</ele>
        <time>2019-09-05T10:50:00Z</time>
      </trkpt>
      <trkpt lat="57.468872973695397" lon="-6.183888958767057">
        <ele>147.69999999999999</ele>
        <time>2019-09-05T10:50:08Z</time>
      </trkpt>
      <trkpt lat="57.469030972570181" lon="-6.183823999017477">
        <ele>148.66</ele>
        <time>2019-09-05T10:50:09Z</time>
      </trkpt>
      <trkpt lat="57.47083199210465" lon="-6.18307800963521">
        <ele>149.13999999999999</ele>
        <time>2019-09-05T10:50:20Z</time>
      </trkpt>
      <trkpt lat="57.47276796028018" lon="-6.182191958650947">
        <ele>142.41</ele>
        <time>2019-09-05T10:50:31Z</time>
      </trkpt>
      <trkpt lat="57.474248958751559" lon="-6.18148704059422">
        <ele>141.93000000000001</ele>
        <time>2019-09-05T10:50:40Z</time>
      </trkpt>
      <trkpt lat="57.475942019373178" lon="-6.180410971865058">
        <ele>149.62</ele>
        <time>2019-09-05T10:50:51Z</time>
      </trkpt>
      <trkpt lat="57.476851958781481" lon="-6.179794985800982">
        <ele>155.87</ele>
        <time>2019-09-05T10:50:57Z</time>
      </trkpt>
      <trkpt lat="57.477005012333393" lon="-6.179753998294473">
        <ele>156.83000000000001</ele>
        <time>2019-09-05T10:50:58Z</time>
      </trkpt>
      <trkpt lat="57.477152030915022" lon="-6.17979196831584">
        <ele>157.78999999999999</ele>
        <time>2019-09-05T10:50:59Z</time>
      </trkpt>
      <trkpt lat="57.478331029415131" lon="-6.180101009085774">
        <ele>159.24000000000001</ele>
        <time>2019-09-05T10:51:08Z</time>
      </trkpt>
      <trkpt lat="57.479322021827102" lon="-6.180203016847372">
        <ele>155.87</ele>
        <time>2019-09-05T10:51:20Z</time>
      </trkpt>
      <trkpt lat="57.479417994618416" lon="-6.180195976048708">
        <ele>152.50999999999999</ele>
        <time>2019-09-05T10:51:27Z</time>
      </trkpt>
      <trkpt lat="57.479417994618416" lon="-6.180195976048708">
        <ele>152.03</ele>
        <time>2019-09-05T10:51:30Z</time>
      </trkpt>
      <trkpt lat="57.479417994618416" lon="-6.180195976048708">
        <ele>151.53999999999999</ele>
        <time>2019-09-05T10:51:31Z</time>
      </trkpt>
      <trkpt lat="57.479417994618416" lon="-6.180195976048708">
        <ele>151.53999999999999</ele>
        <time>2019-09-05T10:51:32Z</time>
      </trkpt>
      <trkpt lat="57.479417994618416" lon="-6.180195976048708">
        <ele>151.06</ele>
        <time>2019-09-05T10:51:47Z</time>
      </trkpt>
      <trkpt lat="57.479539029300213" lon="-6.180355986580253">
        <ele>137.61000000000001</ele>
        <time>2019-09-05T10:54:00Z</time>
      </trkpt>
      <trkpt lat="57.479520002380013" lon="-6.180322961881757">
        <ele>152.99000000000001</ele>
        <time>2019-09-05T10:54:35Z</time>
      </trkpt>
      <trkpt lat="57.479566019028425" lon="-6.180291026830673">
        <ele>153.47</ele>
        <time>2019-09-05T10:54:55Z</time>
      </trkpt>
      <trkpt lat="57.479587979614735" lon="-6.180121963843703">
        <ele>152.99000000000001</ele>
        <time>2019-09-05T10:54:58Z</time>
      </trkpt>
      <trkpt lat="57.479615975171328" lon="-6.180109977722168">
        <ele>152.99000000000001</ele>
        <time>2019-09-05T10:54:59Z</time>
      </trkpt>
      <trkpt lat="57.479644976556301" lon="-6.180096985772252">
        <ele>152.50999999999999</ele>
        <time>2019-09-05T10:55:00Z</time>
      </trkpt>
      <trkpt lat="57.479672972112894" lon="-6.180083993822336">
        <ele>152.03</ele>
        <time>2019-09-05T10:55:01Z</time>
      </trkpt>
      <trkpt lat="57.479760982096195" lon="-6.180046023800969">
        <ele>152.03</ele>
        <time>2019-09-05T10:55:02Z</time>
      </trkpt>
      <trkpt lat="57.479784032329917" lon="-6.180019034072757">
        <ele>151.53999999999999</ele>
        <time>2019-09-05T10:55:03Z</time>
      </trkpt>
      <trkpt lat="57.479862989857793" lon="-6.179923983290792">
        <ele>151.53999999999999</ele>
        <time>2019-09-05T10:55:04Z</time>
      </trkpt>
      <trkpt lat="57.480743005871773" lon="-6.178875993937254">
        <ele>151.53999999999999</ele>
        <time>2019-09-05T10:55:13Z</time>
      </trkpt>
      <trkpt lat="57.482139011844993" lon="-6.177328024059534">
        <ele>151.53999999999999</ele>
        <time>2019-09-05T10:55:24Z</time>
      </trkpt>
      <trkpt lat="57.483858978375793" lon="-6.175830010324717">
        <ele>148.66</ele>
        <time>2019-09-05T10:55:34Z</time>
      </trkpt>
      <trkpt lat="57.485878011211753" lon="-6.174584040418267">
        <ele>152.03</ele>
        <time>2019-09-05T10:55:44Z</time>
      </trkpt>
      <trkpt lat="57.488348996266723" lon="-6.173106981441379">
        <ele>155.87</ele>
        <time>2019-09-05T10:55:55Z</time>
      </trkpt>
      <trkpt lat="57.490599034354091" lon="-6.171919014304876">
        <ele>152.50999999999999</ele>
        <time>2019-09-05T10:56:04Z</time>
      </trkpt>
      <trkpt lat="57.492322018370032" lon="-6.170764993876219">
        <ele>146.74000000000001</ele>
        <time>2019-09-05T10:56:11Z</time>
      </trkpt>
      <trkpt lat="57.493579974398017" lon="-6.169423973187804">
        <ele>150.09999999999999</ele>
        <time>2019-09-05T10:56:18Z</time>
      </trkpt>
      <trkpt lat="57.493705032393336" lon="-6.169174024835229">
        <ele>150.58000000000001</ele>
        <time>2019-09-05T10:56:19Z</time>
      </trkpt>
      <trkpt lat="57.493831012398005" lon="-6.168921981006861">
        <ele>151.06</ele>
        <time>2019-09-05T10:56:20Z</time>
      </trkpt>
      <trkpt lat="57.493920028209686" lon="-6.168633978813887">
        <ele>151.53999999999999</ele>
        <time>2019-09-05T10:56:21Z</time>
      </trkpt>
      <trkpt lat="57.494007032364607" lon="-6.168343964964151">
        <ele>152.03</ele>
        <time>2019-09-05T10:56:22Z</time>
      </trkpt>
      <trkpt lat="57.494041984900832" lon="-6.168043976649642">
        <ele>152.50999999999999</ele>
        <time>2019-09-05T10:56:23Z</time>
      </trkpt>
      <trkpt lat="57.49405799433589" lon="-6.16773895919323">
        <ele>152.50999999999999</ele>
        <time>2019-09-05T10:56:24Z</time>
      </trkpt>
      <trkpt lat="57.494074003770947" lon="-6.167430002242327">
        <ele>152.99000000000001</ele>
        <time>2019-09-05T10:56:25Z</time>
      </trkpt>
      <trkpt lat="57.494090013206005" lon="-6.167118027806282">
        <ele>152.99000000000001</ele>
        <time>2019-09-05T10:56:26Z</time>
      </trkpt>
      <trkpt lat="57.494338033720851" lon="-6.165022971108556">
        <ele>152.50999999999999</ele>
        <time>2019-09-05T10:56:33Z</time>
      </trkpt>
      <trkpt lat="57.495021997019649" lon="-6.162812998518348">
        <ele>156.83000000000001</ele>
        <time>2019-09-05T10:56:42Z</time>
      </trkpt>
      <trkpt lat="57.495458023622632" lon="-6.161569962278009">
        <ele>160.68000000000001</ele>
        <time>2019-09-05T10:56:50Z</time>
      </trkpt>
      <trkpt lat="57.495829006657004" lon="-6.160971997305751">
        <ele>162.59999999999999</ele>
        <time>2019-09-05T10:56:58Z</time>
      </trkpt>
      <trkpt lat="57.496611038222909" lon="-6.160076977685094">
        <ele>165.47999999999999</ele>
        <time>2019-09-05T10:57:09Z</time>
      </trkpt>
      <trkpt lat="57.497063996270299" lon="-6.159566016867757">
        <ele>169.81</ele>
        <time>2019-09-05T10:57:16Z</time>
      </trkpt>
      <trkpt lat="57.497158963233232" lon="-6.159458979964256">
        <ele>170.77000000000001</ele>
        <time>2019-09-05T10:57:19Z</time>
      </trkpt>
      <trkpt lat="57.497359039261937" lon="-6.159233003854752">
        <ele>172.21000000000001</ele>
        <time>2019-09-05T10:57:23Z</time>
      </trkpt>
      <trkpt lat="57.497414024546742" lon="-6.159171983599663">
        <ele>172.69</ele>
        <time>2019-09-05T10:57:24Z</time>
      </trkpt>
      <trkpt lat="57.497465992346406" lon="-6.159112975001335">
        <ele>172.69</ele>
        <time>2019-09-05T10:57:25Z</time>
      </trkpt>
      <trkpt lat="57.498184992000461" lon="-6.158335972577334">
        <ele>171.25</ele>
        <time>2019-09-05T10:57:36Z</time>
      </trkpt>
      <trkpt lat="57.499327026307583" lon="-6.157368030399084">
        <ele>173.66</ele>
        <time>2019-09-05T10:57:49Z</time>
      </trkpt>
      <trkpt lat="57.500566961243749" lon="-6.156174028292298">
        <ele>180.87</ele>
        <time>2019-09-05T10:58:01Z</time>
      </trkpt>
      <trkpt lat="57.501765992492437" lon="-6.154798977077007">
        <ele>182.78999999999999</ele>
        <time>2019-09-05T10:58:10Z</time>
      </trkpt>
      <trkpt lat="57.503612022846937" lon="-6.153037017211318">
        <ele>184.22999999999999</ele>
        <time>2019-09-05T10:58:21Z</time>
      </trkpt>
      <trkpt lat="57.505671959370375" lon="-6.152092041447759">
        <ele>183.75</ele>
        <time>2019-09-05T10:58:31Z</time>
      </trkpt>
      <trkpt lat="57.507953010499477" lon="-6.1512800026685">
        <ele>190</ele>
        <time>2019-09-05T10:58:43Z</time>
      </trkpt>
      <trkpt lat="57.510132975876331" lon="-6.151188975200057">
        <ele>191.44</ele>
        <time>2019-09-05T10:58:54Z</time>
      </trkpt>
      <trkpt lat="57.51255702227354" lon="-6.151461973786354">
        <ele>196.72999999999999</ele>
        <time>2019-09-05T10:59:06Z</time>
      </trkpt>
      <trkpt lat="57.512722983956337" lon="-6.151541015133262">
        <ele>197.21000000000001</ele>
        <time>2019-09-05T10:59:07Z</time>
      </trkpt>
      <trkpt lat="57.512872014194727" lon="-6.151657020673156">
        <ele>197.69</ele>
        <time>2019-09-05T10:59:08Z</time>
      </trkpt>
      <trkpt lat="57.513787988573313" lon="-6.152408039197326">
        <ele>196.25</ele>
        <time>2019-09-05T10:59:14Z</time>
      </trkpt>
      <trkpt lat="57.513950010761619" lon="-6.152489008381963">
        <ele>195.77000000000001</ele>
        <time>2019-09-05T10:59:15Z</time>
      </trkpt>
      <trkpt lat="57.514114966616035" lon="-6.152561008930206">
        <ele>195.28</ele>
        <time>2019-09-05T10:59:16Z</time>
      </trkpt>
      <trkpt lat="57.514284029603004" lon="-6.152564026415348">
        <ele>194.80000000000001</ele>
        <time>2019-09-05T10:59:17Z</time>
      </trkpt>
      <trkpt lat="57.514452002942562" lon="-6.152541982010007">
        <ele>194.80000000000001</ele>
        <time>2019-09-05T10:59:18Z</time>
      </trkpt>
      <trkpt lat="57.514618970453739" lon="-6.152520021423698">
        <ele>194.31999999999999</ele>
        <time>2019-09-05T10:59:19Z</time>
      </trkpt>
      <trkpt lat="57.514784010127187" lon="-6.152448020875454">
        <ele>193.84</ele>
        <time>2019-09-05T10:59:20Z</time>
      </trkpt>
      <trkpt lat="57.514946032315493" lon="-6.152364034205675">
        <ele>193.84</ele>
        <time>2019-09-05T10:59:21Z</time>
      </trkpt>
      <trkpt lat="57.516039032489061" lon="-6.152045018970966">
        <ele>190.96000000000001</ele>
        <time>2019-09-05T10:59:28Z</time>
      </trkpt>
      <trkpt lat="57.51620901748538" lon="-6.152060022577643">
        <ele>190</ele>
        <time>2019-09-05T10:59:29Z</time>
      </trkpt>
      <trkpt lat="57.516382019966841" lon="-6.152134034782648">
        <ele>189.52000000000001</ele>
        <time>2019-09-05T10:59:30Z</time>
      </trkpt>
      <trkpt lat="57.517683980986476" lon="-6.152994018048048">
        <ele>189.52000000000001</ele>
        <time>2019-09-05T10:59:38Z</time>
      </trkpt>
      <trkpt lat="57.519085016101599" lon="-6.153334993869066">
        <ele>188.56</ele>
        <time>2019-09-05T10:59:47Z</time>
      </trkpt>
      <trkpt lat="57.520896010100842" lon="-6.153628025203943">
        <ele>179.90000000000001</ele>
        <time>2019-09-05T10:59:58Z</time>
      </trkpt>
      <trkpt lat="57.52243802882731" lon="-6.153951985761523">
        <ele>167.88999999999999</ele>
        <time>2019-09-05T11:00:04Z</time>
      </trkpt>
      <trkpt lat="57.524054981768131" lon="-6.154291033744812">
        <ele>157.78999999999999</ele>
        <time>2019-09-05T11:00:11Z</time>
      </trkpt>
      <trkpt lat="57.525541009381413" lon="-6.15495496429503">
        <ele>143.37</ele>
        <time>2019-09-05T11:00:19Z</time>
      </trkpt>
      <trkpt lat="57.526968028396368" lon="-6.156257009133697">
        <ele>128.94999999999999</ele>
        <time>2019-09-05T11:00:27Z</time>
      </trkpt>
      <trkpt lat="57.5274240039289" lon="-6.15658599883318">
        <ele>126.55</ele>
        <time>2019-09-05T11:00:30Z</time>
      </trkpt>
      <trkpt lat="57.527566999197006" lon="-6.156626986339688">
        <ele>126.06999999999999</ele>
        <time>2019-09-05T11:00:31Z</time>
      </trkpt>
      <trkpt lat="57.527711000293493" lon="-6.156645007431507">
        <ele>126.06999999999999</ele>
        <time>2019-09-05T11:00:32Z</time>
      </trkpt>
      <trkpt lat="57.52785500138998" lon="-6.15663000382483">
        <ele>126.55</ele>
        <time>2019-09-05T11:00:33Z</time>
      </trkpt>
      <trkpt lat="57.52800696529448" lon="-6.156549034640193">
        <ele>126.55</ele>
        <time>2019-09-05T11:00:34Z</time>
      </trkpt>
      <trkpt lat="57.528162030503154" lon="-6.156435962766409">
        <ele>127.03</ele>
        <time>2019-09-05T11:00:35Z</time>
      </trkpt>
      <trkpt lat="57.528302008286119" lon="-6.156238988041878">
        <ele>127.51000000000001</ele>
        <time>2019-09-05T11:00:36Z</time>
      </trkpt>
      <trkpt lat="57.528450032696128" lon="-6.156032038852572">
        <ele>127.51000000000001</ele>
        <time>2019-09-05T11:00:37Z</time>
      </trkpt>
      <trkpt lat="57.528600990772247" lon="-6.155817965045571">
        <ele>127.98999999999999</ele>
        <time>2019-09-05T11:00:38Z</time>
      </trkpt>
      <trkpt lat="57.529878979548812" lon="-6.15372802130878">
        <ele>128.94999999999999</ele>
        <time>2019-09-05T11:00:46Z</time>
      </trkpt>
      <trkpt lat="57.530652964487672" lon="-6.151774032041431">
        <ele>126.55</ele>
        <time>2019-09-05T11:00:53Z</time>
      </trkpt>
      <trkpt lat="57.531598024070263" lon="-6.149536985903978">
        <ele>116.45999999999999</ele>
        <time>2019-09-05T11:01:03Z</time>
      </trkpt>
      <trkpt lat="57.532661017030478" lon="-6.148480027914047">
        <ele>107.81</ele>
        <time>2019-09-05T11:01:10Z</time>
      </trkpt>
      <trkpt lat="57.533454028889537" lon="-6.148008964955807">
        <ele>107.31999999999999</ele>
        <time>2019-09-05T11:01:15Z</time>
      </trkpt>
      <trkpt lat="57.533617978915572" lon="-6.147978035733104">
        <ele>107.31999999999999</ele>
        <time>2019-09-05T11:01:16Z</time>
      </trkpt>
      <trkpt lat="57.533791987225413" lon="-6.147945011034608">
        <ele>107.81</ele>
        <time>2019-09-05T11:01:17Z</time>
      </trkpt>
      <trkpt lat="57.533941017463803" lon="-6.147968983277679">
        <ele>108.29000000000001</ele>
        <time>2019-09-05T11:01:18Z</time>
      </trkpt>
      <trkpt lat="57.534102033823729" lon="-6.14799396134913">
        <ele>108.77</ele>
        <time>2019-09-05T11:01:19Z</time>
      </trkpt>
      <trkpt lat="57.534262966364622" lon="-6.148048024624586">
        <ele>109.25</ele>
        <time>2019-09-05T11:01:20Z</time>
      </trkpt>
      <trkpt lat="57.534417025744915" lon="-6.148141985759139">
        <ele>109.73</ele>
        <time>2019-09-05T11:01:21Z</time>
      </trkpt>
      <trkpt lat="57.534572007134557" lon="-6.148237036541104">
        <ele>109.73</ele>
        <time>2019-09-05T11:01:22Z</time>
      </trkpt>
      <trkpt lat="57.535541038960218" lon="-6.148754032328725">
        <ele>112.13</ele>
        <time>2019-09-05T11:01:28Z</time>
      </trkpt>
      <trkpt lat="57.535714963451028" lon="-6.14878898486495">
        <ele>112.13</ele>
        <time>2019-09-05T11:01:29Z</time>
      </trkpt>
      <trkpt lat="57.535888971760869" lon="-6.148781022056937">
        <ele>112.61</ele>
        <time>2019-09-05T11:01:30Z</time>
      </trkpt>
      <trkpt lat="57.536065997555852" lon="-6.148741962388158">
        <ele>112.61</ele>
        <time>2019-09-05T11:01:31Z</time>
      </trkpt>
      <trkpt lat="57.536245035007596" lon="-6.148669961839914">
        <ele>113.56999999999999</ele>
        <time>2019-09-05T11:01:32Z</time>
      </trkpt>
      <trkpt lat="57.536413008347154" lon="-6.148537024855614">
        <ele>113.56999999999999</ele>
        <time>2019-09-05T11:01:33Z</time>
      </trkpt>
      <trkpt lat="57.536566983908415" lon="-6.148364022374153">
        <ele>114.05</ele>
        <time>2019-09-05T11:01:34Z</time>
      </trkpt>
      <trkpt lat="57.536720959469676" lon="-6.148191019892693">
        <ele>114.53</ele>
        <time>2019-09-05T11:01:35Z</time>
      </trkpt>
      <trkpt lat="57.536876024678349" lon="-6.148018017411232">
        <ele>115.01000000000001</ele>
        <time>2019-09-05T11:01:36Z</time>
      </trkpt>
      <trkpt lat="57.538070026785135" lon="-6.146642966195941">
        <ele>120.3</ele>
        <time>2019-09-05T11:01:45Z</time>
      </trkpt>
      <trkpt lat="57.539588995277882" lon="-6.145634036511183">
        <ele>131.84</ele>
        <time>2019-09-05T11:01:55Z</time>
      </trkpt>
      <trkpt lat="57.541168984025717" lon="-6.145476959645748">
        <ele>144.81999999999999</ele>
        <time>2019-09-05T11:02:04Z</time>
      </trkpt>
      <trkpt lat="57.542759031057358" lon="-6.14612597040832">
        <ele>157.31</ele>
        <time>2019-09-05T11:02:13Z</time>
      </trkpt>
      <trkpt lat="57.544948970898986" lon="-6.147748958319426">
        <ele>165.47999999999999</ele>
        <time>2019-09-05T11:02:26Z</time>
      </trkpt>
      <trkpt lat="57.546534994617105" lon="-6.148269977420569">
        <ele>166.44999999999999</ele>
        <time>2019-09-05T11:02:34Z</time>
      </trkpt>
      <trkpt lat="57.54800702445209" lon="-6.148275006562471">
        <ele>171.72999999999999</ele>
        <time>2019-09-05T11:02:42Z</time>
      </trkpt>
      <trkpt lat="57.549715004861355" lon="-6.148857967928052">
        <ele>167.41</ele>
        <time>2019-09-05T11:02:52Z</time>
      </trkpt>
      <trkpt lat="57.551956996321678" lon="-6.150493025779724">
        <ele>164.03999999999999</ele>
        <time>2019-09-05T11:03:05Z</time>
      </trkpt>
      <trkpt lat="57.553920038044453" lon="-6.15192499011755">
        <ele>149.62</ele>
        <time>2019-09-05T11:03:17Z</time>
      </trkpt>
      <trkpt lat="57.555735977366567" lon="-6.15321303717792">
        <ele>136.63999999999999</ele>
        <time>2019-09-05T11:03:29Z</time>
      </trkpt>
      <trkpt lat="57.557569015771151" lon="-6.154074026271701">
        <ele>121.26000000000001</ele>
        <time>2019-09-05T11:03:39Z</time>
      </trkpt>
      <trkpt lat="57.559876972809434" lon="-6.154596973210573">
        <ele>101.08</ele>
        <time>2019-09-05T11:03:51Z</time>
      </trkpt>
      <trkpt lat="57.561731971800327" lon="-6.154821021482348">
        <ele>90.980000000000004</ele>
        <time>2019-09-05T11:04:00Z</time>
      </trkpt>
      <trkpt lat="57.562951035797596" lon="-6.15559701807797">
        <ele>83.290000000000006</ele>
        <time>2019-09-05T11:04:07Z</time>
      </trkpt>
      <trkpt lat="57.564392974600196" lon="-6.156529001891613">
        <ele>69.829999999999998</ele>
        <time>2019-09-05T11:04:16Z</time>
      </trkpt>
      <trkpt lat="57.564562959596515" lon="-6.156537970528007">
        <ele>68.390000000000001</ele>
        <time>2019-09-05T11:04:17Z</time>
      </trkpt>
      <trkpt lat="57.564733028411865" lon="-6.156547022983432">
        <ele>67.430000000000007</ele>
        <time>2019-09-05T11:04:18Z</time>
      </trkpt>
      <trkpt lat="57.564903013408184" lon="-6.156511986628175">
        <ele>66.469999999999999</ele>
        <time>2019-09-05T11:04:19Z</time>
      </trkpt>
      <trkpt lat="57.565070986747742" lon="-6.156423976644874">
        <ele>66.469999999999999</ele>
        <time>2019-09-05T11:04:20Z</time>
      </trkpt>
      <trkpt lat="57.565235020592809" lon="-6.156299002468586">
        <ele>65.989999999999995</ele>
        <time>2019-09-05T11:04:21Z</time>
      </trkpt>
      <trkpt lat="57.565384972840548" lon="-6.156155001372099">
        <ele>66.469999999999999</ele>
        <time>2019-09-05T11:04:22Z</time>
      </trkpt>
      <trkpt lat="57.565507013350725" lon="-6.15594201721251">
        <ele>66.469999999999999</ele>
        <time>2019-09-05T11:04:23Z</time>
      </trkpt>
      <trkpt lat="57.565629975870252" lon="-6.15572702139616">
        <ele>66.950000000000003</ele>
        <time>2019-09-05T11:04:24Z</time>
      </trkpt>
      <trkpt lat="57.565750004723668" lon="-6.155515965074301">
        <ele>67.909999999999997</ele>
        <time>2019-09-05T11:04:25Z</time>
      </trkpt>
      <trkpt lat="57.565843965858221" lon="-6.155258975923061">
        <ele>68.870000000000005</ele>
        <time>2019-09-05T11:04:26Z</time>
      </trkpt>
      <trkpt lat="57.56592602469027" lon="-6.154984971508384">
        <ele>70.310000000000002</ele>
        <time>2019-09-05T11:04:27Z</time>
      </trkpt>
      <trkpt lat="57.566553996875882" lon="-6.153231980279088">
        <ele>80.890000000000001</ele>
        <time>2019-09-05T11:04:34Z</time>
      </trkpt>
      <trkpt lat="57.566665979102254" lon="-6.1529999691993">
        <ele>82.810000000000002</ele>
        <time>2019-09-05T11:04:35Z</time>
      </trkpt>
      <trkpt lat="57.567404005676508" lon="-6.152067985385656">
        <ele>90.019999999999996</ele>
        <time>2019-09-05T11:04:40Z</time>
      </trkpt>
      <trkpt lat="57.567585976794362" lon="-6.151937982067466">
        <ele>91.459999999999994</ele>
        <time>2019-09-05T11:04:41Z</time>
      </trkpt>
      <trkpt lat="57.567778006196022" lon="-6.151817031204701">
        <ele>92.900000000000006</ele>
        <time>2019-09-05T11:04:42Z</time>
      </trkpt>
      <trkpt lat="57.569029005244374" lon="-6.151723992079496">
        <ele>97.709999999999994</ele>
        <time>2019-09-05T11:04:48Z</time>
      </trkpt>
      <trkpt lat="57.570448983460665" lon="-6.15246101282537">
        <ele>100.59999999999999</ele>
        <time>2019-09-05T11:04:55Z</time>
      </trkpt>
      <trkpt lat="57.572468016296625" lon="-6.153646968305111">
        <ele>102.04000000000001</ele>
        <time>2019-09-05T11:05:07Z</time>
      </trkpt>
      <trkpt lat="57.574315974488854" lon="-6.154657993465662">
        <ele>95.310000000000002</ele>
        <time>2019-09-05T11:05:18Z</time>
      </trkpt>
      <trkpt lat="57.575998976826668" lon="-6.155194016173482">
        <ele>90.980000000000004</ele>
        <time>2019-09-05T11:05:27Z</time>
      </trkpt>
      <trkpt lat="57.577562034130096" lon="-6.156478961929679">
        <ele>87.140000000000001</ele>
        <time>2019-09-05T11:05:36Z</time>
      </trkpt>
      <trkpt lat="57.57914001122117" lon="-6.15748998709023">
        <ele>82.329999999999998</ele>
        <time>2019-09-05T11:05:46Z</time>
      </trkpt>
      <trkpt lat="57.580654034391046" lon="-6.157740019261837">
        <ele>76.079999999999998</ele>
        <time>2019-09-05T11:05:54Z</time>
      </trkpt>
      <trkpt lat="57.582654040306807" lon="-6.157782012596726">
        <ele>78.480000000000004</ele>
        <time>2019-09-05T11:06:05Z</time>
      </trkpt>
      <trkpt lat="57.583862040191889" lon="-6.157793998718262">
        <ele>81.370000000000005</ele>
        <time>2019-09-05T11:06:14Z</time>
      </trkpt>
      <trkpt lat="57.585351001471281" lon="-6.157441036775708">
        <ele>86.180000000000007</ele>
        <time>2019-09-05T11:06:29Z</time>
      </trkpt>
      <trkpt lat="57.586086010560393" lon="-6.157189998775721">
        <ele>88.099999999999994</ele>
        <time>2019-09-05T11:06:38Z</time>
      </trkpt>
      <trkpt lat="57.587299961596727" lon="-6.157182035967708">
        <ele>90.980000000000004</ele>
        <time>2019-09-05T11:06:48Z</time>
      </trkpt>
      <trkpt lat="57.5882270000875" lon="-6.157481018453836">
        <ele>92.900000000000006</ele>
        <time>2019-09-05T11:06:56Z</time>
      </trkpt>
      <trkpt lat="57.589654019102454" lon="-6.158078983426094">
        <ele>92.900000000000006</ele>
        <time>2019-09-05T11:07:07Z</time>
      </trkpt>
      <trkpt lat="57.590518025681376" lon="-6.158474022522569">
        <ele>91.459999999999994</ele>
        <time>2019-09-05T11:07:16Z</time>
      </trkpt>
      <trkpt lat="57.590810973197222" lon="-6.158651970326901">
        <ele>89.540000000000006</ele>
        <time>2019-09-05T11:07:26Z</time>
      </trkpt>
      <trkpt lat="57.590828994289041" lon="-6.158664040267468">
        <ele>89.060000000000002</ele>
        <time>2019-09-05T11:07:36Z</time>
      </trkpt>
      <trkpt lat="57.591091012582183" lon="-6.158823966979981">
        <ele>88.099999999999994</ele>
        <time>2019-09-05T11:07:47Z</time>
      </trkpt>
      <trkpt lat="57.59138697758317" lon="-6.159050026908517">
        <ele>87.620000000000005</ele>
        <time>2019-09-05T11:07:51Z</time>
      </trkpt>
      <trkpt lat="57.592149982228875" lon="-6.159538021311164">
        <ele>87.140000000000001</ele>
        <time>2019-09-05T11:07:58Z</time>
      </trkpt>
      <trkpt lat="57.593434005975723" lon="-6.159780006855726">
        <ele>83.290000000000006</ele>
        <time>2019-09-05T11:08:07Z</time>
      </trkpt>
      <trkpt lat="57.594982981681824" lon="-6.160550974309444">
        <ele>84.730000000000004</ele>
        <time>2019-09-05T11:08:17Z</time>
      </trkpt>
      <trkpt lat="57.597206030040979" lon="-6.162110008299351">
        <ele>87.140000000000001</ele>
        <time>2019-09-05T11:08:31Z</time>
      </trkpt>
      <trkpt lat="57.599500995129347" lon="-6.163861993700266">
        <ele>84.730000000000004</ele>
        <time>2019-09-05T11:08:44Z</time>
      </trkpt>
      <trkpt lat="57.601580964401364" lon="-6.166098034009337">
        <ele>82.810000000000002</ele>
        <time>2019-09-05T11:08:57Z</time>
      </trkpt>
      <trkpt lat="57.603664034977555" lon="-6.169074028730393">
        <ele>73.200000000000003</ele>
        <time>2019-09-05T11:09:12Z</time>
      </trkpt>
      <trkpt lat="57.60550201870501" lon="-6.171161038801074">
        <ele>66.469999999999999</ele>
        <time>2019-09-05T11:09:24Z</time>
      </trkpt>
      <trkpt lat="57.607142021879554" lon="-6.17274203337729">
        <ele>60.700000000000003</ele>
        <time>2019-09-05T11:09:34Z</time>
      </trkpt>
      <trkpt lat="57.608612040057778" lon="-6.17422697134316">
        <ele>57.340000000000003</ele>
        <time>2019-09-05T11:09:44Z</time>
      </trkpt>
      <trkpt lat="57.609286028891802" lon="-6.174531988799572">
        <ele>55.409999999999997</ele>
        <time>2019-09-05T11:09:51Z</time>
      </trkpt>
      <trkpt lat="57.609430029988289" lon="-6.174597032368183">
        <ele>55.890000000000001</ele>
        <time>2019-09-05T11:09:55Z</time>
      </trkpt>
      <trkpt lat="57.609469005838037" lon="-6.17461496964097">
        <ele>55.890000000000001</ele>
        <time>2019-09-05T11:09:56Z</time>
      </trkpt>
      <trkpt lat="57.609486021101475" lon="-6.17452603764832">
        <ele>55.890000000000001</ele>
        <time>2019-09-05T11:09:57Z</time>
      </trkpt>
      <trkpt lat="57.609497001394629" lon="-6.174450013786554">
        <ele>55.409999999999997</ele>
        <time>2019-09-05T11:09:58Z</time>
      </trkpt>
      <trkpt lat="57.609507981687784" lon="-6.174372984096408">
        <ele>55.409999999999997</ele>
        <time>2019-09-05T11:09:59Z</time>
      </trkpt>
      <trkpt lat="57.609517034143209" lon="-6.174307018518448">
        <ele>54.93</ele>
        <time>2019-09-05T11:10:00Z</time>
      </trkpt>
      <trkpt lat="57.609527008607984" lon="-6.174240969121456">
        <ele>54.93</ele>
        <time>2019-09-05T11:10:01Z</time>
      </trkpt>
      <trkpt lat="57.609664974734187" lon="-6.173628000542522">
        <ele>53.490000000000002</ele>
        <time>2019-09-05T11:10:12Z</time>
      </trkpt>
      <trkpt lat="57.609720965847373" lon="-6.173419961705804">
        <ele>53.490000000000002</ele>
        <time>2019-09-05T11:10:15Z</time>
      </trkpt>
      <trkpt lat="57.609751978889108" lon="-6.173307979479432">
        <ele>53.009999999999998</ele>
        <time>2019-09-05T11:10:17Z</time>
      </trkpt>
      <trkpt lat="57.609802018851042" lon="-6.173232039436698">
        <ele>52.530000000000001</ele>
        <time>2019-09-05T11:10:18Z</time>
      </trkpt>
      <trkpt lat="57.609836971387267" lon="-6.173180993646383">
        <ele>52.530000000000001</ele>
        <time>2019-09-05T11:10:19Z</time>
      </trkpt>
      <trkpt lat="57.609873013570905" lon="-6.173127014189959">
        <ele>52.530000000000001</ele>
        <time>2019-09-05T11:10:20Z</time>
      </trkpt>
      <trkpt lat="57.609915006905794" lon="-6.173101030290127">
        <ele>52.530000000000001</ele>
        <time>2019-09-05T11:10:21Z</time>
      </trkpt>
      <trkpt lat="57.609957000240684" lon="-6.173083009198308">
        <ele>52.530000000000001</ele>
        <time>2019-09-05T11:10:22Z</time>
      </trkpt>
      <trkpt lat="57.610001005232334" lon="-6.173064988106489">
        <ele>52.530000000000001</ele>
        <time>2019-09-05T11:10:23Z</time>
      </trkpt>
      <trkpt lat="57.610044004395604" lon="-6.17304696701467">
        <ele>52.530000000000001</ele>
        <time>2019-09-05T11:10:24Z</time>
      </trkpt>
      <trkpt lat="57.610082980245352" lon="-6.173031041398644">
        <ele>52.530000000000001</ele>
        <time>2019-09-05T11:10:25Z</time>
      </trkpt>
      <trkpt lat="57.610118016600609" lon="-6.173016037791967">
        <ele>53.009999999999998</ele>
        <time>2019-09-05T11:10:26Z</time>
      </trkpt>
      <trkpt lat="57.610153974965215" lon="-6.173007991164923">
        <ele>53.009999999999998</ele>
        <time>2019-09-05T11:10:27Z</time>
      </trkpt>
      <trkpt lat="57.610188005492091" lon="-6.173008996993303">
        <ele>53.009999999999998</ele>
        <time>2019-09-05T11:10:28Z</time>
      </trkpt>
      <trkpt lat="57.610223041847348" lon="-6.173011008650065">
        <ele>53.009999999999998</ele>
        <time>2019-09-05T11:10:29Z</time>
      </trkpt>
      <trkpt lat="57.610683962702751" lon="-6.173028023913503">
        <ele>54.450000000000003</ele>
        <time>2019-09-05T11:10:42Z</time>
      </trkpt>
      <trkpt lat="57.610782030969858" lon="-6.172952000051737">
        <ele>54.450000000000003</ele>
        <time>2019-09-05T11:10:46Z</time>
      </trkpt>
      <trkpt lat="57.610797034576535" lon="-6.172932973131537">
        <ele>54.450000000000003</ele>
        <time>2019-09-05T11:10:47Z</time>
      </trkpt>
      <trkpt lat="57.610813966020942" lon="-6.17291403003037">
        <ele>54.450000000000003</ele>
        <time>2019-09-05T11:10:48Z</time>
      </trkpt>
      <trkpt lat="57.610817989334464" lon="-6.172856027260423">
        <ele>54.450000000000003</ele>
        <time>2019-09-05T11:10:59Z</time>
      </trkpt>
      <trkpt lat="57.610815977677703" lon="-6.172838006168604">
        <ele>54.93</ele>
        <time>2019-09-05T11:11:11Z</time>
      </trkpt>
      <trkpt lat="57.610801979899406" lon="-6.172748990356922">
        <ele>54.93</ele>
        <time>2019-09-05T11:11:15Z</time>
      </trkpt>
      <trkpt lat="57.610739031806588" lon="-6.172663997858763">
        <ele>54.93</ele>
        <time>2019-09-05T11:11:16Z</time>
      </trkpt>
      <trkpt lat="57.610739031806588" lon="-6.172663997858763">
        <ele>54.93</ele>
        <time>2019-09-05T11:11:28Z</time>
      </trkpt>
      <trkpt lat="57.610640041530132" lon="-6.172663997858763">
        <ele>55.890000000000001</ele>
        <time>2019-09-05T11:11:48Z</time>
      </trkpt>
      <trkpt lat="57.610611040145159" lon="-6.172663997858763">
        <ele>55.890000000000001</ele>
        <time>2019-09-05T11:11:57Z</time>
      </trkpt>
      <trkpt lat="57.610624032095075" lon="-6.172628961503506">
        <ele>56.859999999999999</ele>
        <time>2019-09-05T11:19:58Z</time>
      </trkpt>
      <trkpt lat="57.610621014609933" lon="-6.172671038657427">
        <ele>56.859999999999999</ele>
        <time>2019-09-05T11:20:24Z</time>
      </trkpt>
      <trkpt lat="57.61061598546803" lon="-6.172697022557259">
        <ele>57.340000000000003</ele>
        <time>2019-09-05T11:20:54Z</time>
      </trkpt>
      <trkpt lat="57.610627971589565" lon="-6.172681013122201">
        <ele>56.859999999999999</ele>
        <time>2019-09-05T11:21:21Z</time>
      </trkpt>
      <trkpt lat="57.610605005174875" lon="-6.172703979536891">
        <ele>55.890000000000001</ele>
        <time>2019-09-05T11:21:41Z</time>
      </trkpt>
      <trkpt lat="57.610605005174875" lon="-6.172703979536891">
        <ele>55.890000000000001</ele>
        <time>2019-09-05T11:21:47Z</time>
      </trkpt>
      <trkpt lat="57.610524035990238" lon="-6.172663997858763">
        <ele>55.890000000000001</ele>
        <time>2019-09-05T11:21:49Z</time>
      </trkpt>
      <trkpt lat="57.610524035990238" lon="-6.172663997858763">
        <ele>55.890000000000001</ele>
        <time>2019-09-05T11:21:50Z</time>
      </trkpt>
      <trkpt lat="57.610481958836317" lon="-6.17270196788013">
        <ele>55.409999999999997</ele>
        <time>2019-09-05T11:21:51Z</time>
      </trkpt>
      <trkpt lat="57.610430996865034" lon="-6.172746978700161">
        <ele>55.409999999999997</ele>
        <time>2019-09-05T11:21:52Z</time>
      </trkpt>
      <trkpt lat="57.610259000211954" lon="-6.172900032252073">
        <ele>54.93</ele>
        <time>2019-09-05T11:21:57Z</time>
      </trkpt>
      <trkpt lat="57.610137965530157" lon="-6.173007991164923">
        <ele>53.969999999999999</ele>
        <time>2019-09-05T11:22:00Z</time>
      </trkpt>
      <trkpt lat="57.610133020207286" lon="-6.173010002821684">
        <ele>53.969999999999999</ele>
        <time>2019-09-05T11:22:01Z</time>
      </trkpt>
      <trkpt lat="57.610116004943848" lon="-6.173016959801316">
        <ele>53.969999999999999</ele>
        <time>2019-09-05T11:22:02Z</time>
      </trkpt>
      <trkpt lat="57.610101001337171" lon="-6.1730229947716">
        <ele>53.969999999999999</ele>
        <time>2019-09-05T11:22:03Z</time>
      </trkpt>
      <trkpt lat="57.610024977475405" lon="-6.173055013641715">
        <ele>53.969999999999999</ele>
        <time>2019-09-05T11:22:15Z</time>
      </trkpt>
      <trkpt lat="57.609832026064396" lon="-6.173188034445047">
        <ele>53.490000000000002</ele>
        <time>2019-09-05T11:22:26Z</time>
      </trkpt>
      <trkpt lat="57.609832026064396" lon="-6.173188034445047">
        <ele>53.490000000000002</ele>
        <time>2019-09-05T11:23:09Z</time>
      </trkpt>
      <trkpt lat="57.609832026064396" lon="-6.173188034445047">
        <ele>53.490000000000002</ele>
        <time>2019-09-05T11:23:46Z</time>
      </trkpt>
      <trkpt lat="57.609832026064396" lon="-6.173188034445047">
        <ele>53.490000000000002</ele>
        <time>2019-09-05T11:24:21Z</time>
      </trkpt>
      <trkpt lat="57.609751978889108" lon="-6.173307979479432">
        <ele>53.969999999999999</ele>
        <time>2019-09-05T11:24:43Z</time>
      </trkpt>
      <trkpt lat="57.609731024131179" lon="-6.173386014997959">
        <ele>53.969999999999999</ele>
        <time>2019-09-05T11:24:45Z</time>
      </trkpt>
      <trkpt lat="57.609592974185944" lon="-6.173891024664044">
        <ele>55.409999999999997</ele>
        <time>2019-09-05T11:24:55Z</time>
      </trkpt>
      <trkpt lat="57.609508987516165" lon="-6.174363009631634">
        <ele>56.369999999999997</ele>
        <time>2019-09-05T11:25:10Z</time>
      </trkpt>
      <trkpt lat="57.609491972252727" lon="-6.174480020999908">
        <ele>56.369999999999997</ele>
        <time>2019-09-05T11:25:16Z</time>
      </trkpt>
      <trkpt lat="57.609488032758236" lon="-6.174510028213263">
        <ele>56.369999999999997</ele>
        <time>2019-09-05T11:25:17Z</time>
      </trkpt>
      <trkpt lat="57.609503958374262" lon="-6.17463399656117">
        <ele>56.369999999999997</ele>
        <time>2019-09-05T11:25:18Z</time>
      </trkpt>
      <trkpt lat="57.60954100638628" lon="-6.174656040966511">
        <ele>56.369999999999997</ele>
        <time>2019-09-05T11:25:19Z</time>
      </trkpt>
      <trkpt lat="57.609595991671085" lon="-6.174686970189214">
        <ele>56.369999999999997</ele>
        <time>2019-09-05T11:25:20Z</time>
      </trkpt>
      <trkpt lat="57.609663968905807" lon="-6.174726029857993">
        <ele>56.369999999999997</ele>
        <time>2019-09-05T11:25:21Z</time>
      </trkpt>
      <trkpt lat="57.610382968559861" lon="-6.175234979018569">
        <ele>58.780000000000001</ele>
        <time>2019-09-05T11:25:28Z</time>
      </trkpt>
      <trkpt lat="57.611646959558129" lon="-6.176677001640201">
        <ele>68.390000000000001</ele>
        <time>2019-09-05T11:25:39Z</time>
      </trkpt>
      <trkpt lat="57.612877003848553" lon="-6.17856603115797">
        <ele>75.120000000000005</ele>
        <time>2019-09-05T11:25:51Z</time>
      </trkpt>
      <trkpt lat="57.613985007628798" lon="-6.181092001497746">
        <ele>79.450000000000003</ele>
        <time>2019-09-05T11:26:01Z</time>
      </trkpt>
      <trkpt lat="57.614813977852464" lon="-6.184336971491575">
        <ele>80.890000000000001</ele>
        <time>2019-09-05T11:26:11Z</time>
      </trkpt>
      <trkpt lat="57.615782003849745" lon="-6.188005981966853">
        <ele>76.560000000000002</ele>
        <time>2019-09-05T11:26:22Z</time>
      </trkpt>
      <trkpt lat="57.617436004802585" lon="-6.192113030701876">
        <ele>89.060000000000002</ele>
        <time>2019-09-05T11:26:35Z</time>
      </trkpt>
      <trkpt lat="57.618924966081977" lon="-6.195179969072342">
        <ele>97.230000000000004</ele>
        <time>2019-09-05T11:26:46Z</time>
      </trkpt>
      <trkpt lat="57.620085021480918" lon="-6.196681000292301">
        <ele>90.5</ele>
        <time>2019-09-05T11:26:54Z</time>
      </trkpt>
      <trkpt lat="57.622092990204692" lon="-6.199264973402023">
        <ele>72.239999999999995</ele>
        <time>2019-09-05T11:27:08Z</time>
      </trkpt>
      <trkpt lat="57.623221026733518" lon="-6.200950993224978">
        <ele>61.659999999999997</ele>
        <time>2019-09-05T11:27:19Z</time>
      </trkpt>
      <trkpt lat="57.6244099996984" lon="-6.202877992764115">
        <ele>53.490000000000002</ele>
        <time>2019-09-05T11:27:31Z</time>
      </trkpt>
      <trkpt lat="57.625598972663283" lon="-6.205173963680863">
        <ele>41.950000000000003</ele>
        <time>2019-09-05T11:27:43Z</time>
      </trkpt>
      <trkpt lat="57.626547971740365" lon="-6.207128958776593">
        <ele>33.299999999999997</ele>
        <time>2019-09-05T11:27:54Z</time>
      </trkpt>
      <trkpt lat="57.627491019666195" lon="-6.208630995824933">
        <ele>31.379999999999999</ele>
        <time>2019-09-05T11:28:03Z</time>
      </trkpt>
      <trkpt lat="57.627839958295226" lon="-6.209066016599536">
        <ele>29.940000000000001</ele>
        <time>2019-09-05T11:28:09Z</time>
      </trkpt>
      <trkpt lat="57.627874994650483" lon="-6.209102980792522">
        <ele>29.940000000000001</ele>
        <time>2019-09-05T11:28:10Z</time>
      </trkpt>
      <trkpt lat="57.628363994881511" lon="-6.209616959095001">
        <ele>27.530000000000001</ele>
        <time>2019-09-05T11:28:21Z</time>
      </trkpt>
      <trkpt lat="57.628498021513224" lon="-6.209758026525378">
        <ele>27.050000000000001</ele>
        <time>2019-09-05T11:28:23Z</time>
      </trkpt>
      <trkpt lat="57.628583014011383" lon="-6.209847964346409">
        <ele>26.57</ele>
        <time>2019-09-05T11:28:24Z</time>
      </trkpt>
      <trkpt lat="57.629493037238717" lon="-6.210966026410461">
        <ele>25.129999999999999</ele>
        <time>2019-09-05T11:28:32Z</time>
      </trkpt>
      <trkpt lat="57.630344973877072" lon="-6.212798980996013">
        <ele>23.690000000000001</ele>
        <time>2019-09-05T11:28:40Z</time>
      </trkpt>
      <trkpt lat="57.630969006568193" lon="-6.21515303850174">
        <ele>29.460000000000001</ele>
        <time>2019-09-05T11:28:49Z</time>
      </trkpt>
      <trkpt lat="57.631146032363176" lon="-6.216344023123384">
        <ele>33.299999999999997</ele>
        <time>2019-09-05T11:28:57Z</time>
      </trkpt>
      <trkpt lat="57.631162963807583" lon="-6.217454038560391">
        <ele>35.710000000000001</ele>
        <time>2019-09-05T11:29:06Z</time>
      </trkpt>
      <trkpt lat="57.631153995171189" lon="-6.217853017151356">
        <ele>36.189999999999998</ele>
        <time>2019-09-05T11:29:10Z</time>
      </trkpt>
      <trkpt lat="57.631151983514428" lon="-6.217929041013122">
        <ele>36.189999999999998</ele>
        <time>2019-09-05T11:29:11Z</time>
      </trkpt>
      <trkpt lat="57.631149971857667" lon="-6.217994000762701">
        <ele>36.189999999999998</ele>
        <time>2019-09-05T11:29:12Z</time>
      </trkpt>
      <trkpt lat="57.631148966029286" lon="-6.218038005754352">
        <ele>36.189999999999998</ele>
        <time>2019-09-05T11:29:13Z</time>
      </trkpt>
      <trkpt lat="57.631217027083039" lon="-6.218186030164361">
        <ele>36.189999999999998</ele>
        <time>2019-09-05T11:29:14Z</time>
      </trkpt>
      <trkpt lat="57.631246028468013" lon="-6.218173038214445">
        <ele>36.189999999999998</ele>
        <time>2019-09-05T11:29:15Z</time>
      </trkpt>
      <trkpt lat="57.631289027631283" lon="-6.218154011294246">
        <ele>36.189999999999998</ele>
        <time>2019-09-05T11:29:16Z</time>
      </trkpt>
      <trkpt lat="57.631338983774185" lon="-6.218130961060524">
        <ele>36.670000000000002</ele>
        <time>2019-09-05T11:29:17Z</time>
      </trkpt>
      <trkpt lat="57.63139296323061" lon="-6.21809902600944">
        <ele>36.670000000000002</ele>
        <time>2019-09-05T11:29:18Z</time>
      </trkpt>
      <trkpt lat="57.631440991535783" lon="-6.218044962733984">
        <ele>36.670000000000002</ele>
        <time>2019-09-05T11:29:19Z</time>
      </trkpt>
      <trkpt lat="57.631483990699053" lon="-6.217998024076223">
        <ele>37.149999999999999</ele>
        <time>2019-09-05T11:29:20Z</time>
      </trkpt>
      <trkpt lat="57.631523972377181" lon="-6.217953013256192">
        <ele>37.149999999999999</ele>
        <time>2019-09-05T11:29:21Z</time>
      </trkpt>
      <trkpt lat="57.631574012339115" lon="-6.217897022143006">
        <ele>37.149999999999999</ele>
        <time>2019-09-05T11:29:22Z</time>
      </trkpt>
      <trkpt lat="57.631622962653637" lon="-6.217891993001103">
        <ele>37.149999999999999</ele>
        <time>2019-09-05T11:29:23Z</time>
      </trkpt>
      <trkpt lat="57.631908031180501" lon="-6.217859974130988">
        <ele>36.189999999999998</ele>
        <time>2019-09-05T11:29:27Z</time>
      </trkpt>
      <trkpt lat="57.6326800044626" lon="-6.2174759991467">
        <ele>30.420000000000002</ele>
        <time>2019-09-05T11:29:38Z</time>
      </trkpt>
      <trkpt lat="57.632908998057246" lon="-6.217313976958394">
        <ele>28.02</ele>
        <time>2019-09-05T11:29:42Z</time>
      </trkpt>
      <trkpt lat="57.63296096585691" lon="-6.21726100333035">
        <ele>27.530000000000001</ele>
        <time>2019-09-05T11:29:43Z</time>
      </trkpt>
      <trkpt lat="57.633012011647224" lon="-6.217210041359067">
        <ele>26.57</ele>
        <time>2019-09-05T11:29:44Z</time>
      </trkpt>
      <trkpt lat="57.633051993325353" lon="-6.217114990577102">
        <ele>26.09</ele>
        <time>2019-09-05T11:29:45Z</time>
      </trkpt>
      <trkpt lat="57.633086023852229" lon="-6.217032009735704">
        <ele>25.609999999999999</ele>
        <time>2019-09-05T11:29:46Z</time>
      </trkpt>
      <trkpt lat="57.633119970560074" lon="-6.216949028894305">
        <ele>24.649999999999999</ele>
        <time>2019-09-05T11:29:47Z</time>
      </trkpt>
      <trkpt lat="57.633181996643543" lon="-6.216799998655915">
        <ele>23.210000000000001</ele>
        <time>2019-09-05T11:29:49Z</time>
      </trkpt>
      <trkpt lat="57.633206974714994" lon="-6.216738978400827">
        <ele>22.25</ele>
        <time>2019-09-05T11:29:50Z</time>
      </trkpt>
      <trkpt lat="57.633232036605477" lon="-6.216677958145738">
        <ele>21.77</ele>
        <time>2019-09-05T11:29:51Z</time>
      </trkpt>
      <trkpt lat="57.633269000798464" lon="-6.216575028374791">
        <ele>20.809999999999999</ele>
        <time>2019-09-05T11:29:52Z</time>
      </trkpt>
      <trkpt lat="57.6332619599998" lon="-6.216488024219871">
        <ele>19.84</ele>
        <time>2019-09-05T11:29:53Z</time>
      </trkpt>
      <trkpt lat="57.633256008848548" lon="-6.216394985094667">
        <ele>19.359999999999999</ele>
        <time>2019-09-05T11:29:54Z</time>
      </trkpt>
      <trkpt lat="57.633242011070251" lon="-6.216271016746759">
        <ele>18.399999999999999</ele>
        <time>2019-09-05T11:29:55Z</time>
      </trkpt>
      <trkpt lat="57.633212003856897" lon="-6.216191975399852">
        <ele>17.440000000000001</ele>
        <time>2019-09-05T11:29:56Z</time>
      </trkpt>
      <trkpt lat="57.633092980831861" lon="-6.215876983478665">
        <ele>14.08</ele>
        <time>2019-09-05T11:30:00Z</time>
      </trkpt>
      <trkpt lat="57.633063979446888" lon="-6.215800037607551">
        <ele>13.6</ele>
        <time>2019-09-05T11:30:01Z</time>
      </trkpt>
      <trkpt lat="57.633039001375437" lon="-6.21573599986732">
        <ele>12.630000000000001</ele>
        <time>2019-09-05T11:30:02Z</time>
      </trkpt>
      <trkpt lat="57.632940011098981" lon="-6.215398963540793">
        <ele>8.310000000000001</ele>
        <time>2019-09-05T11:30:06Z</time>
      </trkpt>
      <trkpt lat="57.632930958643556" lon="-6.215297039598227">
        <ele>7.35</ele>
        <time>2019-09-05T11:30:07Z</time>
      </trkpt>
      <trkpt lat="57.632922995835543" lon="-6.21519897133112">
        <ele>6.87</ele>
        <time>2019-09-05T11:30:08Z</time>
      </trkpt>
      <trkpt lat="57.632907992228866" lon="-6.215015994384885">
        <ele>5.42</ele>
        <time>2019-09-05T11:30:10Z</time>
      </trkpt>
      <trkpt lat="57.632910003885627" lon="-6.214948017150164">
        <ele>4.94</ele>
        <time>2019-09-05T11:30:11Z</time>
      </trkpt>
      <trkpt lat="57.632926013320684" lon="-6.214850032702088">
        <ele>4.94</ele>
        <time>2019-09-05T11:30:12Z</time>
      </trkpt>
      <trkpt lat="57.633323986083269" lon="-6.2145109847188">
        <ele>5.42</ele>
        <time>2019-09-05T11:30:19Z</time>
      </trkpt>
      <trkpt lat="57.633378971368074" lon="-6.214428003877401">
        <ele>5.91</ele>
        <time>2019-09-05T11:30:20Z</time>
      </trkpt>
      <trkpt lat="57.633423982188106" lon="-6.214319039136171">
        <ele>6.39</ele>
        <time>2019-09-05T11:30:21Z</time>
      </trkpt>
      <trkpt lat="57.633464969694614" lon="-6.214193981140852">
        <ele>7.35</ele>
        <time>2019-09-05T11:30:22Z</time>
      </trkpt>
      <trkpt lat="57.633508974686265" lon="-6.21405802667141">
        <ele>8.310000000000001</ele>
        <time>2019-09-05T11:30:23Z</time>
      </trkpt>
      <trkpt lat="57.633558008819818" lon="-6.21390899643302">
        <ele>8.789999999999999</ele>
        <time>2019-09-05T11:30:24Z</time>
      </trkpt>
      <trkpt lat="57.633608970791101" lon="-6.213752003386617">
        <ele>9.75</ele>
        <time>2019-09-05T11:30:25Z</time>
      </trkpt>
      <trkpt lat="57.633677031844854" lon="-6.213541030883789">
        <ele>10.23</ele>
        <time>2019-09-05T11:30:26Z</time>
      </trkpt>
      <trkpt lat="57.633746014907956" lon="-6.213477998971939">
        <ele>11.19</ele>
        <time>2019-09-05T11:30:27Z</time>
      </trkpt>
      <trkpt lat="57.633835030719638" lon="-6.213397029787302">
        <ele>11.67</ele>
        <time>2019-09-05T11:30:28Z</time>
      </trkpt>
      <trkpt lat="57.633913988247514" lon="-6.213325029239059">
        <ele>12.630000000000001</ele>
        <time>2019-09-05T11:30:29Z</time>
      </trkpt>
      <trkpt lat="57.633995041251183" lon="-6.213251017034054">
        <ele>12.630000000000001</ele>
        <time>2019-09-05T11:30:30Z</time>
      </trkpt>
      <trkpt lat="57.634087996557355" lon="-6.213166024535894">
        <ele>13.119999999999999</ele>
        <time>2019-09-05T11:30:31Z</time>
      </trkpt>
      <trkpt lat="57.634187992662191" lon="-6.213067034259439">
        <ele>13.119999999999999</ele>
        <time>2019-09-05T11:30:32Z</time>
      </trkpt>
      <trkpt lat="57.634281031787395" lon="-6.212936025112867">
        <ele>13.119999999999999</ele>
        <time>2019-09-05T11:30:33Z</time>
      </trkpt>
      <trkpt lat="57.634372981265187" lon="-6.212807027623057">
        <ele>13.119999999999999</ele>
        <time>2019-09-05T11:30:34Z</time>
      </trkpt>
      <trkpt lat="57.634445987641811" lon="-6.212650034576654">
        <ele>12.630000000000001</ele>
        <time>2019-09-05T11:30:35Z</time>
      </trkpt>
      <trkpt lat="57.634512959048152" lon="-6.212493041530252">
        <ele>12.630000000000001</ele>
        <time>2019-09-05T11:30:36Z</time>
      </trkpt>
      <trkpt lat="57.63512802310288" lon="-6.211123019456863">
        <ele>14.56</ele>
        <time>2019-09-05T11:30:45Z</time>
      </trkpt>
      <trkpt lat="57.635209998115897" lon="-6.210994021967053">
        <ele>15.039999999999999</ele>
        <time>2019-09-05T11:30:46Z</time>
      </trkpt>
      <trkpt lat="57.635287027806044" lon="-6.210870975628495">
        <ele>15.52</ele>
        <time>2019-09-05T11:30:47Z</time>
      </trkpt>
      <trkpt lat="57.635355005040765" lon="-6.210764022544026">
        <ele>16</ele>
        <time>2019-09-05T11:30:48Z</time>
      </trkpt>
      <trkpt lat="57.635410996153951" lon="-6.210677018389106">
        <ele>16.48</ele>
        <time>2019-09-05T11:30:49Z</time>
      </trkpt>
      <trkpt lat="57.635458018630743" lon="-6.21060099452734">
        <ele>16.960000000000001</ele>
        <time>2019-09-05T11:30:50Z</time>
      </trkpt>
      <trkpt lat="57.635477967560291" lon="-6.210498986765742">
        <ele>17.440000000000001</ele>
        <time>2019-09-05T11:30:51Z</time>
      </trkpt>
      <trkpt lat="57.635500011965632" lon="-6.21038599871099">
        <ele>17.920000000000002</ele>
        <time>2019-09-05T11:30:52Z</time>
      </trkpt>
      <trkpt lat="57.635552985593677" lon="-6.210110988467932">
        <ele>18.399999999999999</ele>
        <time>2019-09-05T11:30:54Z</time>
      </trkpt>
      <trkpt lat="57.635587016120553" lon="-6.20993597432971">
        <ele>18.399999999999999</ele>
        <time>2019-09-05T11:30:55Z</time>
      </trkpt>
      <trkpt lat="57.635648958384991" lon="-6.209798008203507">
        <ele>17.920000000000002</ele>
        <time>2019-09-05T11:30:56Z</time>
      </trkpt>
      <trkpt lat="57.635718025267124" lon="-6.209642020985484">
        <ele>17.920000000000002</ele>
        <time>2019-09-05T11:30:57Z</time>
      </trkpt>
      <trkpt lat="57.635788014158607" lon="-6.209485027939081">
        <ele>17.440000000000001</ele>
        <time>2019-09-05T11:30:58Z</time>
      </trkpt>
      <trkpt lat="57.636497039347887" lon="-6.207896992564201">
        <ele>17.920000000000002</ele>
        <time>2019-09-05T11:31:09Z</time>
      </trkpt>
      <trkpt lat="57.636899035423994" lon="-6.206801980733872">
        <ele>18.399999999999999</ele>
        <time>2019-09-05T11:31:17Z</time>
      </trkpt>
      <trkpt lat="57.636932982131839" lon="-6.206683041527867">
        <ele>18.399999999999999</ele>
        <time>2019-09-05T11:31:18Z</time>
      </trkpt>
      <trkpt lat="57.636958966031671" lon="-6.206577010452747">
        <ele>18.879999999999999</ele>
        <time>2019-09-05T11:31:19Z</time>
      </trkpt>
      <trkpt lat="57.636938011273742" lon="-6.206317003816366">
        <ele>18.879999999999999</ele>
        <time>2019-09-05T11:31:21Z</time>
      </trkpt>
      <trkpt lat="57.636926025152206" lon="-6.206178031861782">
        <ele>18.879999999999999</ele>
        <time>2019-09-05T11:31:22Z</time>
      </trkpt>
      <trkpt lat="57.636882020160556" lon="-6.205762038007379">
        <ele>18.399999999999999</ele>
        <time>2019-09-05T11:31:25Z</time>
      </trkpt>
      <trkpt lat="57.636811025440693" lon="-6.205477975308895">
        <ele>16.960000000000001</ele>
        <time>2019-09-05T11:31:27Z</time>
      </trkpt>
      <trkpt lat="57.636770959943533" lon="-6.205341015011072">
        <ele>16</ele>
        <time>2019-09-05T11:31:28Z</time>
      </trkpt>
      <trkpt lat="57.636660989373922" lon="-6.20505703613162">
        <ele>15.039999999999999</ele>
        <time>2019-09-05T11:31:30Z</time>
      </trkpt>
      <trkpt lat="57.636604998260736" lon="-6.204912029206753">
        <ele>14.56</ele>
        <time>2019-09-05T11:31:31Z</time>
      </trkpt>
      <trkpt lat="57.636530986055732" lon="-6.204722011461854">
        <ele>14.08</ele>
        <time>2019-09-05T11:31:32Z</time>
      </trkpt>
      <trkpt lat="57.635878035798669" lon="-6.203663963824511">
        <ele>11.67</ele>
        <time>2019-09-05T11:31:42Z</time>
      </trkpt>
      <trkpt lat="57.635831013321877" lon="-6.203587017953396">
        <ele>11.67</ele>
        <time>2019-09-05T11:31:43Z</time>
      </trkpt>
      <trkpt lat="57.635489031672478" lon="-6.203154008835554">
        <ele>13.6</ele>
        <time>2019-09-05T11:31:49Z</time>
      </trkpt>
      <trkpt lat="57.635400015860796" lon="-6.203055018559098">
        <ele>13.6</ele>
        <time>2019-09-05T11:31:51Z</time>
      </trkpt>
      <trkpt lat="57.635133974254131" lon="-6.202755030244589">
        <ele>14.56</ele>
        <time>2019-09-05T11:31:59Z</time>
      </trkpt>
      <trkpt lat="57.635093992576003" lon="-6.202710019424558">
        <ele>14.56</ele>
        <time>2019-09-05T11:32:00Z</time>
      </trkpt>
      <trkpt lat="57.635059040039778" lon="-6.202670037746429">
        <ele>14.56</ele>
        <time>2019-09-05T11:32:01Z</time>
      </trkpt>
      <trkpt lat="57.635027021169662" lon="-6.202633995562792">
        <ele>14.56</ele>
        <time>2019-09-05T11:32:02Z</time>
      </trkpt>
      <trkpt lat="57.634992990642786" lon="-6.202596025541425">
        <ele>14.56</ele>
        <time>2019-09-05T11:32:03Z</time>
      </trkpt>
      <trkpt lat="57.634958038106561" lon="-6.202555960044265">
        <ele>14.56</ele>
        <time>2019-09-05T11:32:04Z</time>
      </trkpt>
      <trkpt lat="57.634924007579684" lon="-6.202517990022898">
        <ele>14.08</ele>
        <time>2019-09-05T11:32:05Z</time>
      </trkpt>
      <trkpt lat="57.63461496680975" lon="-6.202169973403215">
        <ele>12.15</ele>
        <time>2019-09-05T11:32:15Z</time>
      </trkpt>
      <trkpt lat="57.634175000712276" lon="-6.201461032032967">
        <ele>11.19</ele>
        <time>2019-09-05T11:32:23Z</time>
      </trkpt>
      <trkpt lat="57.633696980774403" lon="-6.200641030445695">
        <ele>8.789999999999999</ele>
        <time>2019-09-05T11:32:29Z</time>
      </trkpt>
      <trkpt lat="57.633557002991438" lon="-6.200361996889114">
        <ele>8.310000000000001</ele>
        <time>2019-09-05T11:32:31Z</time>
      </trkpt>
      <trkpt lat="57.633261037990451" lon="-6.199770988896489">
        <ele>8.310000000000001</ele>
        <time>2019-09-05T11:32:36Z</time>
      </trkpt>
      <trkpt lat="57.633227007463574" lon="-6.199701000005007">
        <ele>8.310000000000001</ele>
        <time>2019-09-05T11:32:37Z</time>
      </trkpt>
      <trkpt lat="57.633206974714994" lon="-6.19953696615994">
        <ele>8.310000000000001</ele>
        <time>2019-09-05T11:32:38Z</time>
      </trkpt>
      <trkpt lat="57.633191971108317" lon="-6.19940503500402">
        <ele>8.310000000000001</ele>
        <time>2019-09-05T11:32:39Z</time>
      </trkpt>
      <trkpt lat="57.63317596167326" lon="-6.199266985058785">
        <ele>7.83</ele>
        <time>2019-09-05T11:32:40Z</time>
      </trkpt>
      <trkpt lat="57.633141009137034" lon="-6.198971020057797">
        <ele>4.46</ele>
        <time>2019-09-05T11:32:48Z</time>
      </trkpt>
      <trkpt lat="57.633105972781777" lon="-6.198508003726602">
        <ele>3.5</ele>
        <time>2019-09-05T11:32:51Z</time>
      </trkpt>
      <trkpt lat="57.633102033287287" lon="-6.198485959321261">
        <ele>3.02</ele>
        <time>2019-09-05T11:32:54Z</time>
      </trkpt>
      <trkpt lat="57.63315299525857" lon="-6.198287978768349">
        <ele>2.54</ele>
        <time>2019-09-05T11:33:03Z</time>
      </trkpt>
      <trkpt lat="57.633167998865247" lon="-6.198313962668181">
        <ele>3.02</ele>
        <time>2019-09-05T11:33:18Z</time>
      </trkpt>
      <trkpt lat="57.633193982765079" lon="-6.199297998100519">
        <ele>18.399999999999999</ele>
        <time>2019-09-05T11:40:24Z</time>
      </trkpt>
      <trkpt lat="57.633162969723344" lon="-6.198385041207075">
        <ele>9.75</ele>
        <time>2019-09-05T11:40:42Z</time>
      </trkpt>
      <trkpt lat="57.633183002471924" lon="-6.198389986529946">
        <ele>7.83</ele>
        <time>2019-09-05T11:41:13Z</time>
      </trkpt>
      <trkpt lat="57.63317302800715" lon="-6.198408007621765">
        <ele>7.83</ele>
        <time>2019-09-05T11:41:54Z</time>
      </trkpt>
      <trkpt lat="57.633177973330021" lon="-6.198393004015088">
        <ele>8.310000000000001</ele>
        <time>2019-09-05T11:42:40Z</time>
      </trkpt>
      <trkpt lat="57.633167998865247" lon="-6.199205964803696">
        <ele>6.87</ele>
        <time>2019-09-05T11:42:49Z</time>
      </trkpt>
      <trkpt lat="57.63319599442184" lon="-6.199437975883484">
        <ele>7.83</ele>
        <time>2019-09-05T11:42:51Z</time>
      </trkpt>
      <trkpt lat="57.63323899358511" lon="-6.199724972248077">
        <ele>9.27</ele>
        <time>2019-09-05T11:42:54Z</time>
      </trkpt>
      <trkpt lat="57.63328299857676" lon="-6.199813988059759">
        <ele>9.75</ele>
        <time>2019-09-05T11:42:55Z</time>
      </trkpt>
      <trkpt lat="57.633908959105611" lon="-6.201013019308448">
        <ele>12.15</ele>
        <time>2019-09-05T11:43:05Z</time>
      </trkpt>
      <trkpt lat="57.634912021458149" lon="-6.202504998072982">
        <ele>15.039999999999999</ele>
        <time>2019-09-05T11:43:18Z</time>
      </trkpt>
      <trkpt lat="57.635149983689189" lon="-6.202771961688995">
        <ele>13.119999999999999</ele>
        <time>2019-09-05T11:43:25Z</time>
      </trkpt>
      <trkpt lat="57.635422982275486" lon="-6.203079996630549">
        <ele>12.15</ele>
        <time>2019-09-05T11:43:34Z</time>
      </trkpt>
      <trkpt lat="57.63590301387012" lon="-6.203704029321671">
        <ele>11.67</ele>
        <time>2019-09-05T11:43:44Z</time>
      </trkpt>
      <trkpt lat="57.635954981669784" lon="-6.203788015991449">
        <ele>11.67</ele>
        <time>2019-09-05T11:43:45Z</time>
      </trkpt>
      <trkpt lat="57.636552024632692" lon="-6.204774985089898">
        <ele>9.27</ele>
        <time>2019-09-05T11:43:54Z</time>
      </trkpt>
      <trkpt lat="57.636608015745878" lon="-6.204920997843146">
        <ele>8.789999999999999</ele>
        <time>2019-09-05T11:43:55Z</time>
      </trkpt>
      <trkpt lat="57.636718992143869" lon="-6.20520799420774">
        <ele>9.75</ele>
        <time>2019-09-05T11:43:57Z</time>
      </trkpt>
      <trkpt lat="57.636788981035352" lon="-6.205387031659484">
        <ele>10.23</ele>
        <time>2019-09-05T11:43:58Z</time>
      </trkpt>
      <trkpt lat="57.636817982420325" lon="-6.205506976693869">
        <ele>11.19</ele>
        <time>2019-09-05T11:43:59Z</time>
      </trkpt>
      <trkpt lat="57.636856958270073" lon="-6.205661036074162">
        <ele>11.67</ele>
        <time>2019-09-05T11:44:00Z</time>
      </trkpt>
      <trkpt lat="57.636895012110472" lon="-6.205814005807042">
        <ele>12.15</ele>
        <time>2019-09-05T11:44:01Z</time>
      </trkpt>
      <trkpt lat="57.636939017102122" lon="-6.206333013251424">
        <ele>14.56</ele>
        <time>2019-09-05T11:44:04Z</time>
      </trkpt>
      <trkpt lat="57.636951003223658" lon="-6.206482965499163">
        <ele>15.039999999999999</ele>
        <time>2019-09-05T11:44:05Z</time>
      </trkpt>
      <trkpt lat="57.636947985738516" lon="-6.206631995737553">
        <ele>15.52</ele>
        <time>2019-09-05T11:44:06Z</time>
      </trkpt>
      <trkpt lat="57.63691202737391" lon="-6.206758981570602">
        <ele>15.52</ele>
        <time>2019-09-05T11:44:07Z</time>
      </trkpt>
      <trkpt lat="57.63687196187675" lon="-6.206898037344217">
        <ele>16</ele>
        <time>2019-09-05T11:44:08Z</time>
      </trkpt>
      <trkpt lat="57.636828040704131" lon="-6.207053018733859">
        <ele>16</ele>
        <time>2019-09-05T11:44:09Z</time>
      </trkpt>
      <trkpt lat="57.636781018227339" lon="-6.207215040922165">
        <ele>16</ele>
        <time>2019-09-05T11:44:10Z</time>
      </trkpt>
      <trkpt lat="57.636726032942533" lon="-6.207383014261723">
        <ele>16</ele>
        <time>2019-09-05T11:44:11Z</time>
      </trkpt>
      <trkpt lat="57.63598901219666" lon="-6.209036009386182">
        <ele>16.48</ele>
        <time>2019-09-05T11:44:22Z</time>
      </trkpt>
      <trkpt lat="57.635842999443412" lon="-6.209362987428904">
        <ele>16</ele>
        <time>2019-09-05T11:44:31Z</time>
      </trkpt>
      <trkpt lat="57.635842999443412" lon="-6.209362987428904">
        <ele>15.52</ele>
        <time>2019-09-05T11:44:48Z</time>
      </trkpt>
      <trkpt lat="57.635813998058438" lon="-6.209428030997515">
        <ele>15.52</ele>
        <time>2019-09-05T11:45:18Z</time>
      </trkpt>
      <trkpt lat="57.635763958096504" lon="-6.209540013223887">
        <ele>15.52</ele>
        <time>2019-09-05T11:45:20Z</time>
      </trkpt>
      <trkpt lat="57.635729005560279" lon="-6.209616959095001">
        <ele>16</ele>
        <time>2019-09-05T11:45:21Z</time>
      </trkpt>
      <trkpt lat="57.635510992258787" lon="-6.210329001769424">
        <ele>14.08</ele>
        <time>2019-09-05T11:45:31Z</time>
      </trkpt>
      <trkpt lat="57.635376965627074" lon="-6.21072999201715">
        <ele>11.19</ele>
        <time>2019-09-05T11:45:39Z</time>
      </trkpt>
      <trkpt lat="57.635255008935928" lon="-6.21092202141881">
        <ele>10.710000000000001</ele>
        <time>2019-09-05T11:45:42Z</time>
      </trkpt>
      <trkpt lat="57.635143026709557" lon="-6.211098963394761">
        <ele>10.23</ele>
        <time>2019-09-05T11:45:44Z</time>
      </trkpt>
      <trkpt lat="57.63474203646183" lon="-6.211962969973683">
        <ele>8.789999999999999</ele>
        <time>2019-09-05T11:45:52Z</time>
      </trkpt>
      <trkpt lat="57.634407011792064" lon="-6.212738966569305">
        <ele>10.23</ele>
        <time>2019-09-05T11:45:59Z</time>
      </trkpt>
      <trkpt lat="57.633812986314297" lon="-6.21341697871685">
        <ele>12.630000000000001</ele>
        <time>2019-09-05T11:46:09Z</time>
      </trkpt>
      <trkpt lat="57.633734028786421" lon="-6.213488979265094">
        <ele>12.630000000000001</ele>
        <time>2019-09-05T11:46:10Z</time>
      </trkpt>
      <trkpt lat="57.633677031844854" lon="-6.213541030883789">
        <ele>13.119999999999999</ele>
        <time>2019-09-05T11:46:11Z</time>
      </trkpt>
      <trkpt lat="57.633627997711301" lon="-6.213692994788289">
        <ele>12.630000000000001</ele>
        <time>2019-09-05T11:46:12Z</time>
      </trkpt>
      <trkpt lat="57.633590027689934" lon="-6.213807994499803">
        <ele>12.630000000000001</ele>
        <time>2019-09-05T11:46:13Z</time>
      </trkpt>
      <trkpt lat="57.633552979677916" lon="-6.213922994211316">
        <ele>12.15</ele>
        <time>2019-09-05T11:46:14Z</time>
      </trkpt>
      <trkpt lat="57.633515009656549" lon="-6.214040005579591">
        <ele>12.15</ele>
        <time>2019-09-05T11:46:15Z</time>
      </trkpt>
      <trkpt lat="57.63347796164453" lon="-6.214152993634343">
        <ele>12.15</ele>
        <time>2019-09-05T11:46:16Z</time>
      </trkpt>
      <trkpt lat="57.633443009108305" lon="-6.214261958375573">
        <ele>11.67</ele>
        <time>2019-09-05T11:46:17Z</time>
      </trkpt>
      <trkpt lat="57.633397998288274" lon="-6.214399002492428">
        <ele>11.19</ele>
        <time>2019-09-05T11:46:18Z</time>
      </trkpt>
      <trkpt lat="57.633362961933017" lon="-6.214452981948853">
        <ele>11.19</ele>
        <time>2019-09-05T11:46:19Z</time>
      </trkpt>
      <trkpt lat="57.633311999961734" lon="-6.214527999982238">
        <ele>10.23</ele>
        <time>2019-09-05T11:46:20Z</time>
      </trkpt>
      <trkpt lat="57.633250979706645" lon="-6.214561024680734">
        <ele>9.75</ele>
        <time>2019-09-05T11:46:21Z</time>
      </trkpt>
      <trkpt lat="57.633188031613827" lon="-6.214595977216959">
        <ele>9.27</ele>
        <time>2019-09-05T11:46:22Z</time>
      </trkpt>
      <trkpt lat="57.633124999701977" lon="-6.214630007743835">
        <ele>9.27</ele>
        <time>2019-09-05T11:46:23Z</time>
      </trkpt>
      <trkpt lat="57.633018968626857" lon="-6.214730003848672">
        <ele>8.310000000000001</ele>
        <time>2019-09-05T11:46:25Z</time>
      </trkpt>
      <trkpt lat="57.632936993613839" lon="-6.214836034923792">
        <ele>7.83</ele>
        <time>2019-09-05T11:46:27Z</time>
      </trkpt>
      <trkpt lat="57.632913021370769" lon="-6.214932007715106">
        <ele>7.35</ele>
        <time>2019-09-05T11:46:28Z</time>
      </trkpt>
      <trkpt lat="57.632904974743724" lon="-6.214979030191898">
        <ele>6.87</ele>
        <time>2019-09-05T11:46:29Z</time>
      </trkpt>
      <trkpt lat="57.63291603885591" lon="-6.215119007974863">
        <ele>6.39</ele>
        <time>2019-09-05T11:46:30Z</time>
      </trkpt>
      <trkpt lat="57.632927019149065" lon="-6.215251022949815">
        <ele>6.39</ele>
        <time>2019-09-05T11:46:31Z</time>
      </trkpt>
      <trkpt lat="57.632940011098981" lon="-6.215400975197554">
        <ele>5.91</ele>
        <time>2019-09-05T11:46:32Z</time>
      </trkpt>
      <trkpt lat="57.632947973906994" lon="-6.215494014322758">
        <ele>5.91</ele>
        <time>2019-09-05T11:46:33Z</time>
      </trkpt>
      <trkpt lat="57.633014023303986" lon="-6.21567003428936">
        <ele>5.42</ele>
        <time>2019-09-05T11:46:34Z</time>
      </trkpt>
      <trkpt lat="57.63306800276041" lon="-6.215812023729086">
        <ele>5.42</ele>
        <time>2019-09-05T11:46:35Z</time>
      </trkpt>
      <trkpt lat="57.633117958903313" lon="-6.215944038704038">
        <ele>5.91</ele>
        <time>2019-09-05T11:46:36Z</time>
      </trkpt>
      <trkpt lat="57.633258020505309" lon="-6.216430021449924">
        <ele>7.35</ele>
        <time>2019-09-05T11:46:42Z</time>
      </trkpt>
      <trkpt lat="57.63326296582818" lon="-6.216504033654928">
        <ele>7.83</ele>
        <time>2019-09-05T11:46:43Z</time>
      </trkpt>
      <trkpt lat="57.633269000798464" lon="-6.216576034203172">
        <ele>8.310000000000001</ele>
        <time>2019-09-05T11:46:44Z</time>
      </trkpt>
      <trkpt lat="57.633234970271587" lon="-6.216671001166105">
        <ele>8.310000000000001</ele>
        <time>2019-09-05T11:46:45Z</time>
      </trkpt>
      <trkpt lat="57.633212003856897" lon="-6.216726992279291">
        <ele>8.789999999999999</ele>
        <time>2019-09-05T11:46:46Z</time>
      </trkpt>
      <trkpt lat="57.633185014128685" lon="-6.216793041676283">
        <ele>9.27</ele>
        <time>2019-09-05T11:46:47Z</time>
      </trkpt>
      <trkpt lat="57.633123993873596" lon="-6.216938970610499">
        <ele>9.75</ele>
        <time>2019-09-05T11:46:49Z</time>
      </trkpt>
      <trkpt lat="57.633093986660242" lon="-6.217011976987124">
        <ele>10.23</ele>
        <time>2019-09-05T11:46:50Z</time>
      </trkpt>
      <trkpt lat="57.633033972233534" lon="-6.217156983911991">
        <ele>11.67</ele>
        <time>2019-09-05T11:46:52Z</time>
      </trkpt>
      <trkpt lat="57.632998013868928" lon="-6.217224039137363">
        <ele>12.15</ele>
        <time>2019-09-05T11:46:53Z</time>
      </trkpt>
      <trkpt lat="57.632911009714007" lon="-6.217310959473252">
        <ele>14.08</ele>
        <time>2019-09-05T11:46:55Z</time>
      </trkpt>
      <trkpt lat="57.632864993065596" lon="-6.217357981950045">
        <ele>14.56</ele>
        <time>2019-09-05T11:46:56Z</time>
      </trkpt>
      <trkpt lat="57.632692996412516" lon="-6.217469964176416">
        <ele>16.48</ele>
        <time>2019-09-05T11:46:59Z</time>
      </trkpt>
      <trkpt lat="57.63255100697279" lon="-6.217543976381421">
        <ele>18.399999999999999</ele>
        <time>2019-09-05T11:47:01Z</time>
      </trkpt>
      <trkpt lat="57.63216401450336" lon="-6.217746986076236">
        <ele>23.690000000000001</ele>
        <time>2019-09-05T11:47:06Z</time>
      </trkpt>
      <trkpt lat="57.632082039490342" lon="-6.217789985239506">
        <ele>24.649999999999999</ele>
        <time>2019-09-05T11:47:07Z</time>
      </trkpt>
      <trkpt lat="57.631961004808545" lon="-6.217854022979736">
        <ele>25.609999999999999</ele>
        <time>2019-09-05T11:47:08Z</time>
      </trkpt>
      <trkpt lat="57.631642995402217" lon="-6.217888975515962">
        <ele>28.5</ele>
        <time>2019-09-05T11:47:12Z</time>
      </trkpt>
      <trkpt lat="57.631560014560819" lon="-6.217913031578064">
        <ele>28.98</ele>
        <time>2019-09-05T11:47:13Z</time>
      </trkpt>
      <trkpt lat="57.631501005962491" lon="-6.217977991327643">
        <ele>28.98</ele>
        <time>2019-09-05T11:47:14Z</time>
      </trkpt>
      <trkpt lat="57.631453983485699" lon="-6.218030964955688">
        <ele>29.460000000000001</ele>
        <time>2019-09-05T11:47:15Z</time>
      </trkpt>
      <trkpt lat="57.631380977109075" lon="-6.218112017959356">
        <ele>29.940000000000001</ele>
        <time>2019-09-05T11:47:16Z</time>
      </trkpt>
      <trkpt lat="57.631281986832619" lon="-6.218157028779388">
        <ele>31.379999999999999</ele>
        <time>2019-09-05T11:47:24Z</time>
      </trkpt>
      <trkpt lat="57.631145026534796" lon="-6.218218971043825">
        <ele>32.340000000000003</ele>
        <time>2019-09-05T11:47:28Z</time>
      </trkpt>
      <trkpt lat="57.631142009049654" lon="-6.218269011005759">
        <ele>32.340000000000003</ele>
        <time>2019-09-05T11:47:29Z</time>
      </trkpt>
      <trkpt lat="57.63109196908772" lon="-6.219046013429761">
        <ele>33.299999999999997</ele>
        <time>2019-09-05T11:47:35Z</time>
      </trkpt>
      <trkpt lat="57.630957020446658" lon="-6.22112799435854">
        <ele>30.899999999999999</ele>
        <time>2019-09-05T11:47:44Z</time>
      </trkpt>
      <trkpt lat="57.630717968568206" lon="-6.224773032590747">
        <ele>27.530000000000001</ele>
        <time>2019-09-05T11:47:58Z</time>
      </trkpt>
      <trkpt lat="57.630417980253696" lon="-6.229093987494707">
        <ele>23.690000000000001</ele>
        <time>2019-09-05T11:48:12Z</time>
      </trkpt>
      <trkpt lat="57.629841975867748" lon="-6.233725994825363">
        <ele>17.440000000000001</ele>
        <time>2019-09-05T11:48:26Z</time>
      </trkpt>
      <trkpt lat="57.629536958411336" lon="-6.236033029854298">
        <ele>18.399999999999999</ele>
        <time>2019-09-05T11:48:33Z</time>
      </trkpt>
      <trkpt lat="57.629520026966929" lon="-6.236370988190174">
        <ele>18.399999999999999</ele>
        <time>2019-09-05T11:48:34Z</time>
      </trkpt>
      <trkpt lat="57.62954399921" lon="-6.236710036173463">
        <ele>18.879999999999999</ele>
        <time>2019-09-05T11:48:35Z</time>
      </trkpt>
      <trkpt lat="57.629590015858412" lon="-6.237041959539056">
        <ele>18.879999999999999</ele>
        <time>2019-09-05T11:48:36Z</time>
      </trkpt>
      <trkpt lat="57.629648018628359" lon="-6.237359968945384">
        <ele>19.359999999999999</ele>
        <time>2019-09-05T11:48:37Z</time>
      </trkpt>
      <trkpt lat="57.629741979762912" lon="-6.237663980573416">
        <ele>19.359999999999999</ele>
        <time>2019-09-05T11:48:38Z</time>
      </trkpt>
      <trkpt lat="57.629837030544877" lon="-6.23797201551497">
        <ele>19.359999999999999</ele>
        <time>2019-09-05T11:48:39Z</time>
      </trkpt>
      <trkpt lat="57.629948006942868" lon="-6.238261023536325">
        <ele>19.359999999999999</ele>
        <time>2019-09-05T11:48:40Z</time>
      </trkpt>
      <trkpt lat="57.630995996296406" lon="-6.240653973072767">
        <ele>28.5</ele>
        <time>2019-09-05T11:48:49Z</time>
      </trkpt>
      <trkpt lat="57.631449038162827" lon="-6.242087027058005">
        <ele>40.030000000000001</ele>
        <time>2019-09-05T11:48:55Z</time>
      </trkpt>
      <trkpt lat="57.631525984033942" lon="-6.242216024547815">
        <ele>41.469999999999999</ele>
        <time>2019-09-05T11:48:56Z</time>
      </trkpt>
      <trkpt lat="57.63160795904696" lon="-6.242317026481032">
        <ele>42.920000000000002</ele>
        <time>2019-09-05T11:48:57Z</time>
      </trkpt>
      <trkpt lat="57.631689012050629" lon="-6.242386009544134">
        <ele>43.880000000000003</ele>
        <time>2019-09-05T11:48:58Z</time>
      </trkpt>
      <trkpt lat="57.631766963750124" lon="-6.242403024807572">
        <ele>44.840000000000003</ele>
        <time>2019-09-05T11:48:59Z</time>
      </trkpt>
      <trkpt lat="57.631837036460638" lon="-6.242418028414249">
        <ele>45.32</ele>
        <time>2019-09-05T11:49:00Z</time>
      </trkpt>
      <trkpt lat="57.631961004808545" lon="-6.242576027289033">
        <ele>46.280000000000001</ele>
        <time>2019-09-05T11:49:01Z</time>
      </trkpt>
      <trkpt lat="57.631961004808545" lon="-6.242709970101714">
        <ele>46.759999999999998</ele>
        <time>2019-09-05T11:49:02Z</time>
      </trkpt>
      <trkpt lat="57.631961004808545" lon="-6.242874003946781">
        <ele>47.240000000000002</ele>
        <time>2019-09-05T11:49:03Z</time>
      </trkpt>
      <trkpt lat="57.631961004808545" lon="-6.243058992549777">
        <ele>48.200000000000003</ele>
        <time>2019-09-05T11:49:04Z</time>
      </trkpt>
      <trkpt lat="57.631961004808545" lon="-6.243265019729734">
        <ele>49.649999999999999</ele>
        <time>2019-09-05T11:49:05Z</time>
      </trkpt>
      <trkpt lat="57.631883975118399" lon="-6.244324995204806">
        <ele>53.969999999999999</ele>
        <time>2019-09-05T11:49:10Z</time>
      </trkpt>
      <trkpt lat="57.631865032017231" lon="-6.244520964100957">
        <ele>54.93</ele>
        <time>2019-09-05T11:49:11Z</time>
      </trkpt>
      <trkpt lat="57.63182102702558" lon="-6.244725985452533">
        <ele>55.890000000000001</ele>
        <time>2019-09-05T11:49:12Z</time>
      </trkpt>
      <trkpt lat="57.631752965971828" lon="-6.244918014854193">
        <ele>57.340000000000003</ele>
        <time>2019-09-05T11:49:13Z</time>
      </trkpt>
      <trkpt lat="57.631682977080345" lon="-6.245120018720627">
        <ele>58.299999999999997</ele>
        <time>2019-09-05T11:49:14Z</time>
      </trkpt>
      <trkpt lat="57.631552973762155" lon="-6.245487984269857">
        <ele>60.700000000000003</ele>
        <time>2019-09-05T11:49:16Z</time>
      </trkpt>
      <trkpt lat="57.63149899430573" lon="-6.245641959831119">
        <ele>61.659999999999997</ele>
        <time>2019-09-05T11:49:17Z</time>
      </trkpt>
      <trkpt lat="57.631323980167508" lon="-6.246255012229085">
        <ele>65.989999999999995</ele>
        <time>2019-09-05T11:49:24Z</time>
      </trkpt>
      <trkpt lat="57.631303025409579" lon="-6.246341010555625">
        <ele>68.390000000000001</ele>
        <time>2019-09-05T11:49:33Z</time>
      </trkpt>
      <trkpt lat="57.631187019869685" lon="-6.246806960552931">
        <ele>69.829999999999998</ele>
        <time>2019-09-05T11:49:37Z</time>
      </trkpt>
      <trkpt lat="57.631138991564512" lon="-6.24695397913456">
        <ele>70.310000000000002</ele>
        <time>2019-09-05T11:49:38Z</time>
      </trkpt>
      <trkpt lat="57.631077971309423" lon="-6.24710300937295">
        <ele>70.790000000000006</ele>
        <time>2019-09-05T11:49:39Z</time>
      </trkpt>
      <trkpt lat="57.630819976329803" lon="-6.247737016528845">
        <ele>72.719999999999999</ele>
        <time>2019-09-05T11:49:43Z</time>
      </trkpt>
      <trkpt lat="57.630756022408605" lon="-6.24789702706039">
        <ele>73.680000000000007</ele>
        <time>2019-09-05T11:49:44Z</time>
      </trkpt>
      <trkpt lat="57.630691984668374" lon="-6.248053014278412">
        <ele>74.159999999999997</ele>
        <time>2019-09-05T11:49:45Z</time>
      </trkpt>
      <trkpt lat="57.630644962191582" lon="-6.248265998438001">
        <ele>75.120000000000005</ele>
        <time>2019-09-05T11:49:46Z</time>
      </trkpt>
      <trkpt lat="57.630632976070046" lon="-6.248469008132815">
        <ele>75.599999999999994</ele>
        <time>2019-09-05T11:49:47Z</time>
      </trkpt>
      <trkpt lat="57.630635993555188" lon="-6.248675035312772">
        <ele>76.079999999999998</ele>
        <time>2019-09-05T11:49:48Z</time>
      </trkpt>
      <trkpt lat="57.630642028525472" lon="-6.248850971460342">
        <ele>76.079999999999998</ele>
        <time>2019-09-05T11:49:49Z</time>
      </trkpt>
      <trkpt lat="57.630690978839993" lon="-6.250332975760102">
        <ele>81.849999999999994</ele>
        <time>2019-09-05T11:49:59Z</time>
      </trkpt>
      <trkpt lat="57.630684021860361" lon="-6.250454010441899">
        <ele>82.329999999999998</ele>
        <time>2019-09-05T11:50:00Z</time>
      </trkpt>
      <trkpt lat="57.630676981061697" lon="-6.250572027638555">
        <ele>83.290000000000006</ele>
        <time>2019-09-05T11:50:01Z</time>
      </trkpt>
      <trkpt lat="57.630657032132149" lon="-6.250689961016178">
        <ele>83.769999999999996</ele>
        <time>2019-09-05T11:50:02Z</time>
      </trkpt>
      <trkpt lat="57.630619984120131" lon="-6.250805966556072">
        <ele>84.25</ele>
        <time>2019-09-05T11:50:03Z</time>
      </trkpt>
      <trkpt lat="57.630577990785241" lon="-6.250933036208153">
        <ele>85.209999999999994</ele>
        <time>2019-09-05T11:50:04Z</time>
      </trkpt>
      <trkpt lat="57.630497021600604" lon="-6.251183990389109">
        <ele>86.180000000000007</ele>
        <time>2019-09-05T11:50:06Z</time>
      </trkpt>
      <trkpt lat="57.630456034094095" lon="-6.251308964565396">
        <ele>86.659999999999997</ele>
        <time>2019-09-05T11:50:07Z</time>
      </trkpt>
      <trkpt lat="57.630413034930825" lon="-6.251440979540348">
        <ele>87.620000000000005</ele>
        <time>2019-09-05T11:50:08Z</time>
      </trkpt>
      <trkpt lat="57.630385961383581" lon="-6.251609958708286">
        <ele>88.099999999999994</ele>
        <time>2019-09-05T11:50:09Z</time>
      </trkpt>
      <trkpt lat="57.630372969433665" lon="-6.251785978674889">
        <ele>88.579999999999998</ele>
        <time>2019-09-05T11:50:10Z</time>
      </trkpt>
      <trkpt lat="57.63036098331213" lon="-6.25196099281311">
        <ele>89.060000000000002</ele>
        <time>2019-09-05T11:50:11Z</time>
      </trkpt>
      <trkpt lat="57.630328964442015" lon="-6.253203023225069">
        <ele>93.870000000000005</ele>
        <time>2019-09-05T11:50:20Z</time>
      </trkpt>
      <trkpt lat="57.630398031324148" lon="-6.254058983176947">
        <ele>98.189999999999998</ele>
        <time>2019-09-05T11:50:27Z</time>
      </trkpt>
      <trkpt lat="57.630430972203612" lon="-6.254274984821677">
        <ele>99.629999999999995</ele>
        <time>2019-09-05T11:50:29Z</time>
      </trkpt>
      <trkpt lat="57.630470031872392" lon="-6.254532979801297">
        <ele>102.04000000000001</ele>
        <time>2019-09-05T11:50:32Z</time>
      </trkpt>
      <trkpt lat="57.630485035479069" lon="-6.254629958420992">
        <ele>103</ele>
        <time>2019-09-05T11:50:33Z</time>
      </trkpt>
      <trkpt lat="57.630500961095095" lon="-6.254740012809634">
        <ele>103.48</ele>
        <time>2019-09-05T11:50:34Z</time>
      </trkpt>
      <trkpt lat="57.630555024370551" lon="-6.254887031391263">
        <ele>104.44</ele>
        <time>2019-09-05T11:50:35Z</time>
      </trkpt>
      <trkpt lat="57.630635993555188" lon="-6.255008988082409">
        <ele>104.92</ele>
        <time>2019-09-05T11:50:36Z</time>
      </trkpt>
      <trkpt lat="57.630728026852012" lon="-6.25507403165102">
        <ele>105.88</ele>
        <time>2019-09-05T11:50:37Z</time>
      </trkpt>
      <trkpt lat="57.630828022956848" lon="-6.255143014714122">
        <ele>106.84</ele>
        <time>2019-09-05T11:50:38Z</time>
      </trkpt>
      <trkpt lat="57.630935981869698" lon="-6.255180984735489">
        <ele>107.81</ele>
        <time>2019-09-05T11:50:39Z</time>
      </trkpt>
      <trkpt lat="57.631032038480043" lon="-6.255196994170547">
        <ele>108.77</ele>
        <time>2019-09-05T11:50:40Z</time>
      </trkpt>
      <trkpt lat="57.631489019840956" lon="-6.255276035517454">
        <ele>111.65000000000001</ele>
        <time>2019-09-05T11:50:45Z</time>
      </trkpt>
      <trkpt lat="57.631582980975509" lon="-6.255357004702091">
        <ele>112.13</ele>
        <time>2019-09-05T11:50:46Z</time>
      </trkpt>
      <trkpt lat="57.631659004837275" lon="-6.255450965836644">
        <ele>112.61</ele>
        <time>2019-09-05T11:50:47Z</time>
      </trkpt>
      <trkpt lat="57.631724970415235" lon="-6.255606031045318">
        <ele>113.56999999999999</ele>
        <time>2019-09-05T11:50:48Z</time>
      </trkpt>
      <trkpt lat="57.631785990670323" lon="-6.255785990506411">
        <ele>114.05</ele>
        <time>2019-09-05T11:50:49Z</time>
      </trkpt>
      <trkpt lat="57.631834018975496" lon="-6.255989000201225">
        <ele>114.53</ele>
        <time>2019-09-05T11:50:50Z</time>
      </trkpt>
      <trkpt lat="57.631878023967147" lon="-6.256174994632602">
        <ele>115.5</ele>
        <time>2019-09-05T11:50:51Z</time>
      </trkpt>
      <trkpt lat="57.631915993988514" lon="-6.256338022649288">
        <ele>115.98</ele>
        <time>2019-09-05T11:50:52Z</time>
      </trkpt>
      <trkpt lat="57.632111040875316" lon="-6.257703015580773">
        <ele>121.73999999999999</ele>
        <time>2019-09-05T11:51:01Z</time>
      </trkpt>
      <trkpt lat="57.632111040875316" lon="-6.257827989757061">
        <ele>122.70999999999999</ele>
        <time>2019-09-05T11:51:02Z</time>
      </trkpt>
      <trkpt lat="57.632069969549775" lon="-6.257918011397123">
        <ele>123.19</ele>
        <time>2019-09-05T11:51:03Z</time>
      </trkpt>
      <trkpt lat="57.632024958729744" lon="-6.258014990016818">
        <ele>124.15000000000001</ele>
        <time>2019-09-05T11:51:04Z</time>
      </trkpt>
      <trkpt lat="57.631981959566474" lon="-6.258109034970403">
        <ele>124.63</ele>
        <time>2019-09-05T11:51:05Z</time>
      </trkpt>
      <trkpt lat="57.631937032565475" lon="-6.258206013590097">
        <ele>125.59</ele>
        <time>2019-09-05T11:51:06Z</time>
      </trkpt>
      <trkpt lat="57.631379971280694" lon="-6.25941501930356">
        <ele>130.88</ele>
        <time>2019-09-05T11:51:17Z</time>
      </trkpt>
      <trkpt lat="57.631096998229623" lon="-6.26027399674058">
        <ele>131.84</ele>
        <time>2019-09-05T11:51:24Z</time>
      </trkpt>
      <trkpt lat="57.630916032940149" lon="-6.261000037193298">
        <ele>136.16</ele>
        <time>2019-09-05T11:51:29Z</time>
      </trkpt>
      <trkpt lat="57.630875967442989" lon="-6.261319974437356">
        <ele>138.09</ele>
        <time>2019-09-05T11:51:31Z</time>
      </trkpt>
      <trkpt lat="57.630866998806596" lon="-6.261489959433675">
        <ele>139.53</ele>
        <time>2019-09-05T11:51:32Z</time>
      </trkpt>
      <trkpt lat="57.630882002413273" lon="-6.261648964136839">
        <ele>140.49000000000001</ele>
        <time>2019-09-05T11:51:33Z</time>
      </trkpt>
      <trkpt lat="57.630900023505092" lon="-6.261828001588583">
        <ele>140.97</ele>
        <time>2019-09-05T11:51:34Z</time>
      </trkpt>
      <trkpt lat="57.630918966606259" lon="-6.262018019333482">
        <ele>141.44999999999999</ele>
        <time>2019-09-05T11:51:35Z</time>
      </trkpt>
      <trkpt lat="57.630959032103419" lon="-6.262410962954164">
        <ele>141.44999999999999</ele>
        <time>2019-09-05T11:51:37Z</time>
      </trkpt>
      <trkpt lat="57.630972024053335" lon="-6.262614978477359">
        <ele>141.93000000000001</ele>
        <time>2019-09-05T11:51:38Z</time>
      </trkpt>
      <trkpt lat="57.630969006568193" lon="-6.262815976515412">
        <ele>141.93000000000001</ele>
        <time>2019-09-05T11:51:39Z</time>
      </trkpt>
      <trkpt lat="57.630971018224955" lon="-6.263851979747415">
        <ele>142.88999999999999</ele>
        <time>2019-09-05T11:51:45Z</time>
      </trkpt>
      <trkpt lat="57.630991972982883" lon="-6.264005033299327">
        <ele>143.37</ele>
        <time>2019-09-05T11:51:46Z</time>
      </trkpt>
      <trkpt lat="57.631227001547813" lon="-6.265742015093565">
        <ele>146.74000000000001</ele>
        <time>2019-09-05T11:51:57Z</time>
      </trkpt>
      <trkpt lat="57.63128500431776" lon="-6.266172006726265">
        <ele>147.69999999999999</ele>
        <time>2019-09-05T11:52:00Z</time>
      </trkpt>
      <trkpt lat="57.63139296323061" lon="-6.266969041898847">
        <ele>148.18000000000001</ele>
        <time>2019-09-05T11:52:05Z</time>
      </trkpt>
      <trkpt lat="57.631416013464332" lon="-6.267140032723546">
        <ele>148.18000000000001</ele>
        <time>2019-09-05T11:52:06Z</time>
      </trkpt>
      <trkpt lat="57.631435040384531" lon="-6.267505986616015">
        <ele>148.18000000000001</ele>
        <time>2019-09-05T11:52:08Z</time>
      </trkpt>
      <trkpt lat="57.631420958787203" lon="-6.267699021846056">
        <ele>148.18000000000001</ele>
        <time>2019-09-05T11:52:09Z</time>
      </trkpt>
      <trkpt lat="57.631259020417929" lon="-6.269180020317435">
        <ele>146.25999999999999</ele>
        <time>2019-09-05T11:52:18Z</time>
      </trkpt>
      <trkpt lat="57.631245022639632" lon="-6.269283033907414">
        <ele>145.78</ele>
        <time>2019-09-05T11:52:19Z</time>
      </trkpt>
      <trkpt lat="57.631145026534796" lon="-6.269988035783172">
        <ele>144.34</ele>
        <time>2019-09-05T11:52:27Z</time>
      </trkpt>
      <trkpt lat="57.631116025149822" lon="-6.270117033272982">
        <ele>144.34</ele>
        <time>2019-09-05T11:52:28Z</time>
      </trkpt>
      <trkpt lat="57.630751999095082" lon="-6.271764999255538">
        <ele>143.84999999999999</ele>
        <time>2019-09-05T11:52:37Z</time>
      </trkpt>
      <trkpt lat="57.630228968337178" lon="-6.274085026234388">
        <ele>144.81999999999999</ele>
        <time>2019-09-05T11:52:50Z</time>
      </trkpt>
      <trkpt lat="57.62995395809412" lon="-6.275247009471059">
        <ele>146.25999999999999</ele>
        <time>2019-09-05T11:52:58Z</time>
      </trkpt>
      <trkpt lat="57.629922023043036" lon="-6.275383969768882">
        <ele>146.74000000000001</ele>
        <time>2019-09-05T11:52:59Z</time>
      </trkpt>
      <trkpt lat="57.629941971972585" lon="-6.275511961430311">
        <ele>147.22</ele>
        <time>2019-09-05T11:53:00Z</time>
      </trkpt>
      <trkpt lat="57.629962004721165" lon="-6.275637019425631">
        <ele>147.22</ele>
        <time>2019-09-05T11:53:01Z</time>
      </trkpt>
      <trkpt lat="57.629980025812984" lon="-6.275753024965525">
        <ele>147.69999999999999</ele>
        <time>2019-09-05T11:53:02Z</time>
      </trkpt>
      <trkpt lat="57.630161996930838" lon="-6.276930011808872">
        <ele>151.53999999999999</ele>
        <time>2019-09-05T11:53:10Z</time>
      </trkpt>
      <trkpt lat="57.630323013290763" lon="-6.27772000618279">
        <ele>154.43000000000001</ele>
        <time>2019-09-05T11:53:15Z</time>
      </trkpt>
      <trkpt lat="57.630337011069059" lon="-6.277880016714335">
        <ele>154.91</ele>
        <time>2019-09-05T11:53:16Z</time>
      </trkpt>
      <trkpt lat="57.630350003018975" lon="-6.278039021417499">
        <ele>155.38999999999999</ele>
        <time>2019-09-05T11:53:17Z</time>
      </trkpt>
      <trkpt lat="57.630448993295431" lon="-6.279193041846156">
        <ele>158.27000000000001</ele>
        <time>2019-09-05T11:53:24Z</time>
      </trkpt>
      <trkpt lat="57.630452010780573" lon="-6.279360009357333">
        <ele>158.27000000000001</ele>
        <time>2019-09-05T11:53:25Z</time>
      </trkpt>
      <trkpt lat="57.630430972203612" lon="-6.279514990746975">
        <ele>158.75</ele>
        <time>2019-09-05T11:53:26Z</time>
      </trkpt>
      <trkpt lat="57.630410017445683" lon="-6.27967500127852">
        <ele>159.24000000000001</ele>
        <time>2019-09-05T11:53:27Z</time>
      </trkpt>
      <trkpt lat="57.630388978868723" lon="-6.279839035123587">
        <ele>159.72</ele>
        <time>2019-09-05T11:53:28Z</time>
      </trkpt>
      <trkpt lat="57.630369029939175" lon="-6.279989993199706">
        <ele>160.19999999999999</ele>
        <time>2019-09-05T11:53:29Z</time>
      </trkpt>
      <trkpt lat="57.630350003018975" lon="-6.280135000124574">
        <ele>160.68000000000001</ele>
        <time>2019-09-05T11:53:30Z</time>
      </trkpt>
      <trkpt lat="57.630330976098776" lon="-6.280275983735919">
        <ele>161.63999999999999</ele>
        <time>2019-09-05T11:53:31Z</time>
      </trkpt>
      <trkpt lat="57.630312032997608" lon="-6.280417973175645">
        <ele>162.12</ele>
        <time>2019-09-05T11:53:32Z</time>
      </trkpt>
      <trkpt lat="57.630331981927156" lon="-6.280525010079145">
        <ele>162.59999999999999</ele>
        <time>2019-09-05T11:53:33Z</time>
      </trkpt>
      <trkpt lat="57.63038101606071" lon="-6.280683008953929">
        <ele>163.08000000000001</ele>
        <time>2019-09-05T11:53:34Z</time>
      </trkpt>
      <trkpt lat="57.630432983860373" lon="-6.28085601143539">
        <ele>164.03999999999999</ele>
        <time>2019-09-05T11:53:35Z</time>
      </trkpt>
      <trkpt lat="57.630803966894746" lon="-6.282072979956865">
        <ele>168.84999999999999</ele>
        <time>2019-09-05T11:53:41Z</time>
      </trkpt>
      <trkpt lat="57.630851995199919" lon="-6.282294010743499">
        <ele>169.33000000000001</ele>
        <time>2019-09-05T11:53:42Z</time>
      </trkpt>
      <trkpt lat="57.63087403960526" lon="-6.282541025429964">
        <ele>169.81</ele>
        <time>2019-09-05T11:53:43Z</time>
      </trkpt>
      <trkpt lat="57.630937993526459" lon="-6.283277962356806">
        <ele>172.21000000000001</ele>
        <time>2019-09-05T11:53:46Z</time>
      </trkpt>
      <trkpt lat="57.630958026275039" lon="-6.283503016456962">
        <ele>173.16999999999999</ele>
        <time>2019-09-05T11:53:47Z</time>
      </trkpt>
      <trkpt lat="57.630931036546826" lon="-6.28386402502656">
        <ele>175.09999999999999</ele>
        <time>2019-09-05T11:53:49Z</time>
      </trkpt>
      <trkpt lat="57.630893988534808" lon="-6.28401598893106">
        <ele>175.58000000000001</ele>
        <time>2019-09-05T11:53:50Z</time>
      </trkpt>
      <trkpt lat="57.630647979676723" lon="-6.285034976899624">
        <ele>180.87</ele>
        <time>2019-09-05T11:53:56Z</time>
      </trkpt>
      <trkpt lat="57.630598023533821" lon="-6.285243015736342">
        <ele>181.83000000000001</ele>
        <time>2019-09-05T11:53:57Z</time>
      </trkpt>
      <trkpt lat="57.630245983600616" lon="-6.286136023700237">
        <ele>188.08000000000001</ele>
        <time>2019-09-05T11:54:02Z</time>
      </trkpt>
      <trkpt lat="57.630172977223992" lon="-6.286289999261499">
        <ele>189.52000000000001</ele>
        <time>2019-09-05T11:54:03Z</time>
      </trkpt>
      <trkpt lat="57.630101982504129" lon="-6.286435006186366">
        <ele>190.96000000000001</ele>
        <time>2019-09-05T11:54:04Z</time>
      </trkpt>
      <trkpt lat="57.629688000306487" lon="-6.287073036655784">
        <ele>196.72999999999999</ele>
        <time>2019-09-05T11:54:09Z</time>
      </trkpt>
      <trkpt lat="57.629042007029057" lon="-6.287607969716191">
        <ele>205.86000000000001</ele>
        <time>2019-09-05T11:54:16Z</time>
      </trkpt>
      <trkpt lat="57.628966988995671" lon="-6.287663960829377">
        <ele>206.81999999999999</ele>
        <time>2019-09-05T11:54:17Z</time>
      </trkpt>
      <trkpt lat="57.628742018714547" lon="-6.287827994674444">
        <ele>209.69999999999999</ele>
        <time>2019-09-05T11:54:20Z</time>
      </trkpt>
      <trkpt lat="57.628651997074485" lon="-6.287804022431374">
        <ele>210.66999999999999</ele>
        <time>2019-09-05T11:54:21Z</time>
      </trkpt>
      <trkpt lat="57.628564992919564" lon="-6.287780972197652">
        <ele>211.63</ele>
        <time>2019-09-05T11:54:22Z</time>
      </trkpt>
      <trkpt lat="57.628291994333267" lon="-6.287690028548241">
        <ele>214.99000000000001</ele>
        <time>2019-09-05T11:54:25Z</time>
      </trkpt>
      <trkpt lat="57.62774096801877" lon="-6.287350980564952">
        <ele>219.80000000000001</ele>
        <time>2019-09-05T11:54:32Z</time>
      </trkpt>
      <trkpt lat="57.627669973298907" lon="-6.28734796307981">
        <ele>220.28</ele>
        <time>2019-09-05T11:54:33Z</time>
      </trkpt>
      <trkpt lat="57.627554973587394" lon="-6.287342011928558">
        <ele>221.24000000000001</ele>
        <time>2019-09-05T11:54:35Z</time>
      </trkpt>
      <trkpt lat="57.627340983599424" lon="-6.287390040233731">
        <ele>225.09</ele>
        <time>2019-09-05T11:54:41Z</time>
      </trkpt>
      <trkpt lat="57.627304019406438" lon="-6.28743102774024">
        <ele>225.56999999999999</ele>
        <time>2019-09-05T11:54:42Z</time>
      </trkpt>
      <trkpt lat="57.627262026071548" lon="-6.287477966398001">
        <ele>226.05000000000001</ele>
        <time>2019-09-05T11:54:43Z</time>
      </trkpt>
      <trkpt lat="57.627218021079898" lon="-6.287527000531554">
        <ele>226.53</ele>
        <time>2019-09-05T11:54:44Z</time>
      </trkpt>
      <trkpt lat="57.627207040786743" lon="-6.287607969716191">
        <ele>227.00999999999999</ele>
        <time>2019-09-05T11:54:45Z</time>
      </trkpt>
      <trkpt lat="57.627197988331318" lon="-6.287679970264435">
        <ele>227.49000000000001</ele>
        <time>2019-09-05T11:54:46Z</time>
      </trkpt>
      <trkpt lat="57.627235958352685" lon="-6.287781978026032">
        <ele>228.44999999999999</ele>
        <time>2019-09-05T11:54:47Z</time>
      </trkpt>
      <trkpt lat="57.627283986657858" lon="-6.287877028807998">
        <ele>228.93000000000001</ele>
        <time>2019-09-05T11:54:48Z</time>
      </trkpt>
      <trkpt lat="57.627362022176385" lon="-6.287971995770931">
        <ele>229.88999999999999</ele>
        <time>2019-09-05T11:54:49Z</time>
      </trkpt>
      <trkpt lat="57.627445003017783" lon="-6.288072997704148">
        <ele>230.84999999999999</ele>
        <time>2019-09-05T11:54:50Z</time>
      </trkpt>
      <trkpt lat="57.627989994361997" lon="-6.288740029558539">
        <ele>239.50999999999999</ele>
        <time>2019-09-05T11:54:58Z</time>
      </trkpt>
      <trkpt lat="57.628044979646802" lon="-6.28880700096488">
        <ele>240.94999999999999</ele>
        <time>2019-09-05T11:54:59Z</time>
      </trkpt>
      <trkpt lat="57.628096025437117" lon="-6.288869027048349">
        <ele>242.38999999999999</ele>
        <time>2019-09-05T11:55:00Z</time>
      </trkpt>
      <trkpt lat="57.628145981580019" lon="-6.288930969312787">
        <ele>243.83000000000001</ele>
        <time>2019-09-05T11:55:01Z</time>
      </trkpt>
      <trkpt lat="57.628194009885192" lon="-6.288988972082734">
        <ele>245.27000000000001</ele>
        <time>2019-09-05T11:55:02Z</time>
      </trkpt>
      <trkpt lat="57.628227034583688" lon="-6.289029037579894">
        <ele>246.72</ele>
        <time>2019-09-05T11:55:03Z</time>
      </trkpt>
      <trkpt lat="57.628293000161648" lon="-6.28904496319592">
        <ele>247.68000000000001</ele>
        <time>2019-09-05T11:55:04Z</time>
      </trkpt>
      <trkpt lat="57.628343040123582" lon="-6.289057033136487">
        <ele>249.12</ele>
        <time>2019-09-05T11:55:05Z</time>
      </trkpt>
      <trkpt lat="57.628387967124581" lon="-6.289067007601261">
        <ele>250.08000000000001</ele>
        <time>2019-09-05T11:55:06Z</time>
      </trkpt>
      <trkpt lat="57.628429960459471" lon="-6.289076982066035">
        <ele>251.03999999999999</ele>
        <time>2019-09-05T11:55:07Z</time>
      </trkpt>
      <trkpt lat="57.628475977107882" lon="-6.28908796235919">
        <ele>251.52000000000001</ele>
        <time>2019-09-05T11:55:08Z</time>
      </trkpt>
      <trkpt lat="57.628522999584675" lon="-6.289099026471376">
        <ele>252.47999999999999</ele>
        <time>2019-09-05T11:55:09Z</time>
      </trkpt>
      <trkpt lat="57.628562981262803" lon="-6.28910799510777">
        <ele>253.44</ele>
        <time>2019-09-05T11:55:10Z</time>
      </trkpt>
      <trkpt lat="57.628591982647777" lon="-6.289115035906434">
        <ele>253.93000000000001</ele>
        <time>2019-09-05T11:55:11Z</time>
      </trkpt>
      <trkpt lat="57.628591982647777" lon="-6.289115035906434">
        <ele>254.88999999999999</ele>
        <time>2019-09-05T11:55:12Z</time>
      </trkpt>
      <trkpt lat="57.628591982647777" lon="-6.289115035906434">
        <ele>255.84999999999999</ele>
        <time>2019-09-05T11:55:13Z</time>
      </trkpt>
      <trkpt lat="57.628572033718228" lon="-6.289190975949168">
        <ele>256.32999999999998</ele>
        <time>2019-09-05T11:55:14Z</time>
      </trkpt>
      <trkpt lat="57.628538003191352" lon="-6.289318967610598">
        <ele>256.81</ele>
        <time>2019-09-05T11:55:15Z</time>
      </trkpt>
      <trkpt lat="57.628501961007714" lon="-6.289457017555833">
        <ele>257.76999999999998</ele>
        <time>2019-09-05T11:55:16Z</time>
      </trkpt>
      <trkpt lat="57.628410011529922" lon="-6.289806962013245">
        <ele>259.69</ele>
        <time>2019-09-05T11:55:22Z</time>
      </trkpt>
      <trkpt lat="57.628375981003046" lon="-6.289938976988196">
        <ele>260.64999999999998</ele>
        <time>2019-09-05T11:55:31Z</time>
      </trkpt>
      <trkpt lat="57.628357037901878" lon="-6.290009971708059">
        <ele>260.64999999999998</ele>
        <time>2019-09-05T11:55:32Z</time>
      </trkpt>
      <trkpt lat="57.628343040123582" lon="-6.290064034983516">
        <ele>260.64999999999998</ele>
        <time>2019-09-05T11:55:39Z</time>
      </trkpt>
      <trkpt lat="57.628286965191364" lon="-6.290275007486343">
        <ele>261.13999999999999</ele>
        <time>2019-09-05T11:55:45Z</time>
      </trkpt>
      <trkpt lat="57.628286965191364" lon="-6.290275007486343">
        <ele>261.13999999999999</ele>
        <time>2019-09-05T11:55:56Z</time>
      </trkpt>
      <trkpt lat="57.628247989341617" lon="-6.290424037724733">
        <ele>260.64999999999998</ele>
        <time>2019-09-05T11:56:00Z</time>
      </trkpt>
      <trkpt lat="57.628225022926927" lon="-6.290190014988184">
        <ele>255.37</ele>
        <time>2019-09-05T12:03:08Z</time>
      </trkpt>
      <trkpt lat="57.628209013491869" lon="-6.290209041908383">
        <ele>260.17000000000002</ele>
        <time>2019-09-05T12:03:35Z</time>
      </trkpt>
      <trkpt lat="57.628201972693205" lon="-6.290646996349096">
        <ele>259.69</ele>
        <time>2019-09-05T12:03:44Z</time>
      </trkpt>
      <trkpt lat="57.628207001835108" lon="-6.290673986077309">
        <ele>260.64999999999998</ele>
        <time>2019-09-05T12:03:57Z</time>
      </trkpt>
      <trkpt lat="57.628314960747957" lon="-6.290948996320367">
        <ele>261.13999999999999</ele>
        <time>2019-09-05T12:04:18Z</time>
      </trkpt>
      <trkpt lat="57.628415962681174" lon="-6.291744019836187">
        <ele>262.10000000000002</ele>
        <time>2019-09-05T12:04:26Z</time>
      </trkpt>
      <trkpt lat="57.628430966287851" lon="-6.291863964870572">
        <ele>262.10000000000002</ele>
        <time>2019-09-05T12:04:27Z</time>
      </trkpt>
      <trkpt lat="57.628431972116232" lon="-6.291994974017143">
        <ele>262.10000000000002</ele>
        <time>2019-09-05T12:04:28Z</time>
      </trkpt>
      <trkpt lat="57.628409005701542" lon="-6.292104022577405">
        <ele>262.10000000000002</ele>
        <time>2019-09-05T12:04:29Z</time>
      </trkpt>
      <trkpt lat="57.628386039286852" lon="-6.292218016460538">
        <ele>262.10000000000002</ele>
        <time>2019-09-05T12:04:30Z</time>
      </trkpt>
      <trkpt lat="57.628359971567988" lon="-6.292338967323303">
        <ele>262.10000000000002</ele>
        <time>2019-09-05T12:04:31Z</time>
      </trkpt>
      <trkpt lat="57.628334993496537" lon="-6.292463019490242">
        <ele>262.10000000000002</ele>
        <time>2019-09-05T12:04:32Z</time>
      </trkpt>
      <trkpt lat="57.628304986283183" lon="-6.292591011151671">
        <ele>262.10000000000002</ele>
        <time>2019-09-05T12:04:33Z</time>
      </trkpt>
      <trkpt lat="57.62788999825716" lon="-6.293761963024736">
        <ele>263.54000000000002</ele>
        <time>2019-09-05T12:04:43Z</time>
      </trkpt>
      <trkpt lat="57.627785978838801" lon="-6.294017024338245">
        <ele>263.06</ele>
        <time>2019-09-05T12:04:45Z</time>
      </trkpt>
      <trkpt lat="57.627720013260841" lon="-6.294140992686153">
        <ele>263.06</ele>
        <time>2019-09-05T12:04:46Z</time>
      </trkpt>
      <trkpt lat="57.627646001055837" lon="-6.29424300044775">
        <ele>262.57999999999998</ele>
        <time>2019-09-05T12:04:47Z</time>
      </trkpt>
      <trkpt lat="57.627560002729297" lon="-6.294345008209348">
        <ele>262.10000000000002</ele>
        <time>2019-09-05T12:04:48Z</time>
      </trkpt>
      <trkpt lat="57.627449026331306" lon="-6.294339979067445">
        <ele>262.10000000000002</ele>
        <time>2019-09-05T12:04:49Z</time>
      </trkpt>
      <trkpt lat="57.627361016348004" lon="-6.294298991560936">
        <ele>262.10000000000002</ele>
        <time>2019-09-05T12:04:50Z</time>
      </trkpt>
      <trkpt lat="57.627270994707942" lon="-6.294256998226047">
        <ele>262.10000000000002</ele>
        <time>2019-09-05T12:04:51Z</time>
      </trkpt>
      <trkpt lat="57.627178961411119" lon="-6.294213999062777">
        <ele>262.10000000000002</ele>
        <time>2019-09-05T12:04:52Z</time>
      </trkpt>
      <trkpt lat="57.626791968941689" lon="-6.294067986309528">
        <ele>261.62</ele>
        <time>2019-09-05T12:04:56Z</time>
      </trkpt>
      <trkpt lat="57.626689961180091" lon="-6.29404803737998">
        <ele>261.62</ele>
        <time>2019-09-05T12:04:57Z</time>
      </trkpt>
      <trkpt lat="57.626596000045538" lon="-6.294029010459781">
        <ele>261.62</ele>
        <time>2019-09-05T12:04:58Z</time>
      </trkpt>
      <trkpt lat="57.626530034467578" lon="-6.29413696937263">
        <ele>261.62</ele>
        <time>2019-09-05T12:04:59Z</time>
      </trkpt>
      <trkpt lat="57.626455016434193" lon="-6.294260015711188">
        <ele>261.62</ele>
        <time>2019-09-05T12:05:00Z</time>
      </trkpt>
      <trkpt lat="57.626377986744046" lon="-6.294385995715857">
        <ele>262.10000000000002</ele>
        <time>2019-09-05T12:05:01Z</time>
      </trkpt>
      <trkpt lat="57.625725036486983" lon="-6.295454017817974">
        <ele>261.13999999999999</ele>
        <time>2019-09-05T12:05:09Z</time>
      </trkpt>
      <trkpt lat="57.625642977654934" lon="-6.295743025839329">
        <ele>260.64999999999998</ele>
        <time>2019-09-05T12:05:11Z</time>
      </trkpt>
      <trkpt lat="57.625635014846921" lon="-6.295889960601926">
        <ele>260.17000000000002</ele>
        <time>2019-09-05T12:05:12Z</time>
      </trkpt>
      <trkpt lat="57.625625962391496" lon="-6.296049971133471">
        <ele>260.17000000000002</ele>
        <time>2019-09-05T12:05:13Z</time>
      </trkpt>
      <trkpt lat="57.625615987926722" lon="-6.296214004978538">
        <ele>260.17000000000002</ele>
        <time>2019-09-05T12:05:14Z</time>
      </trkpt>
      <trkpt lat="57.625611964613199" lon="-6.296378038823605">
        <ele>260.17000000000002</ele>
        <time>2019-09-05T12:05:15Z</time>
      </trkpt>
      <trkpt lat="57.625629985705018" lon="-6.296549029648304">
        <ele>259.69</ele>
        <time>2019-09-05T12:05:16Z</time>
      </trkpt>
      <trkpt lat="57.62567700818181" lon="-6.297010034322739">
        <ele>260.64999999999998</ele>
        <time>2019-09-05T12:05:19Z</time>
      </trkpt>
      <trkpt lat="57.625695029273629" lon="-6.297183036804199">
        <ele>260.64999999999998</ele>
        <time>2019-09-05T12:05:20Z</time>
      </trkpt>
      <trkpt lat="57.625668039545417" lon="-6.297328965738416">
        <ele>260.64999999999998</ele>
        <time>2019-09-05T12:05:21Z</time>
      </trkpt>
      <trkpt lat="57.625652030110359" lon="-6.297418987378478">
        <ele>260.64999999999998</ele>
        <time>2019-09-05T12:05:22Z</time>
      </trkpt>
      <trkpt lat="57.625582041218877" lon="-6.297624008730054">
        <ele>260.64999999999998</ele>
        <time>2019-09-05T12:05:23Z</time>
      </trkpt>
      <trkpt lat="57.625525966286659" lon="-6.29778997041285">
        <ele>260.17000000000002</ele>
        <time>2019-09-05T12:05:24Z</time>
      </trkpt>
      <trkpt lat="57.625464024022222" lon="-6.297973031178117">
        <ele>260.17000000000002</ele>
        <time>2019-09-05T12:05:25Z</time>
      </trkpt>
      <trkpt lat="57.624815013259649" lon="-6.299817971885204">
        <ele>254.41</ele>
        <time>2019-09-05T12:05:33Z</time>
      </trkpt>
      <trkpt lat="57.623926028609276" lon="-6.302081001922488">
        <ele>249.12</ele>
        <time>2019-09-05T12:05:44Z</time>
      </trkpt>
      <trkpt lat="57.623783033341169" lon="-6.302448967471719">
        <ele>248.16</ele>
        <time>2019-09-05T12:05:46Z</time>
      </trkpt>
      <trkpt lat="57.623722013086081" lon="-6.302661029621959">
        <ele>247.68000000000001</ele>
        <time>2019-09-05T12:05:47Z</time>
      </trkpt>
      <trkpt lat="57.623379025608301" lon="-6.303965002298355">
        <ele>245.27000000000001</ele>
        <time>2019-09-05T12:05:54Z</time>
      </trkpt>
      <trkpt lat="57.623018017038703" lon="-6.306594992056489">
        <ele>247.19999999999999</ele>
        <time>2019-09-05T12:06:06Z</time>
      </trkpt>
      <trkpt lat="57.622940987348557" lon="-6.308991964906454">
        <ele>246.72</ele>
        <time>2019-09-05T12:06:16Z</time>
      </trkpt>
      <trkpt lat="57.622945010662079" lon="-6.309419022873044">
        <ele>246.72</ele>
        <time>2019-09-05T12:06:18Z</time>
      </trkpt>
      <trkpt lat="57.622948028147221" lon="-6.309637036174536">
        <ele>246.22999999999999</ele>
        <time>2019-09-05T12:06:19Z</time>
      </trkpt>
      <trkpt lat="57.622927995398641" lon="-6.309861000627279">
        <ele>246.22999999999999</ele>
        <time>2019-09-05T12:06:20Z</time>
      </trkpt>
      <trkpt lat="57.622817019000649" lon="-6.310704974457622">
        <ele>246.22999999999999</ele>
        <time>2019-09-05T12:06:24Z</time>
      </trkpt>
      <trkpt lat="57.622719034552574" lon="-6.312682013958693">
        <ele>242.87</ele>
        <time>2019-09-05T12:06:34Z</time>
      </trkpt>
      <trkpt lat="57.622558018192649" lon="-6.314582023769617">
        <ele>240.47</ele>
        <time>2019-09-05T12:06:44Z</time>
      </trkpt>
      <trkpt lat="57.622548965737224" lon="-6.314688976854086">
        <ele>240.47</ele>
        <time>2019-09-05T12:06:45Z</time>
      </trkpt>
      <trkpt lat="57.622541002929211" lon="-6.314787967130542">
        <ele>239.99000000000001</ele>
        <time>2019-09-05T12:06:46Z</time>
      </trkpt>
      <trkpt lat="57.622541002929211" lon="-6.315799998119474">
        <ele>236.62</ele>
        <time>2019-09-05T12:06:52Z</time>
      </trkpt>
      <trkpt lat="57.622541002929211" lon="-6.319138007238507">
        <ele>234.69999999999999</ele>
        <time>2019-09-05T12:07:05Z</time>
      </trkpt>
      <trkpt lat="57.622374035418034" lon="-6.322031021118164">
        <ele>232.30000000000001</ele>
        <time>2019-09-05T12:07:17Z</time>
      </trkpt>
      <trkpt lat="57.621762994676828" lon="-6.325756022706628">
        <ele>224.12</ele>
        <time>2019-09-05T12:07:32Z</time>
      </trkpt>
      <trkpt lat="57.62133501470089" lon="-6.3278469722718">
        <ele>219.31999999999999</ele>
        <time>2019-09-05T12:07:41Z</time>
      </trkpt>
      <trkpt lat="57.621323028579354" lon="-6.328085018321872">
        <ele>218.84</ele>
        <time>2019-09-05T12:07:42Z</time>
      </trkpt>
      <trkpt lat="57.621311964467168" lon="-6.32831702940166">
        <ele>218.84</ele>
        <time>2019-09-05T12:07:43Z</time>
      </trkpt>
      <trkpt lat="57.621263014152646" lon="-6.329150022938848">
        <ele>217.40000000000001</ele>
        <time>2019-09-05T12:07:47Z</time>
      </trkpt>
      <trkpt lat="57.621227977797389" lon="-6.329322019591928">
        <ele>216.91</ele>
        <time>2019-09-05T12:07:48Z</time>
      </trkpt>
      <trkpt lat="57.621195036917925" lon="-6.329486975446343">
        <ele>216.43000000000001</ele>
        <time>2019-09-05T12:07:49Z</time>
      </trkpt>
      <trkpt lat="57.621123036369681" lon="-6.329613961279392">
        <ele>216.43000000000001</ele>
        <time>2019-09-05T12:07:50Z</time>
      </trkpt>
      <trkpt lat="57.621046006679535" lon="-6.329724015668035">
        <ele>215.94999999999999</ele>
        <time>2019-09-05T12:07:51Z</time>
      </trkpt>
      <trkpt lat="57.620952967554331" lon="-6.329787969589233">
        <ele>215.47</ele>
        <time>2019-09-05T12:07:52Z</time>
      </trkpt>
      <trkpt lat="57.620856994763017" lon="-6.329847984015942">
        <ele>214.99000000000001</ele>
        <time>2019-09-05T12:07:53Z</time>
      </trkpt>
      <trkpt lat="57.620759010314941" lon="-6.32990900427103">
        <ele>214.03</ele>
        <time>2019-09-05T12:07:54Z</time>
      </trkpt>
      <trkpt lat="57.620665971189737" lon="-6.330000031739473">
        <ele>213.55000000000001</ele>
        <time>2019-09-05T12:07:55Z</time>
      </trkpt>
      <trkpt lat="57.620593970641494" lon="-6.330122994259">
        <ele>212.59</ele>
        <time>2019-09-05T12:07:56Z</time>
      </trkpt>
      <trkpt lat="57.620534962043166" lon="-6.3302749581635">
        <ele>211.63</ele>
        <time>2019-09-05T12:07:57Z</time>
      </trkpt>
      <trkpt lat="57.620507972314954" lon="-6.330460030585527">
        <ele>210.66999999999999</ele>
        <time>2019-09-05T12:07:58Z</time>
      </trkpt>
      <trkpt lat="57.6204779651016" lon="-6.330661028623581">
        <ele>210.19</ele>
        <time>2019-09-05T12:07:59Z</time>
      </trkpt>
      <trkpt lat="57.620252994820476" lon="-6.332028033211827">
        <ele>208.25999999999999</ele>
        <time>2019-09-05T12:08:05Z</time>
      </trkpt>
      <trkpt lat="57.620202032849193" lon="-6.332222996279597">
        <ele>208.25999999999999</ele>
        <time>2019-09-05T12:08:06Z</time>
      </trkpt>
      <trkpt lat="57.620101030915976" lon="-6.332415025681257">
        <ele>207.78</ele>
        <time>2019-09-05T12:08:07Z</time>
      </trkpt>
      <trkpt lat="57.61908296495676" lon="-6.334210010245442">
        <ele>202.49000000000001</ele>
        <time>2019-09-05T12:08:17Z</time>
      </trkpt>
      <trkpt lat="57.617845963686705" lon="-6.335621019825339">
        <ele>197.21000000000001</ele>
        <time>2019-09-05T12:08:27Z</time>
      </trkpt>
      <trkpt lat="57.616179976612329" lon="-6.338470028713346">
        <ele>184.22999999999999</ele>
        <time>2019-09-05T12:08:41Z</time>
      </trkpt>
      <trkpt lat="57.614882038906217" lon="-6.340668015182018">
        <ele>173.16999999999999</ele>
        <time>2019-09-05T12:08:52Z</time>
      </trkpt>
      <trkpt lat="57.613791972398758" lon="-6.342158988118172">
        <ele>168.84999999999999</ele>
        <time>2019-09-05T12:09:01Z</time>
      </trkpt>
      <trkpt lat="57.612841967493296" lon="-6.342801963910461">
        <ele>168.37</ele>
        <time>2019-09-05T12:09:09Z</time>
      </trkpt>
      <trkpt lat="57.612555976957083" lon="-6.343088038265705">
        <ele>168.84999999999999</ele>
        <time>2019-09-05T12:09:12Z</time>
      </trkpt>
      <trkpt lat="57.612468972802162" lon="-6.343181999400258">
        <ele>168.84999999999999</ele>
        <time>2019-09-05T12:09:13Z</time>
      </trkpt>
      <trkpt lat="57.612397978082299" lon="-6.343316026031971">
        <ele>168.84999999999999</ele>
        <time>2019-09-05T12:09:14Z</time>
      </trkpt>
      <trkpt lat="57.611557021737099" lon="-6.344633996486664">
        <ele>169.33000000000001</ele>
        <time>2019-09-05T12:09:24Z</time>
      </trkpt>
      <trkpt lat="57.610317002981901" lon="-6.346116000786424">
        <ele>169.81</ele>
        <time>2019-09-05T12:09:35Z</time>
      </trkpt>
      <trkpt lat="57.609521979466081" lon="-6.347064999863505">
        <ele>169.33000000000001</ele>
        <time>2019-09-05T12:09:43Z</time>
      </trkpt>
      <trkpt lat="57.609450984746218" lon="-6.347150998190045">
        <ele>169.33000000000001</ele>
        <time>2019-09-05T12:09:44Z</time>
      </trkpt>
      <trkpt lat="57.608913034200668" lon="-6.348090022802353">
        <ele>166.93000000000001</ele>
        <time>2019-09-05T12:09:51Z</time>
      </trkpt>
      <trkpt lat="57.608839021995664" lon="-6.34819395840168">
        <ele>166.44999999999999</ele>
        <time>2019-09-05T12:09:52Z</time>
      </trkpt>
      <trkpt lat="57.608742965385318" lon="-6.348317004740238">
        <ele>166.44999999999999</ele>
        <time>2019-09-05T12:09:53Z</time>
      </trkpt>
      <trkpt lat="57.608668031170964" lon="-6.348336031660438">
        <ele>165.96000000000001</ele>
        <time>2019-09-05T12:09:54Z</time>
      </trkpt>
      <trkpt lat="57.608563005924225" lon="-6.348356986418366">
        <ele>166.44999999999999</ele>
        <time>2019-09-05T12:09:55Z</time>
      </trkpt>
      <trkpt lat="57.608459992334247" lon="-6.348323961719871">
        <ele>166.44999999999999</ele>
        <time>2019-09-05T12:09:56Z</time>
      </trkpt>
      <trkpt lat="57.608357984572649" lon="-6.348292026668787">
        <ele>166.44999999999999</ele>
        <time>2019-09-05T12:09:57Z</time>
      </trkpt>
      <trkpt lat="57.607812993228436" lon="-6.348208962008357">
        <ele>166.93000000000001</ele>
        <time>2019-09-05T12:10:03Z</time>
      </trkpt>
      <trkpt lat="57.607704028487206" lon="-6.348208962008357">
        <ele>167.41</ele>
        <time>2019-09-05T12:10:04Z</time>
      </trkpt>
      <trkpt lat="57.606557970866561" lon="-6.348676001653075">
        <ele>166.44999999999999</ele>
        <time>2019-09-05T12:10:13Z</time>
      </trkpt>
      <trkpt lat="57.605779962614179" lon="-6.349009014666081">
        <ele>166.44999999999999</ele>
        <time>2019-09-05T12:10:21Z</time>
      </trkpt>
      <trkpt lat="57.604259988293052" lon="-6.349766990169883">
        <ele>164.03999999999999</ele>
        <time>2019-09-05T12:10:35Z</time>
      </trkpt>
      <trkpt lat="57.603204036131501" lon="-6.350160017609596">
        <ele>160.68000000000001</ele>
        <time>2019-09-05T12:10:45Z</time>
      </trkpt>
      <trkpt lat="57.602012967690825" lon="-6.350990999490023">
        <ele>154.91</ele>
        <time>2019-09-05T12:10:55Z</time>
      </trkpt>
      <trkpt lat="57.601843988522887" lon="-6.351255029439926">
        <ele>153.94999999999999</ele>
        <time>2019-09-05T12:10:57Z</time>
      </trkpt>
      <trkpt lat="57.601757990196347" lon="-6.351390983909369">
        <ele>153.47</ele>
        <time>2019-09-05T12:10:58Z</time>
      </trkpt>
      <trkpt lat="57.601259015500546" lon="-6.352180978283286">
        <ele>150.58000000000001</ele>
        <time>2019-09-05T12:11:03Z</time>
      </trkpt>
      <trkpt lat="57.601134041324258" lon="-6.352302012965083">
        <ele>150.09999999999999</ele>
        <time>2019-09-05T12:11:04Z</time>
      </trkpt>
      <trkpt lat="57.601016024127603" lon="-6.352397985756397">
        <ele>149.62</ele>
        <time>2019-09-05T12:11:05Z</time>
      </trkpt>
      <trkpt lat="57.600900018587708" lon="-6.352492030709982">
        <ele>149.13999999999999</ele>
        <time>2019-09-05T12:11:06Z</time>
      </trkpt>
      <trkpt lat="57.600763980299234" lon="-6.352591020986438">
        <ele>148.66</ele>
        <time>2019-09-05T12:11:07Z</time>
      </trkpt>
      <trkpt lat="57.600636994466186" lon="-6.35261801071465">
        <ele>148.18000000000001</ele>
        <time>2019-09-05T12:11:08Z</time>
      </trkpt>
      <trkpt lat="57.599597973749042" lon="-6.352942977100611">
        <ele>143.37</ele>
        <time>2019-09-05T12:11:17Z</time>
      </trkpt>
      <trkpt lat="57.598880985751748" lon="-6.35345796123147">
        <ele>139.05000000000001</ele>
        <time>2019-09-05T12:11:25Z</time>
      </trkpt>
      <trkpt lat="57.598836980760098" lon="-6.353571033105254">
        <ele>139.05000000000001</ele>
        <time>2019-09-05T12:11:26Z</time>
      </trkpt>
      <trkpt lat="57.598787024617195" lon="-6.353701036423445">
        <ele>138.56999999999999</ele>
        <time>2019-09-05T12:11:27Z</time>
      </trkpt>
      <trkpt lat="57.598730027675629" lon="-6.353847971186042">
        <ele>138.09</ele>
        <time>2019-09-05T12:11:28Z</time>
      </trkpt>
      <trkpt lat="57.598666995763779" lon="-6.354008987545967">
        <ele>137.61000000000001</ele>
        <time>2019-09-05T12:11:29Z</time>
      </trkpt>
      <trkpt lat="57.598395003005862" lon="-6.354710971936584">
        <ele>136.63999999999999</ele>
        <time>2019-09-05T12:11:33Z</time>
      </trkpt>
      <trkpt lat="57.598329037427902" lon="-6.354906018823385">
        <ele>136.16</ele>
        <time>2019-09-05T12:11:34Z</time>
      </trkpt>
      <trkpt lat="57.598296012729406" lon="-6.355121014639735">
        <ele>135.68000000000001</ele>
        <time>2019-09-05T12:11:35Z</time>
      </trkpt>
      <trkpt lat="57.598259970545769" lon="-6.355351014062762">
        <ele>135.19999999999999</ele>
        <time>2019-09-05T12:11:36Z</time>
      </trkpt>
      <trkpt lat="57.598217977210879" lon="-6.355580007657409">
        <ele>133.75999999999999</ele>
        <time>2019-09-05T12:11:37Z</time>
      </trkpt>
      <trkpt lat="57.598146982491016" lon="-6.355795003473759">
        <ele>133.28</ele>
        <time>2019-09-05T12:11:38Z</time>
      </trkpt>
      <trkpt lat="57.598053021356463" lon="-6.355975968763232">
        <ele>132.31999999999999</ele>
        <time>2019-09-05T12:11:39Z</time>
      </trkpt>
      <trkpt lat="57.597946990281343" lon="-6.356138996779919">
        <ele>131.36000000000001</ele>
        <time>2019-09-05T12:11:40Z</time>
      </trkpt>
      <trkpt lat="57.597841965034604" lon="-6.356302024796605">
        <ele>130.88</ele>
        <time>2019-09-05T12:11:41Z</time>
      </trkpt>
      <trkpt lat="57.597737023606896" lon="-6.35646304115653">
        <ele>130.40000000000001</ele>
        <time>2019-09-05T12:11:42Z</time>
      </trkpt>
      <trkpt lat="57.596805961802602" lon="-6.358031965792179">
        <ele>127.03</ele>
        <time>2019-09-05T12:11:51Z</time>
      </trkpt>
      <trkpt lat="57.59604899212718" lon="-6.359071992337704">
        <ele>126.55</ele>
        <time>2019-09-05T12:11:58Z</time>
      </trkpt>
      <trkpt lat="57.595988977700472" lon="-6.359227979555726">
        <ele>126.55</ele>
        <time>2019-09-05T12:11:59Z</time>
      </trkpt>
      <trkpt lat="57.595291016623378" lon="-6.360820038244128">
        <ele>125.59</ele>
        <time>2019-09-05T12:12:09Z</time>
      </trkpt>
      <trkpt lat="57.594341011717916" lon="-6.36342697776854">
        <ele>118.86</ele>
        <time>2019-09-05T12:12:23Z</time>
      </trkpt>
      <trkpt lat="57.594111012294888" lon="-6.365137975662947">
        <ele>115.01000000000001</ele>
        <time>2019-09-05T12:12:31Z</time>
      </trkpt>
      <trkpt lat="57.593958964571357" lon="-6.367581970989704">
        <ele>109.73</ele>
        <time>2019-09-05T12:12:42Z</time>
      </trkpt>
      <trkpt lat="57.593757966533303" lon="-6.36969898827374">
        <ele>104.92</ele>
        <time>2019-09-05T12:12:51Z</time>
      </trkpt>
      <trkpt lat="57.593746986240149" lon="-6.370191005989909">
        <ele>104.92</ele>
        <time>2019-09-05T12:12:53Z</time>
      </trkpt>
      <trkpt lat="57.593445992097259" lon="-6.37201901525259">
        <ele>100.11</ele>
        <time>2019-09-05T12:13:01Z</time>
      </trkpt>
      <trkpt lat="57.593307020142674" lon="-6.373223997652531">
        <ele>94.829999999999998</ele>
        <time>2019-09-05T12:13:10Z</time>
      </trkpt>
      <trkpt lat="57.593281036242843" lon="-6.3734570145607">
        <ele>93.870000000000005</ele>
        <time>2019-09-05T12:13:13Z</time>
      </trkpt>
      <trkpt lat="57.593257986009121" lon="-6.373554999008775">
        <ele>93.390000000000001</ele>
        <time>2019-09-05T12:13:14Z</time>
      </trkpt>
      <trkpt lat="57.59321297518909" lon="-6.373636974021792">
        <ele>93.390000000000001</ele>
        <time>2019-09-05T12:13:15Z</time>
      </trkpt>
      <trkpt lat="57.59306101128459" lon="-6.373908966779709">
        <ele>91.939999999999998</ele>
        <time>2019-09-05T12:13:18Z</time>
      </trkpt>
      <trkpt lat="57.593028992414474" lon="-6.374033018946648">
        <ele>91.459999999999994</ele>
        <time>2019-09-05T12:13:19Z</time>
      </trkpt>
      <trkpt lat="57.592999991029501" lon="-6.374151958152652">
        <ele>90.980000000000004</ele>
        <time>2019-09-05T12:13:20Z</time>
      </trkpt>
      <trkpt lat="57.592813996598125" lon="-6.374871041625738">
        <ele>89.060000000000002</ele>
        <time>2019-09-05T12:13:27Z</time>
      </trkpt>
      <trkpt lat="57.592777032405138" lon="-6.374969026073813">
        <ele>88.579999999999998</ele>
        <time>2019-09-05T12:13:28Z</time>
      </trkpt>
      <trkpt lat="57.592735961079597" lon="-6.375073967501521">
        <ele>88.099999999999994</ele>
        <time>2019-09-05T12:13:29Z</time>
      </trkpt>
      <trkpt lat="57.592688016593456" lon="-6.375149991363287">
        <ele>88.099999999999994</ele>
        <time>2019-09-05T12:13:30Z</time>
      </trkpt>
      <trkpt lat="57.592637976631522" lon="-6.375229032710195">
        <ele>87.620000000000005</ele>
        <time>2019-09-05T12:13:31Z</time>
      </trkpt>
      <trkpt lat="57.592582991346717" lon="-6.375316036865115">
        <ele>87.620000000000005</ele>
        <time>2019-09-05T12:13:32Z</time>
      </trkpt>
      <trkpt lat="57.592523982748389" lon="-6.375408992171288">
        <ele>87.140000000000001</ele>
        <time>2019-09-05T12:13:33Z</time>
      </trkpt>
      <trkpt lat="57.592462040483952" lon="-6.375505970790982">
        <ele>86.659999999999997</ele>
        <time>2019-09-05T12:13:34Z</time>
      </trkpt>
      <trkpt lat="57.591734994202852" lon="-6.376871969550848">
        <ele>81.849999999999994</ele>
        <time>2019-09-05T12:13:45Z</time>
      </trkpt>
      <trkpt lat="57.59166601113975" lon="-6.377013958990574">
        <ele>80.890000000000001</ele>
        <time>2019-09-05T12:13:46Z</time>
      </trkpt>
      <trkpt lat="57.591336015611887" lon="-6.377698006108403">
        <ele>78</ele>
        <time>2019-09-05T12:13:52Z</time>
      </trkpt>
      <trkpt lat="57.591245993971825" lon="-6.377888023853302">
        <ele>77.519999999999996</ele>
        <time>2019-09-05T12:13:54Z</time>
      </trkpt>
      <trkpt lat="57.591110039502382" lon="-6.37818600051105">
        <ele>77.040000000000006</ele>
        <time>2019-09-05T12:13:57Z</time>
      </trkpt>
      <trkpt lat="57.591059999540448" lon="-6.378295971080661">
        <ele>76.560000000000002</ele>
        <time>2019-09-05T12:13:58Z</time>
      </trkpt>
      <trkpt lat="57.591009037569165" lon="-6.378406025469303">
        <ele>76.079999999999998</ele>
        <time>2019-09-05T12:13:59Z</time>
      </trkpt>
      <trkpt lat="57.590957991778851" lon="-6.378519013524056">
        <ele>75.599999999999994</ele>
        <time>2019-09-05T12:14:00Z</time>
      </trkpt>
      <trkpt lat="57.590904012322426" lon="-6.37863602489233">
        <ele>75.120000000000005</ele>
        <time>2019-09-05T12:14:01Z</time>
      </trkpt>
      <trkpt lat="57.590662026777864" lon="-6.379166012629867">
        <ele>71.760000000000005</ele>
        <time>2019-09-05T12:14:06Z</time>
      </trkpt>
      <trkpt lat="57.590563036501408" lon="-6.379357036203146">
        <ele>70.310000000000002</ele>
        <time>2019-09-05T12:14:09Z</time>
      </trkpt>
      <trkpt lat="57.59050402790308" lon="-6.379429958760738">
        <ele>69.829999999999998</ele>
        <time>2019-09-05T12:14:10Z</time>
      </trkpt>
      <trkpt lat="57.59050402790308" lon="-6.379429958760738">
        <ele>69.349999999999994</ele>
        <time>2019-09-05T12:14:11Z</time>
      </trkpt>
      <trkpt lat="57.590505033731461" lon="-6.379305990412831">
        <ele>68.870000000000005</ele>
        <time>2019-09-05T12:14:12Z</time>
      </trkpt>
      <trkpt lat="57.590531017631292" lon="-6.379243964329362">
        <ele>68.390000000000001</ele>
        <time>2019-09-05T12:14:13Z</time>
      </trkpt>
      <trkpt lat="57.590563958510756" lon="-6.379166012629867">
        <ele>68.390000000000001</ele>
        <time>2019-09-05T12:14:14Z</time>
      </trkpt>
      <trkpt lat="57.590606035664678" lon="-6.379064004868269">
        <ele>67.909999999999997</ele>
        <time>2019-09-05T12:14:15Z</time>
      </trkpt>
      <trkpt lat="57.591122025623918" lon="-6.377771012485027">
        <ele>62.619999999999997</ele>
        <time>2019-09-05T12:14:23Z</time>
      </trkpt>
      <trkpt lat="57.591799031943083" lon="-6.37567201629281">
        <ele>55.409999999999997</ele>
        <time>2019-09-05T12:14:34Z</time>
      </trkpt>
      <trkpt lat="57.592211002483964" lon="-6.374010974541307">
        <ele>49.159999999999997</ele>
        <time>2019-09-05T12:14:45Z</time>
      </trkpt>
      <trkpt lat="57.592320973053575" lon="-6.37240500189364">
        <ele>45.799999999999997</ele>
        <time>2019-09-05T12:14:55Z</time>
      </trkpt>
      <trkpt lat="57.592246038839221" lon="-6.371258022263646">
        <ele>41.469999999999999</ele>
        <time>2019-09-05T12:15:03Z</time>
      </trkpt>
      <trkpt lat="57.592162974178791" lon="-6.370689980685711">
        <ele>37.630000000000003</ele>
        <time>2019-09-05T12:15:13Z</time>
      </trkpt>
      <trkpt lat="57.592086028307676" lon="-6.369874002411962">
        <ele>35.710000000000001</ele>
        <time>2019-09-05T12:15:21Z</time>
      </trkpt>
      <trkpt lat="57.592080999165773" lon="-6.369581976905465">
        <ele>34.740000000000002</ele>
        <time>2019-09-05T12:15:24Z</time>
      </trkpt>
      <trkpt lat="57.592079993337393" lon="-6.369496984407306">
        <ele>34.259999999999998</ele>
        <time>2019-09-05T12:15:25Z</time>
      </trkpt>
      <trkpt lat="57.592077981680632" lon="-6.369411991909146">
        <ele>34.259999999999998</ele>
        <time>2019-09-05T12:15:26Z</time>
      </trkpt>
      <trkpt lat="57.59203003719449" lon="-6.368634989485145">
        <ele>31.859999999999999</ele>
        <time>2019-09-05T12:15:35Z</time>
      </trkpt>
      <trkpt lat="57.591936998069286" lon="-6.367782969027758">
        <ele>30.899999999999999</ele>
        <time>2019-09-05T12:15:41Z</time>
      </trkpt>
      <trkpt lat="57.591872038319707" lon="-6.367192966863513">
        <ele>29.460000000000001</ele>
        <time>2019-09-05T12:15:44Z</time>
      </trkpt>
      <trkpt lat="57.591856028884649" lon="-6.367048965767026">
        <ele>28.98</ele>
        <time>2019-09-05T12:15:45Z</time>
      </trkpt>
      <trkpt lat="57.591856028884649" lon="-6.366864982992411">
        <ele>28.5</ele>
        <time>2019-09-05T12:15:46Z</time>
      </trkpt>
      <trkpt lat="57.591856028884649" lon="-6.36671201325953">
        <ele>28.02</ele>
        <time>2019-09-05T12:15:47Z</time>
      </trkpt>
      <trkpt lat="57.591856028884649" lon="-6.366566000506282">
        <ele>27.530000000000001</ele>
        <time>2019-09-05T12:15:48Z</time>
      </trkpt>
      <trkpt lat="57.591990977525711" lon="-6.365040997043252">
        <ele>24.170000000000002</ele>
        <time>2019-09-05T12:15:59Z</time>
      </trkpt>
      <trkpt lat="57.59211796335876" lon="-6.363500989973545">
        <ele>19.84</ele>
        <time>2019-09-05T12:16:09Z</time>
      </trkpt>
      <trkpt lat="57.592228017747402" lon="-6.362211015075445">
        <ele>15.52</ele>
        <time>2019-09-05T12:16:17Z</time>
      </trkpt>
      <trkpt lat="57.592248972505331" lon="-6.362056033685803">
        <ele>15.039999999999999</ele>
        <time>2019-09-05T12:16:18Z</time>
      </trkpt>
      <trkpt lat="57.59226799942553" lon="-6.361909015104175">
        <ele>14.56</ele>
        <time>2019-09-05T12:16:19Z</time>
      </trkpt>
      <trkpt lat="57.592286020517349" lon="-6.361775994300842">
        <ele>14.56</ele>
        <time>2019-09-05T12:16:20Z</time>
      </trkpt>
      <trkpt lat="57.592304041609168" lon="-6.361641967669129">
        <ele>14.08</ele>
        <time>2019-09-05T12:16:21Z</time>
      </trkpt>
      <trkpt lat="57.592322984710336" lon="-6.361498972401023">
        <ele>14.56</ele>
        <time>2019-09-05T12:16:22Z</time>
      </trkpt>
      <trkpt lat="57.592349974438548" lon="-6.36129898019135">
        <ele>15.039999999999999</ele>
        <time>2019-09-05T12:16:23Z</time>
      </trkpt>
      <trkpt lat="57.592345029115677" lon="-6.361239971593022">
        <ele>15.52</ele>
        <time>2019-09-05T12:16:24Z</time>
      </trkpt>
      <trkpt lat="57.59233295917511" lon="-6.36110401712358">
        <ele>16</ele>
        <time>2019-09-05T12:16:25Z</time>
      </trkpt>
      <trkpt lat="57.592321978881955" lon="-6.360964961349964">
        <ele>16.960000000000001</ele>
        <time>2019-09-05T12:16:26Z</time>
      </trkpt>
      <trkpt lat="57.592297000810504" lon="-6.360667990520597">
        <ele>17.920000000000002</ele>
        <time>2019-09-05T12:16:28Z</time>
      </trkpt>
      <trkpt lat="57.592174960300326" lon="-6.359222028404474">
        <ele>21.77</ele>
        <time>2019-09-05T12:16:39Z</time>
      </trkpt>
      <trkpt lat="57.592110000550747" lon="-6.35867603123188">
        <ele>22.73</ele>
        <time>2019-09-05T12:16:44Z</time>
      </trkpt>
      <trkpt lat="57.592005981132388" lon="-6.357950996607542">
        <ele>24.649999999999999</ele>
        <time>2019-09-05T12:16:52Z</time>
      </trkpt>
      <trkpt lat="57.591968011111021" lon="-6.357859969139099">
        <ele>25.129999999999999</ele>
        <time>2019-09-05T12:16:53Z</time>
      </trkpt>
      <trkpt lat="57.591931968927383" lon="-6.357773970812559">
        <ele>25.129999999999999</ele>
        <time>2019-09-05T12:16:54Z</time>
      </trkpt>
      <trkpt lat="57.591689983382821" lon="-6.35665699839592">
        <ele>24.649999999999999</ele>
        <time>2019-09-05T12:17:00Z</time>
      </trkpt>
      <trkpt lat="57.591621000319719" lon="-6.356408977881074">
        <ele>24.170000000000002</ele>
        <time>2019-09-05T12:17:01Z</time>
      </trkpt>
      <trkpt lat="57.591516980901361" lon="-6.356212003156543">
        <ele>23.690000000000001</ele>
        <time>2019-09-05T12:17:02Z</time>
      </trkpt>
      <trkpt lat="57.591404998674989" lon="-6.356002958491445">
        <ele>23.210000000000001</ele>
        <time>2019-09-05T12:17:03Z</time>
      </trkpt>
      <trkpt lat="57.591294022276998" lon="-6.355795003473759">
        <ele>23.210000000000001</ele>
        <time>2019-09-05T12:17:04Z</time>
      </trkpt>
      <trkpt lat="57.591164018958807" lon="-6.355657037347555">
        <ele>22.73</ele>
        <time>2019-09-05T12:17:05Z</time>
      </trkpt>
      <trkpt lat="57.591024963185191" lon="-6.355526028200984">
        <ele>22.25</ele>
        <time>2019-09-05T12:17:06Z</time>
      </trkpt>
      <trkpt lat="57.590895965695381" lon="-6.355414967983961">
        <ele>21.77</ele>
        <time>2019-09-05T12:17:07Z</time>
      </trkpt>
      <trkpt lat="57.590756993740797" lon="-6.355372974649072">
        <ele>21.289999999999999</ele>
        <time>2019-09-05T12:17:08Z</time>
      </trkpt>
      <trkpt lat="57.590623972937465" lon="-6.355332992970944">
        <ele>21.289999999999999</ele>
        <time>2019-09-05T12:17:09Z</time>
      </trkpt>
      <trkpt lat="57.58955997414887" lon="-6.355011966079474">
        <ele>16.960000000000001</ele>
        <time>2019-09-05T12:17:18Z</time>
      </trkpt>
      <trkpt lat="57.589112967252731" lon="-6.354996962472796">
        <ele>15.52</ele>
        <time>2019-09-05T12:17:21Z</time>
      </trkpt>
      <trkpt lat="57.58869999088347" lon="-6.355097964406014">
        <ele>15.039999999999999</ele>
        <time>2019-09-05T12:17:24Z</time>
      </trkpt>
      <trkpt lat="57.587786028161645" lon="-6.355812018737197">
        <ele>18.879999999999999</ele>
        <time>2019-09-05T12:17:32Z</time>
      </trkpt>
      <trkpt lat="57.586406031623483" lon="-6.356860008090735">
        <ele>30.899999999999999</ele>
        <time>2019-09-05T12:17:43Z</time>
      </trkpt>
      <trkpt lat="57.585861962288618" lon="-6.35715002194047">
        <ele>34.259999999999998</ele>
        <time>2019-09-05T12:17:47Z</time>
      </trkpt>
      <trkpt lat="57.585353013128042" lon="-6.35725999251008">
        <ele>39.07</ele>
        <time>2019-09-05T12:17:52Z</time>
      </trkpt>
      <trkpt lat="57.584483977407217" lon="-6.357330987229943">
        <ele>45.799999999999997</ele>
        <time>2019-09-05T12:18:01Z</time>
      </trkpt>
      <trkpt lat="57.583732958883047" lon="-6.357478005811572">
        <ele>52.049999999999997</ele>
        <time>2019-09-05T12:18:09Z</time>
      </trkpt>
      <trkpt lat="57.583623994141817" lon="-6.357543971389532">
        <ele>53.969999999999999</ele>
        <time>2019-09-05T12:18:12Z</time>
      </trkpt>
      <trkpt lat="57.583579989150167" lon="-6.357576996088028">
        <ele>54.450000000000003</ele>
        <time>2019-09-05T12:18:13Z</time>
      </trkpt>
      <trkpt lat="57.583439005538821" lon="-6.357685960829258">
        <ele>57.340000000000003</ele>
        <time>2019-09-05T12:18:20Z</time>
      </trkpt>
      <trkpt lat="57.583439005538821" lon="-6.357685960829258">
        <ele>57.340000000000003</ele>
        <time>2019-09-05T12:18:58Z</time>
      </trkpt>
      <trkpt lat="57.583400029689074" lon="-6.357715968042612">
        <ele>57.340000000000003</ele>
        <time>2019-09-05T12:19:16Z</time>
      </trkpt>
      <trkpt lat="57.583013037219644" lon="-6.358026014640927">
        <ele>57.340000000000003</ele>
        <time>2019-09-05T12:19:23Z</time>
      </trkpt>
      <trkpt lat="57.582484977319837" lon="-6.358737973496318">
        <ele>59.259999999999998</ele>
        <time>2019-09-05T12:19:31Z</time>
      </trkpt>
      <trkpt lat="57.581853987649083" lon="-6.359649002552033">
        <ele>63.579999999999998</ele>
        <time>2019-09-05T12:19:39Z</time>
      </trkpt>
      <trkpt lat="57.581227021291852" lon="-6.360276974737644">
        <ele>67.909999999999997</ele>
        <time>2019-09-05T12:19:45Z</time>
      </trkpt>
      <trkpt lat="57.581126019358635" lon="-6.360376970842481">
        <ele>68.870000000000005</ele>
        <time>2019-09-05T12:19:46Z</time>
      </trkpt>
      <trkpt lat="57.581038009375334" lon="-6.360521977767348">
        <ele>69.349999999999994</ele>
        <time>2019-09-05T12:19:47Z</time>
      </trkpt>
      <trkpt lat="57.580960979685187" lon="-6.360691962763667">
        <ele>70.310000000000002</ele>
        <time>2019-09-05T12:19:48Z</time>
      </trkpt>
      <trkpt lat="57.580882022157311" lon="-6.360871000215411">
        <ele>70.790000000000006</ele>
        <time>2019-09-05T12:19:49Z</time>
      </trkpt>
      <trkpt lat="57.580807004123926" lon="-6.361065041273832">
        <ele>71.760000000000005</ele>
        <time>2019-09-05T12:19:50Z</time>
      </trkpt>
      <trkpt lat="57.58072704076767" lon="-6.361270984634757">
        <ele>72.719999999999999</ele>
        <time>2019-09-05T12:19:51Z</time>
      </trkpt>
      <trkpt lat="57.580552026629448" lon="-6.361722014844418">
        <ele>74.159999999999997</ele>
        <time>2019-09-05T12:19:53Z</time>
      </trkpt>
      <trkpt lat="57.580445995554328" lon="-6.361945979297161">
        <ele>74.640000000000001</ele>
        <time>2019-09-05T12:19:54Z</time>
      </trkpt>
      <trkpt lat="57.580309035256505" lon="-6.362114958465099">
        <ele>75.599999999999994</ele>
        <time>2019-09-05T12:19:55Z</time>
      </trkpt>
      <trkpt lat="57.580167967826128" lon="-6.362288966774941">
        <ele>76.560000000000002</ele>
        <time>2019-09-05T12:19:56Z</time>
      </trkpt>
      <trkpt lat="57.580011980608106" lon="-6.362430034205318">
        <ele>77.519999999999996</ele>
        <time>2019-09-05T12:19:57Z</time>
      </trkpt>
      <trkpt lat="57.579854987561703" lon="-6.362547967582941">
        <ele>78.480000000000004</ele>
        <time>2019-09-05T12:19:58Z</time>
      </trkpt>
      <trkpt lat="57.578711025416851" lon="-6.363519011065364">
        <ele>86.180000000000007</ele>
        <time>2019-09-05T12:20:06Z</time>
      </trkpt>
      <trkpt lat="57.578570041805506" lon="-6.363701988011599">
        <ele>87.140000000000001</ele>
        <time>2019-09-05T12:20:07Z</time>
      </trkpt>
      <trkpt lat="57.578442972153425" lon="-6.36391899548471">
        <ele>88.099999999999994</ele>
        <time>2019-09-05T12:20:08Z</time>
      </trkpt>
      <trkpt lat="57.577651971951127" lon="-6.365048959851265">
        <ele>91.939999999999998</ele>
        <time>2019-09-05T12:20:14Z</time>
      </trkpt>
      <trkpt lat="57.577494978904724" lon="-6.365150967612863">
        <ele>92.420000000000002</ele>
        <time>2019-09-05T12:20:15Z</time>
      </trkpt>
      <trkpt lat="57.577330023050308" lon="-6.36523000895977">
        <ele>92.420000000000002</ele>
        <time>2019-09-05T12:20:16Z</time>
      </trkpt>
      <trkpt lat="57.57716397754848" lon="-6.365309972316027">
        <ele>92.900000000000006</ele>
        <time>2019-09-05T12:20:17Z</time>
      </trkpt>
      <trkpt lat="57.576992986723781" lon="-6.365355988964438">
        <ele>92.900000000000006</ele>
        <time>2019-09-05T12:20:18Z</time>
      </trkpt>
      <trkpt lat="57.576813027262688" lon="-6.36535900644958">
        <ele>93.390000000000001</ele>
        <time>2019-09-05T12:20:19Z</time>
      </trkpt>
      <trkpt lat="57.576628038659692" lon="-6.365363029763103">
        <ele>93.390000000000001</ele>
        <time>2019-09-05T12:20:20Z</time>
      </trkpt>
      <trkpt lat="57.574382023885846" lon="-6.365290023386478">
        <ele>96.75</ele>
        <time>2019-09-05T12:20:32Z</time>
      </trkpt>
      <trkpt lat="57.573224985972047" lon="-6.364890038967133">
        <ele>98.189999999999998</ele>
        <time>2019-09-05T12:20:40Z</time>
      </trkpt>
      <trkpt lat="57.571911038830876" lon="-6.364074982702732">
        <ele>95.790000000000006</ele>
        <time>2019-09-05T12:20:50Z</time>
      </trkpt>
      <trkpt lat="57.57071896456182" lon="-6.364275980740786">
        <ele>91.939999999999998</ele>
        <time>2019-09-05T12:20:58Z</time>
      </trkpt>
      <trkpt lat="57.568974019959569" lon="-6.36458502151072">
        <ele>88.579999999999998</ele>
        <time>2019-09-05T12:21:09Z</time>
      </trkpt>
      <trkpt lat="57.566443020477891" lon="-6.364755006507039">
        <ele>85.209999999999994</ele>
        <time>2019-09-05T12:21:23Z</time>
      </trkpt>
      <trkpt lat="57.564746020361781" lon="-6.364596001803875">
        <ele>81.370000000000005</ele>
        <time>2019-09-05T12:21:32Z</time>
      </trkpt>
      <trkpt lat="57.56300300359726" lon="-6.364427022635937">
        <ele>78</ele>
        <time>2019-09-05T12:21:41Z</time>
      </trkpt>
      <trkpt lat="57.561443969607353" lon="-6.364017985761166">
        <ele>74.640000000000001</ele>
        <time>2019-09-05T12:21:49Z</time>
      </trkpt>
      <trkpt lat="57.559302980080247" lon="-6.363366041332483">
        <ele>72.239999999999995</ele>
        <time>2019-09-05T12:22:00Z</time>
      </trkpt>
      <trkpt lat="57.557331975549459" lon="-6.363840959966183">
        <ele>69.829999999999998</ele>
        <time>2019-09-05T12:22:10Z</time>
      </trkpt>
      <trkpt lat="57.555640004575253" lon="-6.364762969315052">
        <ele>69.829999999999998</ele>
        <time>2019-09-05T12:22:19Z</time>
      </trkpt>
      <trkpt lat="57.553908973932266" lon="-6.365613983944058">
        <ele>70.310000000000002</ele>
        <time>2019-09-05T12:22:28Z</time>
      </trkpt>
      <trkpt lat="57.5521320104599" lon="-6.365609960630536">
        <ele>69.829999999999998</ele>
        <time>2019-09-05T12:22:37Z</time>
      </trkpt>
      <trkpt lat="57.550262007862329" lon="-6.364345969632268">
        <ele>68.870000000000005</ele>
        <time>2019-09-05T12:22:47Z</time>
      </trkpt>
      <trkpt lat="57.548536006361246" lon="-6.363464025780559">
        <ele>65.989999999999995</ele>
        <time>2019-09-05T12:22:56Z</time>
      </trkpt>
      <trkpt lat="57.547387015074492" lon="-6.363973980769515">
        <ele>63.579999999999998</ele>
        <time>2019-09-05T12:23:02Z</time>
      </trkpt>
      <trkpt lat="57.54596896469593" lon="-6.365227997303009">
        <ele>62.140000000000001</ele>
        <time>2019-09-05T12:23:10Z</time>
      </trkpt>
      <trkpt lat="57.544768005609512" lon="-6.365260016173124">
        <ele>56.859999999999999</ele>
        <time>2019-09-05T12:23:16Z</time>
      </trkpt>
      <trkpt lat="57.542105996981263" lon="-6.364641012623906">
        <ele>51.57</ele>
        <time>2019-09-05T12:23:29Z</time>
      </trkpt>
      <trkpt lat="57.539323037490249" lon="-6.362935965880752">
        <ele>48.68</ele>
        <time>2019-09-05T12:23:43Z</time>
      </trkpt>
      <trkpt lat="57.535888971760869" lon="-6.361154979094863">
        <ele>41.950000000000003</ele>
        <time>2019-09-05T12:24:00Z</time>
      </trkpt>
      <trkpt lat="57.534813992679119" lon="-6.360016968101263">
        <ele>39.07</ele>
        <time>2019-09-05T12:24:06Z</time>
      </trkpt>
      <trkpt lat="57.533711018040776" lon="-6.357683027163148">
        <ele>36.670000000000002</ele>
        <time>2019-09-05T12:24:14Z</time>
      </trkpt>
      <trkpt lat="57.53230202011764" lon="-6.354302018880844">
        <ele>33.780000000000001</ele>
        <time>2019-09-05T12:24:25Z</time>
      </trkpt>
      <trkpt lat="57.531221006065607" lon="-6.350988987833262">
        <ele>27.050000000000001</ele>
        <time>2019-09-05T12:24:35Z</time>
      </trkpt>
      <trkpt lat="57.530105961486697" lon="-6.349360970780253">
        <ele>27.530000000000001</ele>
        <time>2019-09-05T12:24:42Z</time>
      </trkpt>
      <trkpt lat="57.528560003265738" lon="-6.348291020840406">
        <ele>33.780000000000001</ele>
        <time>2019-09-05T12:24:50Z</time>
      </trkpt>
      <trkpt lat="57.526687989011407" lon="-6.346821002662182">
        <ele>38.590000000000003</ele>
        <time>2019-09-05T12:25:00Z</time>
      </trkpt>
      <trkpt lat="57.524659987539053" lon="-6.344507010653615">
        <ele>42.439999999999998</ele>
        <time>2019-09-05T12:25:12Z</time>
      </trkpt>
      <trkpt lat="57.522671967744827" lon="-6.342510022222996">
        <ele>45.799999999999997</ele>
        <time>2019-09-05T12:25:23Z</time>
      </trkpt>
      <trkpt lat="57.520525027066469" lon="-6.341019971296191">
        <ele>49.159999999999997</ele>
        <time>2019-09-05T12:25:34Z</time>
      </trkpt>
      <trkpt lat="57.520316988229752" lon="-6.340978983789682">
        <ele>49.159999999999997</ele>
        <time>2019-09-05T12:25:35Z</time>
      </trkpt>
      <trkpt lat="57.520109033212066" lon="-6.340936990454793">
        <ele>49.159999999999997</ele>
        <time>2019-09-05T12:25:36Z</time>
      </trkpt>
      <trkpt lat="57.51990501768887" lon="-6.340977977961302">
        <ele>49.649999999999999</ele>
        <time>2019-09-05T12:25:37Z</time>
      </trkpt>
      <trkpt lat="57.519701002165675" lon="-6.341022988781333">
        <ele>50.130000000000003</ele>
        <time>2019-09-05T12:25:38Z</time>
      </trkpt>
      <trkpt lat="57.51949799247086" lon="-6.341066993772984">
        <ele>50.609999999999999</ele>
        <time>2019-09-05T12:25:39Z</time>
      </trkpt>
      <trkpt lat="57.519300011917949" lon="-6.341155003756285">
        <ele>51.57</ele>
        <time>2019-09-05T12:25:40Z</time>
      </trkpt>
      <trkpt lat="57.517311992123723" lon="-6.342029990628362">
        <ele>61.659999999999997</ele>
        <time>2019-09-05T12:25:50Z</time>
      </trkpt>
      <trkpt lat="57.515824036672711" lon="-6.341805020347238">
        <ele>65.989999999999995</ele>
        <time>2019-09-05T12:25:57Z</time>
      </trkpt>
      <trkpt lat="57.512919958680868" lon="-6.340801035985351">
        <ele>65.030000000000001</ele>
        <time>2019-09-05T12:26:11Z</time>
      </trkpt>
      <trkpt lat="57.510852981358767" lon="-6.340141966938973">
        <ele>59.259999999999998</ele>
        <time>2019-09-05T12:26:21Z</time>
      </trkpt>
      <trkpt lat="57.510468000546098" lon="-6.339840972796083">
        <ele>57.82</ele>
        <time>2019-09-05T12:26:23Z</time>
      </trkpt>
      <trkpt lat="57.508886000141501" lon="-6.337954960763454">
        <ele>53.490000000000002</ele>
        <time>2019-09-05T12:26:32Z</time>
      </trkpt>
      <trkpt lat="57.506678039208055" lon="-6.335571985691786">
        <ele>49.649999999999999</ele>
        <time>2019-09-05T12:26:44Z</time>
      </trkpt>
      <trkpt lat="57.505438020452857" lon="-6.333916978910565">
        <ele>48.200000000000003</ele>
        <time>2019-09-05T12:26:51Z</time>
      </trkpt>
      <trkpt lat="57.504217028617859" lon="-6.331609021872282">
        <ele>46.280000000000001</ele>
        <time>2019-09-05T12:26:59Z</time>
      </trkpt>
      <trkpt lat="57.502651959657669" lon="-6.330137997865677">
        <ele>43.880000000000003</ele>
        <time>2019-09-05T12:27:07Z</time>
      </trkpt>
      <trkpt lat="57.500413991510868" lon="-6.32760800421238">
        <ele>38.109999999999999</ele>
        <time>2019-09-05T12:27:19Z</time>
      </trkpt>
      <trkpt lat="57.499174978584051" lon="-6.324741980060935">
        <ele>28.02</ele>
        <time>2019-09-05T12:27:28Z</time>
      </trkpt>
      <trkpt lat="57.498121038079262" lon="-6.323356032371521">
        <ele>23.210000000000001</ele>
        <time>2019-09-05T12:27:34Z</time>
      </trkpt>
      <trkpt lat="57.495802016928792" lon="-6.321618966758251">
        <ele>25.129999999999999</ele>
        <time>2019-09-05T12:27:46Z</time>
      </trkpt>
      <trkpt lat="57.492713034152985" lon="-6.319204978644848">
        <ele>26.09</ele>
        <time>2019-09-05T12:28:02Z</time>
      </trkpt>
      <trkpt lat="57.490773964673281" lon="-6.316887969151139">
        <ele>20.32</ele>
        <time>2019-09-05T12:28:13Z</time>
      </trkpt>
      <trkpt lat="57.489199005067348" lon="-6.314340960234404">
        <ele>16</ele>
        <time>2019-09-05T12:28:23Z</time>
      </trkpt>
      <trkpt lat="57.487433021888137" lon="-6.31110998801887">
        <ele>12.15</ele>
        <time>2019-09-05T12:28:35Z</time>
      </trkpt>
      <trkpt lat="57.486343961209059" lon="-6.309551037847996">
        <ele>11.19</ele>
        <time>2019-09-05T12:28:43Z</time>
      </trkpt>
      <trkpt lat="57.484504971653223" lon="-6.306934962049127">
        <ele>11.19</ele>
        <time>2019-09-05T12:28:57Z</time>
      </trkpt>
      <trkpt lat="57.48256104066968" lon="-6.303904987871647">
        <ele>11.19</ele>
        <time>2019-09-05T12:29:13Z</time>
      </trkpt>
      <trkpt lat="57.481169980019331" lon="-6.301770033314824">
        <ele>11.19</ele>
        <time>2019-09-05T12:29:23Z</time>
      </trkpt>
      <trkpt lat="57.479696022346616" lon="-6.300561027601361">
        <ele>12.630000000000001</ele>
        <time>2019-09-05T12:29:31Z</time>
      </trkpt>
      <trkpt lat="57.478063981980085" lon="-6.300123995169997">
        <ele>14.08</ele>
        <time>2019-09-05T12:29:39Z</time>
      </trkpt>
      <trkpt lat="57.475876975804567" lon="-6.299691991880536">
        <ele>23.690000000000001</ele>
        <time>2019-09-05T12:29:51Z</time>
      </trkpt>
      <trkpt lat="57.47493501752615" lon="-6.299104001373053">
        <ele>26.09</ele>
        <time>2019-09-05T12:29:58Z</time>
      </trkpt>
      <trkpt lat="57.474176036193967" lon="-6.298188026994467">
        <ele>28.02</ele>
        <time>2019-09-05T12:30:05Z</time>
      </trkpt>
      <trkpt lat="57.474133037030697" lon="-6.298126000910997">
        <ele>28.5</ele>
        <time>2019-09-05T12:30:06Z</time>
      </trkpt>
      <trkpt lat="57.473894990980625" lon="-6.297779995948076">
        <ele>31.859999999999999</ele>
        <time>2019-09-05T12:30:17Z</time>
      </trkpt>
      <trkpt lat="57.47382097877562" lon="-6.297718975692987">
        <ele>31.859999999999999</ele>
        <time>2019-09-05T12:30:19Z</time>
      </trkpt>
      <trkpt lat="57.473775967955589" lon="-6.297771027311683">
        <ele>31.859999999999999</ele>
        <time>2019-09-05T12:30:20Z</time>
      </trkpt>
      <trkpt lat="57.473718971014023" lon="-6.297834981232882">
        <ele>31.859999999999999</ele>
        <time>2019-09-05T12:30:21Z</time>
      </trkpt>
      <trkpt lat="57.473644036799669" lon="-6.297874040901661">
        <ele>31.859999999999999</ele>
        <time>2019-09-05T12:30:22Z</time>
      </trkpt>
      <trkpt lat="57.473560972139239" lon="-6.297882003709674">
        <ele>31.859999999999999</ele>
        <time>2019-09-05T12:30:23Z</time>
      </trkpt>
      <trkpt lat="57.473460976034403" lon="-6.297891978174448">
        <ele>31.379999999999999</ele>
        <time>2019-09-05T12:30:24Z</time>
      </trkpt>
      <trkpt lat="57.47242396697402" lon="-6.298129018396139">
        <ele>27.050000000000001</ele>
        <time>2019-09-05T12:30:32Z</time>
      </trkpt>
      <trkpt lat="57.471173973754048" lon="-6.29903300665319">
        <ele>24.170000000000002</ele>
        <time>2019-09-05T12:30:42Z</time>
      </trkpt>
      <trkpt lat="57.470147022977471" lon="-6.2996990326792">
        <ele>27.050000000000001</ele>
        <time>2019-09-05T12:30:50Z</time>
      </trkpt>
      <trkpt lat="57.470032023265958" lon="-6.299728034064174">
        <ele>27.530000000000001</ele>
        <time>2019-09-05T12:30:51Z</time>
      </trkpt>
      <trkpt lat="57.469918029382825" lon="-6.2996990326792">
        <ele>28.02</ele>
        <time>2019-09-05T12:30:52Z</time>
      </trkpt>
      <trkpt lat="57.46980101801455" lon="-6.299643963575363">
        <ele>28.02</ele>
        <time>2019-09-05T12:30:53Z</time>
      </trkpt>
      <trkpt lat="57.468759985640645" lon="-6.298995958641172">
        <ele>29.460000000000001</ele>
        <time>2019-09-05T12:31:01Z</time>
      </trkpt>
      <trkpt lat="57.468630988150835" lon="-6.298930998891592">
        <ele>29.460000000000001</ele>
        <time>2019-09-05T12:31:02Z</time>
      </trkpt>
      <trkpt lat="57.468498973175883" lon="-6.29890400916338">
        <ele>29.460000000000001</ele>
        <time>2019-09-05T12:31:03Z</time>
      </trkpt>
      <trkpt lat="57.467657011002302" lon="-6.29873301833868">
        <ele>32.82</ele>
        <time>2019-09-05T12:31:10Z</time>
      </trkpt>
      <trkpt lat="57.466398971155286" lon="-6.298170005902648">
        <ele>38.109999999999999</ele>
        <time>2019-09-05T12:31:21Z</time>
      </trkpt>
      <trkpt lat="57.465206980705261" lon="-6.297485958784819">
        <ele>42.920000000000002</ele>
        <time>2019-09-05T12:31:30Z</time>
      </trkpt>
      <trkpt lat="57.463909965008497" lon="-6.297068037092686">
        <ele>46.759999999999998</ele>
        <time>2019-09-05T12:31:39Z</time>
      </trkpt>
      <trkpt lat="57.46232402510941" lon="-6.296710968017578">
        <ele>51.090000000000003</ele>
        <time>2019-09-05T12:31:50Z</time>
      </trkpt>
      <trkpt lat="57.461282992735505" lon="-6.296483986079693">
        <ele>52.530000000000001</ele>
        <time>2019-09-05T12:31:58Z</time>
      </trkpt>
      <trkpt lat="57.459790008142591" lon="-6.296781962737441">
        <ele>51.090000000000003</ele>
        <time>2019-09-05T12:32:07Z</time>
      </trkpt>
      <trkpt lat="57.457885975018144" lon="-6.297028977423906">
        <ele>50.130000000000003</ele>
        <time>2019-09-05T12:32:19Z</time>
      </trkpt>
      <trkpt lat="57.457030015066266" lon="-6.29723098129034">
        <ele>47.719999999999999</ele>
        <time>2019-09-05T12:32:26Z</time>
      </trkpt>
      <trkpt lat="57.456937981769443" lon="-6.297255037352443">
        <ele>47.719999999999999</ele>
        <time>2019-09-05T12:32:27Z</time>
      </trkpt>
      <trkpt lat="57.456842008978128" lon="-6.297280015423894">
        <ele>47.719999999999999</ele>
        <time>2019-09-05T12:32:28Z</time>
      </trkpt>
      <trkpt lat="57.455832995474339" lon="-6.297859037294984">
        <ele>42.439999999999998</ele>
        <time>2019-09-05T12:32:37Z</time>
      </trkpt>
      <trkpt lat="57.455222960561514" lon="-6.29795802757144">
        <ele>38.590000000000003</ele>
        <time>2019-09-05T12:32:42Z</time>
      </trkpt>
      <trkpt lat="57.455096980556846" lon="-6.297973031178117">
        <ele>37.630000000000003</ele>
        <time>2019-09-05T12:32:43Z</time>
      </trkpt>
      <trkpt lat="57.454215036705136" lon="-6.297598024830222">
        <ele>30.420000000000002</ele>
        <time>2019-09-05T12:32:51Z</time>
      </trkpt>
      <trkpt lat="57.45411898009479" lon="-6.297605987638235">
        <ele>29.460000000000001</ele>
        <time>2019-09-05T12:32:52Z</time>
      </trkpt>
      <trkpt lat="57.454028958454728" lon="-6.297627026215196">
        <ele>28.98</ele>
        <time>2019-09-05T12:32:53Z</time>
      </trkpt>
      <trkpt lat="57.453957041725516" lon="-6.297668013721705">
        <ele>28.02</ele>
        <time>2019-09-05T12:32:54Z</time>
      </trkpt>
      <trkpt lat="57.453894009813666" lon="-6.297709001228213">
        <ele>27.050000000000001</ele>
        <time>2019-09-05T12:32:55Z</time>
      </trkpt>
      <trkpt lat="57.453844975680113" lon="-6.297758035361767">
        <ele>26.09</ele>
        <time>2019-09-05T12:32:56Z</time>
      </trkpt>
      <trkpt lat="57.453573988750577" lon="-6.297856019809842">
        <ele>20.32</ele>
        <time>2019-09-05T12:33:05Z</time>
      </trkpt>
      <trkpt lat="57.453466029837728" lon="-6.297914022579789">
        <ele>18.879999999999999</ele>
        <time>2019-09-05T12:33:08Z</time>
      </trkpt>
      <trkpt lat="57.453440967947245" lon="-6.298031033948064">
        <ele>18.879999999999999</ele>
        <time>2019-09-05T12:33:09Z</time>
      </trkpt>
      <trkpt lat="57.4534070212394" lon="-6.298186015337706">
        <ele>18.399999999999999</ele>
        <time>2019-09-05T12:33:10Z</time>
      </trkpt>
      <trkpt lat="57.453367961570621" lon="-6.298365974798799">
        <ele>18.399999999999999</ele>
        <time>2019-09-05T12:33:11Z</time>
      </trkpt>
      <trkpt lat="57.453323034569621" lon="-6.298575019463897">
        <ele>18.399999999999999</ele>
        <time>2019-09-05T12:33:12Z</time>
      </trkpt>
      <trkpt lat="57.452712999656796" lon="-6.30010899156332">
        <ele>17.920000000000002</ele>
        <time>2019-09-05T12:33:18Z</time>
      </trkpt>
      <trkpt lat="57.451958963647485" lon="-6.302045965567231">
        <ele>18.879999999999999</ele>
        <time>2019-09-05T12:33:24Z</time>
      </trkpt>
      <trkpt lat="57.451598960906267" lon="-6.304241018369794">
        <ele>20.32</ele>
        <time>2019-09-05T12:33:30Z</time>
      </trkpt>
      <trkpt lat="57.451642965897918" lon="-6.306598009541631">
        <ele>21.77</ele>
        <time>2019-09-05T12:33:37Z</time>
      </trkpt>
      <trkpt lat="57.451771963387728" lon="-6.307598976418376">
        <ele>21.289999999999999</ele>
        <time>2019-09-05T12:33:40Z</time>
      </trkpt>
      <trkpt lat="57.452571010217071" lon="-6.311032036319375">
        <ele>19.84</ele>
        <time>2019-09-05T12:33:51Z</time>
      </trkpt>
      <trkpt lat="57.453553033992648" lon="-6.314712027087808">
        <ele>20.809999999999999</ele>
        <time>2019-09-05T12:34:03Z</time>
      </trkpt>
      <trkpt lat="57.454972006380558" lon="-6.319158039987087">
        <ele>14.08</ele>
        <time>2019-09-05T12:34:18Z</time>
      </trkpt>
      <trkpt lat="57.455847999081016" lon="-6.322165969759226">
        <ele>15.039999999999999</ele>
        <time>2019-09-05T12:34:28Z</time>
      </trkpt>
      <trkpt lat="57.456728015094995" lon="-6.32498798891902">
        <ele>14.56</ele>
        <time>2019-09-05T12:34:37Z</time>
      </trkpt>
      <trkpt lat="57.457866026088595" lon="-6.327002998441458">
        <ele>15.039999999999999</ele>
        <time>2019-09-05T12:34:45Z</time>
      </trkpt>
      <trkpt lat="57.459566965699196" lon="-6.328827990218997">
        <ele>22.25</ele>
        <time>2019-09-05T12:34:55Z</time>
      </trkpt>
      <trkpt lat="57.461804011836648" lon="-6.330823972821236">
        <ele>32.340000000000003</ele>
        <time>2019-09-05T12:35:07Z</time>
      </trkpt>
      <trkpt lat="57.463705027475953" lon="-6.33302397094667">
        <ele>39.07</ele>
        <time>2019-09-05T12:35:18Z</time>
      </trkpt>
      <trkpt lat="57.465063985437155" lon="-6.334027033299208">
        <ele>38.590000000000003</ele>
        <time>2019-09-05T12:35:25Z</time>
      </trkpt>
      <trkpt lat="57.467584004625678" lon="-6.335572991520166">
        <ele>33.780000000000001</ele>
        <time>2019-09-05T12:35:38Z</time>
      </trkpt>
      <trkpt lat="57.470507025718689" lon="-6.337699983268976">
        <ele>35.229999999999997</ele>
        <time>2019-09-05T12:35:53Z</time>
      </trkpt>
      <trkpt lat="57.472563022747636" lon="-6.339574009180069">
        <ele>39.549999999999997</ele>
        <time>2019-09-05T12:36:04Z</time>
      </trkpt>
      <trkpt lat="57.474339986220002" lon="-6.340961968526244">
        <ele>37.149999999999999</ele>
        <time>2019-09-05T12:36:13Z</time>
      </trkpt>
      <trkpt lat="57.477023033425212" lon="-6.342416983097792">
        <ele>22.25</ele>
        <time>2019-09-05T12:36:26Z</time>
      </trkpt>
      <trkpt lat="57.47850202023983" lon="-6.344069978222251">
        <ele>15.039999999999999</ele>
        <time>2019-09-05T12:36:34Z</time>
      </trkpt>
      <trkpt lat="57.479134015738964" lon="-6.345164990052581">
        <ele>13.6</ele>
        <time>2019-09-05T12:36:38Z</time>
      </trkpt>
      <trkpt lat="57.479315986856818" lon="-6.345394989475608">
        <ele>13.6</ele>
        <time>2019-09-05T12:36:39Z</time>
      </trkpt>
      <trkpt lat="57.479502987116575" lon="-6.345600010827184">
        <ele>13.119999999999999</ele>
        <time>2019-09-05T12:36:40Z</time>
      </trkpt>
      <trkpt lat="57.479694010689855" lon="-6.345787011086941">
        <ele>12.630000000000001</ele>
        <time>2019-09-05T12:36:41Z</time>
      </trkpt>
      <trkpt lat="57.479897020384669" lon="-6.345936041325331">
        <ele>12.15</ele>
        <time>2019-09-05T12:36:42Z</time>
      </trkpt>
      <trkpt lat="57.480101035907865" lon="-6.34608599357307">
        <ele>12.15</ele>
        <time>2019-09-05T12:36:43Z</time>
      </trkpt>
      <trkpt lat="57.481969026848674" lon="-6.34746003895998">
        <ele>8.789999999999999</ele>
        <time>2019-09-05T12:36:51Z</time>
      </trkpt>
      <trkpt lat="57.485068989917636" lon="-6.349897999316454">
        <ele>14.08</ele>
        <time>2019-09-05T12:37:03Z</time>
      </trkpt>
      <trkpt lat="57.487217020243406" lon="-6.352052986621857">
        <ele>27.050000000000001</ele>
        <time>2019-09-05T12:37:12Z</time>
      </trkpt>
      <trkpt lat="57.488713022321463" lon="-6.353572960942984">
        <ele>34.740000000000002</ele>
        <time>2019-09-05T12:37:19Z</time>
      </trkpt>
      <trkpt lat="57.491090968251228" lon="-6.356299007311463">
        <ele>49.649999999999999</ele>
        <time>2019-09-05T12:37:32Z</time>
      </trkpt>
      <trkpt lat="57.492081038653851" lon="-6.35846103541553">
        <ele>54.93</ele>
        <time>2019-09-05T12:37:39Z</time>
      </trkpt>
      <trkpt lat="57.493400014936924" lon="-6.361747998744249">
        <ele>63.100000000000001</ele>
        <time>2019-09-05T12:37:49Z</time>
      </trkpt>
      <trkpt lat="57.495202962309122" lon="-6.366015980020165">
        <ele>52.049999999999997</ele>
        <time>2019-09-05T12:38:02Z</time>
      </trkpt>
      <trkpt lat="57.495930008590221" lon="-6.368461987003684">
        <ele>40.509999999999998</ele>
        <time>2019-09-05T12:38:09Z</time>
      </trkpt>
      <trkpt lat="57.495956998318434" lon="-6.368830036371946">
        <ele>38.590000000000003</ele>
        <time>2019-09-05T12:38:10Z</time>
      </trkpt>
      <trkpt lat="57.495982982218266" lon="-6.36918400414288">
        <ele>37.149999999999999</ele>
        <time>2019-09-05T12:38:11Z</time>
      </trkpt>
      <trkpt lat="57.495998991653323" lon="-6.369533026590943">
        <ele>35.710000000000001</ele>
        <time>2019-09-05T12:38:12Z</time>
      </trkpt>
      <trkpt lat="57.495964039117098" lon="-6.369863022118807">
        <ele>34.259999999999998</ele>
        <time>2019-09-05T12:38:13Z</time>
      </trkpt>
      <trkpt lat="57.495930008590221" lon="-6.370188994333148">
        <ele>32.82</ele>
        <time>2019-09-05T12:38:14Z</time>
      </trkpt>
      <trkpt lat="57.495895978063345" lon="-6.370510021224618">
        <ele>31.379999999999999</ele>
        <time>2019-09-05T12:38:15Z</time>
      </trkpt>
      <trkpt lat="57.495855996385217" lon="-6.370832975953817">
        <ele>29.940000000000001</ele>
        <time>2019-09-05T12:38:16Z</time>
      </trkpt>
      <trkpt lat="57.495534969493747" lon="-6.373186027631164">
        <ele>20.32</ele>
        <time>2019-09-05T12:38:23Z</time>
      </trkpt>
      <trkpt lat="57.495546033605933" lon="-6.373547958210111">
        <ele>19.359999999999999</ele>
        <time>2019-09-05T12:38:24Z</time>
      </trkpt>
      <trkpt lat="57.49556397087872" lon="-6.373901003971696">
        <ele>18.399999999999999</ele>
        <time>2019-09-05T12:38:25Z</time>
      </trkpt>
      <trkpt lat="57.495611999183893" lon="-6.374236028641462">
        <ele>17.920000000000002</ele>
        <time>2019-09-05T12:38:26Z</time>
      </trkpt>
      <trkpt lat="57.495672013610601" lon="-6.374569041654468">
        <ele>17.440000000000001</ele>
        <time>2019-09-05T12:38:27Z</time>
      </trkpt>
      <trkpt lat="57.495740996673703" lon="-6.374885961413384">
        <ele>16.48</ele>
        <time>2019-09-05T12:38:28Z</time>
      </trkpt>
      <trkpt lat="57.495825989171863" lon="-6.375192990526557">
        <ele>16.48</ele>
        <time>2019-09-05T12:38:29Z</time>
      </trkpt>
      <trkpt lat="57.495917016640306" lon="-6.375463977456093">
        <ele>16</ele>
        <time>2019-09-05T12:38:30Z</time>
      </trkpt>
      <trkpt lat="57.496028998866677" lon="-6.375710992142558">
        <ele>16</ele>
        <time>2019-09-05T12:38:31Z</time>
      </trkpt>
      <trkpt lat="57.496137963607907" lon="-6.375949960201979">
        <ele>16</ele>
        <time>2019-09-05T12:38:32Z</time>
      </trkpt>
      <trkpt lat="57.496250029653311" lon="-6.376152969896793">
        <ele>16.48</ele>
        <time>2019-09-05T12:38:33Z</time>
      </trkpt>
      <trkpt lat="57.496382966637611" lon="-6.376329995691776">
        <ele>16.48</ele>
        <time>2019-09-05T12:38:34Z</time>
      </trkpt>
      <trkpt lat="57.496519004926085" lon="-6.37651096098125">
        <ele>16.960000000000001</ele>
        <time>2019-09-05T12:38:35Z</time>
      </trkpt>
      <trkpt lat="57.49665797688067" lon="-6.376693015918136">
        <ele>16.960000000000001</ele>
        <time>2019-09-05T12:38:36Z</time>
      </trkpt>
      <trkpt lat="57.498068986460567" lon="-6.378240985795856">
        <ele>22.25</ele>
        <time>2019-09-05T12:38:45Z</time>
      </trkpt>
      <trkpt lat="57.499503968283534" lon="-6.380693027749658">
        <ele>33.299999999999997</ele>
        <time>2019-09-05T12:38:55Z</time>
      </trkpt>
      <trkpt lat="57.500500995665789" lon="-6.383732976391912">
        <ele>42.920000000000002</ele>
        <time>2019-09-05T12:39:05Z</time>
      </trkpt>
      <trkpt lat="57.500995025038719" lon="-6.387043995782733">
        <ele>44.840000000000003</ele>
        <time>2019-09-05T12:39:14Z</time>
      </trkpt>
      <trkpt lat="57.50099997036159" lon="-6.390330959111452">
        <ele>42.439999999999998</ele>
        <time>2019-09-05T12:39:22Z</time>
      </trkpt>
      <trkpt lat="57.500556986778975" lon="-6.393549023196101">
        <ele>44.359999999999999</ele>
        <time>2019-09-05T12:39:30Z</time>
      </trkpt>
      <trkpt lat="57.499778978526592" lon="-6.398484958335757">
        <ele>43.880000000000003</ele>
        <time>2019-09-05T12:39:43Z</time>
      </trkpt>
      <trkpt lat="57.499220995232463" lon="-6.403070027008653">
        <ele>30.899999999999999</ele>
        <time>2019-09-05T12:39:55Z</time>
      </trkpt>
      <trkpt lat="57.498334022238851" lon="-6.406543990597129">
        <ele>20.32</ele>
        <time>2019-09-05T12:40:05Z</time>
      </trkpt>
      <trkpt lat="57.497243033722043" lon="-6.409248998388648">
        <ele>26.09</ele>
        <time>2019-09-05T12:40:14Z</time>
      </trkpt>
      <trkpt lat="57.495699003338814" lon="-6.412936029955745">
        <ele>38.109999999999999</ele>
        <time>2019-09-05T12:40:26Z</time>
      </trkpt>
      <trkpt lat="57.493805028498173" lon="-6.418566992506385">
        <ele>45.32</ele>
        <time>2019-09-05T12:40:43Z</time>
      </trkpt>
      <trkpt lat="57.492605997249484" lon="-6.421270994469523">
        <ele>48.200000000000003</ele>
        <time>2019-09-05T12:40:52Z</time>
      </trkpt>
      <trkpt lat="57.491506962105632" lon="-6.422834973782301">
        <ele>45.799999999999997</ele>
        <time>2019-09-05T12:40:59Z</time>
      </trkpt>
      <trkpt lat="57.490715961903334" lon="-6.424718974158168">
        <ele>38.109999999999999</ele>
        <time>2019-09-05T12:41:06Z</time>
      </trkpt>
      <trkpt lat="57.489742990583181" lon="-6.426142975687981">
        <ele>33.299999999999997</ele>
        <time>2019-09-05T12:41:13Z</time>
      </trkpt>
      <trkpt lat="57.487712977454066" lon="-6.428185980767012">
        <ele>28.5</ele>
        <time>2019-09-05T12:41:25Z</time>
      </trkpt>
      <trkpt lat="57.485178960487247" lon="-6.430439036339521">
        <ele>26.09</ele>
        <time>2019-09-05T12:41:39Z</time>
      </trkpt>
      <trkpt lat="57.483576005324721" lon="-6.431343024596572">
        <ele>31.379999999999999</ele>
        <time>2019-09-05T12:41:48Z</time>
      </trkpt>
      <trkpt lat="57.481933990493417" lon="-6.431389041244984">
        <ele>33.299999999999997</ele>
        <time>2019-09-05T12:41:56Z</time>
      </trkpt>
      <trkpt lat="57.479139966890216" lon="-6.431033983826637">
        <ele>31.379999999999999</ele>
        <time>2019-09-05T12:42:10Z</time>
      </trkpt>
      <trkpt lat="57.476290035992861" lon="-6.431046975776553">
        <ele>19.84</ele>
        <time>2019-09-05T12:42:24Z</time>
      </trkpt>
      <trkpt lat="57.473357040435076" lon="-6.431003976613283">
        <ele>10.710000000000001</ele>
        <time>2019-09-05T12:42:38Z</time>
      </trkpt>
      <trkpt lat="57.471914011985064" lon="-6.430607009679079">
        <ele>9.27</ele>
        <time>2019-09-05T12:42:45Z</time>
      </trkpt>
      <trkpt lat="57.471707984805107" lon="-6.430607009679079">
        <ele>9.27</ele>
        <time>2019-09-05T12:42:46Z</time>
      </trkpt>
      <trkpt lat="57.471506986767054" lon="-6.430696025490761">
        <ele>9.27</ele>
        <time>2019-09-05T12:42:47Z</time>
      </trkpt>
      <trkpt lat="57.471306994557381" lon="-6.43080398440361">
        <ele>9.27</ele>
        <time>2019-09-05T12:42:48Z</time>
      </trkpt>
      <trkpt lat="57.471114965155721" lon="-6.430943040177226">
        <ele>8.789999999999999</ele>
        <time>2019-09-05T12:42:49Z</time>
      </trkpt>
      <trkpt lat="57.470947997644544" lon="-6.43116801045835">
        <ele>8.310000000000001</ele>
        <time>2019-09-05T12:42:50Z</time>
      </trkpt>
      <trkpt lat="57.470792010426521" lon="-6.431378982961178">
        <ele>8.310000000000001</ele>
        <time>2019-09-05T12:42:51Z</time>
      </trkpt>
      <trkpt lat="57.470647003501654" lon="-6.431680982932448">
        <ele>7.83</ele>
        <time>2019-09-05T12:42:52Z</time>
      </trkpt>
      <trkpt lat="57.470509959384799" lon="-6.431963033974171">
        <ele>7.35</ele>
        <time>2019-09-05T12:42:53Z</time>
      </trkpt>
      <trkpt lat="57.47042203322053" lon="-6.432310966774821">
        <ele>7.35</ele>
        <time>2019-09-05T12:42:54Z</time>
      </trkpt>
      <trkpt lat="57.470342991873622" lon="-6.432662000879645">
        <ele>7.35</ele>
        <time>2019-09-05T12:42:55Z</time>
      </trkpt>
      <trkpt lat="57.470288006588817" lon="-6.433033989742398">
        <ele>7.83</ele>
        <time>2019-09-05T12:42:56Z</time>
      </trkpt>
      <trkpt lat="57.470266968011856" lon="-6.433412013575435">
        <ele>7.83</ele>
        <time>2019-09-05T12:42:57Z</time>
      </trkpt>
      <trkpt lat="57.470269985496998" lon="-6.433791965246201">
        <ele>8.310000000000001</ele>
        <time>2019-09-05T12:42:58Z</time>
      </trkpt>
      <trkpt lat="57.470305021852255" lon="-6.434163032099605">
        <ele>8.789999999999999</ele>
        <time>2019-09-05T12:42:59Z</time>
      </trkpt>
      <trkpt lat="57.470368975773454" lon="-6.434510964900255">
        <ele>9.75</ele>
        <time>2019-09-05T12:43:00Z</time>
      </trkpt>
      <trkpt lat="57.470454974099994" lon="-6.434846995398402">
        <ele>9.75</ele>
        <time>2019-09-05T12:43:01Z</time>
      </trkpt>
      <trkpt lat="57.470540972426534" lon="-6.43518503755331">
        <ele>10.23</ele>
        <time>2019-09-05T12:43:02Z</time>
      </trkpt>
      <trkpt lat="57.470627976581454" lon="-6.435524001717567">
        <ele>10.710000000000001</ele>
        <time>2019-09-05T12:43:03Z</time>
      </trkpt>
      <trkpt lat="57.471534982323647" lon="-6.439413037151098">
        <ele>17.920000000000002</ele>
        <time>2019-09-05T12:43:14Z</time>
      </trkpt>
      <trkpt lat="57.472197990864515" lon="-6.443896014243364">
        <ele>28.98</ele>
        <time>2019-09-05T12:43:26Z</time>
      </trkpt>
      <trkpt lat="57.472470989450812" lon="-6.448500026017427">
        <ele>40.030000000000001</ele>
        <time>2019-09-05T12:43:38Z</time>
      </trkpt>
      <trkpt lat="57.472351966425776" lon="-6.453176038339734">
        <ele>45.32</ele>
        <time>2019-09-05T12:43:50Z</time>
      </trkpt>
      <trkpt lat="57.471848968416452" lon="-6.458516987040639">
        <ele>50.609999999999999</ele>
        <time>2019-09-05T12:44:04Z</time>
      </trkpt>
      <trkpt lat="57.471407996490598" lon="-6.463890038430691">
        <ele>57.340000000000003</ele>
        <time>2019-09-05T12:44:18Z</time>
      </trkpt>
      <trkpt lat="57.470998959615827" lon="-6.469739014282823">
        <ele>50.130000000000003</ele>
        <time>2019-09-05T12:44:33Z</time>
      </trkpt>
      <trkpt lat="57.470304016023874" lon="-6.473339963704348">
        <ele>47.719999999999999</ele>
        <time>2019-09-05T12:44:43Z</time>
      </trkpt>
      <trkpt lat="57.469203975051641" lon="-6.476076990365982">
        <ele>55.890000000000001</ele>
        <time>2019-09-05T12:44:52Z</time>
      </trkpt>
      <trkpt lat="57.467710990458727" lon="-6.47819702513516">
        <ele>66.469999999999999</ele>
        <time>2019-09-05T12:45:01Z</time>
      </trkpt>
      <trkpt lat="57.466657971963286" lon="-6.480586035177112">
        <ele>75.599999999999994</ele>
        <time>2019-09-05T12:45:09Z</time>
      </trkpt>
      <trkpt lat="57.465067002922297" lon="-6.485134977847338">
        <ele>93.390000000000001</ele>
        <time>2019-09-05T12:45:23Z</time>
      </trkpt>
      <trkpt lat="57.464256975799799" lon="-6.488309958949685">
        <ele>103</ele>
        <time>2019-09-05T12:45:32Z</time>
      </trkpt>
      <trkpt lat="57.464023036882281" lon="-6.491450993344188">
        <ele>111.65000000000001</ele>
        <time>2019-09-05T12:45:40Z</time>
      </trkpt>
      <trkpt lat="57.464013984426856" lon="-6.495453016832471">
        <ele>121.73999999999999</ele>
        <time>2019-09-05T12:45:50Z</time>
      </trkpt>
      <trkpt lat="57.463539987802505" lon="-6.498148972168565">
        <ele>128.94999999999999</ele>
        <time>2019-09-05T12:45:57Z</time>
      </trkpt>
      <trkpt lat="57.463217033073306" lon="-6.500883987173438">
        <ele>137.13</ele>
        <time>2019-09-05T12:46:04Z</time>
      </trkpt>
      <trkpt lat="57.463447032496333" lon="-6.503245001658797">
        <ele>144.81999999999999</ele>
        <time>2019-09-05T12:46:10Z</time>
      </trkpt>
      <trkpt lat="57.464274996891618" lon="-6.506161987781525">
        <ele>154.43000000000001</ele>
        <time>2019-09-05T12:46:18Z</time>
      </trkpt>
      <trkpt lat="57.46625698171556" lon="-6.512558972463012">
        <ele>168.84999999999999</ele>
        <time>2019-09-05T12:46:36Z</time>
      </trkpt>
      <trkpt lat="57.467752983793616" lon="-6.518078036606312">
        <ele>167.41</ele>
        <time>2019-09-05T12:46:51Z</time>
      </trkpt>
      <trkpt lat="57.468652026727796" lon="-6.523139029741287">
        <ele>156.34999999999999</ele>
        <time>2019-09-05T12:47:04Z</time>
      </trkpt>
      <trkpt lat="57.469245968386531" lon="-6.52787497267127">
        <ele>142.88999999999999</ele>
        <time>2019-09-05T12:47:16Z</time>
      </trkpt>
      <trkpt lat="57.469034995883703" lon="-6.531097982078791">
        <ele>135.68000000000001</ele>
        <time>2019-09-05T12:47:24Z</time>
      </trkpt>
      <trkpt lat="57.46898596175015" lon="-6.534363990649581">
        <ele>124.63</ele>
        <time>2019-09-05T12:47:32Z</time>
      </trkpt>
      <trkpt lat="57.469388041645288" lon="-6.536696003749967">
        <ele>114.53</ele>
        <time>2019-09-05T12:47:38Z</time>
      </trkpt>
      <trkpt lat="57.469440009444952" lon="-6.537092970684171">
        <ele>112.61</ele>
        <time>2019-09-05T12:47:39Z</time>
      </trkpt>
      <trkpt lat="57.469440009444952" lon="-6.537495972588658">
        <ele>110.69</ele>
        <time>2019-09-05T12:47:40Z</time>
      </trkpt>
      <trkpt lat="57.469440009444952" lon="-6.537899980321527">
        <ele>108.77</ele>
        <time>2019-09-05T12:47:41Z</time>
      </trkpt>
      <trkpt lat="57.469404973089695" lon="-6.538289990276098">
        <ele>107.31999999999999</ele>
        <time>2019-09-05T12:47:42Z</time>
      </trkpt>
      <trkpt lat="57.469336995854974" lon="-6.538671031594276">
        <ele>105.88</ele>
        <time>2019-09-05T12:47:43Z</time>
      </trkpt>
      <trkpt lat="57.469271030277014" lon="-6.539048971608281">
        <ele>104.92</ele>
        <time>2019-09-05T12:47:44Z</time>
      </trkpt>
      <trkpt lat="57.469173967838287" lon="-6.539392964914441">
        <ele>103.48</ele>
        <time>2019-09-05T12:47:45Z</time>
      </trkpt>
      <trkpt lat="57.469057040289044" lon="-6.539726983755827">
        <ele>103</ele>
        <time>2019-09-05T12:47:46Z</time>
      </trkpt>
      <trkpt lat="57.46894103474915" lon="-6.540061002597213">
        <ele>102.04000000000001</ele>
        <time>2019-09-05T12:47:47Z</time>
      </trkpt>
      <trkpt lat="57.468795021995902" lon="-6.540342969819903">
        <ele>101.56</ele>
        <time>2019-09-05T12:47:48Z</time>
      </trkpt>
      <trkpt lat="57.46864196844399" lon="-6.540620997548103">
        <ele>101.56</ele>
        <time>2019-09-05T12:47:49Z</time>
      </trkpt>
      <trkpt lat="57.468475000932813" lon="-6.540862983092666">
        <ele>102.04000000000001</ele>
        <time>2019-09-05T12:47:50Z</time>
      </trkpt>
      <trkpt lat="57.468303004279733" lon="-6.541049983352423">
        <ele>102.52</ele>
        <time>2019-09-05T12:47:51Z</time>
      </trkpt>
      <trkpt lat="57.468095971271396" lon="-6.541200019419193">
        <ele>103</ele>
        <time>2019-09-05T12:47:52Z</time>
      </trkpt>
      <trkpt lat="57.467903019860387" lon="-6.541339997202158">
        <ele>103.95999999999999</ele>
        <time>2019-09-05T12:47:53Z</time>
      </trkpt>
      <trkpt lat="57.467701015993953" lon="-6.54143001884222">
        <ele>104.92</ele>
        <time>2019-09-05T12:47:54Z</time>
      </trkpt>
      <trkpt lat="57.467492977157235" lon="-6.541491039097309">
        <ele>105.88</ele>
        <time>2019-09-05T12:47:55Z</time>
      </trkpt>
      <trkpt lat="57.467284016311169" lon="-6.541551975533366">
        <ele>107.31999999999999</ele>
        <time>2019-09-05T12:47:56Z</time>
      </trkpt>
      <trkpt lat="57.464468032121658" lon="-6.542124040424824">
        <ele>121.73999999999999</ele>
        <time>2019-09-05T12:48:09Z</time>
      </trkpt>
      <trkpt lat="57.462266022339463" lon="-6.542425034567714">
        <ele>124.63</ele>
        <time>2019-09-05T12:48:19Z</time>
      </trkpt>
      <trkpt lat="57.460102988407016" lon="-6.541512999683619">
        <ele>122.70999999999999</ele>
        <time>2019-09-05T12:48:29Z</time>
      </trkpt>
      <trkpt lat="57.458335999399424" lon="-6.541729001328349">
        <ele>119.81999999999999</ele>
        <time>2019-09-05T12:48:37Z</time>
      </trkpt>
      <trkpt lat="57.454858012497425" lon="-6.542613040655851">
        <ele>109.25</ele>
        <time>2019-09-05T12:48:53Z</time>
      </trkpt>
      <trkpt lat="57.452057031914592" lon="-6.543577965348959">
        <ele>102.04000000000001</ele>
        <time>2019-09-05T12:49:06Z</time>
      </trkpt>
      <trkpt lat="57.449421007186174" lon="-6.543663963675499">
        <ele>92.420000000000002</ele>
        <time>2019-09-05T12:49:18Z</time>
      </trkpt>
      <trkpt lat="57.447773041203618" lon="-6.542661990970373">
        <ele>91.939999999999998</ele>
        <time>2019-09-05T12:49:26Z</time>
      </trkpt>
      <trkpt lat="57.447129981592298" lon="-6.542382035404444">
        <ele>91.459999999999994</ele>
        <time>2019-09-05T12:49:29Z</time>
      </trkpt>
      <trkpt lat="57.446910962462425" lon="-6.542341969907284">
        <ele>90.980000000000004</ele>
        <time>2019-09-05T12:49:30Z</time>
      </trkpt>
      <trkpt lat="57.445370033383369" lon="-6.542618991807103">
        <ele>85.689999999999998</ele>
        <time>2019-09-05T12:49:37Z</time>
      </trkpt>
      <trkpt lat="57.442135959863663" lon="-6.543826991692185">
        <ele>67.909999999999997</ele>
        <time>2019-09-05T12:49:52Z</time>
      </trkpt>
      <trkpt lat="57.441062992438674" lon="-6.545163989067078">
        <ele>63.579999999999998</ele>
        <time>2019-09-05T12:49:58Z</time>
      </trkpt>
      <trkpt lat="57.440392021089792" lon="-6.54718897305429">
        <ele>61.659999999999997</ele>
        <time>2019-09-05T12:50:04Z</time>
      </trkpt>
      <trkpt lat="57.439475040882826" lon="-6.552605023607612">
        <ele>59.740000000000002</ele>
        <time>2019-09-05T12:50:18Z</time>
      </trkpt>
      <trkpt lat="57.438874980434775" lon="-6.556931007653475">
        <ele>57.82</ele>
        <time>2019-09-05T12:50:29Z</time>
      </trkpt>
      <trkpt lat="57.438983023166656" lon="-6.559678008779883">
        <ele>56.369999999999997</ele>
        <time>2019-09-05T12:50:36Z</time>
      </trkpt>
      <trkpt lat="57.439071033149958" lon="-6.561822015792131">
        <ele>53.969999999999999</ele>
        <time>2019-09-05T12:50:42Z</time>
      </trkpt>
      <trkpt lat="57.439021999016404" lon="-6.562168020755053">
        <ele>53.009999999999998</ele>
        <time>2019-09-05T12:50:43Z</time>
      </trkpt>
      <trkpt lat="57.438960978761315" lon="-6.562517965212464">
        <ele>52.049999999999997</ele>
        <time>2019-09-05T12:50:44Z</time>
      </trkpt>
      <trkpt lat="57.438342981040478" lon="-6.565376026555896">
        <ele>47.719999999999999</ele>
        <time>2019-09-05T12:50:53Z</time>
      </trkpt>
      <trkpt lat="57.437662035226822" lon="-6.56880103982985">
        <ele>46.280000000000001</ele>
        <time>2019-09-05T12:51:05Z</time>
      </trkpt>
      <trkpt lat="57.437260039150715" lon="-6.571373026818037">
        <ele>41.950000000000003</ele>
        <time>2019-09-05T12:51:15Z</time>
      </trkpt>
      <trkpt lat="57.436754023656249" lon="-6.574781024828553">
        <ele>34.259999999999998</ele>
        <time>2019-09-05T12:51:29Z</time>
      </trkpt>
      <trkpt lat="57.436538022011518" lon="-6.577065009623766">
        <ele>28.02</ele>
        <time>2019-09-05T12:51:39Z</time>
      </trkpt>
      <trkpt lat="57.436555037274957" lon="-6.5801249910146">
        <ele>16</ele>
        <time>2019-09-05T12:51:52Z</time>
      </trkpt>
      <trkpt lat="57.436609016731381" lon="-6.580577027052641">
        <ele>14.56</ele>
        <time>2019-09-05T12:51:54Z</time>
      </trkpt>
      <trkpt lat="57.437012018635869" lon="-6.581887034699321">
        <ele>8.789999999999999</ele>
        <time>2019-09-05T12:52:01Z</time>
      </trkpt>
      <trkpt lat="57.437096005305648" lon="-6.582048973068595">
        <ele>8.310000000000001</ele>
        <time>2019-09-05T12:52:02Z</time>
      </trkpt>
      <trkpt lat="57.437350982800126" lon="-6.582468990236521">
        <ele>6.87</ele>
        <time>2019-09-05T12:52:05Z</time>
      </trkpt>
      <trkpt lat="57.437442010268569" lon="-6.582589019089937">
        <ele>6.87</ele>
        <time>2019-09-05T12:52:06Z</time>
      </trkpt>
      <trkpt lat="57.437535971403122" lon="-6.582711981609464">
        <ele>6.87</ele>
        <time>2019-09-05T12:52:07Z</time>
      </trkpt>
      <trkpt lat="57.438731985166669" lon="-6.583758965134621">
        <ele>7.35</ele>
        <time>2019-09-05T12:52:18Z</time>
      </trkpt>
      <trkpt lat="57.439557015895844" lon="-6.584571003913879">
        <ele>6.39</ele>
        <time>2019-09-05T12:52:25Z</time>
      </trkpt>
      <trkpt lat="57.439667992293835" lon="-6.584746018052101">
        <ele>5.91</ele>
        <time>2019-09-05T12:52:26Z</time>
      </trkpt>
      <trkpt lat="57.440510960295796" lon="-6.58657000400126">
        <ele>6.39</ele>
        <time>2019-09-05T12:52:36Z</time>
      </trkpt>
      <trkpt lat="57.4410339910537" lon="-6.587501987814903">
        <ele>6.87</ele>
        <time>2019-09-05T12:52:42Z</time>
      </trkpt>
      <trkpt lat="57.442074017599225" lon="-6.588914003223181">
        <ele>9.27</ele>
        <time>2019-09-05T12:52:53Z</time>
      </trkpt>
      <trkpt lat="57.443136004731059" lon="-6.58996501006186">
        <ele>15.039999999999999</ele>
        <time>2019-09-05T12:53:02Z</time>
      </trkpt>
      <trkpt lat="57.443788032978773" lon="-6.59026499837637">
        <ele>17.920000000000002</ele>
        <time>2019-09-05T12:53:07Z</time>
      </trkpt>
      <trkpt lat="57.443923987448215" lon="-6.590258963406086">
        <ele>18.399999999999999</ele>
        <time>2019-09-05T12:53:08Z</time>
      </trkpt>
      <trkpt lat="57.444047033786774" lon="-6.590241026133299">
        <ele>18.879999999999999</ele>
        <time>2019-09-05T12:53:09Z</time>
      </trkpt>
      <trkpt lat="57.4441699963063" lon="-6.590224010869861">
        <ele>19.359999999999999</ele>
        <time>2019-09-05T12:53:10Z</time>
      </trkpt>
      <trkpt lat="57.44429899379611" lon="-6.590186962857842">
        <ele>19.359999999999999</ele>
        <time>2019-09-05T12:53:11Z</time>
      </trkpt>
      <trkpt lat="57.445042971521616" lon="-6.589543987065554">
        <ele>21.77</ele>
        <time>2019-09-05T12:53:17Z</time>
      </trkpt>
      <trkpt lat="57.445142967626452" lon="-6.589377019554377">
        <ele>22.25</ele>
        <time>2019-09-05T12:53:18Z</time>
      </trkpt>
      <trkpt lat="57.446067994460464" lon="-6.587482038885355">
        <ele>25.609999999999999</ele>
        <time>2019-09-05T12:53:28Z</time>
      </trkpt>
      <trkpt lat="57.44633998721838" lon="-6.587028997018933">
        <ele>25.609999999999999</ele>
        <time>2019-09-05T12:53:31Z</time>
      </trkpt>
      <trkpt lat="57.446437971666455" lon="-6.586942998692393">
        <ele>26.09</ele>
        <time>2019-09-05T12:53:32Z</time>
      </trkpt>
      <trkpt lat="57.446538973599672" lon="-6.586863035336137">
        <ele>26.09</ele>
        <time>2019-09-05T12:53:33Z</time>
      </trkpt>
      <trkpt lat="57.446737959980965" lon="-6.586738983169198">
        <ele>26.57</ele>
        <time>2019-09-05T12:53:35Z</time>
      </trkpt>
      <trkpt lat="57.447038032114506" lon="-6.586668994277716">
        <ele>26.57</ele>
        <time>2019-09-05T12:53:39Z</time>
      </trkpt>
      <trkpt lat="57.447153031826019" lon="-6.586668994277716">
        <ele>26.09</ele>
        <time>2019-09-05T12:53:40Z</time>
      </trkpt>
      <trkpt lat="57.447206005454063" lon="-6.586668994277716">
        <ele>26.09</ele>
        <time>2019-09-05T12:53:41Z</time>
      </trkpt>
      <trkpt lat="57.447256967425346" lon="-6.586668994277716">
        <ele>26.09</ele>
        <time>2019-09-05T12:53:42Z</time>
      </trkpt>
      <trkpt lat="57.447308013215661" lon="-6.586668994277716">
        <ele>26.09</ele>
        <time>2019-09-05T12:53:43Z</time>
      </trkpt>
      <trkpt lat="57.447359981015325" lon="-6.586668994277716">
        <ele>25.609999999999999</ele>
        <time>2019-09-05T12:53:44Z</time>
      </trkpt>
      <trkpt lat="57.447429969906807" lon="-6.586686009541154">
        <ele>25.129999999999999</ele>
        <time>2019-09-05T12:53:46Z</time>
      </trkpt>
      <trkpt lat="57.447469029575586" lon="-6.586695984005928">
        <ele>25.129999999999999</ele>
        <time>2019-09-05T12:53:47Z</time>
      </trkpt>
      <trkpt lat="57.447513034567237" lon="-6.586706964299083">
        <ele>24.649999999999999</ele>
        <time>2019-09-05T12:53:48Z</time>
      </trkpt>
      <trkpt lat="57.447556033730507" lon="-6.586717022582889">
        <ele>24.170000000000002</ele>
        <time>2019-09-05T12:53:49Z</time>
      </trkpt>
      <trkpt lat="57.447601966559887" lon="-6.586729008704424">
        <ele>24.170000000000002</ele>
        <time>2019-09-05T12:53:50Z</time>
      </trkpt>
      <trkpt lat="57.447642032057047" lon="-6.586738983169198">
        <ele>23.690000000000001</ele>
        <time>2019-09-05T12:53:51Z</time>
      </trkpt>
      <trkpt lat="57.44777899235487" lon="-6.586773013696075">
        <ele>22.25</ele>
        <time>2019-09-05T12:53:56Z</time>
      </trkpt>
      <trkpt lat="57.447874965146184" lon="-6.586796985939145">
        <ele>21.77</ele>
        <time>2019-09-05T12:53:59Z</time>
      </trkpt>
      <trkpt lat="57.447874965146184" lon="-6.586796985939145">
        <ele>21.289999999999999</ele>
        <time>2019-09-05T12:54:01Z</time>
      </trkpt>
      <trkpt lat="57.447845041751862" lon="-6.586504960432649">
        <ele>21.77</ele>
        <time>2019-09-05T12:54:10Z</time>
      </trkpt>
      <trkpt lat="57.447773963212967" lon="-6.586215030401945">
        <ele>21.77</ele>
        <time>2019-09-05T12:54:16Z</time>
      </trkpt>
      <trkpt lat="57.4474130384624" lon="-6.585858967155218">
        <ele>21.289999999999999</ele>
        <time>2019-09-05T12:54:29Z</time>
      </trkpt>
      <trkpt lat="57.447344977408648" lon="-6.585741033777595">
        <ele>21.289999999999999</ele>
        <time>2019-09-05T12:54:39Z</time>
      </trkpt>
      <trkpt lat="57.44737196713686" lon="-6.585675990208983">
        <ele>21.289999999999999</ele>
        <time>2019-09-05T12:54:54Z</time>
      </trkpt>
      <trkpt lat="57.447386970743537" lon="-6.585690993815661">
        <ele>15.039999999999999</ele>
        <time>2019-09-05T13:55:51Z</time>
      </trkpt>
      <trkpt lat="57.447453020140529" lon="-6.585594015195966">
        <ele>22.25</ele>
        <time>2019-09-05T13:56:12Z</time>
      </trkpt>
      <trkpt lat="57.447403986006975" lon="-6.585638020187616">
        <ele>26.57</ele>
        <time>2019-09-05T13:56:51Z</time>
      </trkpt>
      <trkpt lat="57.447382025420666" lon="-6.585627961903811">
        <ele>25.609999999999999</ele>
        <time>2019-09-05T13:57:33Z</time>
      </trkpt>
      <trkpt lat="57.447374984622002" lon="-6.585629973560572">
        <ele>27.050000000000001</ele>
        <time>2019-09-05T13:58:03Z</time>
      </trkpt>
      <trkpt lat="57.447376996278763" lon="-6.585635002702475">
        <ele>27.050000000000001</ele>
        <time>2019-09-05T13:58:25Z</time>
      </trkpt>
      <trkpt lat="57.447383031249046" lon="-6.585651012137532">
        <ele>26.09</ele>
        <time>2019-09-05T13:58:59Z</time>
      </trkpt>
      <trkpt lat="57.447389988228679" lon="-6.585664004087448">
        <ele>25.609999999999999</ele>
        <time>2019-09-05T13:59:38Z</time>
      </trkpt>
      <trkpt lat="57.447398034855723" lon="-6.585680013522506">
        <ele>24.649999999999999</ele>
        <time>2019-09-05T14:00:17Z</time>
      </trkpt>
      <trkpt lat="57.447413960471749" lon="-6.585812028497458">
        <ele>22.25</ele>
        <time>2019-09-05T14:00:31Z</time>
      </trkpt>
      <trkpt lat="57.447318993508816" lon="-6.586244031786919">
        <ele>21.289999999999999</ele>
        <time>2019-09-05T14:00:43Z</time>
      </trkpt>
      <trkpt lat="57.447228971868753" lon="-6.586668994277716">
        <ele>16.960000000000001</ele>
        <time>2019-09-05T14:00:48Z</time>
      </trkpt>
      <trkpt lat="57.44720097631216" lon="-6.586668994277716">
        <ele>16</ele>
        <time>2019-09-05T14:00:49Z</time>
      </trkpt>
      <trkpt lat="57.447159988805652" lon="-6.586668994277716">
        <ele>15.039999999999999</ele>
        <time>2019-09-05T14:00:50Z</time>
      </trkpt>
      <trkpt lat="57.447108021005988" lon="-6.586668994277716">
        <ele>14.56</ele>
        <time>2019-09-05T14:00:51Z</time>
      </trkpt>
      <trkpt lat="57.447044989094138" lon="-6.586668994277716">
        <ele>13.6</ele>
        <time>2019-09-05T14:00:52Z</time>
      </trkpt>
      <trkpt lat="57.446972988545895" lon="-6.586683997884393">
        <ele>12.630000000000001</ele>
        <time>2019-09-05T14:00:53Z</time>
      </trkpt>
      <trkpt lat="57.446885984390974" lon="-6.586704030632973">
        <ele>11.67</ele>
        <time>2019-09-05T14:00:54Z</time>
      </trkpt>
      <trkpt lat="57.446791017428041" lon="-6.586726997047663">
        <ele>10.710000000000001</ele>
        <time>2019-09-05T14:00:55Z</time>
      </trkpt>
      <trkpt lat="57.446695966646075" lon="-6.586749041453004">
        <ele>10.23</ele>
        <time>2019-09-05T14:00:56Z</time>
      </trkpt>
      <trkpt lat="57.446613991633058" lon="-6.586802015081048">
        <ele>9.27</ele>
        <time>2019-09-05T14:00:57Z</time>
      </trkpt>
      <trkpt lat="57.446351973339915" lon="-6.587011981755495">
        <ele>6.87</ele>
        <time>2019-09-05T14:01:00Z</time>
      </trkpt>
      <trkpt lat="57.446217024698853" lon="-6.587207028642297">
        <ele>5.42</ele>
        <time>2019-09-05T14:01:02Z</time>
      </trkpt>
      <trkpt lat="57.446159021928906" lon="-6.587291015312076">
        <ele>4.94</ele>
        <time>2019-09-05T14:01:03Z</time>
      </trkpt>
      <trkpt lat="57.44603899307549" lon="-6.587543981149793">
        <ele>3.98</ele>
        <time>2019-09-05T14:01:05Z</time>
      </trkpt>
      <trkpt lat="57.445256961509585" lon="-6.589188007637858">
        <ele>3.98</ele>
        <time>2019-09-05T14:01:17Z</time>
      </trkpt>
      <trkpt lat="57.445196025073528" lon="-6.589289009571075">
        <ele>3.98</ele>
        <time>2019-09-05T14:01:18Z</time>
      </trkpt>
      <trkpt lat="57.445133998990059" lon="-6.589393028989434">
        <ele>3.98</ele>
        <time>2019-09-05T14:01:19Z</time>
      </trkpt>
      <trkpt lat="57.444523964077234" lon="-6.590016977861524">
        <ele>4.46</ele>
        <time>2019-09-05T14:01:26Z</time>
      </trkpt>
      <trkpt lat="57.444010991603136" lon="-6.59024597145617">
        <ele>5.42</ele>
        <time>2019-09-05T14:01:31Z</time>
      </trkpt>
      <trkpt lat="57.443906972184777" lon="-6.590260975062847">
        <ele>5.42</ele>
        <time>2019-09-05T14:01:32Z</time>
      </trkpt>
      <trkpt lat="57.44380203075707" lon="-6.590269021689892">
        <ele>4.94</ele>
        <time>2019-09-05T14:01:33Z</time>
      </trkpt>
      <trkpt lat="57.443001978099346" lon="-6.589841963723302">
        <ele>3.02</ele>
        <time>2019-09-05T14:01:40Z</time>
      </trkpt>
      <trkpt lat="57.442442988976836" lon="-6.589282974600792">
        <ele>3.5</ele>
        <time>2019-09-05T14:01:45Z</time>
      </trkpt>
      <trkpt lat="57.442332012578845" lon="-6.589171998202801">
        <ele>3.98</ele>
        <time>2019-09-05T14:01:46Z</time>
      </trkpt>
      <trkpt lat="57.441100040450692" lon="-6.587609024718404">
        <ele>3.98</ele>
        <time>2019-09-05T14:01:58Z</time>
      </trkpt>
      <trkpt lat="57.44008700363338" lon="-6.585654029622674">
        <ele>4.94</ele>
        <time>2019-09-05T14:02:10Z</time>
      </trkpt>
      <trkpt lat="57.439686013385653" lon="-6.584785999730229">
        <ele>5.91</ele>
        <time>2019-09-05T14:02:15Z</time>
      </trkpt>
      <trkpt lat="57.43959398008883" lon="-6.584608973935247">
        <ele>6.39</ele>
        <time>2019-09-05T14:02:16Z</time>
      </trkpt>
      <trkpt lat="57.439380995929241" lon="-6.584390038624406">
        <ele>6.39</ele>
        <time>2019-09-05T14:02:18Z</time>
      </trkpt>
      <trkpt lat="57.438429985195398" lon="-6.583508010953665">
        <ele>6.87</ele>
        <time>2019-09-05T14:02:27Z</time>
      </trkpt>
      <trkpt lat="57.43768198415637" lon="-6.582884984090924">
        <ele>5.91</ele>
        <time>2019-09-05T14:02:36Z</time>
      </trkpt>
      <trkpt lat="57.437285017222166" lon="-6.582382991909981">
        <ele>4.94</ele>
        <time>2019-09-05T14:02:41Z</time>
      </trkpt>
      <trkpt lat="57.43697295896709" lon="-6.581813022494316">
        <ele>3.5</ele>
        <time>2019-09-05T14:02:48Z</time>
      </trkpt>
      <trkpt lat="57.436910010874271" lon="-6.581689976155758">
        <ele>3.5</ele>
        <time>2019-09-05T14:02:49Z</time>
      </trkpt>
      <trkpt lat="57.436795011162758" lon="-6.58162702806294">
        <ele>3.02</ele>
        <time>2019-09-05T14:02:51Z</time>
      </trkpt>
      <trkpt lat="57.43623903952539" lon="-6.580820018425584">
        <ele>3.5</ele>
        <time>2019-09-05T14:02:59Z</time>
      </trkpt>
      <trkpt lat="57.435485003516078" lon="-6.579639008268714">
        <ele>3.98</ele>
        <time>2019-09-05T14:03:09Z</time>
      </trkpt>
      <trkpt lat="57.434543967247009" lon="-6.577931027859449">
        <ele>5.42</ele>
        <time>2019-09-05T14:03:21Z</time>
      </trkpt>
      <trkpt lat="57.433842988684773" lon="-6.576485987752676">
        <ele>8.310000000000001</ele>
        <time>2019-09-05T14:03:30Z</time>
      </trkpt>
      <trkpt lat="57.43284797295928" lon="-6.574852019548416">
        <ele>7.35</ele>
        <time>2019-09-05T14:03:42Z</time>
      </trkpt>
      <trkpt lat="57.43203098885715" lon="-6.573390970006585">
        <ele>6.87</ele>
        <time>2019-09-05T14:03:53Z</time>
      </trkpt>
      <trkpt lat="57.431156001985073" lon="-6.57204600982368">
        <ele>10.23</ele>
        <time>2019-09-05T14:04:04Z</time>
      </trkpt>
      <trkpt lat="57.430127039551735" lon="-6.571115031838417">
        <ele>12.15</ele>
        <time>2019-09-05T14:04:14Z</time>
      </trkpt>
      <trkpt lat="57.428990034386516" lon="-6.570120016112924">
        <ele>16.960000000000001</ele>
        <time>2019-09-05T14:04:23Z</time>
      </trkpt>
      <trkpt lat="57.428864976391196" lon="-6.569972997531295">
        <ele>17.440000000000001</ele>
        <time>2019-09-05T14:04:24Z</time>
      </trkpt>
      <trkpt lat="57.428746037185192" lon="-6.569819021970034">
        <ele>18.399999999999999</ele>
        <time>2019-09-05T14:04:25Z</time>
      </trkpt>
      <trkpt lat="57.42865601554513" lon="-6.569593967869878">
        <ele>18.879999999999999</ele>
        <time>2019-09-05T14:04:26Z</time>
      </trkpt>
      <trkpt lat="57.428564988076687" lon="-6.569367991760373">
        <ele>19.84</ele>
        <time>2019-09-05T14:04:27Z</time>
      </trkpt>
      <trkpt lat="57.428475972265005" lon="-6.56914503313601">
        <ele>20.809999999999999</ele>
        <time>2019-09-05T14:04:28Z</time>
      </trkpt>
      <trkpt lat="57.428414030000567" lon="-6.568883014842868">
        <ele>21.77</ele>
        <time>2019-09-05T14:04:29Z</time>
      </trkpt>
      <trkpt lat="57.428359966725111" lon="-6.568614039570093">
        <ele>22.25</ele>
        <time>2019-09-05T14:04:30Z</time>
      </trkpt>
      <trkpt lat="57.428316967561841" lon="-6.56832997687161">
        <ele>22.73</ele>
        <time>2019-09-05T14:04:31Z</time>
      </trkpt>
      <trkpt lat="57.42801102809608" lon="-6.565061034634709">
        <ele>28.02</ele>
        <time>2019-09-05T14:04:43Z</time>
      </trkpt>
      <trkpt lat="57.427483974024653" lon="-6.561975991353393">
        <ele>26.57</ele>
        <time>2019-09-05T14:04:54Z</time>
      </trkpt>
      <trkpt lat="57.426871005445719" lon="-6.558395996689796">
        <ele>26.57</ele>
        <time>2019-09-05T14:05:09Z</time>
      </trkpt>
      <trkpt lat="57.426258036866784" lon="-6.554811978712678">
        <ele>26.09</ele>
        <time>2019-09-05T14:05:23Z</time>
      </trkpt>
      <trkpt lat="57.425621012225747" lon="-6.551789967343211">
        <ele>31.859999999999999</ele>
        <time>2019-09-05T14:05:35Z</time>
      </trkpt>
      <trkpt lat="57.424687016755342" lon="-6.548151969909668">
        <ele>39.549999999999997</ele>
        <time>2019-09-05T14:05:49Z</time>
      </trkpt>
      <trkpt lat="57.423512963578105" lon="-6.544207027181983">
        <ele>37.630000000000003</ele>
        <time>2019-09-05T14:06:02Z</time>
      </trkpt>
      <trkpt lat="57.422323990613222" lon="-6.541016958653927">
        <ele>36.670000000000002</ele>
        <time>2019-09-05T14:06:13Z</time>
      </trkpt>
      <trkpt lat="57.421215986832976" lon="-6.539667975157499">
        <ele>36.670000000000002</ele>
        <time>2019-09-05T14:06:20Z</time>
      </trkpt>
      <trkpt lat="57.419723002240062" lon="-6.538964984938502">
        <ele>34.259999999999998</ele>
        <time>2019-09-05T14:06:28Z</time>
      </trkpt>
      <trkpt lat="57.417644960805774" lon="-6.538619985803962">
        <ele>26.09</ele>
        <time>2019-09-05T14:06:39Z</time>
      </trkpt>
      <trkpt lat="57.41628197953105" lon="-6.538308011367917">
        <ele>22.25</ele>
        <time>2019-09-05T14:06:47Z</time>
      </trkpt>
      <trkpt lat="57.414915980771184" lon="-6.537090037018061">
        <ele>20.809999999999999</ele>
        <time>2019-09-05T14:06:56Z</time>
      </trkpt>
      <trkpt lat="57.414797963574529" lon="-6.536906976252794">
        <ele>20.32</ele>
        <time>2019-09-05T14:06:57Z</time>
      </trkpt>
      <trkpt lat="57.41469201631844" lon="-6.536696003749967">
        <ele>19.84</ele>
        <time>2019-09-05T14:06:58Z</time>
      </trkpt>
      <trkpt lat="57.413535984233022" lon="-6.534041035920382">
        <ele>16.960000000000001</ele>
        <time>2019-09-05T14:07:09Z</time>
      </trkpt>
      <trkpt lat="57.412754036486149" lon="-6.532058967277408">
        <ele>18.399999999999999</ele>
        <time>2019-09-05T14:07:17Z</time>
      </trkpt>
      <trkpt lat="57.41269301623106" lon="-6.531785968691111">
        <ele>18.879999999999999</ele>
        <time>2019-09-05T14:07:18Z</time>
      </trkpt>
      <trkpt lat="57.412663009017706" lon="-6.531487992033362">
        <ele>19.359999999999999</ele>
        <time>2019-09-05T14:07:19Z</time>
      </trkpt>
      <trkpt lat="57.412663009017706" lon="-6.531184986233711">
        <ele>19.84</ele>
        <time>2019-09-05T14:07:20Z</time>
      </trkpt>
      <trkpt lat="57.412687987089157" lon="-6.530879968777299">
        <ele>20.32</ele>
        <time>2019-09-05T14:07:21Z</time>
      </trkpt>
      <trkpt lat="57.412745989859104" lon="-6.530581992119551">
        <ele>20.809999999999999</ele>
        <time>2019-09-05T14:07:22Z</time>
      </trkpt>
      <trkpt lat="57.412823019549251" lon="-6.530285021290183">
        <ele>21.289999999999999</ele>
        <time>2019-09-05T14:07:23Z</time>
      </trkpt>
      <trkpt lat="57.412944976240396" lon="-6.530059967190027">
        <ele>21.289999999999999</ele>
        <time>2019-09-05T14:07:24Z</time>
      </trkpt>
      <trkpt lat="57.413071040064096" lon="-6.52982703410089">
        <ele>21.77</ele>
        <time>2019-09-05T14:07:25Z</time>
      </trkpt>
      <trkpt lat="57.413220992311835" lon="-6.52967699803412">
        <ele>21.77</ele>
        <time>2019-09-05T14:07:26Z</time>
      </trkpt>
      <trkpt lat="57.413373040035367" lon="-6.52952503412962">
        <ele>22.25</ele>
        <time>2019-09-05T14:07:27Z</time>
      </trkpt>
      <trkpt lat="57.413819041103125" lon="-6.529053971171379">
        <ele>23.210000000000001</ele>
        <time>2019-09-05T14:07:30Z</time>
      </trkpt>
      <trkpt lat="57.413951978087425" lon="-6.528837969526649">
        <ele>23.210000000000001</ele>
        <time>2019-09-05T14:07:31Z</time>
      </trkpt>
      <trkpt lat="57.414083993062377" lon="-6.528623979538679">
        <ele>23.690000000000001</ele>
        <time>2019-09-05T14:07:32Z</time>
      </trkpt>
      <trkpt lat="57.414191029965878" lon="-6.528380988165736">
        <ele>23.690000000000001</ele>
        <time>2019-09-05T14:07:33Z</time>
      </trkpt>
      <trkpt lat="57.414292031899095" lon="-6.528116958215833">
        <ele>24.170000000000002</ele>
        <time>2019-09-05T14:07:34Z</time>
      </trkpt>
      <trkpt lat="57.414354979991913" lon="-6.527826022356749">
        <ele>24.649999999999999</ele>
        <time>2019-09-05T14:07:35Z</time>
      </trkpt>
      <trkpt lat="57.414419017732143" lon="-6.527527961879969">
        <ele>25.129999999999999</ele>
        <time>2019-09-05T14:07:36Z</time>
      </trkpt>
      <trkpt lat="57.414449024945498" lon="-6.527211964130402">
        <ele>25.609999999999999</ele>
        <time>2019-09-05T14:07:37Z</time>
      </trkpt>
      <trkpt lat="57.414478026330471" lon="-6.526883980259299">
        <ele>26.09</ele>
        <time>2019-09-05T14:07:38Z</time>
      </trkpt>
      <trkpt lat="57.414467968046665" lon="-6.526550967246294">
        <ele>27.050000000000001</ele>
        <time>2019-09-05T14:07:39Z</time>
      </trkpt>
      <trkpt lat="57.414438966661692" lon="-6.526215020567179">
        <ele>27.530000000000001</ele>
        <time>2019-09-05T14:07:40Z</time>
      </trkpt>
      <trkpt lat="57.414409965276718" lon="-6.525878990069032">
        <ele>28.5</ele>
        <time>2019-09-05T14:07:41Z</time>
      </trkpt>
      <trkpt lat="57.413803031668067" lon="-6.521069034934044">
        <ele>40.509999999999998</ele>
        <time>2019-09-05T14:07:56Z</time>
      </trkpt>
      <trkpt lat="57.413436993956566" lon="-6.519230967387557">
        <ele>43.880000000000003</ele>
        <time>2019-09-05T14:08:02Z</time>
      </trkpt>
      <trkpt lat="57.413340015336871" lon="-6.518939025700092">
        <ele>44.359999999999999</ele>
        <time>2019-09-05T14:08:03Z</time>
      </trkpt>
      <trkpt lat="57.413225015625358" lon="-6.518670972436667">
        <ele>45.32</ele>
        <time>2019-09-05T14:08:04Z</time>
      </trkpt>
      <trkpt lat="57.413101969286799" lon="-6.518417000770569">
        <ele>45.799999999999997</ele>
        <time>2019-09-05T14:08:05Z</time>
      </trkpt>
      <trkpt lat="57.412974983453751" lon="-6.51816101744771">
        <ele>46.759999999999998</ele>
        <time>2019-09-05T14:08:06Z</time>
      </trkpt>
      <trkpt lat="57.411513011902571" lon="-6.515918020159006">
        <ele>53.009999999999998</ele>
        <time>2019-09-05T14:08:16Z</time>
      </trkpt>
      <trkpt lat="57.410392016172409" lon="-6.513945003971458">
        <ele>55.890000000000001</ele>
        <time>2019-09-05T14:08:24Z</time>
      </trkpt>
      <trkpt lat="57.410298977047205" lon="-6.513631017878652">
        <ele>55.890000000000001</ele>
        <time>2019-09-05T14:08:25Z</time>
      </trkpt>
      <trkpt lat="57.409539995715022" lon="-6.510771028697491">
        <ele>57.340000000000003</ele>
        <time>2019-09-05T14:08:34Z</time>
      </trkpt>
      <trkpt lat="57.409158032387495" lon="-6.508379001170397">
        <ele>57.82</ele>
        <time>2019-09-05T14:08:41Z</time>
      </trkpt>
      <trkpt lat="57.408914035186172" lon="-6.50464897044003">
        <ele>51.090000000000003</ele>
        <time>2019-09-05T14:08:51Z</time>
      </trkpt>
      <trkpt lat="57.408265024423599" lon="-6.502768993377686">
        <ele>49.649999999999999</ele>
        <time>2019-09-05T14:08:57Z</time>
      </trkpt>
      <trkpt lat="57.406345987692475" lon="-6.498493971303105">
        <ele>39.549999999999997</ele>
        <time>2019-09-05T14:09:11Z</time>
      </trkpt>
      <trkpt lat="57.406171979382634" lon="-6.498264977708459">
        <ele>37.630000000000003</ele>
        <time>2019-09-05T14:09:12Z</time>
      </trkpt>
      <trkpt lat="57.405260028317571" lon="-6.497275996953249">
        <ele>27.050000000000001</ele>
        <time>2019-09-05T14:09:17Z</time>
      </trkpt>
      <trkpt lat="57.405121978372335" lon="-6.49703904055059">
        <ele>25.129999999999999</ele>
        <time>2019-09-05T14:09:18Z</time>
      </trkpt>
      <trkpt lat="57.405008990317583" lon="-6.496766963973641">
        <ele>23.210000000000001</ele>
        <time>2019-09-05T14:09:19Z</time>
      </trkpt>
      <trkpt lat="57.40491796284914" lon="-6.496481979265809">
        <ele>21.289999999999999</ele>
        <time>2019-09-05T14:09:20Z</time>
      </trkpt>
      <trkpt lat="57.404858032241464" lon="-6.496170004829764">
        <ele>19.359999999999999</ele>
        <time>2019-09-05T14:09:21Z</time>
      </trkpt>
      <trkpt lat="57.404826013371348" lon="-6.495857024565339">
        <ele>17.440000000000001</ele>
        <time>2019-09-05T14:09:22Z</time>
      </trkpt>
      <trkpt lat="57.404816960915923" lon="-6.495531974360347">
        <ele>15.52</ele>
        <time>2019-09-05T14:09:23Z</time>
      </trkpt>
      <trkpt lat="57.404811009764671" lon="-6.495212037116289">
        <ele>14.08</ele>
        <time>2019-09-05T14:09:24Z</time>
      </trkpt>
      <trkpt lat="57.404821990057826" lon="-6.494888998568058">
        <ele>12.15</ele>
        <time>2019-09-05T14:09:25Z</time>
      </trkpt>
      <trkpt lat="57.404963979497552" lon="-6.490860991179943">
        <ele>7.35</ele>
        <time>2019-09-05T14:09:37Z</time>
      </trkpt>
      <trkpt lat="57.404963979497552" lon="-6.490223966538906">
        <ele>9.27</ele>
        <time>2019-09-05T14:09:39Z</time>
      </trkpt>
      <trkpt lat="57.404931038618088" lon="-6.489923978224397">
        <ele>10.710000000000001</ele>
        <time>2019-09-05T14:09:40Z</time>
      </trkpt>
      <trkpt lat="57.404899019747972" lon="-6.48962901905179">
        <ele>11.67</ele>
        <time>2019-09-05T14:09:41Z</time>
      </trkpt>
      <trkpt lat="57.404834982007742" lon="-6.489343028515577">
        <ele>12.630000000000001</ele>
        <time>2019-09-05T14:09:42Z</time>
      </trkpt>
      <trkpt lat="57.404761975631118" lon="-6.489041028544307">
        <ele>13.6</ele>
        <time>2019-09-05T14:09:43Z</time>
      </trkpt>
      <trkpt lat="57.404650999233127" lon="-6.488764006644487">
        <ele>14.08</ele>
        <time>2019-09-05T14:09:44Z</time>
      </trkpt>
      <trkpt lat="57.404528958722949" lon="-6.488496959209442">
        <ele>14.56</ele>
        <time>2019-09-05T14:09:45Z</time>
      </trkpt>
      <trkpt lat="57.404381018131971" lon="-6.488269977271557">
        <ele>15.52</ele>
        <time>2019-09-05T14:09:46Z</time>
      </trkpt>
      <trkpt lat="57.404252020642161" lon="-6.488070990890265">
        <ele>16</ele>
        <time>2019-09-05T14:09:47Z</time>
      </trkpt>
      <trkpt lat="57.404054962098598" lon="-6.487948028370738">
        <ele>16.48</ele>
        <time>2019-09-05T14:09:48Z</time>
      </trkpt>
      <trkpt lat="57.40388598293066" lon="-6.487841997295618">
        <ele>16.960000000000001</ele>
        <time>2019-09-05T14:09:49Z</time>
      </trkpt>
      <trkpt lat="57.403714992105961" lon="-6.487744012847543">
        <ele>17.440000000000001</ele>
        <time>2019-09-05T14:09:50Z</time>
      </trkpt>
      <trkpt lat="57.403524974361062" lon="-6.487702019512653">
        <ele>17.440000000000001</ele>
        <time>2019-09-05T14:09:51Z</time>
      </trkpt>
      <trkpt lat="57.403320036828518" lon="-6.487657008692622">
        <ele>17.920000000000002</ele>
        <time>2019-09-05T14:09:52Z</time>
      </trkpt>
      <trkpt lat="57.401446010917425" lon="-6.487052002921701">
        <ele>19.84</ele>
        <time>2019-09-05T14:10:01Z</time>
      </trkpt>
      <trkpt lat="57.399423038586974" lon="-6.486080037429929">
        <ele>23.210000000000001</ele>
        <time>2019-09-05T14:10:11Z</time>
      </trkpt>
      <trkpt lat="57.399253975600004" lon="-6.485848026350141">
        <ele>23.210000000000001</ele>
        <time>2019-09-05T14:10:12Z</time>
      </trkpt>
      <trkpt lat="57.399087008088827" lon="-6.485617021098733">
        <ele>23.210000000000001</ele>
        <time>2019-09-05T14:10:13Z</time>
      </trkpt>
      <trkpt lat="57.398926997557282" lon="-6.485366988927126">
        <ele>23.210000000000001</ele>
        <time>2019-09-05T14:10:14Z</time>
      </trkpt>
      <trkpt lat="57.398805962875485" lon="-6.485046967864037">
        <ele>23.210000000000001</ele>
        <time>2019-09-05T14:10:15Z</time>
      </trkpt>
      <trkpt lat="57.398683000355959" lon="-6.484725018963218">
        <ele>22.73</ele>
        <time>2019-09-05T14:10:16Z</time>
      </trkpt>
      <trkpt lat="57.397317001596093" lon="-6.480763982981443">
        <ele>16</ele>
        <time>2019-09-05T14:10:28Z</time>
      </trkpt>
      <trkpt lat="57.396934032440186" lon="-6.480037020519376">
        <ele>14.56</ele>
        <time>2019-09-05T14:10:31Z</time>
      </trkpt>
      <trkpt lat="57.396806040778756" lon="-6.47989503107965">
        <ele>14.08</ele>
        <time>2019-09-05T14:10:32Z</time>
      </trkpt>
      <trkpt lat="57.396618034690619" lon="-6.479796962812543">
        <ele>14.08</ele>
        <time>2019-09-05T14:10:33Z</time>
      </trkpt>
      <trkpt lat="57.396447965875268" lon="-6.479708030819893">
        <ele>14.08</ele>
        <time>2019-09-05T14:10:34Z</time>
      </trkpt>
      <trkpt lat="57.396274963393807" lon="-6.479649022221565">
        <ele>14.08</ele>
        <time>2019-09-05T14:10:35Z</time>
      </trkpt>
      <trkpt lat="57.396098021417856" lon="-6.479669976979494">
        <ele>14.56</ele>
        <time>2019-09-05T14:10:36Z</time>
      </trkpt>
      <trkpt lat="57.395925018936396" lon="-6.479735020548105">
        <ele>15.039999999999999</ele>
        <time>2019-09-05T14:10:37Z</time>
      </trkpt>
      <trkpt lat="57.395760985091329" lon="-6.479829987511039">
        <ele>15.52</ele>
        <time>2019-09-05T14:10:38Z</time>
      </trkpt>
      <trkpt lat="57.395599968731403" lon="-6.479958985000849">
        <ele>16.48</ele>
        <time>2019-09-05T14:10:39Z</time>
      </trkpt>
      <trkpt lat="57.395448004826903" lon="-6.480116983875632">
        <ele>17.440000000000001</ele>
        <time>2019-09-05T14:10:40Z</time>
      </trkpt>
      <trkpt lat="57.395302997902036" lon="-6.480307001620531">
        <ele>18.399999999999999</ele>
        <time>2019-09-05T14:10:41Z</time>
      </trkpt>
      <trkpt lat="57.393832979723811" lon="-6.48168196901679">
        <ele>27.050000000000001</ele>
        <time>2019-09-05T14:10:50Z</time>
      </trkpt>
      <trkpt lat="57.393644973635674" lon="-6.481763022020459">
        <ele>28.02</ele>
        <time>2019-09-05T14:10:51Z</time>
      </trkpt>
      <trkpt lat="57.393450010567904" lon="-6.481770984828472">
        <ele>28.98</ele>
        <time>2019-09-05T14:10:52Z</time>
      </trkpt>
      <trkpt lat="57.393253035843372" lon="-6.481779031455517">
        <ele>29.940000000000001</ele>
        <time>2019-09-05T14:10:53Z</time>
      </trkpt>
      <trkpt lat="57.393057988956571" lon="-6.481758998706937">
        <ele>30.899999999999999</ele>
        <time>2019-09-05T14:10:54Z</time>
      </trkpt>
      <trkpt lat="57.392861014232039" lon="-6.481697978451848">
        <ele>31.379999999999999</ele>
        <time>2019-09-05T14:10:55Z</time>
      </trkpt>
      <trkpt lat="57.392659010365605" lon="-6.48163603618741">
        <ele>32.340000000000003</ele>
        <time>2019-09-05T14:10:56Z</time>
      </trkpt>
      <trkpt lat="57.390088029205799" lon="-6.481034969910979">
        <ele>34.740000000000002</ele>
        <time>2019-09-05T14:11:08Z</time>
      </trkpt>
      <trkpt lat="57.388577023521066" lon="-6.481589013710618">
        <ele>35.229999999999997</ele>
        <time>2019-09-05T14:11:15Z</time>
      </trkpt>
      <trkpt lat="57.387953996658325" lon="-6.481643998995423">
        <ele>34.740000000000002</ele>
        <time>2019-09-05T14:11:18Z</time>
      </trkpt>
      <trkpt lat="57.387747969478369" lon="-6.481579039245844">
        <ele>34.740000000000002</ele>
        <time>2019-09-05T14:11:19Z</time>
      </trkpt>
      <trkpt lat="57.387542026117444" lon="-6.481501003727317">
        <ele>34.740000000000002</ele>
        <time>2019-09-05T14:11:20Z</time>
      </trkpt>
      <trkpt lat="57.387343039736152" lon="-6.481364965438843">
        <ele>35.229999999999997</ele>
        <time>2019-09-05T14:11:21Z</time>
      </trkpt>
      <trkpt lat="57.38714799284935" lon="-6.481222975999117">
        <ele>35.710000000000001</ele>
        <time>2019-09-05T14:11:22Z</time>
      </trkpt>
      <trkpt lat="57.386965015903115" lon="-6.481039999052882">
        <ele>36.189999999999998</ele>
        <time>2019-09-05T14:11:23Z</time>
      </trkpt>
      <trkpt lat="57.386784972622991" lon="-6.480860961601138">
        <ele>36.670000000000002</ele>
        <time>2019-09-05T14:11:24Z</time>
      </trkpt>
      <trkpt lat="57.386620016768575" lon="-6.480625011026859">
        <ele>37.630000000000003</ele>
        <time>2019-09-05T14:11:25Z</time>
      </trkpt>
      <trkpt lat="57.386451959609985" lon="-6.480386964976788">
        <ele>38.109999999999999</ele>
        <time>2019-09-05T14:11:26Z</time>
      </trkpt>
      <trkpt lat="57.38474297337234" lon="-6.478072972968221">
        <ele>39.07</ele>
        <time>2019-09-05T14:11:36Z</time>
      </trkpt>
      <trkpt lat="57.383192991837859" lon="-6.476431963965297">
        <ele>29.940000000000001</ele>
        <time>2019-09-05T14:11:45Z</time>
      </trkpt>
      <trkpt lat="57.38194802775979" lon="-6.474774023517966">
        <ele>19.84</ele>
        <time>2019-09-05T14:11:54Z</time>
      </trkpt>
      <trkpt lat="57.380500975996256" lon="-6.472751973196864">
        <ele>9.27</ele>
        <time>2019-09-05T14:12:03Z</time>
      </trkpt>
      <trkpt lat="57.378589985892177" lon="-6.469653015956283">
        <ele>4.46</ele>
        <time>2019-09-05T14:12:16Z</time>
      </trkpt>
      <trkpt lat="57.377035981044173" lon="-6.465927008539438">
        <ele>5.42</ele>
        <time>2019-09-05T14:12:29Z</time>
      </trkpt>
      <trkpt lat="57.375655984506011" lon="-6.462511969730258">
        <ele>14.56</ele>
        <time>2019-09-05T14:12:41Z</time>
      </trkpt>
      <trkpt lat="57.373810959979892" lon="-6.459212014451623">
        <ele>31.379999999999999</ele>
        <time>2019-09-05T14:12:54Z</time>
      </trkpt>
      <trkpt lat="57.373481970280409" lon="-6.458809012547135">
        <ele>33.780000000000001</ele>
        <time>2019-09-05T14:12:56Z</time>
      </trkpt>
      <trkpt lat="57.373298993334174" lon="-6.458665011450648">
        <ele>34.740000000000002</ele>
        <time>2019-09-05T14:12:57Z</time>
      </trkpt>
      <trkpt lat="57.373116016387939" lon="-6.458521010354161">
        <ele>35.229999999999997</ele>
        <time>2019-09-05T14:12:58Z</time>
      </trkpt>
      <trkpt lat="57.372925998643041" lon="-6.45841003395617">
        <ele>36.189999999999998</ele>
        <time>2019-09-05T14:12:59Z</time>
      </trkpt>
      <trkpt lat="57.372727012261748" lon="-6.458343984559178">
        <ele>36.670000000000002</ele>
        <time>2019-09-05T14:13:00Z</time>
      </trkpt>
      <trkpt lat="57.372525008395314" lon="-6.458276007324457">
        <ele>37.149999999999999</ele>
        <time>2019-09-05T14:13:01Z</time>
      </trkpt>
      <trkpt lat="57.371730990707874" lon="-6.458010971546173">
        <ele>38.109999999999999</ele>
        <time>2019-09-05T14:13:05Z</time>
      </trkpt>
      <trkpt lat="57.371551031246781" lon="-6.457858001813293">
        <ele>38.109999999999999</ele>
        <time>2019-09-05T14:13:06Z</time>
      </trkpt>
      <trkpt lat="57.371372999623418" lon="-6.457700002938509">
        <ele>38.109999999999999</ele>
        <time>2019-09-05T14:13:07Z</time>
      </trkpt>
      <trkpt lat="57.37120502628386" lon="-6.457519959658384">
        <ele>38.109999999999999</ele>
        <time>2019-09-05T14:13:08Z</time>
      </trkpt>
      <trkpt lat="57.371058007702231" lon="-6.457292977720499">
        <ele>38.109999999999999</ele>
        <time>2019-09-05T14:13:09Z</time>
      </trkpt>
      <trkpt lat="57.370919035747647" lon="-6.45703598856926">
        <ele>38.109999999999999</ele>
        <time>2019-09-05T14:13:10Z</time>
      </trkpt>
      <trkpt lat="57.370799006894231" lon="-6.45675896666944">
        <ele>38.590000000000003</ele>
        <time>2019-09-05T14:13:11Z</time>
      </trkpt>
      <trkpt lat="57.370698004961014" lon="-6.456445986405015">
        <ele>38.109999999999999</ele>
        <time>2019-09-05T14:13:12Z</time>
      </trkpt>
      <trkpt lat="57.37060597166419" lon="-6.456163013353944">
        <ele>38.109999999999999</ele>
        <time>2019-09-05T14:13:13Z</time>
      </trkpt>
      <trkpt lat="57.370552998036146" lon="-6.455784989520907">
        <ele>38.109999999999999</ele>
        <time>2019-09-05T14:13:14Z</time>
      </trkpt>
      <trkpt lat="57.370503963902593" lon="-6.455434961244464">
        <ele>38.109999999999999</ele>
        <time>2019-09-05T14:13:15Z</time>
      </trkpt>
      <trkpt lat="57.370455013588071" lon="-6.455087028443813">
        <ele>38.109999999999999</ele>
        <time>2019-09-05T14:13:16Z</time>
      </trkpt>
      <trkpt lat="57.37043003551662" lon="-6.45473700016737">
        <ele>38.109999999999999</ele>
        <time>2019-09-05T14:13:17Z</time>
      </trkpt>
      <trkpt lat="57.370420983061194" lon="-6.454378003254533">
        <ele>39.07</ele>
        <time>2019-09-05T14:13:18Z</time>
      </trkpt>
      <trkpt lat="57.370103979483247" lon="-6.451611975207925">
        <ele>45.32</ele>
        <time>2019-09-05T14:13:26Z</time>
      </trkpt>
      <trkpt lat="57.36892799846828" lon="-6.447756970301271">
        <ele>53.009999999999998</ele>
        <time>2019-09-05T14:13:38Z</time>
      </trkpt>
      <trkpt lat="57.368265995755792" lon="-6.445903982967138">
        <ele>50.609999999999999</ele>
        <time>2019-09-05T14:13:44Z</time>
      </trkpt>
      <trkpt lat="57.368200030177832" lon="-6.445568958297372">
        <ele>50.130000000000003</ele>
        <time>2019-09-05T14:13:45Z</time>
      </trkpt>
      <trkpt lat="57.368142027407885" lon="-6.445222031325102">
        <ele>49.649999999999999</ele>
        <time>2019-09-05T14:13:46Z</time>
      </trkpt>
      <trkpt lat="57.368139009922743" lon="-6.444864962249994">
        <ele>48.68</ele>
        <time>2019-09-05T14:13:47Z</time>
      </trkpt>
      <trkpt lat="57.368139009922743" lon="-6.444505965337157">
        <ele>48.200000000000003</ele>
        <time>2019-09-05T14:13:48Z</time>
      </trkpt>
      <trkpt lat="57.368184020742774" lon="-6.444151997566223">
        <ele>47.719999999999999</ele>
        <time>2019-09-05T14:13:49Z</time>
      </trkpt>
      <trkpt lat="57.368239006027579" lon="-6.443789983168244">
        <ele>46.759999999999998</ele>
        <time>2019-09-05T14:13:50Z</time>
      </trkpt>
      <trkpt lat="57.368292985484004" lon="-6.443432997912169">
        <ele>46.280000000000001</ele>
        <time>2019-09-05T14:13:51Z</time>
      </trkpt>
      <trkpt lat="57.368457019329071" lon="-6.44236003048718">
        <ele>43.880000000000003</ele>
        <time>2019-09-05T14:13:54Z</time>
      </trkpt>
      <trkpt lat="57.368481997400522" lon="-6.441989969462156">
        <ele>42.920000000000002</ele>
        <time>2019-09-05T14:13:55Z</time>
      </trkpt>
      <trkpt lat="57.368481997400522" lon="-6.441636001691222">
        <ele>41.950000000000003</ele>
        <time>2019-09-05T14:13:56Z</time>
      </trkpt>
      <trkpt lat="57.36843204125762" lon="-6.441289996728301">
        <ele>41.469999999999999</ele>
        <time>2019-09-05T14:13:57Z</time>
      </trkpt>
      <trkpt lat="57.368384012952447" lon="-6.440953966230154">
        <ele>40.990000000000002</ele>
        <time>2019-09-05T14:13:58Z</time>
      </trkpt>
      <trkpt lat="57.368316035717726" lon="-6.440636962652206">
        <ele>40.990000000000002</ele>
        <time>2019-09-05T14:13:59Z</time>
      </trkpt>
      <trkpt lat="57.368208998814225" lon="-6.440354995429516">
        <ele>41.469999999999999</ele>
        <time>2019-09-05T14:14:00Z</time>
      </trkpt>
      <trkpt lat="57.368095004931092" lon="-6.440080991014838">
        <ele>41.950000000000003</ele>
        <time>2019-09-05T14:14:01Z</time>
      </trkpt>
      <trkpt lat="57.367946980521083" lon="-6.439874963834882">
        <ele>42.439999999999998</ele>
        <time>2019-09-05T14:14:02Z</time>
      </trkpt>
      <trkpt lat="57.367795016616583" lon="-6.439661979675293">
        <ele>42.920000000000002</ele>
        <time>2019-09-05T14:14:03Z</time>
      </trkpt>
      <trkpt lat="57.367625031620264" lon="-6.439522001892328">
        <ele>43.399999999999999</ele>
        <time>2019-09-05T14:14:04Z</time>
      </trkpt>
      <trkpt lat="57.367449011653662" lon="-6.439376994967461">
        <ele>43.880000000000003</ele>
        <time>2019-09-05T14:14:05Z</time>
      </trkpt>
      <trkpt lat="57.365029994398355" lon="-6.437774961814284">
        <ele>48.200000000000003</ele>
        <time>2019-09-05T14:14:18Z</time>
      </trkpt>
      <trkpt lat="57.363263005390763" lon="-6.436134958639741">
        <ele>50.609999999999999</ele>
        <time>2019-09-05T14:14:28Z</time>
      </trkpt>
      <trkpt lat="57.361814025789499" lon="-6.433800011873245">
        <ele>56.369999999999997</ele>
        <time>2019-09-05T14:14:38Z</time>
      </trkpt>
      <trkpt lat="57.360469987615943" lon="-6.43166296184063">
        <ele>58.780000000000001</ele>
        <time>2019-09-05T14:14:47Z</time>
      </trkpt>
      <trkpt lat="57.359414035454392" lon="-6.429907036945224">
        <ele>52.049999999999997</ele>
        <time>2019-09-05T14:14:55Z</time>
      </trkpt>
      <trkpt lat="57.359312027692795" lon="-6.429628003388643">
        <ele>51.090000000000003</ele>
        <time>2019-09-05T14:14:56Z</time>
      </trkpt>
      <trkpt lat="57.359212031587958" lon="-6.429355004802346">
        <ele>50.130000000000003</ele>
        <time>2019-09-05T14:14:57Z</time>
      </trkpt>
      <trkpt lat="57.358505018055439" lon="-6.42627096734941">
        <ele>44.359999999999999</ele>
        <time>2019-09-05T14:15:07Z</time>
      </trkpt>
      <trkpt lat="57.357690967619419" lon="-6.424023024737835">
        <ele>44.840000000000003</ele>
        <time>2019-09-05T14:15:15Z</time>
      </trkpt>
      <trkpt lat="57.356628980487585" lon="-6.421229001134634">
        <ele>45.32</ele>
        <time>2019-09-05T14:15:26Z</time>
      </trkpt>
      <trkpt lat="57.356127994135022" lon="-6.418754998594523">
        <ele>47.240000000000002</ele>
        <time>2019-09-05T14:15:35Z</time>
      </trkpt>
      <trkpt lat="57.356024980545044" lon="-6.417338037863374">
        <ele>45.799999999999997</ele>
        <time>2019-09-05T14:15:40Z</time>
      </trkpt>
      <trkpt lat="57.356233019381762" lon="-6.414693966507912">
        <ele>48.200000000000003</ele>
        <time>2019-09-05T14:15:49Z</time>
      </trkpt>
      <trkpt lat="57.35693802125752" lon="-6.412360025569797">
        <ele>45.799999999999997</ele>
        <time>2019-09-05T14:15:57Z</time>
      </trkpt>
      <trkpt lat="57.358230007812381" lon="-6.409412026405335">
        <ele>30.899999999999999</ele>
        <time>2019-09-05T14:16:09Z</time>
      </trkpt>
      <trkpt lat="57.359369024634361" lon="-6.407209010794759">
        <ele>19.84</ele>
        <time>2019-09-05T14:16:19Z</time>
      </trkpt>
      <trkpt lat="57.360436040908098" lon="-6.4052779879421">
        <ele>13.6</ele>
        <time>2019-09-05T14:16:28Z</time>
      </trkpt>
      <trkpt lat="57.361025037243962" lon="-6.403271025046706">
        <ele>14.08</ele>
        <time>2019-09-05T14:16:35Z</time>
      </trkpt>
      <trkpt lat="57.361314967274666" lon="-6.400918979197741">
        <ele>8.310000000000001</ele>
        <time>2019-09-05T14:16:43Z</time>
      </trkpt>
      <trkpt lat="57.361186975613236" lon="-6.398298963904381">
        <ele>7.83</ele>
        <time>2019-09-05T14:16:52Z</time>
      </trkpt>
      <trkpt lat="57.360980026423931" lon="-6.397277964279056">
        <ele>7.83</ele>
        <time>2019-09-05T14:16:56Z</time>
      </trkpt>
      <trkpt lat="57.360877012833953" lon="-6.397063974291086">
        <ele>7.35</ele>
        <time>2019-09-05T14:16:57Z</time>
      </trkpt>
      <trkpt lat="57.360766036435962" lon="-6.39685501344502">
        <ele>7.35</ele>
        <time>2019-09-05T14:16:58Z</time>
      </trkpt>
      <trkpt lat="57.360652964562178" lon="-6.396643035113812">
        <ele>6.87</ele>
        <time>2019-09-05T14:16:59Z</time>
      </trkpt>
      <trkpt lat="57.360514998435974" lon="-6.396476989611983">
        <ele>6.39</ele>
        <time>2019-09-05T14:17:00Z</time>
      </trkpt>
      <trkpt lat="57.360373008996248" lon="-6.396328965201974">
        <ele>5.91</ele>
        <time>2019-09-05T14:17:01Z</time>
      </trkpt>
      <trkpt lat="57.360237976536155" lon="-6.396186975762248">
        <ele>5.42</ele>
        <time>2019-09-05T14:17:02Z</time>
      </trkpt>
      <trkpt lat="57.360092969611287" lon="-6.396118998527527">
        <ele>4.94</ele>
        <time>2019-09-05T14:17:03Z</time>
      </trkpt>
      <trkpt lat="57.359944023191929" lon="-6.396080022677779">
        <ele>4.46</ele>
        <time>2019-09-05T14:17:04Z</time>
      </trkpt>
      <trkpt lat="57.359789963811636" lon="-6.396040040999651">
        <ele>3.98</ele>
        <time>2019-09-05T14:17:05Z</time>
      </trkpt>
      <trkpt lat="57.359632970765233" lon="-6.39599896967411">
        <ele>3.5</ele>
        <time>2019-09-05T14:17:06Z</time>
      </trkpt>
      <trkpt lat="57.359477989375591" lon="-6.396050015464425">
        <ele>3.02</ele>
        <time>2019-09-05T14:17:07Z</time>
      </trkpt>
      <trkpt lat="57.359320996329188" lon="-6.396110029891133">
        <ele>2.54</ele>
        <time>2019-09-05T14:17:08Z</time>
      </trkpt>
      <trkpt lat="57.359169032424688" lon="-6.3961670268327">
        <ele>2.06</ele>
        <time>2019-09-05T14:17:09Z</time>
      </trkpt>
      <trkpt lat="57.359024025499821" lon="-6.396288983523846">
        <ele>2.06</ele>
        <time>2019-09-05T14:17:10Z</time>
      </trkpt>
      <trkpt lat="57.358882036060095" lon="-6.396409012377262">
        <ele>2.06</ele>
        <time>2019-09-05T14:17:11Z</time>
      </trkpt>
      <trkpt lat="57.358748009428382" lon="-6.396531974896789">
        <ele>2.06</ele>
        <time>2019-09-05T14:17:12Z</time>
      </trkpt>
      <trkpt lat="57.358630998060107" lon="-6.396710006520152">
        <ele>2.54</ele>
        <time>2019-09-05T14:17:13Z</time>
      </trkpt>
      <trkpt lat="57.357397014275193" lon="-6.398734990507364">
        <ele>3.98</ele>
        <time>2019-09-05T14:17:23Z</time>
      </trkpt>
      <trkpt lat="57.355354009196162" lon="-6.401917012408376">
        <ele>8.789999999999999</ele>
        <time>2019-09-05T14:17:38Z</time>
      </trkpt>
      <trkpt lat="57.355077993124723" lon="-6.402365025132895">
        <ele>9.27</ele>
        <time>2019-09-05T14:17:40Z</time>
      </trkpt>
      <trkpt lat="57.354951007291675" lon="-6.40261497348547">
        <ele>9.75</ele>
        <time>2019-09-05T14:17:41Z</time>
      </trkpt>
      <trkpt lat="57.354021035134792" lon="-6.404708018526435">
        <ele>10.710000000000001</ele>
        <time>2019-09-05T14:17:49Z</time>
      </trkpt>
      <trkpt lat="57.353879967704415" lon="-6.404902981594205">
        <ele>10.710000000000001</ele>
        <time>2019-09-05T14:17:50Z</time>
      </trkpt>
      <trkpt lat="57.353731021285057" lon="-6.405072966590524">
        <ele>10.710000000000001</ele>
        <time>2019-09-05T14:17:51Z</time>
      </trkpt>
      <trkpt lat="57.353571010753512" lon="-6.405215039849281">
        <ele>11.19</ele>
        <time>2019-09-05T14:17:52Z</time>
      </trkpt>
      <trkpt lat="57.353405971080065" lon="-6.405348982661963">
        <ele>11.19</ele>
        <time>2019-09-05T14:17:53Z</time>
      </trkpt>
      <trkpt lat="57.353231040760875" lon="-6.405445961281657">
        <ele>11.67</ele>
        <time>2019-09-05T14:17:54Z</time>
      </trkpt>
      <trkpt lat="57.353054014965892" lon="-6.405545035377145">
        <ele>12.15</ele>
        <time>2019-09-05T14:17:55Z</time>
      </trkpt>
      <trkpt lat="57.352873971685767" lon="-6.405646037310362">
        <ele>12.630000000000001</ele>
        <time>2019-09-05T14:17:56Z</time>
      </trkpt>
      <trkpt lat="57.351284008473158" lon="-6.406302005052567">
        <ele>14.56</ele>
        <time>2019-09-05T14:18:05Z</time>
      </trkpt>
      <trkpt lat="57.349838968366385" lon="-6.405908977612853">
        <ele>18.399999999999999</ele>
        <time>2019-09-05T14:18:13Z</time>
      </trkpt>
      <trkpt lat="57.348497025668621" lon="-6.406140988692641">
        <ele>24.649999999999999</ele>
        <time>2019-09-05T14:18:20Z</time>
      </trkpt>
      <trkpt lat="57.347738966345787" lon="-6.406226987019181">
        <ele>26.57</ele>
        <time>2019-09-05T14:18:24Z</time>
      </trkpt>
      <trkpt lat="57.347553977742791" lon="-6.406206032261252">
        <ele>27.050000000000001</ele>
        <time>2019-09-05T14:18:25Z</time>
      </trkpt>
      <trkpt lat="57.34737703576684" lon="-6.406109975650907">
        <ele>27.530000000000001</ele>
        <time>2019-09-05T14:18:26Z</time>
      </trkpt>
      <trkpt lat="57.347204033285379" lon="-6.406016014516354">
        <ele>27.530000000000001</ele>
        <time>2019-09-05T14:18:27Z</time>
      </trkpt>
      <trkpt lat="57.347030024975538" lon="-6.405914006754756">
        <ele>28.5</ele>
        <time>2019-09-05T14:18:28Z</time>
      </trkpt>
      <trkpt lat="57.346870014443994" lon="-6.405747039243579">
        <ele>28.98</ele>
        <time>2019-09-05T14:18:29Z</time>
      </trkpt>
      <trkpt lat="57.346713021397591" lon="-6.405583005398512">
        <ele>29.940000000000001</ele>
        <time>2019-09-05T14:18:30Z</time>
      </trkpt>
      <trkpt lat="57.346557034179568" lon="-6.405408997088671">
        <ele>30.899999999999999</ele>
        <time>2019-09-05T14:18:31Z</time>
      </trkpt>
      <trkpt lat="57.346419990062714" lon="-6.405182015150785">
        <ele>31.379999999999999</ele>
        <time>2019-09-05T14:18:32Z</time>
      </trkpt>
      <trkpt lat="57.346283029764891" lon="-6.404953021556139">
        <ele>31.859999999999999</ele>
        <time>2019-09-05T14:18:33Z</time>
      </trkpt>
      <trkpt lat="57.346165012568235" lon="-6.404692009091377">
        <ele>32.340000000000003</ele>
        <time>2019-09-05T14:18:34Z</time>
      </trkpt>
      <trkpt lat="57.346054036170244" lon="-6.404425967484713">
        <ele>33.299999999999997</ele>
        <time>2019-09-05T14:18:35Z</time>
      </trkpt>
      <trkpt lat="57.345964014530182" lon="-6.404135031625629">
        <ele>34.259999999999998</ele>
        <time>2019-09-05T14:18:36Z</time>
      </trkpt>
      <trkpt lat="57.345879022032022" lon="-6.403840994462371">
        <ele>35.710000000000001</ele>
        <time>2019-09-05T14:18:37Z</time>
      </trkpt>
      <trkpt lat="57.345418017357588" lon="-6.400956027209759">
        <ele>40.990000000000002</ele>
        <time>2019-09-05T14:18:46Z</time>
      </trkpt>
      <trkpt lat="57.345503009855747" lon="-6.398282032459974">
        <ele>43.880000000000003</ele>
        <time>2019-09-05T14:18:54Z</time>
      </trkpt>
      <trkpt lat="57.345635024830699" lon="-6.395987989380956">
        <ele>44.359999999999999</ele>
        <time>2019-09-05T14:19:01Z</time>
      </trkpt>
      <trkpt lat="57.345619015395641" lon="-6.395661011338234">
        <ele>43.880000000000003</ele>
        <time>2019-09-05T14:19:02Z</time>
      </trkpt>
      <trkpt lat="57.34563603065908" lon="-6.393004031851888">
        <ele>45.799999999999997</ele>
        <time>2019-09-05T14:19:10Z</time>
      </trkpt>
      <trkpt lat="57.345672994852066" lon="-6.392674036324024">
        <ele>46.759999999999998</ele>
        <time>2019-09-05T14:19:11Z</time>
      </trkpt>
      <trkpt lat="57.346505988389254" lon="-6.388405971229076">
        <ele>66.469999999999999</ele>
        <time>2019-09-05T14:19:24Z</time>
      </trkpt>
      <trkpt lat="57.346821986138821" lon="-6.386431027203798">
        <ele>73.680000000000007</ele>
        <time>2019-09-05T14:19:30Z</time>
      </trkpt>
      <trkpt lat="57.346831038594246" lon="-6.386094996705651">
        <ele>74.640000000000001</ele>
        <time>2019-09-05T14:19:31Z</time>
      </trkpt>
      <trkpt lat="57.346802959218621" lon="-6.385760977864265">
        <ele>76.079999999999998</ele>
        <time>2019-09-05T14:19:32Z</time>
      </trkpt>
      <trkpt lat="57.346748979762197" lon="-6.385440034791827">
        <ele>77.040000000000006</ele>
        <time>2019-09-05T14:19:33Z</time>
      </trkpt>
      <trkpt lat="57.346682008355856" lon="-6.385124959051609">
        <ele>78.480000000000004</ele>
        <time>2019-09-05T14:19:34Z</time>
      </trkpt>
      <trkpt lat="57.346602967008948" lon="-6.384823964908719">
        <ele>79.450000000000003</ele>
        <time>2019-09-05T14:19:35Z</time>
      </trkpt>
      <trkpt lat="57.346498025581241" lon="-6.384549960494041">
        <ele>80.409999999999997</ele>
        <time>2019-09-05T14:19:36Z</time>
      </trkpt>
      <trkpt lat="57.346377996727824" lon="-6.384299006313086">
        <ele>81.370000000000005</ele>
        <time>2019-09-05T14:19:37Z</time>
      </trkpt>
      <trkpt lat="57.346245981752872" lon="-6.384068001061678">
        <ele>81.849999999999994</ele>
        <time>2019-09-05T14:19:38Z</time>
      </trkpt>
      <trkpt lat="57.344374973326921" lon="-6.381005002185702">
        <ele>103.95999999999999</ele>
        <time>2019-09-05T14:19:52Z</time>
      </trkpt>
      <trkpt lat="57.342624999582767" lon="-6.378540974110365">
        <ele>117.90000000000001</ele>
        <time>2019-09-05T14:20:03Z</time>
      </trkpt>
      <trkpt lat="57.341178031638265" lon="-6.376731991767883">
        <ele>113.56999999999999</ele>
        <time>2019-09-05T14:20:11Z</time>
      </trkpt>
      <trkpt lat="57.341024978086352" lon="-6.376433009281755">
        <ele>112.13</ele>
        <time>2019-09-05T14:20:12Z</time>
      </trkpt>
      <trkpt lat="57.340871002525091" lon="-6.376135032624006">
        <ele>110.69</ele>
        <time>2019-09-05T14:20:13Z</time>
      </trkpt>
      <trkpt lat="57.340745022520423" lon="-6.375814005732536">
        <ele>109.25</ele>
        <time>2019-09-05T14:20:14Z</time>
      </trkpt>
      <trkpt lat="57.340629016980529" lon="-6.375474035739899">
        <ele>107.81</ele>
        <time>2019-09-05T14:20:15Z</time>
      </trkpt>
      <trkpt lat="57.340529020875692" lon="-6.375116966664791">
        <ele>106.36</ele>
        <time>2019-09-05T14:20:16Z</time>
      </trkpt>
      <trkpt lat="57.340446962043643" lon="-6.374736009165645">
        <ele>104.92</ele>
        <time>2019-09-05T14:20:17Z</time>
      </trkpt>
      <trkpt lat="57.340394994243979" lon="-6.374350022524595">
        <ele>103</ele>
        <time>2019-09-05T14:20:18Z</time>
      </trkpt>
      <trkpt lat="57.340347971767187" lon="-6.373965041711927">
        <ele>101.56</ele>
        <time>2019-09-05T14:20:19Z</time>
      </trkpt>
      <trkpt lat="57.340326011180878" lon="-6.373591041192412">
        <ele>100.11</ele>
        <time>2019-09-05T14:20:20Z</time>
      </trkpt>
      <trkpt lat="57.340318970382214" lon="-6.373213017359376">
        <ele>98.670000000000002</ele>
        <time>2019-09-05T14:20:21Z</time>
      </trkpt>
      <trkpt lat="57.340313019230962" lon="-6.372844967991114">
        <ele>97.709999999999994</ele>
        <time>2019-09-05T14:20:22Z</time>
      </trkpt>
      <trkpt lat="57.340316958725452" lon="-6.372483959421516">
        <ele>96.75</ele>
        <time>2019-09-05T14:20:23Z</time>
      </trkpt>
      <trkpt lat="57.340370016172528" lon="-6.372133009135723">
        <ele>96.269999999999996</ele>
        <time>2019-09-05T14:20:24Z</time>
      </trkpt>
      <trkpt lat="57.340422989800572" lon="-6.371780969202519">
        <ele>95.790000000000006</ele>
        <time>2019-09-05T14:20:25Z</time>
      </trkpt>
      <trkpt lat="57.340475963428617" lon="-6.371428007259965">
        <ele>95.310000000000002</ele>
        <time>2019-09-05T14:20:26Z</time>
      </trkpt>
      <trkpt lat="57.341218013316393" lon="-6.366503974422813">
        <ele>92.900000000000006</ele>
        <time>2019-09-05T14:20:40Z</time>
      </trkpt>
      <trkpt lat="57.341481037437916" lon="-6.364749977365136">
        <ele>91.459999999999994</ele>
        <time>2019-09-05T14:20:45Z</time>
      </trkpt>
      <trkpt lat="57.341495035216212" lon="-6.364384023472667">
        <ele>90.980000000000004</ele>
        <time>2019-09-05T14:20:46Z</time>
      </trkpt>
      <trkpt lat="57.341510038822889" lon="-6.364024020731449">
        <ele>90.5</ele>
        <time>2019-09-05T14:20:47Z</time>
      </trkpt>
      <trkpt lat="57.341456981375813" lon="-6.363668041303754">
        <ele>89.540000000000006</ele>
        <time>2019-09-05T14:20:48Z</time>
      </trkpt>
      <trkpt lat="57.341406019404531" lon="-6.363314995542169">
        <ele>88.579999999999998</ele>
        <time>2019-09-05T14:20:49Z</time>
      </trkpt>
      <trkpt lat="57.341337958350778" lon="-6.362988017499447">
        <ele>88.099999999999994</ele>
        <time>2019-09-05T14:20:50Z</time>
      </trkpt>
      <trkpt lat="57.341251038014889" lon="-6.362669002264738">
        <ele>87.140000000000001</ele>
        <time>2019-09-05T14:20:51Z</time>
      </trkpt>
      <trkpt lat="57.341157998889685" lon="-6.362356022000313">
        <ele>86.659999999999997</ele>
        <time>2019-09-05T14:20:52Z</time>
      </trkpt>
      <trkpt lat="57.341048028320074" lon="-6.362057961523533">
        <ele>86.659999999999997</ele>
        <time>2019-09-05T14:20:53Z</time>
      </trkpt>
      <trkpt lat="57.339634001255035" lon="-6.358242016285658">
        <ele>95.310000000000002</ele>
        <time>2019-09-05T14:21:06Z</time>
      </trkpt>
      <trkpt lat="57.338302033022046" lon="-6.355585036799312">
        <ele>105.88</ele>
        <time>2019-09-05T14:21:16Z</time>
      </trkpt>
      <trkpt lat="57.336232038214803" lon="-6.352690011262894">
        <ele>112.13</ele>
        <time>2019-09-05T14:21:29Z</time>
      </trkpt>
      <trkpt lat="57.333940006792545" lon="-6.349315037950873">
        <ele>120.3</ele>
        <time>2019-09-05T14:21:44Z</time>
      </trkpt>
      <trkpt lat="57.332513993605971" lon="-6.346221026033163">
        <ele>125.59</ele>
        <time>2019-09-05T14:21:55Z</time>
      </trkpt>
      <trkpt lat="57.33124203979969" lon="-6.342493006959558">
        <ele>119.81999999999999</ele>
        <time>2019-09-05T14:22:07Z</time>
      </trkpt>
      <trkpt lat="57.330376021564007" lon="-6.33923496119678">
        <ele>111.17</ele>
        <time>2019-09-05T14:22:17Z</time>
      </trkpt>
      <trkpt lat="57.329543028026819" lon="-6.336773028597236">
        <ele>105.88</ele>
        <time>2019-09-05T14:22:25Z</time>
      </trkpt>
      <trkpt lat="57.328890999779105" lon="-6.334559032693505">
        <ele>102.52</ele>
        <time>2019-09-05T14:22:32Z</time>
      </trkpt>
      <trkpt lat="57.328759990632534" lon="-6.334297014400363">
        <ele>101.56</ele>
        <time>2019-09-05T14:22:33Z</time>
      </trkpt>
      <trkpt lat="57.328624036163092" lon="-6.334059974178672">
        <ele>101.56</ele>
        <time>2019-09-05T14:22:34Z</time>
      </trkpt>
      <trkpt lat="57.328454973176122" lon="-6.333900969475508">
        <ele>101.08</ele>
        <time>2019-09-05T14:22:35Z</time>
      </trkpt>
      <trkpt lat="57.328284988179803" lon="-6.33375302888453">
        <ele>101.08</ele>
        <time>2019-09-05T14:22:36Z</time>
      </trkpt>
      <trkpt lat="57.328104022890329" lon="-6.333654038608074">
        <ele>101.56</ele>
        <time>2019-09-05T14:22:37Z</time>
      </trkpt>
      <trkpt lat="57.327916016802192" lon="-6.333595030009747">
        <ele>101.56</ele>
        <time>2019-09-05T14:22:38Z</time>
      </trkpt>
      <trkpt lat="57.327722981572151" lon="-6.33354096673429">
        <ele>102.04000000000001</ele>
        <time>2019-09-05T14:22:39Z</time>
      </trkpt>
      <trkpt lat="57.325522983446717" lon="-6.332654999569058">
        <ele>105.40000000000001</ele>
        <time>2019-09-05T14:22:51Z</time>
      </trkpt>
      <trkpt lat="57.324113985523582" lon="-6.331229992210865">
        <ele>108.29000000000001</ele>
        <time>2019-09-05T14:23:00Z</time>
      </trkpt>
      <trkpt lat="57.322265021502972" lon="-6.328667979687452">
        <ele>115.5</ele>
        <time>2019-09-05T14:23:11Z</time>
      </trkpt>
      <trkpt lat="57.321178978309035" lon="-6.326788002625108">
        <ele>121.26000000000001</ele>
        <time>2019-09-05T14:23:18Z</time>
      </trkpt>
      <trkpt lat="57.319724969565868" lon="-6.323963971808553">
        <ele>131.84</ele>
        <time>2019-09-05T14:23:29Z</time>
      </trkpt>
      <trkpt lat="57.318253023549914" lon="-6.322332015261054">
        <ele>140.97</ele>
        <time>2019-09-05T14:23:38Z</time>
      </trkpt>
      <trkpt lat="57.316050007939339" lon="-6.320751020684838">
        <ele>152.50999999999999</ele>
        <time>2019-09-05T14:23:50Z</time>
      </trkpt>
      <trkpt lat="57.313529988750815" lon="-6.319688027724624">
        <ele>153.94999999999999</ele>
        <time>2019-09-05T14:24:03Z</time>
      </trkpt>
      <trkpt lat="57.311018016189337" lon="-6.318668033927679">
        <ele>148.18000000000001</ele>
        <time>2019-09-05T14:24:16Z</time>
      </trkpt>
      <trkpt lat="57.308248970657587" lon="-6.316729970276356">
        <ele>134.24000000000001</ele>
        <time>2019-09-05T14:24:31Z</time>
      </trkpt>
      <trkpt lat="57.306678034365177" lon="-6.315193986520171">
        <ele>124.15000000000001</ele>
        <time>2019-09-05T14:24:40Z</time>
      </trkpt>
      <trkpt lat="57.305730963125825" lon="-6.313885990530253">
        <ele>116.94</ele>
        <time>2019-09-05T14:24:46Z</time>
      </trkpt>
      <trkpt lat="57.305588973686099" lon="-6.31362003274262">
        <ele>115.5</ele>
        <time>2019-09-05T14:24:47Z</time>
      </trkpt>
      <trkpt lat="57.305484032258391" lon="-6.313320966437459">
        <ele>113.56999999999999</ele>
        <time>2019-09-05T14:24:48Z</time>
      </trkpt>
      <trkpt lat="57.30537598952651" lon="-6.313015026971698">
        <ele>112.13</ele>
        <time>2019-09-05T14:24:49Z</time>
      </trkpt>
      <trkpt lat="57.305284962058067" lon="-6.312688970938325">
        <ele>110.20999999999999</ele>
        <time>2019-09-05T14:24:50Z</time>
      </trkpt>
      <trkpt lat="57.305207010358572" lon="-6.312355035915971">
        <ele>108.77</ele>
        <time>2019-09-05T14:24:51Z</time>
      </trkpt>
      <trkpt lat="57.305163005366921" lon="-6.312001990154386">
        <ele>106.84</ele>
        <time>2019-09-05T14:24:52Z</time>
      </trkpt>
      <trkpt lat="57.30513702146709" lon="-6.311652967706323">
        <ele>105.40000000000001</ele>
        <time>2019-09-05T14:24:53Z</time>
      </trkpt>
      <trkpt lat="57.305111959576607" lon="-6.311319032683969">
        <ele>103.95999999999999</ele>
        <time>2019-09-05T14:24:54Z</time>
      </trkpt>
      <trkpt lat="57.305112965404987" lon="-6.31100001744926">
        <ele>103</ele>
        <time>2019-09-05T14:24:55Z</time>
      </trkpt>
      <trkpt lat="57.30516099371016" lon="-6.310687037184835">
        <ele>101.56</ele>
        <time>2019-09-05T14:24:56Z</time>
      </trkpt>
      <trkpt lat="57.305210027843714" lon="-6.310369027778506">
        <ele>100.11</ele>
        <time>2019-09-05T14:24:57Z</time>
      </trkpt>
      <trkpt lat="57.305294014513493" lon="-6.310083959251642">
        <ele>99.150000000000006</ele>
        <time>2019-09-05T14:24:58Z</time>
      </trkpt>
      <trkpt lat="57.30539602227509" lon="-6.309826970100403">
        <ele>97.709999999999994</ele>
        <time>2019-09-05T14:24:59Z</time>
      </trkpt>
      <trkpt lat="57.305518984794617" lon="-6.309608034789562">
        <ele>96.269999999999996</ele>
        <time>2019-09-05T14:25:00Z</time>
      </trkpt>
      <trkpt lat="57.305657034739852" lon="-6.309417011216283">
        <ele>95.310000000000002</ele>
        <time>2019-09-05T14:25:01Z</time>
      </trkpt>
      <trkpt lat="57.30580598115921" lon="-6.309243002906442">
        <ele>93.870000000000005</ele>
        <time>2019-09-05T14:25:02Z</time>
      </trkpt>
      <trkpt lat="57.30595400556922" lon="-6.30906798876822">
        <ele>92.420000000000002</ele>
        <time>2019-09-05T14:25:03Z</time>
      </trkpt>
      <trkpt lat="57.306219041347504" lon="-6.308719972148538">
        <ele>90.5</ele>
        <time>2019-09-05T14:25:05Z</time>
      </trkpt>
      <trkpt lat="57.306301016360521" lon="-6.308515034615994">
        <ele>89.540000000000006</ele>
        <time>2019-09-05T14:25:06Z</time>
      </trkpt>
      <trkpt lat="57.306335968896747" lon="-6.308312024921179">
        <ele>88.579999999999998</ele>
        <time>2019-09-05T14:25:07Z</time>
      </trkpt>
      <trkpt lat="57.30632197111845" lon="-6.308125024661422">
        <ele>88.099999999999994</ele>
        <time>2019-09-05T14:25:08Z</time>
      </trkpt>
      <trkpt lat="57.30629799887538" lon="-6.307934001088142">
        <ele>87.620000000000005</ele>
        <time>2019-09-05T14:25:09Z</time>
      </trkpt>
      <trkpt lat="57.306228009983897" lon="-6.307794023305178">
        <ele>87.140000000000001</ele>
        <time>2019-09-05T14:25:10Z</time>
      </trkpt>
      <trkpt lat="57.30614603497088" lon="-6.30767097696662">
        <ele>86.659999999999997</ele>
        <time>2019-09-05T14:25:11Z</time>
      </trkpt>
      <trkpt lat="57.306022988632321" lon="-6.307645998895168">
        <ele>86.180000000000007</ele>
        <time>2019-09-05T14:25:12Z</time>
      </trkpt>
      <trkpt lat="57.305888962000608" lon="-6.307618003338575">
        <ele>85.689999999999998</ele>
        <time>2019-09-05T14:25:13Z</time>
      </trkpt>
      <trkpt lat="57.30574001558125" lon="-6.307586990296841">
        <ele>84.730000000000004</ele>
        <time>2019-09-05T14:25:14Z</time>
      </trkpt>
      <trkpt lat="57.305578999221325" lon="-6.307553965598345">
        <ele>84.25</ele>
        <time>2019-09-05T14:25:15Z</time>
      </trkpt>
      <trkpt lat="57.305413037538528" lon="-6.307451035827398">
        <ele>83.290000000000006</ele>
        <time>2019-09-05T14:25:16Z</time>
      </trkpt>
      <trkpt lat="57.305252021178603" lon="-6.307334024459124">
        <ele>82.329999999999998</ele>
        <time>2019-09-05T14:25:17Z</time>
      </trkpt>
      <trkpt lat="57.305102990940213" lon="-6.307178037241101">
        <ele>81.370000000000005</ele>
        <time>2019-09-05T14:25:18Z</time>
      </trkpt>
      <trkpt lat="57.304985979571939" lon="-6.306991958990693">
        <ele>80.409999999999997</ele>
        <time>2019-09-05T14:25:19Z</time>
      </trkpt>
      <trkpt lat="57.304873997345567" lon="-6.30678802728653">
        <ele>79.450000000000003</ele>
        <time>2019-09-05T14:25:20Z</time>
      </trkpt>
      <trkpt lat="57.304780958220363" lon="-6.306547969579697">
        <ele>78.480000000000004</ele>
        <time>2019-09-05T14:25:21Z</time>
      </trkpt>
      <trkpt lat="57.304631005972624" lon="-6.306052012369037">
        <ele>76.560000000000002</ele>
        <time>2019-09-05T14:25:23Z</time>
      </trkpt>
      <trkpt lat="57.30451600626111" lon="-6.305592013522983">
        <ele>74.640000000000001</ele>
        <time>2019-09-05T14:25:25Z</time>
      </trkpt>
      <trkpt lat="57.304421961307526" lon="-6.303399978205562">
        <ele>68.870000000000005</ele>
        <time>2019-09-05T14:25:33Z</time>
      </trkpt>
      <trkpt lat="57.304762015119195" lon="-6.30111800506711">
        <ele>63.100000000000001</ele>
        <time>2019-09-05T14:25:41Z</time>
      </trkpt>
      <trkpt lat="57.304895035922527" lon="-6.300372015684843">
        <ele>61.18</ele>
        <time>2019-09-05T14:25:44Z</time>
      </trkpt>
      <trkpt lat="57.304913979023695" lon="-6.300121983513236">
        <ele>60.700000000000003</ele>
        <time>2019-09-05T14:25:45Z</time>
      </trkpt>
      <trkpt lat="57.304885983467102" lon="-6.299882009625435">
        <ele>59.740000000000002</ele>
        <time>2019-09-05T14:25:46Z</time>
      </trkpt>
      <trkpt lat="57.304852958768606" lon="-6.29963600076735">
        <ele>59.259999999999998</ele>
        <time>2019-09-05T14:25:47Z</time>
      </trkpt>
      <trkpt lat="57.304766038432717" lon="-6.299450006335974">
        <ele>58.780000000000001</ele>
        <time>2019-09-05T14:25:48Z</time>
      </trkpt>
      <trkpt lat="57.304668975993991" lon="-6.299300976097584">
        <ele>58.299999999999997</ele>
        <time>2019-09-05T14:25:49Z</time>
      </trkpt>
      <trkpt lat="57.304550036787987" lon="-6.299216989427805">
        <ele>57.82</ele>
        <time>2019-09-05T14:25:50Z</time>
      </trkpt>
      <trkpt lat="57.304433025419712" lon="-6.299179019406438">
        <ele>58.299999999999997</ele>
        <time>2019-09-05T14:25:51Z</time>
      </trkpt>
      <trkpt lat="57.30432297103107" lon="-6.299179019406438">
        <ele>58.299999999999997</ele>
        <time>2019-09-05T14:25:52Z</time>
      </trkpt>
      <trkpt lat="57.304213000461459" lon="-6.299242973327637">
        <ele>58.299999999999997</ele>
        <time>2019-09-05T14:25:53Z</time>
      </trkpt>
      <trkpt lat="57.3041089810431" lon="-6.299302987754345">
        <ele>58.780000000000001</ele>
        <time>2019-09-05T14:25:54Z</time>
      </trkpt>
      <trkpt lat="57.304004961624742" lon="-6.299363002181053">
        <ele>58.780000000000001</ele>
        <time>2019-09-05T14:25:55Z</time>
      </trkpt>
      <trkpt lat="57.303903959691525" lon="-6.299422010779381">
        <ele>58.780000000000001</ele>
        <time>2019-09-05T14:25:56Z</time>
      </trkpt>
      <trkpt lat="57.303801029920578" lon="-6.299482025206089">
        <ele>59.259999999999998</ele>
        <time>2019-09-05T14:25:57Z</time>
      </trkpt>
      <trkpt lat="57.303696004673839" lon="-6.299542961642146">
        <ele>59.259999999999998</ele>
        <time>2019-09-05T14:25:58Z</time>
      </trkpt>
      <trkpt lat="57.303582010790706" lon="-6.299571041017771">
        <ele>59.259999999999998</ele>
        <time>2019-09-05T14:25:59Z</time>
      </trkpt>
      <trkpt lat="57.30346399359405" lon="-6.299580009654164">
        <ele>59.259999999999998</ele>
        <time>2019-09-05T14:26:00Z</time>
      </trkpt>
      <trkpt lat="57.303340025246143" lon="-6.299568023532629">
        <ele>58.780000000000001</ele>
        <time>2019-09-05T14:26:01Z</time>
      </trkpt>
      <trkpt lat="57.303213961422443" lon="-6.299509014934301">
        <ele>58.299999999999997</ele>
        <time>2019-09-05T14:26:02Z</time>
      </trkpt>
      <trkpt lat="57.303083036094904" lon="-6.299446988850832">
        <ele>57.82</ele>
        <time>2019-09-05T14:26:03Z</time>
      </trkpt>
      <trkpt lat="57.302954960614443" lon="-6.299343975260854">
        <ele>57.340000000000003</ele>
        <time>2019-09-05T14:26:04Z</time>
      </trkpt>
      <trkpt lat="57.302829986438155" lon="-6.299196034669876">
        <ele>56.859999999999999</ele>
        <time>2019-09-05T14:26:05Z</time>
      </trkpt>
      <trkpt lat="57.302700988948345" lon="-6.299042981117964">
        <ele>56.369999999999997</ele>
        <time>2019-09-05T14:26:06Z</time>
      </trkpt>
      <trkpt lat="57.30258003808558" lon="-6.298851035535336">
        <ele>55.409999999999997</ele>
        <time>2019-09-05T14:26:07Z</time>
      </trkpt>
      <trkpt lat="57.301245974376798" lon="-6.296585993841291">
        <ele>46.759999999999998</ele>
        <time>2019-09-05T14:26:18Z</time>
      </trkpt>
      <trkpt lat="57.300189016386867" lon="-6.295128967612982">
        <ele>41.950000000000003</ele>
        <time>2019-09-05T14:26:27Z</time>
      </trkpt>
      <trkpt lat="57.299223002046347" lon="-6.29340497776866">
        <ele>36.670000000000002</ele>
        <time>2019-09-05T14:26:37Z</time>
      </trkpt>
      <trkpt lat="57.298318007960916" lon="-6.290953019633889">
        <ele>34.259999999999998</ele>
        <time>2019-09-05T14:26:48Z</time>
      </trkpt>
      <trkpt lat="57.297713002189994" lon="-6.287747025489807">
        <ele>33.299999999999997</ele>
        <time>2019-09-05T14:26:58Z</time>
      </trkpt>
      <trkpt lat="57.297388035804033" lon="-6.285190964117646">
        <ele>34.259999999999998</ele>
        <time>2019-09-05T14:27:06Z</time>
      </trkpt>
      <trkpt lat="57.297084024176002" lon="-6.282422002404928">
        <ele>32.82</ele>
        <time>2019-09-05T14:27:17Z</time>
      </trkpt>
      <trkpt lat="57.296880008652806" lon="-6.279255989938974">
        <ele>28.5</ele>
        <time>2019-09-05T14:27:28Z</time>
      </trkpt>
      <trkpt lat="57.296905992552638" lon="-6.274850964546204">
        <ele>26.57</ele>
        <time>2019-09-05T14:27:42Z</time>
      </trkpt>
      <trkpt lat="57.296930970624089" lon="-6.27104097045958">
        <ele>30.420000000000002</ele>
        <time>2019-09-05T14:27:53Z</time>
      </trkpt>
      <trkpt lat="57.297150995582342" lon="-6.266307961195707">
        <ele>34.740000000000002</ele>
        <time>2019-09-05T14:28:06Z</time>
      </trkpt>
      <trkpt lat="57.297576041892171" lon="-6.263485020026565">
        <ele>35.229999999999997</ele>
        <time>2019-09-05T14:28:15Z</time>
      </trkpt>
      <trkpt lat="57.298309961333871" lon="-6.26051003113389">
        <ele>37.630000000000003</ele>
        <time>2019-09-05T14:28:25Z</time>
      </trkpt>
      <trkpt lat="57.299543023109436" lon="-6.256928024813533">
        <ele>39.07</ele>
        <time>2019-09-05T14:28:37Z</time>
      </trkpt>
      <trkpt lat="57.300665024667978" lon="-6.253676014021039">
        <ele>40.990000000000002</ele>
        <time>2019-09-05T14:28:48Z</time>
      </trkpt>
      <trkpt lat="57.301684012636542" lon="-6.250761039555073">
        <ele>42.439999999999998</ele>
        <time>2019-09-05T14:28:59Z</time>
      </trkpt>
      <trkpt lat="57.302804002538323" lon="-6.247872970998287">
        <ele>41.950000000000003</ele>
        <time>2019-09-05T14:29:11Z</time>
      </trkpt>
      <trkpt lat="57.303923992440104" lon="-6.244620038196445">
        <ele>42.439999999999998</ele>
        <time>2019-09-05T14:29:23Z</time>
      </trkpt>
      <trkpt lat="57.304634023457766" lon="-6.240860000252724">
        <ele>43.399999999999999</ele>
        <time>2019-09-05T14:29:34Z</time>
      </trkpt>
      <trkpt lat="57.305532982572913" lon="-6.23492100276053">
        <ele>45.799999999999997</ele>
        <time>2019-09-05T14:29:51Z</time>
      </trkpt>
      <trkpt lat="57.306136982515454" lon="-6.229937039315701">
        <ele>48.68</ele>
        <time>2019-09-05T14:30:05Z</time>
      </trkpt>
      <trkpt lat="57.306322976946831" lon="-6.224863976240158">
        <ele>49.649999999999999</ele>
        <time>2019-09-05T14:30:19Z</time>
      </trkpt>
      <trkpt lat="57.305971020832658" lon="-6.221314994618297">
        <ele>52.049999999999997</ele>
        <time>2019-09-05T14:30:29Z</time>
      </trkpt>
      <trkpt lat="57.305182032287121" lon="-6.215705992653966">
        <ele>58.780000000000001</ele>
        <time>2019-09-05T14:30:45Z</time>
      </trkpt>
      <trkpt lat="57.304523969069123" lon="-6.212719017639756">
        <ele>64.549999999999997</ele>
        <time>2019-09-05T14:30:54Z</time>
      </trkpt>
      <trkpt lat="57.303510010242462" lon="-6.210507033392787">
        <ele>70.310000000000002</ele>
        <time>2019-09-05T14:31:02Z</time>
      </trkpt>
      <trkpt lat="57.302704006433487" lon="-6.208750018849969">
        <ele>73.200000000000003</ele>
        <time>2019-09-05T14:31:10Z</time>
      </trkpt>
      <trkpt lat="57.301656017079949" lon="-6.206289008259773">
        <ele>75.599999999999994</ele>
        <time>2019-09-05T14:31:20Z</time>
      </trkpt>
      <trkpt lat="57.300437036901712" lon="-6.204145001247525">
        <ele>76.079999999999998</ele>
        <time>2019-09-05T14:31:30Z</time>
      </trkpt>
      <trkpt lat="57.299129040911794" lon="-6.203156020492315">
        <ele>76.079999999999998</ele>
        <time>2019-09-05T14:31:38Z</time>
      </trkpt>
      <trkpt lat="57.298128996044397" lon="-6.202317997813225">
        <ele>76.079999999999998</ele>
        <time>2019-09-05T14:31:45Z</time>
      </trkpt>
      <trkpt lat="57.297315029427409" lon="-6.200532987713814">
        <ele>75.599999999999994</ele>
        <time>2019-09-05T14:31:53Z</time>
      </trkpt>
      <trkpt lat="57.296065036207438" lon="-6.19794599711895">
        <ele>77.040000000000006</ele>
        <time>2019-09-05T14:32:04Z</time>
      </trkpt>
      <trkpt lat="57.295085024088621" lon="-6.196343963965774">
        <ele>79.930000000000007</ele>
        <time>2019-09-05T14:32:13Z</time>
      </trkpt>
      <trkpt lat="57.294527962803841" lon="-6.194388968870044">
        <ele>79.930000000000007</ele>
        <time>2019-09-05T14:32:21Z</time>
      </trkpt>
      <trkpt lat="57.294127978384495" lon="-6.191898034885526">
        <ele>76.079999999999998</ele>
        <time>2019-09-05T14:32:29Z</time>
      </trkpt>
      <trkpt lat="57.293273024260998" lon="-6.189598962664604">
        <ele>72.239999999999995</ele>
        <time>2019-09-05T14:32:37Z</time>
      </trkpt>
      <trkpt lat="57.292273985221982" lon="-6.187953008338809">
        <ele>67.909999999999997</ele>
        <time>2019-09-05T14:32:45Z</time>
      </trkpt>
      <trkpt lat="57.290857024490833" lon="-6.186582986265421">
        <ele>59.740000000000002</ele>
        <time>2019-09-05T14:32:56Z</time>
      </trkpt>
      <trkpt lat="57.289501000195742" lon="-6.185457967221737">
        <ele>53.009999999999998</ele>
        <time>2019-09-05T14:33:05Z</time>
      </trkpt>
      <trkpt lat="57.288754004985094" lon="-6.183825004845858">
        <ele>47.719999999999999</ele>
        <time>2019-09-05T14:33:12Z</time>
      </trkpt>
      <trkpt lat="57.288444964215159" lon="-6.181976962834597">
        <ele>40.509999999999998</ele>
        <time>2019-09-05T14:33:19Z</time>
      </trkpt>
      <trkpt lat="57.288372963666916" lon="-6.179034998640418">
        <ele>30.420000000000002</ele>
        <time>2019-09-05T14:33:30Z</time>
      </trkpt>
      <trkpt lat="57.288401965051889" lon="-6.178800975903869">
        <ele>29.460000000000001</ele>
        <time>2019-09-05T14:33:31Z</time>
      </trkpt>
      <trkpt lat="57.288482012227178" lon="-6.178536023944616">
        <ele>28.98</ele>
        <time>2019-09-05T14:33:32Z</time>
      </trkpt>
      <trkpt lat="57.288554012775421" lon="-6.178295966237783">
        <ele>28.02</ele>
        <time>2019-09-05T14:33:33Z</time>
      </trkpt>
      <trkpt lat="57.289225989952683" lon="-6.175649967044592">
        <ele>19.359999999999999</ele>
        <time>2019-09-05T14:33:44Z</time>
      </trkpt>
      <trkpt lat="57.289409972727299" lon="-6.174553027376533">
        <ele>15.52</ele>
        <time>2019-09-05T14:33:49Z</time>
      </trkpt>
      <trkpt lat="57.289467975497246" lon="-6.17439997382462">
        <ele>14.56</ele>
        <time>2019-09-05T14:33:50Z</time>
      </trkpt>
      <trkpt lat="57.289513992145658" lon="-6.174276005476713">
        <ele>14.08</ele>
        <time>2019-09-05T14:33:51Z</time>
      </trkpt>
      <trkpt lat="57.289565959945321" lon="-6.174172991886735">
        <ele>13.6</ele>
        <time>2019-09-05T14:33:52Z</time>
      </trkpt>
      <trkpt lat="57.289623040705919" lon="-6.174096968024969">
        <ele>13.119999999999999</ele>
        <time>2019-09-05T14:33:53Z</time>
      </trkpt>
      <trkpt lat="57.289683977141976" lon="-6.174026979133487">
        <ele>12.15</ele>
        <time>2019-09-05T14:33:54Z</time>
      </trkpt>
      <trkpt lat="57.289740974083543" lon="-6.17398900911212">
        <ele>11.67</ele>
        <time>2019-09-05T14:33:55Z</time>
      </trkpt>
      <trkpt lat="57.289800988510251" lon="-6.173951039090753">
        <ele>11.67</ele>
        <time>2019-09-05T14:33:56Z</time>
      </trkpt>
      <trkpt lat="57.289851028472185" lon="-6.173945004120469">
        <ele>11.19</ele>
        <time>2019-09-05T14:33:57Z</time>
      </trkpt>
      <trkpt lat="57.289899978786707" lon="-6.173939974978566">
        <ele>10.710000000000001</ele>
        <time>2019-09-05T14:33:58Z</time>
      </trkpt>
      <trkpt lat="57.289942977949977" lon="-6.173935029655695">
        <ele>10.710000000000001</ele>
        <time>2019-09-05T14:33:59Z</time>
      </trkpt>
      <trkpt lat="57.289977008476853" lon="-6.173931006342173">
        <ele>10.710000000000001</ele>
        <time>2019-09-05T14:34:00Z</time>
      </trkpt>
      <trkpt lat="57.29014397598803" lon="-6.173910973593593">
        <ele>10.23</ele>
        <time>2019-09-05T14:34:10Z</time>
      </trkpt>
      <trkpt lat="57.290168032050133" lon="-6.17390401661396">
        <ele>10.710000000000001</ele>
        <time>2019-09-05T14:34:20Z</time>
      </trkpt>
      <trkpt lat="57.29026903398335" lon="-6.173822963610292">
        <ele>11.19</ele>
        <time>2019-09-05T14:34:22Z</time>
      </trkpt>
      <trkpt lat="57.290266016498208" lon="-6.17375398054719">
        <ele>11.19</ele>
        <time>2019-09-05T14:34:23Z</time>
      </trkpt>
      <trkpt lat="57.290259981527925" lon="-6.173614002764225">
        <ele>11.67</ele>
        <time>2019-09-05T14:34:24Z</time>
      </trkpt>
      <trkpt lat="57.290245983749628" lon="-6.173256011679769">
        <ele>11.67</ele>
        <time>2019-09-05T14:34:26Z</time>
      </trkpt>
      <trkpt lat="57.290238020941615" lon="-6.173050990328193">
        <ele>12.15</ele>
        <time>2019-09-05T14:34:27Z</time>
      </trkpt>
      <trkpt lat="57.290242966264486" lon="-6.172562995925546">
        <ele>12.15</ele>
        <time>2019-09-05T14:34:29Z</time>
      </trkpt>
      <trkpt lat="57.290267022326589" lon="-6.172297960147262">
        <ele>12.15</ele>
        <time>2019-09-05T14:34:30Z</time>
      </trkpt>
      <trkpt lat="57.290328964591026" lon="-6.172021022066474">
        <ele>12.15</ele>
        <time>2019-09-05T14:34:31Z</time>
      </trkpt>
      <trkpt lat="57.290396019816399" lon="-6.171740982681513">
        <ele>13.119999999999999</ele>
        <time>2019-09-05T14:34:32Z</time>
      </trkpt>
      <trkpt lat="57.290461985394359" lon="-6.171463038772345">
        <ele>13.6</ele>
        <time>2019-09-05T14:34:33Z</time>
      </trkpt>
      <trkpt lat="57.290577990934253" lon="-6.171202026307583">
        <ele>14.08</ele>
        <time>2019-09-05T14:34:34Z</time>
      </trkpt>
      <trkpt lat="57.290691984817386" lon="-6.170945037156344">
        <ele>15.039999999999999</ele>
        <time>2019-09-05T14:34:35Z</time>
      </trkpt>
      <trkpt lat="57.290814025327563" lon="-6.170676983892918">
        <ele>15.039999999999999</ele>
        <time>2019-09-05T14:34:36Z</time>
      </trkpt>
      <trkpt lat="57.290961965918541" lon="-6.170446984469891">
        <ele>15.52</ele>
        <time>2019-09-05T14:34:37Z</time>
      </trkpt>
      <trkpt lat="57.292629964649677" lon="-6.167890001088381">
        <ele>14.56</ele>
        <time>2019-09-05T14:34:47Z</time>
      </trkpt>
      <trkpt lat="57.293748026713729" lon="-6.165903992950916">
        <ele>13.119999999999999</ele>
        <time>2019-09-05T14:34:53Z</time>
      </trkpt>
      <trkpt lat="57.29396696202457" lon="-6.16558900102973">
        <ele>12.630000000000001</ele>
        <time>2019-09-05T14:34:54Z</time>
      </trkpt>
      <trkpt lat="57.295041019096971" lon="-6.164139015600085">
        <ele>11.67</ele>
        <time>2019-09-05T14:34:59Z</time>
      </trkpt>
      <trkpt lat="57.295969985425472" lon="-6.162504963576794">
        <ele>13.119999999999999</ele>
        <time>2019-09-05T14:35:06Z</time>
      </trkpt>
      <trkpt lat="57.296067969873548" lon="-6.162240011617541">
        <ele>13.119999999999999</ele>
        <time>2019-09-05T14:35:07Z</time>
      </trkpt>
      <trkpt lat="57.296165032312274" lon="-6.161977993324399">
        <ele>13.119999999999999</ele>
        <time>2019-09-05T14:35:08Z</time>
      </trkpt>
      <trkpt lat="57.296242984011769" lon="-6.161708012223244">
        <ele>13.119999999999999</ele>
        <time>2019-09-05T14:35:09Z</time>
      </trkpt>
      <trkpt lat="57.296305010095239" lon="-6.161414980888367">
        <ele>13.119999999999999</ele>
        <time>2019-09-05T14:35:10Z</time>
      </trkpt>
      <trkpt lat="57.296353038400412" lon="-6.161112980917096">
        <ele>13.119999999999999</ele>
        <time>2019-09-05T14:35:11Z</time>
      </trkpt>
      <trkpt lat="57.296382039785385" lon="-6.160802012309432">
        <ele>12.630000000000001</ele>
        <time>2019-09-05T14:35:12Z</time>
      </trkpt>
      <trkpt lat="57.296407017856836" lon="-6.160490037873387">
        <ele>12.630000000000001</ele>
        <time>2019-09-05T14:35:13Z</time>
      </trkpt>
      <trkpt lat="57.296414980664849" lon="-6.160168005153537">
        <ele>12.15</ele>
        <time>2019-09-05T14:35:14Z</time>
      </trkpt>
      <trkpt lat="57.296526962891221" lon="-6.156909037381411">
        <ele>12.630000000000001</ele>
        <time>2019-09-05T14:35:24Z</time>
      </trkpt>
      <trkpt lat="57.296554958447814" lon="-6.156601002439857">
        <ele>13.119999999999999</ele>
        <time>2019-09-05T14:35:25Z</time>
      </trkpt>
      <trkpt lat="57.296622013673186" lon="-6.156319035217166">
        <ele>13.6</ele>
        <time>2019-09-05T14:35:26Z</time>
      </trkpt>
      <trkpt lat="57.296693008393049" lon="-6.15602700971067">
        <ele>14.08</ele>
        <time>2019-09-05T14:35:27Z</time>
      </trkpt>
      <trkpt lat="57.296771965920925" lon="-6.155732972547412">
        <ele>14.08</ele>
        <time>2019-09-05T14:35:28Z</time>
      </trkpt>
      <trkpt lat="57.296872967854142" lon="-6.155438013374806">
        <ele>14.56</ele>
        <time>2019-09-05T14:35:29Z</time>
      </trkpt>
      <trkpt lat="57.297642007470131" lon="-6.153213959187269">
        <ele>16</ele>
        <time>2019-09-05T14:35:36Z</time>
      </trkpt>
      <trkpt lat="57.298556976020336" lon="-6.150251962244511">
        <ele>18.399999999999999</ele>
        <time>2019-09-05T14:35:46Z</time>
      </trkpt>
      <trkpt lat="57.298620007932186" lon="-6.149906041100621">
        <ele>18.879999999999999</ele>
        <time>2019-09-05T14:35:47Z</time>
      </trkpt>
      <trkpt lat="57.298862999305129" lon="-6.148741962388158">
        <ele>20.809999999999999</ele>
        <time>2019-09-05T14:35:50Z</time>
      </trkpt>
      <trkpt lat="57.298970958217978" lon="-6.148339966312051">
        <ele>21.289999999999999</ele>
        <time>2019-09-05T14:35:51Z</time>
      </trkpt>
      <trkpt lat="57.299105990678072" lon="-6.147976024076343">
        <ele>21.77</ele>
        <time>2019-09-05T14:35:52Z</time>
      </trkpt>
      <trkpt lat="57.300064964219928" lon="-6.146169975399971">
        <ele>23.210000000000001</ele>
        <time>2019-09-05T14:35:58Z</time>
      </trkpt>
      <trkpt lat="57.301603965461254" lon="-6.143836034461856">
        <ele>26.57</ele>
        <time>2019-09-05T14:36:08Z</time>
      </trkpt>
      <trkpt lat="57.302273008972406" lon="-6.142712021246553">
        <ele>30.420000000000002</ele>
        <time>2019-09-05T14:36:13Z</time>
      </trkpt>
      <trkpt lat="57.302585989236832" lon="-6.141901994124055">
        <ele>33.299999999999997</ele>
        <time>2019-09-05T14:36:16Z</time>
      </trkpt>
      <trkpt lat="57.30320499278605" lon="-6.139189023524523">
        <ele>34.740000000000002</ele>
        <time>2019-09-05T14:36:24Z</time>
      </trkpt>
      <trkpt lat="57.304090037941933" lon="-6.136076990514994">
        <ele>29.940000000000001</ele>
        <time>2019-09-05T14:36:33Z</time>
      </trkpt>
      <trkpt lat="57.3054179828614" lon="-6.133280033245683">
        <ele>30.420000000000002</ele>
        <time>2019-09-05T14:36:40Z</time>
      </trkpt>
      <trkpt lat="57.306704018265009" lon="-6.131182964891195">
        <ele>31.379999999999999</ele>
        <time>2019-09-05T14:36:47Z</time>
      </trkpt>
      <trkpt lat="57.308142017573118" lon="-6.12923501059413">
        <ele>30.899999999999999</ele>
        <time>2019-09-05T14:36:56Z</time>
      </trkpt>
      <trkpt lat="57.308402024209499" lon="-6.128795966506004">
        <ele>30.899999999999999</ele>
        <time>2019-09-05T14:36:58Z</time>
      </trkpt>
      <trkpt lat="57.308518029749393" lon="-6.128540989011526">
        <ele>30.899999999999999</ele>
        <time>2019-09-05T14:36:59Z</time>
      </trkpt>
      <trkpt lat="57.309611029922962" lon="-6.126022981479764">
        <ele>28.5</ele>
        <time>2019-09-05T14:37:08Z</time>
      </trkpt>
      <trkpt lat="57.31115497648716" lon="-6.122652031481266">
        <ele>26.09</ele>
        <time>2019-09-05T14:37:21Z</time>
      </trkpt>
      <trkpt lat="57.312587024644017" lon="-6.11965499818325">
        <ele>22.25</ele>
        <time>2019-09-05T14:37:33Z</time>
      </trkpt>
      <trkpt lat="57.313035037368536" lon="-6.117357015609741">
        <ele>16.960000000000001</ele>
        <time>2019-09-05T14:37:40Z</time>
      </trkpt>
      <trkpt lat="57.313013998791575" lon="-6.114671034738421">
        <ele>8.310000000000001</ele>
        <time>2019-09-05T14:37:47Z</time>
      </trkpt>
      <trkpt lat="57.313102008774877" lon="-6.112438011914492">
        <ele>7.35</ele>
        <time>2019-09-05T14:37:54Z</time>
      </trkpt>
      <trkpt lat="57.313569970428944" lon="-6.109629990532994">
        <ele>10.710000000000001</ele>
        <time>2019-09-05T14:38:03Z</time>
      </trkpt>
      <trkpt lat="57.31407699175179" lon="-6.105996016412973">
        <ele>6.87</ele>
        <time>2019-09-05T14:38:13Z</time>
      </trkpt>
      <trkpt lat="57.314153015613556" lon="-6.103282039985061">
        <ele>7.35</ele>
        <time>2019-09-05T14:38:20Z</time>
      </trkpt>
      <trkpt lat="57.314101969823241" lon="-6.102898987010121">
        <ele>7.35</ele>
        <time>2019-09-05T14:38:21Z</time>
      </trkpt>
      <trkpt lat="57.314039021730423" lon="-6.102526998147368">
        <ele>7.83</ele>
        <time>2019-09-05T14:38:22Z</time>
      </trkpt>
      <trkpt lat="57.313950005918741" lon="-6.102191973477602">
        <ele>7.83</ele>
        <time>2019-09-05T14:38:23Z</time>
      </trkpt>
      <trkpt lat="57.313859984278679" lon="-6.101867007091641">
        <ele>8.789999999999999</ele>
        <time>2019-09-05T14:38:24Z</time>
      </trkpt>
      <trkpt lat="57.313746996223927" lon="-6.101579004898667">
        <ele>9.27</ele>
        <time>2019-09-05T14:38:25Z</time>
      </trkpt>
      <trkpt lat="57.313636019825935" lon="-6.101296031847596">
        <ele>9.27</ele>
        <time>2019-09-05T14:38:26Z</time>
      </trkpt>
      <trkpt lat="57.313499981537461" lon="-6.101058991625905">
        <ele>9.75</ele>
        <time>2019-09-05T14:38:27Z</time>
      </trkpt>
      <trkpt lat="57.31336603872478" lon="-6.100824968889356">
        <ele>10.23</ele>
        <time>2019-09-05T14:38:28Z</time>
      </trkpt>
      <trkpt lat="57.313232012093067" lon="-6.100592035800219">
        <ele>10.23</ele>
        <time>2019-09-05T14:38:29Z</time>
      </trkpt>
      <trkpt lat="57.31160600669682" lon="-6.098156003281474">
        <ele>17.920000000000002</ele>
        <time>2019-09-05T14:38:40Z</time>
      </trkpt>
      <trkpt lat="57.30932897888124" lon="-6.094707017764449">
        <ele>26.57</ele>
        <time>2019-09-05T14:38:54Z</time>
      </trkpt>
      <trkpt lat="57.307826019823551" lon="-6.092835003510118">
        <ele>30.420000000000002</ele>
        <time>2019-09-05T14:39:03Z</time>
      </trkpt>
      <trkpt lat="57.305816039443016" lon="-6.091327015310526">
        <ele>31.379999999999999</ele>
        <time>2019-09-05T14:39:14Z</time>
      </trkpt>
      <trkpt lat="57.303488971665502" lon="-6.09054297208786">
        <ele>25.609999999999999</ele>
        <time>2019-09-05T14:39:26Z</time>
      </trkpt>
      <trkpt lat="57.300188010558486" lon="-6.089642001315951">
        <ele>27.530000000000001</ele>
        <time>2019-09-05T14:39:43Z</time>
      </trkpt>
      <trkpt lat="57.298309039324522" lon="-6.088688978925347">
        <ele>29.460000000000001</ele>
        <time>2019-09-05T14:39:53Z</time>
      </trkpt>
      <trkpt lat="57.296898029744625" lon="-6.087588015943766">
        <ele>35.229999999999997</ele>
        <time>2019-09-05T14:40:01Z</time>
      </trkpt>
      <trkpt lat="57.295534964650869" lon="-6.08757602982223">
        <ele>40.509999999999998</ele>
        <time>2019-09-05T14:40:08Z</time>
      </trkpt>
      <trkpt lat="57.293680971488357" lon="-6.088073998689652">
        <ele>49.159999999999997</ele>
        <time>2019-09-05T14:40:18Z</time>
      </trkpt>
      <trkpt lat="57.292584031820297" lon="-6.089128023013473">
        <ele>57.82</ele>
        <time>2019-09-05T14:40:26Z</time>
      </trkpt>
      <trkpt lat="57.29108601808548" lon="-6.090500978752971">
        <ele>67.430000000000007</ele>
        <time>2019-09-05T14:40:37Z</time>
      </trkpt>
      <trkpt lat="57.289795037358999" lon="-6.091477973386645">
        <ele>76.079999999999998</ele>
        <time>2019-09-05T14:40:46Z</time>
      </trkpt>
      <trkpt lat="57.288618972525001" lon="-6.092727966606617">
        <ele>83.769999999999996</ele>
        <time>2019-09-05T14:40:55Z</time>
      </trkpt>
      <trkpt lat="57.28754298761487" lon="-6.09376598149538">
        <ele>90.5</ele>
        <time>2019-09-05T14:41:03Z</time>
      </trkpt>
      <trkpt lat="57.28631797246635" lon="-6.093917023390532">
        <ele>96.269999999999996</ele>
        <time>2019-09-05T14:41:10Z</time>
      </trkpt>
      <trkpt lat="57.283752020448446" lon="-6.09380797483027">
        <ele>111.65000000000001</ele>
        <time>2019-09-05T14:41:24Z</time>
      </trkpt>
      <trkpt lat="57.281880006194115" lon="-6.094241989776492">
        <ele>124.15000000000001</ele>
        <time>2019-09-05T14:41:34Z</time>
      </trkpt>
      <trkpt lat="57.279930040240288" lon="-6.094740964472294">
        <ele>133.28</ele>
        <time>2019-09-05T14:41:45Z</time>
      </trkpt>
      <trkpt lat="57.278069006279111" lon="-6.095748972147703">
        <ele>135.19999999999999</ele>
        <time>2019-09-05T14:41:56Z</time>
      </trkpt>
      <trkpt lat="57.276238985359669" lon="-6.097433986142278">
        <ele>130.40000000000001</ele>
        <time>2019-09-05T14:42:06Z</time>
      </trkpt>
      <trkpt lat="57.274636030197144" lon="-6.098835021257401">
        <ele>124.63</ele>
        <time>2019-09-05T14:42:16Z</time>
      </trkpt>
      <trkpt lat="57.274494962766767" lon="-6.098887994885445">
        <ele>124.15000000000001</ele>
        <time>2019-09-05T14:42:17Z</time>
      </trkpt>
      <trkpt lat="57.274342998862267" lon="-6.098870979622006">
        <ele>123.19</ele>
        <time>2019-09-05T14:42:18Z</time>
      </trkpt>
      <trkpt lat="57.274192962795496" lon="-6.098853964358568">
        <ele>122.22</ele>
        <time>2019-09-05T14:42:19Z</time>
      </trkpt>
      <trkpt lat="57.274061031639576" lon="-6.098756985738874">
        <ele>120.78</ele>
        <time>2019-09-05T14:42:20Z</time>
      </trkpt>
      <trkpt lat="57.273933039978147" lon="-6.098611978814006">
        <ele>119.81999999999999</ele>
        <time>2019-09-05T14:42:21Z</time>
      </trkpt>
      <trkpt lat="57.273828014731407" lon="-6.098433025181294">
        <ele>118.86</ele>
        <time>2019-09-05T14:42:22Z</time>
      </trkpt>
      <trkpt lat="57.273745033890009" lon="-6.098195984959602">
        <ele>117.90000000000001</ele>
        <time>2019-09-05T14:42:23Z</time>
      </trkpt>
      <trkpt lat="57.273692982271314" lon="-6.097957016900182">
        <ele>117.42</ele>
        <time>2019-09-05T14:42:24Z</time>
      </trkpt>
      <trkpt lat="57.273668004199862" lon="-6.097677983343601">
        <ele>116.45999999999999</ele>
        <time>2019-09-05T14:42:25Z</time>
      </trkpt>
      <trkpt lat="57.273644031956792" lon="-6.097405990585685">
        <ele>115.98</ele>
        <time>2019-09-05T14:42:26Z</time>
      </trkpt>
      <trkpt lat="57.273670015856624" lon="-6.09713701531291">
        <ele>114.53</ele>
        <time>2019-09-05T14:42:27Z</time>
      </trkpt>
      <trkpt lat="57.273709997534752" lon="-6.096860999241471">
        <ele>113.56999999999999</ele>
        <time>2019-09-05T14:42:28Z</time>
      </trkpt>
      <trkpt lat="57.273756014183164" lon="-6.096581965684891">
        <ele>112.61</ele>
        <time>2019-09-05T14:42:29Z</time>
      </trkpt>
      <trkpt lat="57.273831032216549" lon="-6.0963190253824">
        <ele>111.17</ele>
        <time>2019-09-05T14:42:30Z</time>
      </trkpt>
      <trkpt lat="57.274226993322372" lon="-6.09470802359283">
        <ele>104.92</ele>
        <time>2019-09-05T14:42:36Z</time>
      </trkpt>
      <trkpt lat="57.274270998314023" lon="-6.094438964501023">
        <ele>103.95999999999999</ele>
        <time>2019-09-05T14:42:37Z</time>
      </trkpt>
      <trkpt lat="57.274293964728713" lon="-6.09417200088501">
        <ele>103</ele>
        <time>2019-09-05T14:42:38Z</time>
      </trkpt>
      <trkpt lat="57.27430896833539" lon="-6.093899002298713">
        <ele>102.04000000000001</ele>
        <time>2019-09-05T14:42:39Z</time>
      </trkpt>
      <trkpt lat="57.274325983598828" lon="-6.09361401759088">
        <ele>101.08</ele>
        <time>2019-09-05T14:42:40Z</time>
      </trkpt>
      <trkpt lat="57.274301005527377" lon="-6.093357028439641">
        <ele>100.11</ele>
        <time>2019-09-05T14:42:41Z</time>
      </trkpt>
      <trkpt lat="57.274275021627545" lon="-6.093092998489738">
        <ele>99.150000000000006</ele>
        <time>2019-09-05T14:42:42Z</time>
      </trkpt>
      <trkpt lat="57.274234034121037" lon="-6.092833997681737">
        <ele>98.670000000000002</ele>
        <time>2019-09-05T14:42:43Z</time>
      </trkpt>
      <trkpt lat="57.274176031351089" lon="-6.092585977166891">
        <ele>97.709999999999994</ele>
        <time>2019-09-05T14:42:44Z</time>
      </trkpt>
      <trkpt lat="57.274117022752762" lon="-6.092336028814316">
        <ele>96.75</ele>
        <time>2019-09-05T14:42:45Z</time>
      </trkpt>
      <trkpt lat="57.274037981405854" lon="-6.092105023562908">
        <ele>95.790000000000006</ele>
        <time>2019-09-05T14:42:46Z</time>
      </trkpt>
      <trkpt lat="57.273945026099682" lon="-6.091901008039713">
        <ele>94.829999999999998</ele>
        <time>2019-09-05T14:42:47Z</time>
      </trkpt>
      <trkpt lat="57.273851986974478" lon="-6.091695986688137">
        <ele>94.349999999999994</ele>
        <time>2019-09-05T14:42:48Z</time>
      </trkpt>
      <trkpt lat="57.272969959303737" lon="-6.09056300483644">
        <ele>87.140000000000001</ele>
        <time>2019-09-05T14:42:55Z</time>
      </trkpt>
      <trkpt lat="57.271714014932513" lon="-6.089803017675877">
        <ele>78.969999999999999</ele>
        <time>2019-09-05T14:43:03Z</time>
      </trkpt>
      <trkpt lat="57.269513010978699" lon="-6.089112013578415">
        <ele>66.469999999999999</ele>
        <time>2019-09-05T14:43:15Z</time>
      </trkpt>
      <trkpt lat="57.268295958638191" lon="-6.089150989428163">
        <ele>59.259999999999998</ele>
        <time>2019-09-05T14:43:22Z</time>
      </trkpt>
      <trkpt lat="57.268131002783775" lon="-6.089259032160044">
        <ele>58.299999999999997</ele>
        <time>2019-09-05T14:43:23Z</time>
      </trkpt>
      <trkpt lat="57.266762992367148" lon="-6.090149022638798">
        <ele>47.240000000000002</ele>
        <time>2019-09-05T14:43:32Z</time>
      </trkpt>
      <trkpt lat="57.265589023008943" lon="-6.090592006221414">
        <ele>37.630000000000003</ele>
        <time>2019-09-05T14:43:41Z</time>
      </trkpt>
      <trkpt lat="57.264968007802963" lon="-6.090810019522905">
        <ele>33.299999999999997</ele>
        <time>2019-09-05T14:43:50Z</time>
      </trkpt>
      <trkpt lat="57.264921991154552" lon="-6.090826028957963">
        <ele>32.82</ele>
        <time>2019-09-05T14:43:51Z</time>
      </trkpt>
      <trkpt lat="57.264883015304804" lon="-6.09084002673626">
        <ele>32.340000000000003</ele>
        <time>2019-09-05T14:43:52Z</time>
      </trkpt>
      <trkpt lat="57.264686962589622" lon="-6.0909069981426">
        <ele>31.859999999999999</ele>
        <time>2019-09-05T14:43:57Z</time>
      </trkpt>
      <trkpt lat="57.264644969254732" lon="-6.090922001749277">
        <ele>31.379999999999999</ele>
        <time>2019-09-05T14:43:58Z</time>
      </trkpt>
      <trkpt lat="57.264606999233365" lon="-6.090934993699193">
        <ele>30.899999999999999</ele>
        <time>2019-09-05T14:43:59Z</time>
      </trkpt>
      <trkpt lat="57.264568023383617" lon="-6.090947985649109">
        <ele>30.420000000000002</ele>
        <time>2019-09-05T14:44:00Z</time>
      </trkpt>
      <trkpt lat="57.264536004513502" lon="-6.090958965942264">
        <ele>30.420000000000002</ele>
        <time>2019-09-05T14:44:01Z</time>
      </trkpt>
      <trkpt lat="57.264369959011674" lon="-6.091016968712211">
        <ele>27.530000000000001</ele>
        <time>2019-09-05T14:44:08Z</time>
      </trkpt>
      <trkpt lat="57.264369959011674" lon="-6.091016968712211">
        <ele>27.530000000000001</ele>
        <time>2019-09-05T14:44:09Z</time>
      </trkpt>
      <trkpt lat="57.264369959011674" lon="-6.091016968712211">
        <ele>27.050000000000001</ele>
        <time>2019-09-05T14:44:26Z</time>
      </trkpt>
      <trkpt lat="57.264369959011674" lon="-6.091016968712211">
        <ele>27.050000000000001</ele>
        <time>2019-09-05T14:44:47Z</time>
      </trkpt>
      <trkpt lat="57.264369959011674" lon="-6.091016968712211">
        <ele>27.530000000000001</ele>
        <time>2019-09-05T14:45:40Z</time>
      </trkpt>
      <trkpt lat="57.264369959011674" lon="-6.091016968712211">
        <ele>27.050000000000001</ele>
        <time>2019-09-05T14:46:28Z</time>
      </trkpt>
      <trkpt lat="57.264369959011674" lon="-6.091016968712211">
        <ele>27.050000000000001</ele>
        <time>2019-09-05T14:47:16Z</time>
      </trkpt>
      <trkpt lat="57.264369959011674" lon="-6.091016968712211">
        <ele>27.050000000000001</ele>
        <time>2019-09-05T14:48:06Z</time>
      </trkpt>
      <trkpt lat="57.264369959011674" lon="-6.091016968712211">
        <ele>27.530000000000001</ele>
        <time>2019-09-05T14:49:05Z</time>
      </trkpt>
      <trkpt lat="57.264369959011674" lon="-6.091016968712211">
        <ele>27.530000000000001</ele>
        <time>2019-09-05T14:50:02Z</time>
      </trkpt>
      <trkpt lat="57.264369959011674" lon="-6.091016968712211">
        <ele>28.02</ele>
        <time>2019-09-05T14:50:40Z</time>
      </trkpt>
      <trkpt lat="57.264369959011674" lon="-6.091016968712211">
        <ele>28.02</ele>
        <time>2019-09-05T14:51:07Z</time>
      </trkpt>
      <trkpt lat="57.264369959011674" lon="-6.091016968712211">
        <ele>28.02</ele>
        <time>2019-09-05T14:51:44Z</time>
      </trkpt>
      <trkpt lat="57.264320002868772" lon="-6.091033983975649">
        <ele>28.02</ele>
        <time>2019-09-05T14:52:00Z</time>
      </trkpt>
      <trkpt lat="57.264260994270444" lon="-6.091039013117552">
        <ele>27.530000000000001</ele>
        <time>2019-09-05T14:52:14Z</time>
      </trkpt>
      <trkpt lat="57.264093020930886" lon="-6.091039013117552">
        <ele>28.5</ele>
        <time>2019-09-05T14:52:20Z</time>
      </trkpt>
      <trkpt lat="57.264029989019036" lon="-6.091020992025733">
        <ele>28.5</ele>
        <time>2019-09-05T14:52:21Z</time>
      </trkpt>
      <trkpt lat="57.263365974649787" lon="-6.090718992054462">
        <ele>26.57</ele>
        <time>2019-09-05T14:52:26Z</time>
      </trkpt>
      <trkpt lat="57.263223985210061" lon="-6.090613966807723">
        <ele>25.609999999999999</ele>
        <time>2019-09-05T14:52:27Z</time>
      </trkpt>
      <trkpt lat="57.263103034347296" lon="-6.090464014559984">
        <ele>25.129999999999999</ele>
        <time>2019-09-05T14:52:28Z</time>
      </trkpt>
      <trkpt lat="57.262988034635782" lon="-6.090297969058156">
        <ele>24.649999999999999</ele>
        <time>2019-09-05T14:52:29Z</time>
      </trkpt>
      <trkpt lat="57.262874040752649" lon="-6.090134019032121">
        <ele>24.170000000000002</ele>
        <time>2019-09-05T14:52:30Z</time>
      </trkpt>
      <trkpt lat="57.262607999145985" lon="-6.089578969404101">
        <ele>23.690000000000001</ele>
        <time>2019-09-05T14:52:33Z</time>
      </trkpt>
      <trkpt lat="57.262385962530971" lon="-6.089043030515313">
        <ele>24.649999999999999</ele>
        <time>2019-09-05T14:52:36Z</time>
      </trkpt>
      <trkpt lat="57.262298036366701" lon="-6.088611027225852">
        <ele>24.649999999999999</ele>
        <time>2019-09-05T14:52:38Z</time>
      </trkpt>
      <trkpt lat="57.262254031375051" lon="-6.088397959247232">
        <ele>24.649999999999999</ele>
        <time>2019-09-05T14:52:39Z</time>
      </trkpt>
      <trkpt lat="57.262220000848174" lon="-6.088176006451249">
        <ele>24.649999999999999</ele>
        <time>2019-09-05T14:52:40Z</time>
      </trkpt>
      <trkpt lat="57.262207008898258" lon="-6.087945001199842">
        <ele>24.170000000000002</ele>
        <time>2019-09-05T14:52:41Z</time>
      </trkpt>
      <trkpt lat="57.262201979756355" lon="-6.087709972634912">
        <ele>23.690000000000001</ele>
        <time>2019-09-05T14:52:42Z</time>
      </trkpt>
      <trkpt lat="57.262201979756355" lon="-6.087467987090349">
        <ele>23.210000000000001</ele>
        <time>2019-09-05T14:52:43Z</time>
      </trkpt>
      <trkpt lat="57.262246990576386" lon="-6.086946967989206">
        <ele>21.77</ele>
        <time>2019-09-05T14:52:45Z</time>
      </trkpt>
      <trkpt lat="57.262280015274882" lon="-6.086678998544812">
        <ele>21.289999999999999</ele>
        <time>2019-09-05T14:52:46Z</time>
      </trkpt>
      <trkpt lat="57.262342041358352" lon="-6.086399964988232">
        <ele>20.32</ele>
        <time>2019-09-05T14:52:47Z</time>
      </trkpt>
      <trkpt lat="57.262412030249834" lon="-6.086121015250683">
        <ele>19.359999999999999</ele>
        <time>2019-09-05T14:52:48Z</time>
      </trkpt>
      <trkpt lat="57.262485036626458" lon="-6.085832007229328">
        <ele>18.399999999999999</ele>
        <time>2019-09-05T14:52:49Z</time>
      </trkpt>
      <trkpt lat="57.262588972225785" lon="-6.085549034178257">
        <ele>17.920000000000002</ele>
        <time>2019-09-05T14:52:50Z</time>
      </trkpt>
      <trkpt lat="57.262701038271189" lon="-6.085272012278438">
        <ele>17.440000000000001</ele>
        <time>2019-09-05T14:52:51Z</time>
      </trkpt>
      <trkpt lat="57.263851035386324" lon="-6.082426020875573">
        <ele>16.960000000000001</ele>
        <time>2019-09-05T14:53:00Z</time>
      </trkpt>
      <trkpt lat="57.265012012794614" lon="-6.079374002292752">
        <ele>17.440000000000001</ele>
        <time>2019-09-05T14:53:09Z</time>
      </trkpt>
      <trkpt lat="57.265956988558173" lon="-6.075391005724669">
        <ele>8.310000000000001</ele>
        <time>2019-09-05T14:53:20Z</time>
      </trkpt>
      <trkpt lat="57.266475996002555" lon="-6.072251982986927">
        <ele>7.35</ele>
        <time>2019-09-05T14:53:29Z</time>
      </trkpt>
      <trkpt lat="57.266856031492352" lon="-6.069803964346647">
        <ele>6.87</ele>
        <time>2019-09-05T14:53:36Z</time>
      </trkpt>
      <trkpt lat="57.266935994848609" lon="-6.069480003789067">
        <ele>7.35</ele>
        <time>2019-09-05T14:53:37Z</time>
      </trkpt>
      <trkpt lat="57.267044959589839" lon="-6.069182027131319">
        <ele>7.83</ele>
        <time>2019-09-05T14:53:38Z</time>
      </trkpt>
      <trkpt lat="57.267161970958114" lon="-6.068895030766726">
        <ele>7.83</ele>
        <time>2019-09-05T14:53:39Z</time>
      </trkpt>
      <trkpt lat="57.267290968447924" lon="-6.068610968068242">
        <ele>8.310000000000001</ele>
        <time>2019-09-05T14:53:40Z</time>
      </trkpt>
      <trkpt lat="57.267447039484978" lon="-6.068387003615499">
        <ele>8.789999999999999</ele>
        <time>2019-09-05T14:53:41Z</time>
      </trkpt>
      <trkpt lat="57.267605038359761" lon="-6.068160021677613">
        <ele>8.789999999999999</ele>
        <time>2019-09-05T14:53:42Z</time>
      </trkpt>
      <trkpt lat="57.267763959243894" lon="-6.067933039739728">
        <ele>8.789999999999999</ele>
        <time>2019-09-05T14:53:43Z</time>
      </trkpt>
      <trkpt lat="57.270605005323887" lon="-6.06452101841569">
        <ele>8.310000000000001</ele>
        <time>2019-09-05T14:54:00Z</time>
      </trkpt>
      <trkpt lat="57.272022971883416" lon="-6.061898991465569">
        <ele>9.27</ele>
        <time>2019-09-05T14:54:10Z</time>
      </trkpt>
      <trkpt lat="57.273429958149791" lon="-6.058891983702779">
        <ele>20.32</ele>
        <time>2019-09-05T14:54:19Z</time>
      </trkpt>
      <trkpt lat="57.274756981059909" lon="-6.055063968524337">
        <ele>26.57</ele>
        <time>2019-09-05T14:54:29Z</time>
      </trkpt>
      <trkpt lat="57.276009991765022" lon="-6.051728976890445">
        <ele>28.98</ele>
        <time>2019-09-05T14:54:39Z</time>
      </trkpt>
      <trkpt lat="57.276431014761329" lon="-6.049471981823444">
        <ele>28.5</ele>
        <time>2019-09-05T14:54:46Z</time>
      </trkpt>
      <trkpt lat="57.276482982560992" lon="-6.047735000029206">
        <ele>24.170000000000002</ele>
        <time>2019-09-05T14:54:53Z</time>
      </trkpt>
      <trkpt lat="57.276451969519258" lon="-6.046927990391851">
        <ele>21.289999999999999</ele>
        <time>2019-09-05T14:54:57Z</time>
      </trkpt>
      <trkpt lat="57.276444006711245" lon="-6.046737972646952">
        <ele>20.809999999999999</ele>
        <time>2019-09-05T14:54:58Z</time>
      </trkpt>
      <trkpt lat="57.276402013376355" lon="-6.045632986351848">
        <ele>16</ele>
        <time>2019-09-05T14:55:06Z</time>
      </trkpt>
      <trkpt lat="57.276364965364337" lon="-6.044407971203327">
        <ele>8.310000000000001</ele>
        <time>2019-09-05T14:55:19Z</time>
      </trkpt>
      <trkpt lat="57.276387009769678" lon="-6.043907990679145">
        <ele>9.27</ele>
        <time>2019-09-05T14:55:30Z</time>
      </trkpt>
      <trkpt lat="57.276401007547975" lon="-6.043609008193016">
        <ele>9.75</ele>
        <time>2019-09-05T14:55:40Z</time>
      </trkpt>
      <trkpt lat="57.276547020301223" lon="-6.042807027697563">
        <ele>7.83</ele>
        <time>2019-09-05T14:55:48Z</time>
      </trkpt>
      <trkpt lat="57.276654979214072" lon="-6.04256303049624">
        <ele>6.87</ele>
        <time>2019-09-05T14:55:51Z</time>
      </trkpt>
      <trkpt lat="57.276732008904219" lon="-6.042410982772708">
        <ele>6.87</ele>
        <time>2019-09-05T14:55:53Z</time>
      </trkpt>
      <trkpt lat="57.277323016896844" lon="-6.041587041690946">
        <ele>7.35</ele>
        <time>2019-09-05T14:56:03Z</time>
      </trkpt>
      <trkpt lat="57.278070012107491" lon="-6.040894025936723">
        <ele>9.75</ele>
        <time>2019-09-05T14:56:11Z</time>
      </trkpt>
      <trkpt lat="57.279279017820954" lon="-6.039565997198224">
        <ele>10.710000000000001</ele>
        <time>2019-09-05T14:56:20Z</time>
      </trkpt>
      <trkpt lat="57.280591037124395" lon="-6.037921970710158">
        <ele>12.630000000000001</ele>
        <time>2019-09-05T14:56:29Z</time>
      </trkpt>
      <trkpt lat="57.282043034210801" lon="-6.036683041602373">
        <ele>11.67</ele>
        <time>2019-09-05T14:56:39Z</time>
      </trkpt>
      <trkpt lat="57.282992033287883" lon="-6.034833993762732">
        <ele>12.15</ele>
        <time>2019-09-05T14:56:47Z</time>
      </trkpt>
      <trkpt lat="57.284011021256447" lon="-6.031839977949858">
        <ele>16</ele>
        <time>2019-09-05T14:56:58Z</time>
      </trkpt>
      <trkpt lat="57.284969994798303" lon="-6.028587967157364">
        <ele>17.440000000000001</ele>
        <time>2019-09-05T14:57:10Z</time>
      </trkpt>
      <trkpt lat="57.285936009138823" lon="-6.025718003511429">
        <ele>19.359999999999999</ele>
        <time>2019-09-05T14:57:20Z</time>
      </trkpt>
      <trkpt lat="57.286521987989545" lon="-6.024013962596655">
        <ele>23.210000000000001</ele>
        <time>2019-09-05T14:57:27Z</time>
      </trkpt>
      <trkpt lat="57.286560041829944" lon="-6.023725960403681">
        <ele>23.690000000000001</ele>
        <time>2019-09-05T14:57:28Z</time>
      </trkpt>
      <trkpt lat="57.286598011851311" lon="-6.023434018716216">
        <ele>24.170000000000002</ele>
        <time>2019-09-05T14:57:29Z</time>
      </trkpt>
      <trkpt lat="57.286587031558156" lon="-6.023133024573326">
        <ele>24.170000000000002</ele>
        <time>2019-09-05T14:57:30Z</time>
      </trkpt>
      <trkpt lat="57.286574961617589" lon="-6.022827001288533">
        <ele>24.649999999999999</ele>
        <time>2019-09-05T14:57:31Z</time>
      </trkpt>
      <trkpt lat="57.286561969667673" lon="-6.022515026852489">
        <ele>24.649999999999999</ele>
        <time>2019-09-05T14:57:32Z</time>
      </trkpt>
      <trkpt lat="57.286548977717757" lon="-6.022192994132638">
        <ele>25.129999999999999</ele>
        <time>2019-09-05T14:57:33Z</time>
      </trkpt>
      <trkpt lat="57.28629601188004" lon="-6.019910015165806">
        <ele>27.050000000000001</ele>
        <time>2019-09-05T14:57:40Z</time>
      </trkpt>
      <trkpt lat="57.286208001896739" lon="-6.019617989659309">
        <ele>27.050000000000001</ele>
        <time>2019-09-05T14:57:41Z</time>
      </trkpt>
      <trkpt lat="57.286108005791903" lon="-6.019342979416251">
        <ele>27.530000000000001</ele>
        <time>2019-09-05T14:57:42Z</time>
      </trkpt>
      <trkpt lat="57.286003986373544" lon="-6.019068975001574">
        <ele>27.530000000000001</ele>
        <time>2019-09-05T14:57:43Z</time>
      </trkpt>
      <trkpt lat="57.285890998318791" lon="-6.018769992515445">
        <ele>27.530000000000001</ele>
        <time>2019-09-05T14:57:44Z</time>
      </trkpt>
      <trkpt lat="57.285783961415291" lon="-6.018545022234321">
        <ele>27.050000000000001</ele>
        <time>2019-09-05T14:57:45Z</time>
      </trkpt>
      <trkpt lat="57.28440698236227" lon="-6.015945039689541">
        <ele>25.129999999999999</ele>
        <time>2019-09-05T14:57:56Z</time>
      </trkpt>
      <trkpt lat="57.282852977514267" lon="-6.013959031552076">
        <ele>21.289999999999999</ele>
        <time>2019-09-05T14:58:07Z</time>
      </trkpt>
      <trkpt lat="57.281340966001153" lon="-6.012072013691068">
        <ele>19.359999999999999</ele>
        <time>2019-09-05T14:58:18Z</time>
      </trkpt>
      <trkpt lat="57.279525026679039" lon="-6.00913499481976">
        <ele>22.73</ele>
        <time>2019-09-05T14:58:31Z</time>
      </trkpt>
      <trkpt lat="57.27813296020031" lon="-6.007086960598826">
        <ele>26.09</ele>
        <time>2019-09-05T14:58:41Z</time>
      </trkpt>
      <trkpt lat="57.27686301805079" lon="-6.005025012418628">
        <ele>26.09</ele>
        <time>2019-09-05T14:58:51Z</time>
      </trkpt>
      <trkpt lat="57.275748979300261" lon="-6.0026899818331">
        <ele>21.77</ele>
        <time>2019-09-05T14:59:00Z</time>
      </trkpt>
      <trkpt lat="57.274576015770435" lon="-6.001004967838526">
        <ele>18.399999999999999</ele>
        <time>2019-09-05T14:59:08Z</time>
      </trkpt>
      <trkpt lat="57.273541018366814" lon="-6.000134004279971">
        <ele>15.52</ele>
        <time>2019-09-05T14:59:15Z</time>
      </trkpt>
      <trkpt lat="57.272980017587543" lon="-5.999589012935758">
        <ele>14.08</ele>
        <time>2019-09-05T14:59:19Z</time>
      </trkpt>
      <trkpt lat="57.27284699678421" lon="-5.999408969655633">
        <ele>13.6</ele>
        <time>2019-09-05T14:59:20Z</time>
      </trkpt>
      <trkpt lat="57.271684007719159" lon="-5.997434025630355">
        <ele>12.630000000000001</ele>
        <time>2019-09-05T14:59:29Z</time>
      </trkpt>
      <trkpt lat="57.271028961986303" lon="-5.996401961892843">
        <ele>11.67</ele>
        <time>2019-09-05T14:59:34Z</time>
      </trkpt>
      <trkpt lat="57.270138971507549" lon="-5.994160976260901">
        <ele>8.789999999999999</ele>
        <time>2019-09-05T14:59:43Z</time>
      </trkpt>
      <trkpt lat="57.270023971796036" lon="-5.993613973259926">
        <ele>9.27</ele>
        <time>2019-09-05T14:59:45Z</time>
      </trkpt>
      <trkpt lat="57.269998993724585" lon="-5.993336029350758">
        <ele>9.27</ele>
        <time>2019-09-05T14:59:46Z</time>
      </trkpt>
      <trkpt lat="57.269975021481514" lon="-5.993058001622558">
        <ele>9.75</ele>
        <time>2019-09-05T14:59:47Z</time>
      </trkpt>
      <trkpt lat="57.269974015653133" lon="-5.992773016914725">
        <ele>9.75</ele>
        <time>2019-09-05T14:59:48Z</time>
      </trkpt>
      <trkpt lat="57.269978960976005" lon="-5.992475040256977">
        <ele>9.75</ele>
        <time>2019-09-05T14:59:49Z</time>
      </trkpt>
      <trkpt lat="57.269908972084522" lon="-5.989321013912559">
        <ele>10.23</ele>
        <time>2019-09-05T14:59:59Z</time>
      </trkpt>
      <trkpt lat="57.269849963486195" lon="-5.989013984799385">
        <ele>10.23</ele>
        <time>2019-09-05T15:00:00Z</time>
      </trkpt>
      <trkpt lat="57.269767988473177" lon="-5.98872103728354">
        <ele>10.710000000000001</ele>
        <time>2019-09-05T15:00:01Z</time>
      </trkpt>
      <trkpt lat="57.269686013460159" lon="-5.988427000120282">
        <ele>11.19</ele>
        <time>2019-09-05T15:00:02Z</time>
      </trkpt>
      <trkpt lat="57.269592974334955" lon="-5.988144027069211">
        <ele>11.19</ele>
        <time>2019-09-05T15:00:03Z</time>
      </trkpt>
      <trkpt lat="57.269475040957332" lon="-5.987890977412462">
        <ele>11.67</ele>
        <time>2019-09-05T15:00:04Z</time>
      </trkpt>
      <trkpt lat="57.269355012103915" lon="-5.987637005746365">
        <ele>11.67</ele>
        <time>2019-09-05T15:00:05Z</time>
      </trkpt>
      <trkpt lat="57.269234983250499" lon="-5.987381022423506">
        <ele>11.67</ele>
        <time>2019-09-05T15:00:06Z</time>
      </trkpt>
      <trkpt lat="57.267751973122358" lon="-5.984259014949203">
        <ele>13.119999999999999</ele>
        <time>2019-09-05T15:00:18Z</time>
      </trkpt>
      <trkpt lat="57.267665974795818" lon="-5.983947962522507">
        <ele>13.119999999999999</ele>
        <time>2019-09-05T15:00:19Z</time>
      </trkpt>
      <trkpt lat="57.267601015046239" lon="-5.983620984479785">
        <ele>13.119999999999999</ele>
        <time>2019-09-05T15:00:20Z</time>
      </trkpt>
      <trkpt lat="57.267348971217871" lon="-5.981378993019462">
        <ele>14.08</ele>
        <time>2019-09-05T15:00:27Z</time>
      </trkpt>
      <trkpt lat="57.267222991213202" lon="-5.979535980150104">
        <ele>14.56</ele>
        <time>2019-09-05T15:00:33Z</time>
      </trkpt>
      <trkpt lat="57.267222991213202" lon="-5.979233980178833">
        <ele>14.08</ele>
        <time>2019-09-05T15:00:34Z</time>
      </trkpt>
      <trkpt lat="57.267260039225221" lon="-5.97862402908504">
        <ele>13.119999999999999</ele>
        <time>2019-09-05T15:00:36Z</time>
      </trkpt>
      <trkpt lat="57.267303038388491" lon="-5.978319011628628">
        <ele>12.15</ele>
        <time>2019-09-05T15:00:37Z</time>
      </trkpt>
      <trkpt lat="57.267374033108354" lon="-5.978027991950512">
        <ele>11.19</ele>
        <time>2019-09-05T15:00:38Z</time>
      </trkpt>
      <trkpt lat="57.267448967322707" lon="-5.977733032777906">
        <ele>10.710000000000001</ele>
        <time>2019-09-05T15:00:39Z</time>
      </trkpt>
      <trkpt lat="57.267534965649247" lon="-5.977441007271409">
        <ele>10.23</ele>
        <time>2019-09-05T15:00:40Z</time>
      </trkpt>
      <trkpt lat="57.267642002552748" lon="-5.977155016735196">
        <ele>9.75</ele>
        <time>2019-09-05T15:00:41Z</time>
      </trkpt>
      <trkpt lat="57.267760019749403" lon="-5.976842036470771">
        <ele>9.75</ele>
        <time>2019-09-05T15:00:42Z</time>
      </trkpt>
      <trkpt lat="57.26788398809731" lon="-5.976600972935557">
        <ele>9.75</ele>
        <time>2019-09-05T15:00:43Z</time>
      </trkpt>
      <trkpt lat="57.268014997243881" lon="-5.97634700126946">
        <ele>9.75</ele>
        <time>2019-09-05T15:00:44Z</time>
      </trkpt>
      <trkpt lat="57.268496034666896" lon="-5.975360032171011">
        <ele>11.67</ele>
        <time>2019-09-05T15:00:48Z</time>
      </trkpt>
      <trkpt lat="57.268589995801449" lon="-5.975078986957669">
        <ele>12.630000000000001</ele>
        <time>2019-09-05T15:00:49Z</time>
      </trkpt>
      <trkpt lat="57.268672976642847" lon="-5.974789978936315">
        <ele>13.119999999999999</ele>
        <time>2019-09-05T15:00:50Z</time>
      </trkpt>
      <trkpt lat="57.268725028261542" lon="-5.974464006721973">
        <ele>14.08</ele>
        <time>2019-09-05T15:00:51Z</time>
      </trkpt>
      <trkpt lat="57.26876400411129" lon="-5.974124958738685">
        <ele>14.56</ele>
        <time>2019-09-05T15:00:52Z</time>
      </trkpt>
      <trkpt lat="57.268795017153025" lon="-5.97376998513937">
        <ele>15.039999999999999</ele>
        <time>2019-09-05T15:00:53Z</time>
      </trkpt>
      <trkpt lat="57.268801974132657" lon="-5.97340595908463">
        <ele>15.039999999999999</ele>
        <time>2019-09-05T15:00:54Z</time>
      </trkpt>
      <trkpt lat="57.26878403685987" lon="-5.973040005192161">
        <ele>15.039999999999999</ele>
        <time>2019-09-05T15:00:55Z</time>
      </trkpt>
      <trkpt lat="57.268392015248537" lon="-5.969754969701171">
        <ele>11.19</ele>
        <time>2019-09-05T15:01:04Z</time>
      </trkpt>
      <trkpt lat="57.267682990059257" lon="-5.967308040708304">
        <ele>8.310000000000001</ele>
        <time>2019-09-05T15:01:12Z</time>
      </trkpt>
      <trkpt lat="57.266728961840272" lon="-5.964377978816629">
        <ele>8.789999999999999</ele>
        <time>2019-09-05T15:01:22Z</time>
      </trkpt>
      <trkpt lat="57.265866966918111" lon="-5.961732985451818">
        <ele>10.23</ele>
        <time>2019-09-05T15:01:30Z</time>
      </trkpt>
      <trkpt lat="57.26515500806272" lon="-5.959272980690002">
        <ele>12.15</ele>
        <time>2019-09-05T15:01:39Z</time>
      </trkpt>
      <trkpt lat="57.264271974563599" lon="-5.95587101764977">
        <ele>12.630000000000001</ele>
        <time>2019-09-05T15:01:50Z</time>
      </trkpt>
      <trkpt lat="57.263315012678504" lon="-5.951803028583527">
        <ele>11.67</ele>
        <time>2019-09-05T15:02:02Z</time>
      </trkpt>
      <trkpt lat="57.262761974707246" lon="-5.949221989139915">
        <ele>13.6</ele>
        <time>2019-09-05T15:02:10Z</time>
      </trkpt>
      <trkpt lat="57.261623963713646" lon="-5.946415979415178">
        <ele>14.08</ele>
        <time>2019-09-05T15:02:20Z</time>
      </trkpt>
      <trkpt lat="57.259906008839607" lon="-5.943538974970579">
        <ele>17.440000000000001</ele>
        <time>2019-09-05T15:02:32Z</time>
      </trkpt>
      <trkpt lat="57.25834496319294" lon="-5.941653968766332">
        <ele>22.73</ele>
        <time>2019-09-05T15:02:42Z</time>
      </trkpt>
      <trkpt lat="57.257379032671452" lon="-5.940717039629817">
        <ele>27.530000000000001</ele>
        <time>2019-09-05T15:02:48Z</time>
      </trkpt>
      <trkpt lat="57.257209969684482" lon="-5.940560968592763">
        <ele>28.02</ele>
        <time>2019-09-05T15:02:49Z</time>
      </trkpt>
      <trkpt lat="57.255686977878213" lon="-5.939295971766114">
        <ele>30.899999999999999</ele>
        <time>2019-09-05T15:02:57Z</time>
      </trkpt>
      <trkpt lat="57.253495026379824" lon="-5.937527976930141">
        <ele>30.899999999999999</ele>
        <time>2019-09-05T15:03:09Z</time>
      </trkpt>
      <trkpt lat="57.250691028311849" lon="-5.934823974967003">
        <ele>28.98</ele>
        <time>2019-09-05T15:03:25Z</time>
      </trkpt>
      <trkpt lat="57.249000985175371" lon="-5.932228015735745">
        <ele>27.050000000000001</ele>
        <time>2019-09-05T15:03:36Z</time>
      </trkpt>
      <trkpt lat="57.24657098762691" lon="-5.927933966740966">
        <ele>23.210000000000001</ele>
        <time>2019-09-05T15:03:53Z</time>
      </trkpt>
      <trkpt lat="57.245497014373541" lon="-5.925294002518058">
        <ele>23.210000000000001</ele>
        <time>2019-09-05T15:04:02Z</time>
      </trkpt>
      <trkpt lat="57.244901983067393" lon="-5.922747999429703">
        <ele>19.359999999999999</ele>
        <time>2019-09-05T15:04:10Z</time>
      </trkpt>
      <trkpt lat="57.244662009179592" lon="-5.921382000669837">
        <ele>16.960000000000001</ele>
        <time>2019-09-05T15:04:18Z</time>
      </trkpt>
      <trkpt lat="57.244278034195304" lon="-5.919203041121364">
        <ele>12.15</ele>
        <time>2019-09-05T15:04:32Z</time>
      </trkpt>
      <trkpt lat="57.24392800591886" lon="-5.917232958599925">
        <ele>10.23</ele>
        <time>2019-09-05T15:04:43Z</time>
      </trkpt>
      <trkpt lat="57.243720972910523" lon="-5.916135013103485">
        <ele>9.75</ele>
        <time>2019-09-05T15:04:50Z</time>
      </trkpt>
      <trkpt lat="57.243659030646086" lon="-5.915806023404002">
        <ele>9.75</ele>
        <time>2019-09-05T15:04:52Z</time>
      </trkpt>
      <trkpt lat="57.243155026808381" lon="-5.914070969447494">
        <ele>7.35</ele>
        <time>2019-09-05T15:05:03Z</time>
      </trkpt>
      <trkpt lat="57.243040027096868" lon="-5.913755977526307">
        <ele>5.91</ele>
        <time>2019-09-05T15:05:06Z</time>
      </trkpt>
      <trkpt lat="57.243025023490191" lon="-5.913720019161701">
        <ele>5.91</ele>
        <time>2019-09-05T15:05:07Z</time>
      </trkpt>
      <trkpt lat="57.242967020720243" lon="-5.913584986701608">
        <ele>5.42</ele>
        <time>2019-09-05T15:05:11Z</time>
      </trkpt>
      <trkpt lat="57.242956962436438" lon="-5.913561014458537">
        <ele>5.42</ele>
        <time>2019-09-05T15:05:12Z</time>
      </trkpt>
      <trkpt lat="57.242945982143283" lon="-5.913536036387086">
        <ele>4.94</ele>
        <time>2019-09-05T15:05:13Z</time>
      </trkpt>
      <trkpt lat="57.242937013506889" lon="-5.913513991981745">
        <ele>4.94</ele>
        <time>2019-09-05T15:05:14Z</time>
      </trkpt>
      <trkpt lat="57.242818996310234" lon="-5.913292961195111">
        <ele>5.42</ele>
        <time>2019-09-05T15:05:23Z</time>
      </trkpt>
      <trkpt lat="57.242331001907587" lon="-5.91240699402988">
        <ele>4.46</ele>
        <time>2019-09-05T15:05:31Z</time>
      </trkpt>
      <trkpt lat="57.241820963099599" lon="-5.911208968609572">
        <ele>2.54</ele>
        <time>2019-09-05T15:05:38Z</time>
      </trkpt>
      <trkpt lat="57.241762038320303" lon="-5.911044012755156">
        <ele>2.54</ele>
        <time>2019-09-05T15:05:39Z</time>
      </trkpt>
      <trkpt lat="57.241359036415815" lon="-5.909261014312506">
        <ele>2.54</ele>
        <time>2019-09-05T15:05:50Z</time>
      </trkpt>
      <trkpt lat="57.241249987855554" lon="-5.908269016072154">
        <ele>3.5</ele>
        <time>2019-09-05T15:05:59Z</time>
      </trkpt>
      <trkpt lat="57.24119802005589" lon="-5.907792001962662">
        <ele>4.94</ele>
        <time>2019-09-05T15:06:07Z</time>
      </trkpt>
      <trkpt lat="57.241193996742368" lon="-5.907765012234449">
        <ele>4.94</ele>
        <time>2019-09-05T15:06:08Z</time>
      </trkpt>
      <trkpt lat="57.241273960098624" lon="-5.907717989757657">
        <ele>5.42</ele>
        <time>2019-09-05T15:06:10Z</time>
      </trkpt>
      <trkpt lat="57.241441011428833" lon="-5.907539958134294">
        <ele>4.46</ele>
        <time>2019-09-05T15:06:22Z</time>
      </trkpt>
      <trkpt lat="57.241441011428833" lon="-5.907539958134294">
        <ele>4.46</ele>
        <time>2019-09-05T15:06:36Z</time>
      </trkpt>
      <trkpt lat="57.241430031135678" lon="-5.907464018091559">
        <ele>4.46</ele>
        <time>2019-09-05T15:06:46Z</time>
      </trkpt>
      <trkpt lat="57.241604961454868" lon="-5.907394029200077">
        <ele>6.87</ele>
        <time>2019-09-05T15:06:53Z</time>
      </trkpt>
      <trkpt lat="57.241530027240515" lon="-5.907670967280865">
        <ele>8.310000000000001</ele>
        <time>2019-09-05T15:06:59Z</time>
      </trkpt>
      <trkpt lat="57.241436988115311" lon="-5.907667027786374">
        <ele>9.27</ele>
        <time>2019-09-05T15:07:09Z</time>
      </trkpt>
      <trkpt lat="57.241436988115311" lon="-5.907667027786374">
        <ele>9.27</ele>
        <time>2019-09-05T15:07:16Z</time>
      </trkpt>
      <trkpt lat="57.241429025307298" lon="-5.907648000866175">
        <ele>9.27</ele>
        <time>2019-09-05T15:07:33Z</time>
      </trkpt>
      <trkpt lat="57.241427013650537" lon="-5.907649006694555">
        <ele>9.75</ele>
        <time>2019-09-05T15:08:18Z</time>
      </trkpt>
      <trkpt lat="57.241422990337014" lon="-5.907644983381033">
        <ele>9.27</ele>
        <time>2019-09-05T15:09:04Z</time>
      </trkpt>
      <trkpt lat="57.241415027529001" lon="-5.907631991431117">
        <ele>8.789999999999999</ele>
        <time>2019-09-05T15:09:22Z</time>
      </trkpt>
      <trkpt lat="57.241415027529001" lon="-5.907631991431117">
        <ele>8.789999999999999</ele>
        <time>2019-09-05T15:09:33Z</time>
      </trkpt>
      <trkpt lat="57.241500020027161" lon="-5.907129999250174">
        <ele>23.210000000000001</ele>
        <time>2019-09-05T15:21:21Z</time>
      </trkpt>
      <trkpt lat="57.241546036675572" lon="-5.907177021726966">
        <ele>20.809999999999999</ele>
        <time>2019-09-05T15:22:03Z</time>
      </trkpt>
      <trkpt lat="57.241566991433501" lon="-5.907194958999753">
        <ele>16.960000000000001</ele>
        <time>2019-09-05T15:22:51Z</time>
      </trkpt>
      <trkpt lat="57.241544025018811" lon="-5.907165035605431">
        <ele>16.48</ele>
        <time>2019-09-05T15:22:57Z</time>
      </trkpt>
      <trkpt lat="57.241516029462218" lon="-5.907211974263191">
        <ele>15.52</ele>
        <time>2019-09-05T15:23:10Z</time>
      </trkpt>
      <trkpt lat="57.241516029462218" lon="-5.907211974263191">
        <ele>15.52</ele>
        <time>2019-09-05T15:23:22Z</time>
      </trkpt>
      <trkpt lat="57.241451991721988" lon="-5.907309036701918">
        <ele>14.08</ele>
        <time>2019-09-05T15:23:26Z</time>
      </trkpt>
      <trkpt lat="57.241335986182094" lon="-5.907367961481214">
        <ele>9.75</ele>
        <time>2019-09-05T15:23:39Z</time>
      </trkpt>
      <trkpt lat="57.241335986182094" lon="-5.907367961481214">
        <ele>9.75</ele>
        <time>2019-09-05T15:23:42Z</time>
      </trkpt>
      <trkpt lat="57.241144962608814" lon="-5.907313982024789">
        <ele>9.27</ele>
        <time>2019-09-05T15:23:47Z</time>
      </trkpt>
      <trkpt lat="57.241141023114324" lon="-5.907278023660183">
        <ele>9.27</ele>
        <time>2019-09-05T15:23:48Z</time>
      </trkpt>
      <trkpt lat="57.241123002022505" lon="-5.907118013128638">
        <ele>10.710000000000001</ele>
        <time>2019-09-05T15:23:50Z</time>
      </trkpt>
      <trkpt lat="57.241107998415828" lon="-5.906980969011784">
        <ele>11.19</ele>
        <time>2019-09-05T15:23:51Z</time>
      </trkpt>
      <trkpt lat="57.240907000377774" lon="-5.905267959460616">
        <ele>12.630000000000001</ele>
        <time>2019-09-05T15:24:01Z</time>
      </trkpt>
      <trkpt lat="57.240566024556756" lon="-5.902819018810988">
        <ele>15.52</ele>
        <time>2019-09-05T15:24:12Z</time>
      </trkpt>
      <trkpt lat="57.239984991028905" lon="-5.90048398822546">
        <ele>16</ele>
        <time>2019-09-05T15:24:22Z</time>
      </trkpt>
      <trkpt lat="57.239001039415598" lon="-5.898079974576831">
        <ele>11.19</ele>
        <time>2019-09-05T15:24:32Z</time>
      </trkpt>
      <trkpt lat="57.238324033096433" lon="-5.896106958389282">
        <ele>15.039999999999999</ele>
        <time>2019-09-05T15:24:41Z</time>
      </trkpt>
      <trkpt lat="57.238141978159547" lon="-5.895435987040401">
        <ele>16.48</ele>
        <time>2019-09-05T15:24:44Z</time>
      </trkpt>
      <trkpt lat="57.238082969561219" lon="-5.895190984010696">
        <ele>16.48</ele>
        <time>2019-09-05T15:24:45Z</time>
      </trkpt>
      <trkpt lat="57.238066038116813" lon="-5.894933994859457">
        <ele>16.48</ele>
        <time>2019-09-05T15:24:46Z</time>
      </trkpt>
      <trkpt lat="57.238049022853374" lon="-5.894688991829753">
        <ele>16.48</ele>
        <time>2019-09-05T15:24:47Z</time>
      </trkpt>
      <trkpt lat="57.23804097622633" lon="-5.894448012113571">
        <ele>16.48</ele>
        <time>2019-09-05T15:24:48Z</time>
      </trkpt>
      <trkpt lat="57.237962018698454" lon="-5.891340002417564">
        <ele>9.75</ele>
        <time>2019-09-05T15:25:00Z</time>
      </trkpt>
      <trkpt lat="57.237830003723502" lon="-5.888187987729907">
        <ele>8.310000000000001</ele>
        <time>2019-09-05T15:25:12Z</time>
      </trkpt>
      <trkpt lat="57.237719027325511" lon="-5.886223018169403">
        <ele>5.42</ele>
        <time>2019-09-05T15:25:21Z</time>
      </trkpt>
      <trkpt lat="57.23773998208344" lon="-5.885772993788123">
        <ele>4.94</ele>
        <time>2019-09-05T15:25:23Z</time>
      </trkpt>
      <trkpt lat="57.237770995125175" lon="-5.885548023506999">
        <ele>4.46</ele>
        <time>2019-09-05T15:25:24Z</time>
      </trkpt>
      <trkpt lat="57.237805025652051" lon="-5.885303020477295">
        <ele>4.46</ele>
        <time>2019-09-05T15:25:25Z</time>
      </trkpt>
      <trkpt lat="57.238244991749525" lon="-5.883391024544835">
        <ele>4.46</ele>
        <time>2019-09-05T15:25:34Z</time>
      </trkpt>
      <trkpt lat="57.238267958164215" lon="-5.883152978494763">
        <ele>4.46</ele>
        <time>2019-09-05T15:25:35Z</time>
      </trkpt>
      <trkpt lat="57.238293020054698" lon="-5.882907975465059">
        <ele>4.46</ele>
        <time>2019-09-05T15:25:36Z</time>
      </trkpt>
      <trkpt lat="57.238284973427653" lon="-5.882646040990949">
        <ele>4.94</ele>
        <time>2019-09-05T15:25:37Z</time>
      </trkpt>
      <trkpt lat="57.238268963992596" lon="-5.882377987727523">
        <ele>4.94</ele>
        <time>2019-09-05T15:25:38Z</time>
      </trkpt>
      <trkpt lat="57.238249015063047" lon="-5.88211202993989">
        <ele>5.42</ele>
        <time>2019-09-05T15:25:39Z</time>
      </trkpt>
      <trkpt lat="57.238196963444352" lon="-5.881861997768283">
        <ele>5.42</ele>
        <time>2019-09-05T15:25:40Z</time>
      </trkpt>
      <trkpt lat="57.23812697455287" lon="-5.88161900639534">
        <ele>5.91</ele>
        <time>2019-09-05T15:25:41Z</time>
      </trkpt>
      <trkpt lat="57.238053968176246" lon="-5.881382972002029">
        <ele>5.91</ele>
        <time>2019-09-05T15:25:42Z</time>
      </trkpt>
      <trkpt lat="57.237950032576919" lon="-5.881188008934259">
        <ele>6.39</ele>
        <time>2019-09-05T15:25:43Z</time>
      </trkpt>
      <trkpt lat="57.237850036472082" lon="-5.881001008674502">
        <ele>6.87</ele>
        <time>2019-09-05T15:25:44Z</time>
      </trkpt>
      <trkpt lat="57.237753979861736" lon="-5.880822977051139">
        <ele>7.35</ele>
        <time>2019-09-05T15:25:45Z</time>
      </trkpt>
      <trkpt lat="57.237663036212325" lon="-5.88065198622644">
        <ele>7.35</ele>
        <time>2019-09-05T15:25:46Z</time>
      </trkpt>
      <trkpt lat="57.23703196272254" lon="-5.879767024889588">
        <ele>10.23</ele>
        <time>2019-09-05T15:25:52Z</time>
      </trkpt>
      <trkpt lat="57.23694697022438" lon="-5.879544988274574">
        <ele>10.710000000000001</ele>
        <time>2019-09-05T15:25:53Z</time>
      </trkpt>
      <trkpt lat="57.236864995211363" lon="-5.879333009943366">
        <ele>11.19</ele>
        <time>2019-09-05T15:25:54Z</time>
      </trkpt>
      <trkpt lat="57.236800035461783" lon="-5.87910401634872">
        <ele>11.67</ele>
        <time>2019-09-05T15:25:55Z</time>
      </trkpt>
      <trkpt lat="57.236757958307862" lon="-5.878852978348732">
        <ele>12.15</ele>
        <time>2019-09-05T15:25:56Z</time>
      </trkpt>
      <trkpt lat="57.236734991893172" lon="-5.878593977540731">
        <ele>12.630000000000001</ele>
        <time>2019-09-05T15:25:57Z</time>
      </trkpt>
      <trkpt lat="57.236743960529566" lon="-5.878339000046253">
        <ele>12.630000000000001</ele>
        <time>2019-09-05T15:25:58Z</time>
      </trkpt>
      <trkpt lat="57.23675200715661" lon="-5.878089973703027">
        <ele>13.6</ele>
        <time>2019-09-05T15:25:59Z</time>
      </trkpt>
      <trkpt lat="57.236764999106526" lon="-5.877844970673323">
        <ele>14.08</ele>
        <time>2019-09-05T15:26:00Z</time>
      </trkpt>
      <trkpt lat="57.236868012696505" lon="-5.875676991418004">
        <ele>15.52</ele>
        <time>2019-09-05T15:26:09Z</time>
      </trkpt>
      <trkpt lat="57.236853009089828" lon="-5.875443974509835">
        <ele>15.52</ele>
        <time>2019-09-05T15:26:10Z</time>
      </trkpt>
      <trkpt lat="57.236829958856106" lon="-5.875211963430047">
        <ele>15.52</ele>
        <time>2019-09-05T15:26:11Z</time>
      </trkpt>
      <trkpt lat="57.236759969964623" lon="-5.875009037554264">
        <ele>15.52</ele>
        <time>2019-09-05T15:26:12Z</time>
      </trkpt>
      <trkpt lat="57.236691992729902" lon="-5.874808961525559">
        <ele>15.52</ele>
        <time>2019-09-05T15:26:13Z</time>
      </trkpt>
      <trkpt lat="57.236631978303194" lon="-5.874634031206369">
        <ele>16</ele>
        <time>2019-09-05T15:26:14Z</time>
      </trkpt>
      <trkpt lat="57.236109031364322" lon="-5.873308014124632">
        <ele>17.920000000000002</ele>
        <time>2019-09-05T15:26:23Z</time>
      </trkpt>
      <trkpt lat="57.236080029979348" lon="-5.873124031350017">
        <ele>17.920000000000002</ele>
        <time>2019-09-05T15:26:24Z</time>
      </trkpt>
      <trkpt lat="57.236056979745626" lon="-5.87298396974802">
        <ele>17.920000000000002</ele>
        <time>2019-09-05T15:26:25Z</time>
      </trkpt>
      <trkpt lat="57.236039964482188" lon="-5.872876010835171">
        <ele>18.399999999999999</ele>
        <time>2019-09-05T15:26:26Z</time>
      </trkpt>
      <trkpt lat="57.236025966703892" lon="-5.872790012508631">
        <ele>18.399999999999999</ele>
        <time>2019-09-05T15:26:27Z</time>
      </trkpt>
      <trkpt lat="57.236011968925595" lon="-5.872706025838852">
        <ele>18.399999999999999</ele>
        <time>2019-09-05T15:26:28Z</time>
      </trkpt>
      <trkpt lat="57.235978022217751" lon="-5.872633019462228">
        <ele>18.399999999999999</ele>
        <time>2019-09-05T15:26:29Z</time>
      </trkpt>
      <trkpt lat="57.235922031104565" lon="-5.872608963400126">
        <ele>18.399999999999999</ele>
        <time>2019-09-05T15:26:30Z</time>
      </trkpt>
      <trkpt lat="57.235861010849476" lon="-5.872582979500294">
        <ele>18.399999999999999</ele>
        <time>2019-09-05T15:26:31Z</time>
      </trkpt>
      <trkpt lat="57.235807031393051" lon="-5.872480971738696">
        <ele>18.879999999999999</ele>
        <time>2019-09-05T15:26:32Z</time>
      </trkpt>
      <trkpt lat="57.235740981996059" lon="-5.87233797647059">
        <ele>18.879999999999999</ele>
        <time>2019-09-05T15:26:33Z</time>
      </trkpt>
      <trkpt lat="57.235674010589719" lon="-5.872159022837877">
        <ele>18.879999999999999</ele>
        <time>2019-09-05T15:26:34Z</time>
      </trkpt>
      <trkpt lat="57.234991975128651" lon="-5.870226994156838">
        <ele>18.879999999999999</ele>
        <time>2019-09-05T15:26:44Z</time>
      </trkpt>
      <trkpt lat="57.234073989093304" lon="-5.867992965504527">
        <ele>16.960000000000001</ele>
        <time>2019-09-05T15:26:55Z</time>
      </trkpt>
      <trkpt lat="57.23298903554678" lon="-5.865594986826181">
        <ele>18.879999999999999</ele>
        <time>2019-09-05T15:27:05Z</time>
      </trkpt>
      <trkpt lat="57.232073983177543" lon="-5.863358024507761">
        <ele>19.84</ele>
        <time>2019-09-05T15:27:14Z</time>
      </trkpt>
      <trkpt lat="57.231235038489103" lon="-5.861314013600349">
        <ele>25.129999999999999</ele>
        <time>2019-09-05T15:27:22Z</time>
      </trkpt>
      <trkpt lat="57.230573035776615" lon="-5.858820984140039">
        <ele>32.340000000000003</ele>
        <time>2019-09-05T15:27:31Z</time>
      </trkpt>
      <trkpt lat="57.229811036959291" lon="-5.856386041268706">
        <ele>40.990000000000002</ele>
        <time>2019-09-05T15:27:40Z</time>
      </trkpt>
      <trkpt lat="57.228687023743987" lon="-5.85424697957933">
        <ele>48.200000000000003</ele>
        <time>2019-09-05T15:27:49Z</time>
      </trkpt>
      <trkpt lat="57.226814003661275" lon="-5.851614978164434">
        <ele>54.93</ele>
        <time>2019-09-05T15:28:00Z</time>
      </trkpt>
      <trkpt lat="57.224824978038669" lon="-5.849012983962894">
        <ele>58.780000000000001</ele>
        <time>2019-09-05T15:28:12Z</time>
      </trkpt>
      <trkpt lat="57.222052998840809" lon="-5.84563197568059">
        <ele>62.140000000000001</ele>
        <time>2019-09-05T15:28:28Z</time>
      </trkpt>
      <trkpt lat="57.218633014708757" lon="-5.841975035145879">
        <ele>61.18</ele>
        <time>2019-09-05T15:28:47Z</time>
      </trkpt>
      <trkpt lat="57.21571602858603" lon="-5.839072968810797">
        <ele>56.859999999999999</ele>
        <time>2019-09-05T15:29:03Z</time>
      </trkpt>
      <trkpt lat="57.214219020679593" lon="-5.836950000375509">
        <ele>55.409999999999997</ele>
        <time>2019-09-05T15:29:12Z</time>
      </trkpt>
      <trkpt lat="57.211608979851007" lon="-5.83293397910893">
        <ele>54.450000000000003</ele>
        <time>2019-09-05T15:29:28Z</time>
      </trkpt>
      <trkpt lat="57.208546986803412" lon="-5.828130980953574">
        <ele>59.259999999999998</ele>
        <time>2019-09-05T15:29:47Z</time>
      </trkpt>
      <trkpt lat="57.205630000680685" lon="-5.822988012805581">
        <ele>64.069999999999993</ele>
        <time>2019-09-05T15:30:06Z</time>
      </trkpt>
      <trkpt lat="57.203202014788985" lon="-5.818389030173421">
        <ele>65.989999999999995</ele>
        <time>2019-09-05T15:30:22Z</time>
      </trkpt>
      <trkpt lat="57.20177298411727" lon="-5.816591028124094">
        <ele>66.469999999999999</ele>
        <time>2019-09-05T15:30:30Z</time>
      </trkpt>
      <trkpt lat="57.20009601674974" lon="-5.815806984901428">
        <ele>67.909999999999997</ele>
        <time>2019-09-05T15:30:38Z</time>
      </trkpt>
      <trkpt lat="57.196825984865427" lon="-5.814875001087785">
        <ele>57.340000000000003</ele>
        <time>2019-09-05T15:30:53Z</time>
      </trkpt>
      <trkpt lat="57.193580009043217" lon="-5.814188020303845">
        <ele>35.710000000000001</ele>
        <time>2019-09-05T15:31:08Z</time>
      </trkpt>
      <trkpt lat="57.191866999492049" lon="-5.81449898891151">
        <ele>27.050000000000001</ele>
        <time>2019-09-05T15:31:16Z</time>
      </trkpt>
      <trkpt lat="57.190502006560564" lon="-5.815656026825309">
        <ele>21.289999999999999</ele>
        <time>2019-09-05T15:31:23Z</time>
      </trkpt>
      <trkpt lat="57.188229002058506" lon="-5.818717014044523">
        <ele>14.56</ele>
        <time>2019-09-05T15:31:36Z</time>
      </trkpt>
      <trkpt lat="57.186376014724374" lon="-5.820718025788665">
        <ele>12.630000000000001</ele>
        <time>2019-09-05T15:31:46Z</time>
      </trkpt>
      <trkpt lat="57.18595901504159" lon="-5.820868983864784">
        <ele>12.630000000000001</ele>
        <time>2019-09-05T15:31:48Z</time>
      </trkpt>
      <trkpt lat="57.185752987861633" lon="-5.820922963321209">
        <ele>12.630000000000001</ele>
        <time>2019-09-05T15:31:49Z</time>
      </trkpt>
      <trkpt lat="57.185543021187186" lon="-5.820883987471461">
        <ele>13.119999999999999</ele>
        <time>2019-09-05T15:31:50Z</time>
      </trkpt>
      <trkpt lat="57.185331964865327" lon="-5.820845011621714">
        <ele>13.6</ele>
        <time>2019-09-05T15:31:51Z</time>
      </trkpt>
      <trkpt lat="57.18512300401926" lon="-5.820782985538244">
        <ele>13.6</ele>
        <time>2019-09-05T15:31:52Z</time>
      </trkpt>
      <trkpt lat="57.184914965182543" lon="-5.820689024403691">
        <ele>14.08</ele>
        <time>2019-09-05T15:31:53Z</time>
      </trkpt>
      <trkpt lat="57.184710027649999" lon="-5.820573018863797">
        <ele>14.56</ele>
        <time>2019-09-05T15:31:54Z</time>
      </trkpt>
      <trkpt lat="57.184509029611945" lon="-5.820417031645775">
        <ele>15.039999999999999</ele>
        <time>2019-09-05T15:31:55Z</time>
      </trkpt>
      <trkpt lat="57.182819992303848" lon="-5.818615006282926">
        <ele>16.960000000000001</ele>
        <time>2019-09-05T15:32:04Z</time>
      </trkpt>
      <trkpt lat="57.179849026724696" lon="-5.815305998548865">
        <ele>20.32</ele>
        <time>2019-09-05T15:32:20Z</time>
      </trkpt>
      <trkpt lat="57.176808994263411" lon="-5.812144009396434">
        <ele>20.32</ele>
        <time>2019-09-05T15:32:36Z</time>
      </trkpt>
      <trkpt lat="57.174441022798419" lon="-5.809679981321096">
        <ele>18.399999999999999</ele>
        <time>2019-09-05T15:32:49Z</time>
      </trkpt>
      <trkpt lat="57.172559034079313" lon="-5.807720962911844">
        <ele>14.56</ele>
        <time>2019-09-05T15:32:59Z</time>
      </trkpt>
      <trkpt lat="57.170690959319472" lon="-5.805827993899584">
        <ele>15.039999999999999</ele>
        <time>2019-09-05T15:33:09Z</time>
      </trkpt>
      <trkpt lat="57.169355973601341" lon="-5.805010003969073">
        <ele>14.56</ele>
        <time>2019-09-05T15:33:16Z</time>
      </trkpt>
      <trkpt lat="57.168773012235761" lon="-5.804775981232524">
        <ele>13.6</ele>
        <time>2019-09-05T15:33:19Z</time>
      </trkpt>
      <trkpt lat="57.168590035289526" lon="-5.804615970700979">
        <ele>13.119999999999999</ele>
        <time>2019-09-05T15:33:20Z</time>
      </trkpt>
      <trkpt lat="57.168413009494543" lon="-5.804440034553409">
        <ele>12.630000000000001</ele>
        <time>2019-09-05T15:33:21Z</time>
      </trkpt>
      <trkpt lat="57.167630977928638" lon="-5.803486006334424">
        <ele>16</ele>
        <time>2019-09-05T15:33:26Z</time>
      </trkpt>
      <trkpt lat="57.16748395934701" lon="-5.803376035764813">
        <ele>16.960000000000001</ele>
        <time>2019-09-05T15:33:27Z</time>
      </trkpt>
      <trkpt lat="57.165781008079648" lon="-5.802240036427975">
        <ele>19.84</ele>
        <time>2019-09-05T15:33:37Z</time>
      </trkpt>
      <trkpt lat="57.164363963529468" lon="-5.801281984895468">
        <ele>16.960000000000001</ele>
        <time>2019-09-05T15:33:45Z</time>
      </trkpt>
      <trkpt lat="57.16370296664536" lon="-5.800871020182967">
        <ele>18.879999999999999</ele>
        <time>2019-09-05T15:33:49Z</time>
      </trkpt>
      <trkpt lat="57.162142004817724" lon="-5.800332985818386">
        <ele>24.649999999999999</ele>
        <time>2019-09-05T15:33:58Z</time>
      </trkpt>
      <trkpt lat="57.160839959979057" lon="-5.799592025578022">
        <ele>24.649999999999999</ele>
        <time>2019-09-05T15:34:05Z</time>
      </trkpt>
      <trkpt lat="57.160354983061552" lon="-5.799279967322946">
        <ele>26.09</ele>
        <time>2019-09-05T15:34:08Z</time>
      </trkpt>
      <trkpt lat="57.160197990015149" lon="-5.799258006736636">
        <ele>27.050000000000001</ele>
        <time>2019-09-05T15:34:09Z</time>
      </trkpt>
      <trkpt lat="57.160045020282269" lon="-5.799258006736636">
        <ele>28.5</ele>
        <time>2019-09-05T15:34:10Z</time>
      </trkpt>
      <trkpt lat="57.15989800170064" lon="-5.799335036426783">
        <ele>28.98</ele>
        <time>2019-09-05T15:34:11Z</time>
      </trkpt>
      <trkpt lat="57.159751988947392" lon="-5.799412988126278">
        <ele>30.420000000000002</ele>
        <time>2019-09-05T15:34:12Z</time>
      </trkpt>
      <trkpt lat="57.159630032256246" lon="-5.799543997272849">
        <ele>31.379999999999999</ele>
        <time>2019-09-05T15:34:13Z</time>
      </trkpt>
      <trkpt lat="57.159504974260926" lon="-5.799701996147633">
        <ele>32.340000000000003</ele>
        <time>2019-09-05T15:34:14Z</time>
      </trkpt>
      <trkpt lat="57.159375976771116" lon="-5.799872986972332">
        <ele>33.299999999999997</ele>
        <time>2019-09-05T15:34:15Z</time>
      </trkpt>
      <trkpt lat="57.159255025908351" lon="-5.800075996667147">
        <ele>34.259999999999998</ele>
        <time>2019-09-05T15:34:16Z</time>
      </trkpt>
      <trkpt lat="57.159029971808195" lon="-5.800451003015041">
        <ele>35.229999999999997</ele>
        <time>2019-09-05T15:34:18Z</time>
      </trkpt>
      <trkpt lat="57.158917989581823" lon="-5.800638003274798">
        <ele>35.710000000000001</ele>
        <time>2019-09-05T15:34:19Z</time>
      </trkpt>
      <trkpt lat="57.158668041229248" lon="-5.800946038216353">
        <ele>35.710000000000001</ele>
        <time>2019-09-05T15:34:21Z</time>
      </trkpt>
      <trkpt lat="57.158532002940774" lon="-5.801075035706163">
        <ele>35.710000000000001</ele>
        <time>2019-09-05T15:34:22Z</time>
      </trkpt>
      <trkpt lat="57.15839697048068" lon="-5.801196992397308">
        <ele>35.710000000000001</ele>
        <time>2019-09-05T15:34:23Z</time>
      </trkpt>
      <trkpt lat="57.157174972817302" lon="-5.801811972633004">
        <ele>36.189999999999998</ele>
        <time>2019-09-05T15:34:32Z</time>
      </trkpt>
      <trkpt lat="57.156537026166916" lon="-5.801898976787925">
        <ele>35.229999999999997</ele>
        <time>2019-09-05T15:34:36Z</time>
      </trkpt>
      <trkpt lat="57.156239971518517" lon="-5.801775008440018">
        <ele>34.259999999999998</ele>
        <time>2019-09-05T15:34:38Z</time>
      </trkpt>
      <trkpt lat="57.155962027609348" lon="-5.801593959331513">
        <ele>33.299999999999997</ele>
        <time>2019-09-05T15:34:40Z</time>
      </trkpt>
      <trkpt lat="57.154944967478514" lon="-5.800711009651423">
        <ele>33.780000000000001</ele>
        <time>2019-09-05T15:34:48Z</time>
      </trkpt>
      <trkpt lat="57.15478696860373" lon="-5.800653006881475">
        <ele>33.780000000000001</ele>
        <time>2019-09-05T15:34:49Z</time>
      </trkpt>
      <trkpt lat="57.154612960293889" lon="-5.800587963312864">
        <ele>33.780000000000001</ele>
        <time>2019-09-05T15:34:50Z</time>
      </trkpt>
      <trkpt lat="57.154454961419106" lon="-5.800601039081812">
        <ele>33.299999999999997</ele>
        <time>2019-09-05T15:34:51Z</time>
      </trkpt>
      <trkpt lat="57.154281036928296" lon="-5.800639009103179">
        <ele>33.299999999999997</ele>
        <time>2019-09-05T15:34:52Z</time>
      </trkpt>
      <trkpt lat="57.154104011133313" lon="-5.800707992166281">
        <ele>32.82</ele>
        <time>2019-09-05T15:34:53Z</time>
      </trkpt>
      <trkpt lat="57.153928996995091" lon="-5.800776975229383">
        <ele>32.82</ele>
        <time>2019-09-05T15:34:54Z</time>
      </trkpt>
      <trkpt lat="57.152268961071968" lon="-5.801434032619">
        <ele>31.859999999999999</ele>
        <time>2019-09-05T15:35:04Z</time>
      </trkpt>
      <trkpt lat="57.150691989809275" lon="-5.802261997014284">
        <ele>33.780000000000001</ele>
        <time>2019-09-05T15:35:14Z</time>
      </trkpt>
      <trkpt lat="57.150569027289748" lon="-5.802431982010603">
        <ele>33.780000000000001</ele>
        <time>2019-09-05T15:35:15Z</time>
      </trkpt>
      <trkpt lat="57.150464002043009" lon="-5.802643038332462">
        <ele>33.780000000000001</ele>
        <time>2019-09-05T15:35:16Z</time>
      </trkpt>
      <trkpt lat="57.150355037301779" lon="-5.802863985300064">
        <ele>33.299999999999997</ele>
        <time>2019-09-05T15:35:17Z</time>
      </trkpt>
      <trkpt lat="57.15025101788342" lon="-5.803105970844626">
        <ele>32.82</ele>
        <time>2019-09-05T15:35:18Z</time>
      </trkpt>
      <trkpt lat="57.149698985740542" lon="-5.804279018193483">
        <ele>30.420000000000002</ele>
        <time>2019-09-05T15:35:23Z</time>
      </trkpt>
      <trkpt lat="57.149555990472436" lon="-5.804438022896648">
        <ele>29.460000000000001</ele>
        <time>2019-09-05T15:35:24Z</time>
      </trkpt>
      <trkpt lat="57.149419030174613" lon="-5.804588980972767">
        <ele>28.98</ele>
        <time>2019-09-05T15:35:25Z</time>
      </trkpt>
      <trkpt lat="57.149291960522532" lon="-5.804729964584112">
        <ele>28.02</ele>
        <time>2019-09-05T15:35:26Z</time>
      </trkpt>
      <trkpt lat="57.149125998839736" lon="-5.804805988445878">
        <ele>27.530000000000001</ele>
        <time>2019-09-05T15:35:27Z</time>
      </trkpt>
      <trkpt lat="57.148964982479811" lon="-5.804881006479263">
        <ele>27.050000000000001</ele>
        <time>2019-09-05T15:35:28Z</time>
      </trkpt>
      <trkpt lat="57.148802038282156" lon="-5.804957030341029">
        <ele>26.09</ele>
        <time>2019-09-05T15:35:29Z</time>
      </trkpt>
      <trkpt lat="57.14863901026547" lon="-5.805031964555383">
        <ele>25.609999999999999</ele>
        <time>2019-09-05T15:35:30Z</time>
      </trkpt>
      <trkpt lat="57.147733010351658" lon="-5.805476037785411">
        <ele>22.25</ele>
        <time>2019-09-05T15:35:36Z</time>
      </trkpt>
      <trkpt lat="57.147590015083551" lon="-5.805586008355022">
        <ele>21.77</ele>
        <time>2019-09-05T15:35:37Z</time>
      </trkpt>
      <trkpt lat="57.147456994280219" lon="-5.805736966431141">
        <ele>21.289999999999999</ele>
        <time>2019-09-05T15:35:38Z</time>
      </trkpt>
      <trkpt lat="57.147327996790409" lon="-5.805920027196407">
        <ele>20.32</ele>
        <time>2019-09-05T15:35:39Z</time>
      </trkpt>
      <trkpt lat="57.147197993472219" lon="-5.806103004142642">
        <ele>19.84</ele>
        <time>2019-09-05T15:35:40Z</time>
      </trkpt>
      <trkpt lat="57.147086011245847" lon="-5.80631397664547">
        <ele>19.84</ele>
        <time>2019-09-05T15:35:41Z</time>
      </trkpt>
      <trkpt lat="57.146976962685585" lon="-5.806540958583355">
        <ele>19.84</ele>
        <time>2019-09-05T15:35:42Z</time>
      </trkpt>
      <trkpt lat="57.146867997944355" lon="-5.806768024340272">
        <ele>19.84</ele>
        <time>2019-09-05T15:35:43Z</time>
      </trkpt>
      <trkpt lat="57.146140029653907" lon="-5.808408027514815">
        <ele>24.649999999999999</ele>
        <time>2019-09-05T15:35:51Z</time>
      </trkpt>
      <trkpt lat="57.145365960896015" lon="-5.810754038393498">
        <ele>29.460000000000001</ele>
        <time>2019-09-05T15:36:00Z</time>
      </trkpt>
      <trkpt lat="57.145101008936763" lon="-5.812112996354699">
        <ele>31.859999999999999</ele>
        <time>2019-09-05T15:36:05Z</time>
      </trkpt>
      <trkpt lat="57.145089022815228" lon="-5.812397981062532">
        <ele>31.859999999999999</ele>
        <time>2019-09-05T15:36:06Z</time>
      </trkpt>
      <trkpt lat="57.145077958703041" lon="-5.812687994912267">
        <ele>32.340000000000003</ele>
        <time>2019-09-05T15:36:07Z</time>
      </trkpt>
      <trkpt lat="57.144885007292032" lon="-5.815377999097109">
        <ele>33.299999999999997</ele>
        <time>2019-09-05T15:36:16Z</time>
      </trkpt>
      <trkpt lat="57.144332975149155" lon="-5.817361995577812">
        <ele>32.340000000000003</ele>
        <time>2019-09-05T15:36:23Z</time>
      </trkpt>
      <trkpt lat="57.143456982448697" lon="-5.81965696066618">
        <ele>37.630000000000003</ele>
        <time>2019-09-05T15:36:32Z</time>
      </trkpt>
      <trkpt lat="57.142328023910522" lon="-5.822139009833336">
        <ele>41.469999999999999</ele>
        <time>2019-09-05T15:36:42Z</time>
      </trkpt>
      <trkpt lat="57.140919025987387" lon="-5.82489900290966">
        <ele>46.280000000000001</ele>
        <time>2019-09-05T15:36:53Z</time>
      </trkpt>
      <trkpt lat="57.139999028295279" lon="-5.827775001525879">
        <ele>47.719999999999999</ele>
        <time>2019-09-05T15:37:02Z</time>
      </trkpt>
      <trkpt lat="57.138845007866621" lon="-5.830186977982521">
        <ele>53.009999999999998</ele>
        <time>2019-09-05T15:37:11Z</time>
      </trkpt>
      <trkpt lat="57.137131998315454" lon="-5.83256802521646">
        <ele>58.780000000000001</ele>
        <time>2019-09-05T15:37:22Z</time>
      </trkpt>
      <trkpt lat="57.13497600518167" lon="-5.835269009694457">
        <ele>60.700000000000003</ele>
        <time>2019-09-05T15:37:35Z</time>
      </trkpt>
      <trkpt lat="57.132824035361409" lon="-5.837822975590825">
        <ele>71.760000000000005</ele>
        <time>2019-09-05T15:37:48Z</time>
      </trkpt>
      <trkpt lat="57.129892967641354" lon="-5.84105302579701">
        <ele>84.730000000000004</ele>
        <time>2019-09-05T15:38:05Z</time>
      </trkpt>
      <trkpt lat="57.128427978605032" lon="-5.842410977929831">
        <ele>84.730000000000004</ele>
        <time>2019-09-05T15:38:14Z</time>
      </trkpt>
      <trkpt lat="57.126893000677228" lon="-5.843492997810245">
        <ele>78.969999999999999</ele>
        <time>2019-09-05T15:38:23Z</time>
      </trkpt>
      <trkpt lat="57.126714969053864" lon="-5.843543959781528">
        <ele>78.480000000000004</ele>
        <time>2019-09-05T15:38:24Z</time>
      </trkpt>
      <trkpt lat="57.126180035993457" lon="-5.843716040253639">
        <ele>76.560000000000002</ele>
        <time>2019-09-05T15:38:27Z</time>
      </trkpt>
      <trkpt lat="57.125989012420177" lon="-5.843782005831599">
        <ele>76.079999999999998</ele>
        <time>2019-09-05T15:38:28Z</time>
      </trkpt>
      <trkpt lat="57.125839982181787" lon="-5.843918966129422">
        <ele>75.599999999999994</ele>
        <time>2019-09-05T15:38:29Z</time>
      </trkpt>
      <trkpt lat="57.125689024105668" lon="-5.844091968610883">
        <ele>74.640000000000001</ele>
        <time>2019-09-05T15:38:30Z</time>
      </trkpt>
      <trkpt lat="57.125561032444239" lon="-5.8443190343678">
        <ele>74.159999999999997</ele>
        <time>2019-09-05T15:38:31Z</time>
      </trkpt>
      <trkpt lat="57.125435974448919" lon="-5.844551967456937">
        <ele>73.680000000000007</ele>
        <time>2019-09-05T15:38:32Z</time>
      </trkpt>
      <trkpt lat="57.125331033021212" lon="-5.844819014891982">
        <ele>72.719999999999999</ele>
        <time>2019-09-05T15:38:33Z</time>
      </trkpt>
      <trkpt lat="57.125223996117711" lon="-5.845087990164757">
        <ele>72.239999999999995</ele>
        <time>2019-09-05T15:38:34Z</time>
      </trkpt>
      <trkpt lat="57.125010006129742" lon="-5.845628036186099">
        <ele>70.790000000000006</ele>
        <time>2019-09-05T15:38:36Z</time>
      </trkpt>
      <trkpt lat="57.124873967841268" lon="-5.845854012295604">
        <ele>69.829999999999998</ele>
        <time>2019-09-05T15:38:37Z</time>
      </trkpt>
      <trkpt lat="57.124725021421909" lon="-5.846043024212122">
        <ele>69.349999999999994</ele>
        <time>2019-09-05T15:38:38Z</time>
      </trkpt>
      <trkpt lat="57.124561993405223" lon="-5.846175039187074">
        <ele>68.870000000000005</ele>
        <time>2019-09-05T15:38:39Z</time>
      </trkpt>
      <trkpt lat="57.124397959560156" lon="-5.846287021413446">
        <ele>68.390000000000001</ele>
        <time>2019-09-05T15:38:40Z</time>
      </trkpt>
      <trkpt lat="57.124223029240966" lon="-5.846347035840154">
        <ele>67.909999999999997</ele>
        <time>2019-09-05T15:38:41Z</time>
      </trkpt>
      <trkpt lat="57.124050026759505" lon="-5.84640696644783">
        <ele>67.430000000000007</ele>
        <time>2019-09-05T15:38:42Z</time>
      </trkpt>
      <trkpt lat="57.122604986652732" lon="-5.84702798165381">
        <ele>65.030000000000001</ele>
        <time>2019-09-05T15:38:50Z</time>
      </trkpt>
      <trkpt lat="57.121061040088534" lon="-5.846990011632443">
        <ele>58.780000000000001</ele>
        <time>2019-09-05T15:38:58Z</time>
      </trkpt>
      <trkpt lat="57.118924995884299" lon="-5.846378970891237">
        <ele>43.880000000000003</ele>
        <time>2019-09-05T15:39:09Z</time>
      </trkpt>
      <trkpt lat="57.118740007281303" lon="-5.846423981711268">
        <ele>42.920000000000002</ele>
        <time>2019-09-05T15:39:10Z</time>
      </trkpt>
      <trkpt lat="57.117046024650335" lon="-5.846753977239132">
        <ele>36.189999999999998</ele>
        <time>2019-09-05T15:39:19Z</time>
      </trkpt>
      <trkpt lat="57.116052014753222" lon="-5.847102999687195">
        <ele>34.259999999999998</ele>
        <time>2019-09-05T15:39:26Z</time>
      </trkpt>
      <trkpt lat="57.115021040663123" lon="-5.848274035379291">
        <ele>29.940000000000001</ele>
        <time>2019-09-05T15:39:34Z</time>
      </trkpt>
      <trkpt lat="57.113693011924624" lon="-5.850621974095702">
        <ele>26.57</ele>
        <time>2019-09-05T15:39:45Z</time>
      </trkpt>
      <trkpt lat="57.112851971760392" lon="-5.852772016078234">
        <ele>19.84</ele>
        <time>2019-09-05T15:39:54Z</time>
      </trkpt>
      <trkpt lat="57.112720040604472" lon="-5.852945018559694">
        <ele>19.359999999999999</ele>
        <time>2019-09-05T15:39:55Z</time>
      </trkpt>
      <trkpt lat="57.112585008144379" lon="-5.853121960535646">
        <ele>18.879999999999999</ele>
        <time>2019-09-05T15:39:56Z</time>
      </trkpt>
      <trkpt lat="57.110993033275008" lon="-5.854502962902188">
        <ele>16</ele>
        <time>2019-09-05T15:40:07Z</time>
      </trkpt>
      <trkpt lat="57.110530016943812" lon="-5.854783002287149">
        <ele>16.960000000000001</ele>
        <time>2019-09-05T15:40:10Z</time>
      </trkpt>
      <trkpt lat="57.110387021675706" lon="-5.85493303835392">
        <ele>17.440000000000001</ele>
        <time>2019-09-05T15:40:11Z</time>
      </trkpt>
      <trkpt lat="57.110249977558851" lon="-5.855097994208336">
        <ele>17.920000000000002</ele>
        <time>2019-09-05T15:40:12Z</time>
      </trkpt>
      <trkpt lat="57.110126009210944" lon="-5.855291029438376">
        <ele>17.920000000000002</ele>
        <time>2019-09-05T15:40:13Z</time>
      </trkpt>
      <trkpt lat="57.110005980357528" lon="-5.855479035526514">
        <ele>18.399999999999999</ele>
        <time>2019-09-05T15:40:14Z</time>
      </trkpt>
      <trkpt lat="57.109887963160872" lon="-5.85566402412951">
        <ele>18.399999999999999</ele>
        <time>2019-09-05T15:40:15Z</time>
      </trkpt>
      <trkpt lat="57.109424024820328" lon="-5.856313034892082">
        <ele>18.399999999999999</ele>
        <time>2019-09-05T15:40:19Z</time>
      </trkpt>
      <trkpt lat="57.109293015673757" lon="-5.85641797631979">
        <ele>17.920000000000002</ele>
        <time>2019-09-05T15:40:20Z</time>
      </trkpt>
      <trkpt lat="57.109154965728521" lon="-5.856485031545162">
        <ele>17.920000000000002</ele>
        <time>2019-09-05T15:40:21Z</time>
      </trkpt>
      <trkpt lat="57.109007025137544" lon="-5.856485031545162">
        <ele>17.920000000000002</ele>
        <time>2019-09-05T15:40:22Z</time>
      </trkpt>
      <trkpt lat="57.108862018212676" lon="-5.856444966048002">
        <ele>17.920000000000002</ele>
        <time>2019-09-05T15:40:23Z</time>
      </trkpt>
      <trkpt lat="57.108718017116189" lon="-5.856379000470042">
        <ele>17.920000000000002</ele>
        <time>2019-09-05T15:40:24Z</time>
      </trkpt>
      <trkpt lat="57.108568986877799" lon="-5.856312029063702">
        <ele>18.399999999999999</ele>
        <time>2019-09-05T15:40:25Z</time>
      </trkpt>
      <trkpt lat="57.1079680044204" lon="-5.856113964691758">
        <ele>19.359999999999999</ele>
        <time>2019-09-05T15:40:29Z</time>
      </trkpt>
      <trkpt lat="57.107817968353629" lon="-5.856140032410622">
        <ele>19.84</ele>
        <time>2019-09-05T15:40:30Z</time>
      </trkpt>
      <trkpt lat="57.107685031369328" lon="-5.856164004653692">
        <ele>20.809999999999999</ele>
        <time>2019-09-05T15:40:31Z</time>
      </trkpt>
      <trkpt lat="57.107542036101222" lon="-5.856295013800263">
        <ele>21.289999999999999</ele>
        <time>2019-09-05T15:40:32Z</time>
      </trkpt>
      <trkpt lat="57.107403986155987" lon="-5.856421999633312">
        <ele>21.289999999999999</ele>
        <time>2019-09-05T15:40:33Z</time>
      </trkpt>
      <trkpt lat="57.107261996716261" lon="-5.856553008779883">
        <ele>21.77</ele>
        <time>2019-09-05T15:40:34Z</time>
      </trkpt>
      <trkpt lat="57.107117995619774" lon="-5.856685023754835">
        <ele>21.77</ele>
        <time>2019-09-05T15:40:35Z</time>
      </trkpt>
      <trkpt lat="57.105702962726355" lon="-5.857803001999855">
        <ele>22.25</ele>
        <time>2019-09-05T15:40:44Z</time>
      </trkpt>
      <trkpt lat="57.105534989386797" lon="-5.857854969799519">
        <ele>22.73</ele>
        <time>2019-09-05T15:40:45Z</time>
      </trkpt>
      <trkpt lat="57.105371961370111" lon="-5.857905009761453">
        <ele>23.690000000000001</ele>
        <time>2019-09-05T15:40:46Z</time>
      </trkpt>
      <trkpt lat="57.104784976691008" lon="-5.858083963394165">
        <ele>27.050000000000001</ele>
        <time>2019-09-05T15:40:50Z</time>
      </trkpt>
      <trkpt lat="57.104643993079662" lon="-5.858148001134396">
        <ele>28.02</ele>
        <time>2019-09-05T15:40:51Z</time>
      </trkpt>
      <trkpt lat="57.104245014488697" lon="-5.858487971127033">
        <ele>29.940000000000001</ele>
        <time>2019-09-05T15:40:54Z</time>
      </trkpt>
      <trkpt lat="57.104119034484029" lon="-5.858595008030534">
        <ele>29.940000000000001</ele>
        <time>2019-09-05T15:40:55Z</time>
      </trkpt>
      <trkpt lat="57.104027001187205" lon="-5.858776979148388">
        <ele>30.420000000000002</ele>
        <time>2019-09-05T15:40:56Z</time>
      </trkpt>
      <trkpt lat="57.103941002860665" lon="-5.858966996893287">
        <ele>30.420000000000002</ele>
        <time>2019-09-05T15:40:57Z</time>
      </trkpt>
      <trkpt lat="57.103875037282705" lon="-5.859186016023159">
        <ele>30.420000000000002</ele>
        <time>2019-09-05T15:40:58Z</time>
      </trkpt>
      <trkpt lat="57.103818962350488" lon="-5.859429007396102">
        <ele>29.940000000000001</ele>
        <time>2019-09-05T15:40:59Z</time>
      </trkpt>
      <trkpt lat="57.103760959580541" lon="-5.8596829790622">
        <ele>29.460000000000001</ele>
        <time>2019-09-05T15:41:00Z</time>
      </trkpt>
      <trkpt lat="57.103700023144484" lon="-5.859950026497245">
        <ele>28.98</ele>
        <time>2019-09-05T15:41:01Z</time>
      </trkpt>
      <trkpt lat="57.103613018989563" lon="-5.86019704118371">
        <ele>28.5</ele>
        <time>2019-09-05T15:41:02Z</time>
      </trkpt>
      <trkpt lat="57.103501036763191" lon="-5.860421005636454">
        <ele>28.02</ele>
        <time>2019-09-05T15:41:03Z</time>
      </trkpt>
      <trkpt lat="57.103369021788239" lon="-5.860608005896211">
        <ele>28.02</ele>
        <time>2019-09-05T15:41:04Z</time>
      </trkpt>
      <trkpt lat="57.103240024298429" lon="-5.860790982842445">
        <ele>28.02</ele>
        <time>2019-09-05T15:41:05Z</time>
      </trkpt>
      <trkpt lat="57.102086003869772" lon="-5.86202597245574">
        <ele>28.5</ele>
        <time>2019-09-05T15:41:14Z</time>
      </trkpt>
      <trkpt lat="57.100787982344627" lon="-5.863340003415942">
        <ele>30.899999999999999</ele>
        <time>2019-09-05T15:41:23Z</time>
      </trkpt>
      <trkpt lat="57.099472023546696" lon="-5.864965002983809">
        <ele>35.229999999999997</ele>
        <time>2019-09-05T15:41:33Z</time>
      </trkpt>
      <trkpt lat="57.09896701388061" lon="-5.865581994876266">
        <ele>36.670000000000002</ele>
        <time>2019-09-05T15:41:37Z</time>
      </trkpt>
      <trkpt lat="57.097819028422236" lon="-5.867017982527614">
        <ele>40.030000000000001</ele>
        <time>2019-09-05T15:41:46Z</time>
      </trkpt>
      <trkpt lat="57.096632989123464" lon="-5.867686020210385">
        <ele>41.950000000000003</ele>
        <time>2019-09-05T15:41:54Z</time>
      </trkpt>
      <trkpt lat="57.096475996077061" lon="-5.867720972746611">
        <ele>42.439999999999998</ele>
        <time>2019-09-05T15:41:55Z</time>
      </trkpt>
      <trkpt lat="57.096316991373897" lon="-5.867705969139934">
        <ele>42.920000000000002</ele>
        <time>2019-09-05T15:41:56Z</time>
      </trkpt>
      <trkpt lat="57.096163015812635" lon="-5.867677973583341">
        <ele>43.399999999999999</ele>
        <time>2019-09-05T15:41:57Z</time>
      </trkpt>
      <trkpt lat="57.096012979745865" lon="-5.867649978026748">
        <ele>43.880000000000003</ele>
        <time>2019-09-05T15:41:58Z</time>
      </trkpt>
      <trkpt lat="57.095305966213346" lon="-5.86756800301373">
        <ele>41.469999999999999</ele>
        <time>2019-09-05T15:42:03Z</time>
      </trkpt>
      <trkpt lat="57.09516397677362" lon="-5.867576971650124">
        <ele>40.509999999999998</ele>
        <time>2019-09-05T15:42:04Z</time>
      </trkpt>
      <trkpt lat="57.095032967627048" lon="-5.86765400134027">
        <ele>39.549999999999997</ele>
        <time>2019-09-05T15:42:05Z</time>
      </trkpt>
      <trkpt lat="57.094900030642748" lon="-5.867732036858797">
        <ele>38.590000000000003</ele>
        <time>2019-09-05T15:42:06Z</time>
      </trkpt>
      <trkpt lat="57.094769021496177" lon="-5.867856005206704">
        <ele>37.149999999999999</ele>
        <time>2019-09-05T15:42:07Z</time>
      </trkpt>
      <trkpt lat="57.09464798681438" lon="-5.86801802739501">
        <ele>36.189999999999998</ele>
        <time>2019-09-05T15:42:08Z</time>
      </trkpt>
      <trkpt lat="57.094384962692857" lon="-5.868367971852422">
        <ele>33.780000000000001</ele>
        <time>2019-09-05T15:42:10Z</time>
      </trkpt>
      <trkpt lat="57.094240039587021" lon="-5.868517002090812">
        <ele>32.340000000000003</ele>
        <time>2019-09-05T15:42:11Z</time>
      </trkpt>
      <trkpt lat="57.094084974378347" lon="-5.868636025115848">
        <ele>31.379999999999999</ele>
        <time>2019-09-05T15:42:12Z</time>
      </trkpt>
      <trkpt lat="57.092720987275243" lon="-5.869592987000942">
        <ele>19.84</ele>
        <time>2019-09-05T15:42:21Z</time>
      </trkpt>
      <trkpt lat="57.090940000489354" lon="-5.871052024886012">
        <ele>15.039999999999999</ele>
        <time>2019-09-05T15:42:33Z</time>
      </trkpt>
      <trkpt lat="57.089793020859361" lon="-5.872213002294302">
        <ele>15.039999999999999</ele>
        <time>2019-09-05T15:42:41Z</time>
      </trkpt>
      <trkpt lat="57.088370025157928" lon="-5.873739011585712">
        <ele>18.399999999999999</ele>
        <time>2019-09-05T15:42:51Z</time>
      </trkpt>
      <trkpt lat="57.087371991947293" lon="-5.874903006479144">
        <ele>21.289999999999999</ele>
        <time>2019-09-05T15:42:59Z</time>
      </trkpt>
      <trkpt lat="57.087174011394382" lon="-5.875240964815021">
        <ele>22.73</ele>
        <time>2019-09-05T15:43:01Z</time>
      </trkpt>
      <trkpt lat="57.086387034505606" lon="-5.877040978521109">
        <ele>28.02</ele>
        <time>2019-09-05T15:43:10Z</time>
      </trkpt>
      <trkpt lat="57.085875989869237" lon="-5.878513008356094">
        <ele>29.460000000000001</ele>
        <time>2019-09-05T15:43:16Z</time>
      </trkpt>
      <trkpt lat="57.085819998756051" lon="-5.878777960315347">
        <ele>29.460000000000001</ele>
        <time>2019-09-05T15:43:17Z</time>
      </trkpt>
      <trkpt lat="57.085793009027839" lon="-5.879047019407153">
        <ele>29.940000000000001</ele>
        <time>2019-09-05T15:43:18Z</time>
      </trkpt>
      <trkpt lat="57.085582036525011" lon="-5.881538959220052">
        <ele>29.460000000000001</ele>
        <time>2019-09-05T15:43:27Z</time>
      </trkpt>
      <trkpt lat="57.085240976884961" lon="-5.884058978408575">
        <ele>23.690000000000001</ele>
        <time>2019-09-05T15:43:35Z</time>
      </trkpt>
      <trkpt lat="57.085160007700324" lon="-5.88432895950973">
        <ele>22.73</ele>
        <time>2019-09-05T15:43:36Z</time>
      </trkpt>
      <trkpt lat="57.085061017423868" lon="-5.884595001116395">
        <ele>22.25</ele>
        <time>2019-09-05T15:43:37Z</time>
      </trkpt>
      <trkpt lat="57.084947023540735" lon="-5.884836986660957">
        <ele>21.77</ele>
        <time>2019-09-05T15:43:38Z</time>
      </trkpt>
      <trkpt lat="57.084817020222545" lon="-5.885052988305688">
        <ele>21.289999999999999</ele>
        <time>2019-09-05T15:43:39Z</time>
      </trkpt>
      <trkpt lat="57.084682993590832" lon="-5.885260021314025">
        <ele>21.289999999999999</ele>
        <time>2019-09-05T15:43:40Z</time>
      </trkpt>
      <trkpt lat="57.084533041343093" lon="-5.885427994653583">
        <ele>20.809999999999999</ele>
        <time>2019-09-05T15:43:41Z</time>
      </trkpt>
      <trkpt lat="57.083381032571197" lon="-5.886716963723302">
        <ele>20.32</ele>
        <time>2019-09-05T15:43:49Z</time>
      </trkpt>
      <trkpt lat="57.082149982452393" lon="-5.888065025210381">
        <ele>15.039999999999999</ele>
        <time>2019-09-05T15:43:57Z</time>
      </trkpt>
      <trkpt lat="57.081840019673109" lon="-5.888399966061115">
        <ele>13.6</ele>
        <time>2019-09-05T15:43:59Z</time>
      </trkpt>
      <trkpt lat="57.081679003313184" lon="-5.888507002964616">
        <ele>13.119999999999999</ele>
        <time>2019-09-05T15:44:00Z</time>
      </trkpt>
      <trkpt lat="57.081513041630387" lon="-5.888522006571293">
        <ele>12.630000000000001</ele>
        <time>2019-09-05T15:44:01Z</time>
      </trkpt>
      <trkpt lat="57.081344984471798" lon="-5.888522006571293">
        <ele>12.15</ele>
        <time>2019-09-05T15:44:02Z</time>
      </trkpt>
      <trkpt lat="57.081184973940253" lon="-5.888459980487824">
        <ele>11.19</ele>
        <time>2019-09-05T15:44:03Z</time>
      </trkpt>
      <trkpt lat="57.081022029742599" lon="-5.888343974947929">
        <ele>10.710000000000001</ele>
        <time>2019-09-05T15:44:04Z</time>
      </trkpt>
      <trkpt lat="57.08085598424077" lon="-5.888226041570306">
        <ele>10.23</ele>
        <time>2019-09-05T15:44:05Z</time>
      </trkpt>
      <trkpt lat="57.080049980431795" lon="-5.887549035251141">
        <ele>9.75</ele>
        <time>2019-09-05T15:44:10Z</time>
      </trkpt>
      <trkpt lat="57.079887958243489" lon="-5.887469993904233">
        <ele>9.75</ele>
        <time>2019-09-05T15:44:11Z</time>
      </trkpt>
      <trkpt lat="57.07971503958106" lon="-5.887430012226105">
        <ele>10.23</ele>
        <time>2019-09-05T15:44:12Z</time>
      </trkpt>
      <trkpt lat="57.078456999734044" lon="-5.887001026421785">
        <ele>11.19</ele>
        <time>2019-09-05T15:44:19Z</time>
      </trkpt>
      <trkpt lat="57.078137984499335" lon="-5.886845961213112">
        <ele>11.19</ele>
        <time>2019-09-05T15:44:21Z</time>
      </trkpt>
      <trkpt lat="57.077975040301681" lon="-5.886832969263196">
        <ele>11.19</ele>
        <time>2019-09-05T15:44:22Z</time>
      </trkpt>
      <trkpt lat="57.077803965657949" lon="-5.886872028931975">
        <ele>11.19</ele>
        <time>2019-09-05T15:44:23Z</time>
      </trkpt>
      <trkpt lat="57.07763297483325" lon="-5.886951992288232">
        <ele>11.67</ele>
        <time>2019-09-05T15:44:24Z</time>
      </trkpt>
      <trkpt lat="57.077462989836931" lon="-5.887047965079546">
        <ele>11.67</ele>
        <time>2019-09-05T15:44:25Z</time>
      </trkpt>
      <trkpt lat="57.075807983055711" lon="-5.888197962194681">
        <ele>11.67</ele>
        <time>2019-09-05T15:44:35Z</time>
      </trkpt>
      <trkpt lat="57.075493996962905" lon="-5.888413963839412">
        <ele>12.15</ele>
        <time>2019-09-05T15:44:37Z</time>
      </trkpt>
      <trkpt lat="57.075347984209657" lon="-5.888550002127886">
        <ele>12.15</ele>
        <time>2019-09-05T15:44:38Z</time>
      </trkpt>
      <trkpt lat="57.07520398311317" lon="-5.888704983517528">
        <ele>12.15</ele>
        <time>2019-09-05T15:44:39Z</time>
      </trkpt>
      <trkpt lat="57.075064005330205" lon="-5.888886032626033">
        <ele>12.15</ele>
        <time>2019-09-05T15:44:40Z</time>
      </trkpt>
      <trkpt lat="57.07492302171886" lon="-5.889068003743887">
        <ele>11.67</ele>
        <time>2019-09-05T15:44:41Z</time>
      </trkpt>
      <trkpt lat="57.074781032279134" lon="-5.889250980690122">
        <ele>11.67</ele>
        <time>2019-09-05T15:44:42Z</time>
      </trkpt>
      <trkpt lat="57.074621021747589" lon="-5.889367992058396">
        <ele>12.15</ele>
        <time>2019-09-05T15:44:43Z</time>
      </trkpt>
      <trkpt lat="57.074455982074142" lon="-5.889464970678091">
        <ele>12.15</ele>
        <time>2019-09-05T15:44:44Z</time>
      </trkpt>
      <trkpt lat="57.073194002732635" lon="-5.890286983922124">
        <ele>11.19</ele>
        <time>2019-09-05T15:44:52Z</time>
      </trkpt>
      <trkpt lat="57.07271103747189" lon="-5.890691997483373">
        <ele>10.710000000000001</ele>
        <time>2019-09-05T15:44:56Z</time>
      </trkpt>
      <trkpt lat="57.072602994740009" lon="-5.890833986923099">
        <ele>10.710000000000001</ele>
        <time>2019-09-05T15:44:57Z</time>
      </trkpt>
      <trkpt lat="57.072509033605456" lon="-5.891010006889701">
        <ele>10.710000000000001</ele>
        <time>2019-09-05T15:44:58Z</time>
      </trkpt>
      <trkpt lat="57.072425968945026" lon="-5.891228020191193">
        <ele>10.710000000000001</ele>
        <time>2019-09-05T15:44:59Z</time>
      </trkpt>
      <trkpt lat="57.072351034730673" lon="-5.891470005735755">
        <ele>10.710000000000001</ele>
        <time>2019-09-05T15:45:00Z</time>
      </trkpt>
      <trkpt lat="57.072272999212146" lon="-5.891722971573472">
        <ele>10.23</ele>
        <time>2019-09-05T15:45:01Z</time>
      </trkpt>
      <trkpt lat="57.072124974802136" lon="-5.892267962917686">
        <ele>10.710000000000001</ele>
        <time>2019-09-05T15:45:03Z</time>
      </trkpt>
      <trkpt lat="57.072055991739035" lon="-5.892554959282279">
        <ele>10.710000000000001</ele>
        <time>2019-09-05T15:45:04Z</time>
      </trkpt>
      <trkpt lat="57.071921965107322" lon="-5.893116965889931">
        <ele>10.710000000000001</ele>
        <time>2019-09-05T15:45:06Z</time>
      </trkpt>
      <trkpt lat="57.071858011186123" lon="-5.893386024981737">
        <ele>10.710000000000001</ele>
        <time>2019-09-05T15:45:07Z</time>
      </trkpt>
      <trkpt lat="57.071746028959751" lon="-5.893591968342662">
        <ele>11.19</ele>
        <time>2019-09-05T15:45:08Z</time>
      </trkpt>
      <trkpt lat="57.071635974571109" lon="-5.893778968602419">
        <ele>11.19</ele>
        <time>2019-09-05T15:45:09Z</time>
      </trkpt>
      <trkpt lat="57.071473030373454" lon="-5.893892040476203">
        <ele>11.19</ele>
        <time>2019-09-05T15:45:10Z</time>
      </trkpt>
      <trkpt lat="57.0713169593364" lon="-5.89399597607553">
        <ele>11.19</ele>
        <time>2019-09-05T15:45:11Z</time>
      </trkpt>
      <trkpt lat="57.071153009310365" lon="-5.894093038514257">
        <ele>11.67</ele>
        <time>2019-09-05T15:45:12Z</time>
      </trkpt>
      <trkpt lat="57.070670966058969" lon="-5.894480030983686">
        <ele>11.67</ele>
        <time>2019-09-05T15:45:15Z</time>
      </trkpt>
      <trkpt lat="57.070522019639611" lon="-5.894640041515231">
        <ele>11.67</ele>
        <time>2019-09-05T15:45:16Z</time>
      </trkpt>
      <trkpt lat="57.070377012714744" lon="-5.894796028733254">
        <ele>11.67</ele>
        <time>2019-09-05T15:45:17Z</time>
      </trkpt>
      <trkpt lat="57.070126980543137" lon="-5.895185032859445">
        <ele>12.15</ele>
        <time>2019-09-05T15:45:19Z</time>
      </trkpt>
      <trkpt lat="57.069256016984582" lon="-5.896967025473714">
        <ele>16.48</ele>
        <time>2019-09-05T15:45:28Z</time>
      </trkpt>
      <trkpt lat="57.069073040038347" lon="-5.897338008508086">
        <ele>16.960000000000001</ele>
        <time>2019-09-05T15:45:30Z</time>
      </trkpt>
      <trkpt lat="57.068947982043028" lon="-5.897440016269684">
        <ele>17.440000000000001</ele>
        <time>2019-09-05T15:45:31Z</time>
      </trkpt>
      <trkpt lat="57.068818984553218" lon="-5.897530037909746">
        <ele>17.440000000000001</ele>
        <time>2019-09-05T15:45:32Z</time>
      </trkpt>
      <trkpt lat="57.068685041740537" lon="-5.897620981559157">
        <ele>17.440000000000001</ele>
        <time>2019-09-05T15:45:33Z</time>
      </trkpt>
      <trkpt lat="57.06854397431016" lon="-5.897718966007233">
        <ele>17.920000000000002</ele>
        <time>2019-09-05T15:45:34Z</time>
      </trkpt>
      <trkpt lat="57.068395027890801" lon="-5.89782097376883">
        <ele>18.399999999999999</ele>
        <time>2019-09-05T15:45:35Z</time>
      </trkpt>
      <trkpt lat="57.066931966692209" lon="-5.899142967537046">
        <ele>23.210000000000001</ele>
        <time>2019-09-05T15:45:45Z</time>
      </trkpt>
      <trkpt lat="57.065919013693929" lon="-5.900213001295924">
        <ele>22.73</ele>
        <time>2019-09-05T15:45:53Z</time>
      </trkpt>
      <trkpt lat="57.065455997362733" lon="-5.900648022070527">
        <ele>21.77</ele>
        <time>2019-09-05T15:46:00Z</time>
      </trkpt>
      <trkpt lat="57.065397994592786" lon="-5.900703007355332">
        <ele>21.77</ele>
        <time>2019-09-05T15:46:01Z</time>
      </trkpt>
      <trkpt lat="57.065338985994458" lon="-5.900756986811757">
        <ele>21.77</ele>
        <time>2019-09-05T15:46:02Z</time>
      </trkpt>
      <trkpt lat="57.06527897156775" lon="-5.900813983753324">
        <ele>21.77</ele>
        <time>2019-09-05T15:46:03Z</time>
      </trkpt>
      <trkpt lat="57.064986024051905" lon="-5.901010036468506">
        <ele>21.77</ele>
        <time>2019-09-05T15:46:08Z</time>
      </trkpt>
      <trkpt lat="57.064944030717015" lon="-5.900996960699558">
        <ele>21.289999999999999</ele>
        <time>2019-09-05T15:46:09Z</time>
      </trkpt>
      <trkpt lat="57.0649120118469" lon="-5.900973994284868">
        <ele>21.289999999999999</ele>
        <time>2019-09-05T15:46:10Z</time>
      </trkpt>
      <trkpt lat="57.064889967441559" lon="-5.900957984849811">
        <ele>21.289999999999999</ele>
        <time>2019-09-05T15:46:11Z</time>
      </trkpt>
      <trkpt lat="57.064872030168772" lon="-5.900945998728275">
        <ele>21.289999999999999</ele>
        <time>2019-09-05T15:46:12Z</time>
      </trkpt>
      <trkpt lat="57.064851997420192" lon="-5.900930995121598">
        <ele>20.809999999999999</ele>
        <time>2019-09-05T15:46:13Z</time>
      </trkpt>
      <trkpt lat="57.064799023792148" lon="-5.900954967364669">
        <ele>20.809999999999999</ele>
        <time>2019-09-05T15:46:14Z</time>
      </trkpt>
      <trkpt lat="57.064784020185471" lon="-5.901008024811745">
        <ele>20.32</ele>
        <time>2019-09-05T15:46:15Z</time>
      </trkpt>
      <trkpt lat="57.06476298160851" lon="-5.901086982339621">
        <ele>20.32</ele>
        <time>2019-09-05T15:46:16Z</time>
      </trkpt>
      <trkpt lat="57.064730962738395" lon="-5.901202987879515">
        <ele>19.84</ele>
        <time>2019-09-05T15:46:17Z</time>
      </trkpt>
      <trkpt lat="57.064699027687311" lon="-5.901319999247789">
        <ele>18.879999999999999</ele>
        <time>2019-09-05T15:46:18Z</time>
      </trkpt>
      <trkpt lat="57.064620992168784" lon="-5.901432987302542">
        <ele>17.920000000000002</ele>
        <time>2019-09-05T15:46:19Z</time>
      </trkpt>
      <trkpt lat="57.064538011327386" lon="-5.901511022821069">
        <ele>16.48</ele>
        <time>2019-09-05T15:46:20Z</time>
      </trkpt>
      <trkpt lat="57.064440026879311" lon="-5.90160196647048">
        <ele>15.52</ele>
        <time>2019-09-05T15:46:21Z</time>
      </trkpt>
      <trkpt lat="57.064014980569482" lon="-5.902032963931561">
        <ele>11.67</ele>
        <time>2019-09-05T15:46:25Z</time>
      </trkpt>
      <trkpt lat="57.063930993899703" lon="-5.902175037190318">
        <ele>10.710000000000001</ele>
        <time>2019-09-05T15:46:26Z</time>
      </trkpt>
      <trkpt lat="57.06368699669838" lon="-5.902509978041053">
        <ele>7.83</ele>
        <time>2019-09-05T15:46:29Z</time>
      </trkpt>
      <trkpt lat="57.063588006421924" lon="-5.902592036873102">
        <ele>7.35</ele>
        <time>2019-09-05T15:46:30Z</time>
      </trkpt>
      <trkpt lat="57.062922986224294" lon="-5.903033008798957">
        <ele>3.5</ele>
        <time>2019-09-05T15:46:36Z</time>
      </trkpt>
      <trkpt lat="57.062851991504431" lon="-5.903080031275749">
        <ele>2.54</ele>
        <time>2019-09-05T15:46:37Z</time>
      </trkpt>
      <trkpt lat="57.062786025926471" lon="-5.9031240362674">
        <ele>1.58</ele>
        <time>2019-09-05T15:46:38Z</time>
      </trkpt>
      <trkpt lat="57.062716037034988" lon="-5.90316996909678">
        <ele>1.1</ele>
        <time>2019-09-05T15:46:39Z</time>
      </trkpt>
      <trkpt lat="57.06203400157392" lon="-5.903622005134821">
        <ele>-2.27</ele>
        <time>2019-09-05T15:46:48Z</time>
      </trkpt>
      <trkpt lat="57.061934005469084" lon="-5.903687970712781">
        <ele>-2.75</ele>
        <time>2019-09-05T15:46:49Z</time>
      </trkpt>
      <trkpt lat="57.061125990003347" lon="-5.904088038951159">
        <ele>-2.75</ele>
        <time>2019-09-05T15:46:57Z</time>
      </trkpt>
      <trkpt lat="57.060603965073824" lon="-5.904295993968844">
        <ele>-0.82</ele>
        <time>2019-09-05T15:47:03Z</time>
      </trkpt>
      <trkpt lat="57.060542022809386" lon="-5.904358020052314">
        <ele>-0.34</ele>
        <time>2019-09-05T15:47:04Z</time>
      </trkpt>
      <trkpt lat="57.060483014211059" lon="-5.904417028650641">
        <ele>0.62</ele>
        <time>2019-09-05T15:47:05Z</time>
      </trkpt>
      <trkpt lat="57.059945985674858" lon="-5.905335014685988">
        <ele>8.310000000000001</ele>
        <time>2019-09-05T15:47:16Z</time>
      </trkpt>
      <trkpt lat="57.059663012623787" lon="-5.905838012695313">
        <ele>11.67</ele>
        <time>2019-09-05T15:47:25Z</time>
      </trkpt>
      <trkpt lat="57.059657983481884" lon="-5.905847987160087">
        <ele>11.67</ele>
        <time>2019-09-05T15:47:26Z</time>
      </trkpt>
      <trkpt lat="57.059642979875207" lon="-5.905877994373441">
        <ele>11.67</ele>
        <time>2019-09-05T15:47:27Z</time>
      </trkpt>
      <trkpt lat="57.059630993753672" lon="-5.905902972444892">
        <ele>11.67</ele>
        <time>2019-09-05T15:47:28Z</time>
      </trkpt>
      <trkpt lat="57.059795027598739" lon="-5.906098019331694">
        <ele>12.15</ele>
        <time>2019-09-05T15:47:36Z</time>
      </trkpt>
      <trkpt lat="57.059795027598739" lon="-5.906098019331694">
        <ele>12.15</ele>
        <time>2019-09-05T15:47:40Z</time>
      </trkpt>
      <trkpt lat="57.059901980683208" lon="-5.90593901462853">
        <ele>12.630000000000001</ele>
        <time>2019-09-05T15:47:55Z</time>
      </trkpt>
      <trkpt lat="57.059923019260168" lon="-5.905929962173104">
        <ele>13.119999999999999</ele>
        <time>2019-09-05T15:48:11Z</time>
      </trkpt>
      <trkpt lat="57.059923019260168" lon="-5.905929962173104">
        <ele>13.119999999999999</ele>
        <time>2019-09-05T15:48:36Z</time>
      </trkpt>
      <trkpt lat="57.059918995946646" lon="-5.905923005193472">
        <ele>13.119999999999999</ele>
        <time>2019-09-05T15:48:56Z</time>
      </trkpt>
      <trkpt lat="57.059894017875195" lon="-5.905904984101653">
        <ele>13.119999999999999</ele>
        <time>2019-09-05T15:49:17Z</time>
      </trkpt>
    </trkseg>
  </trk>

</gpx>